<?xml version="1.0" encoding="UTF-8" standalone="no" ?>
<gpx xmlns="http://www.topografix.com/GPX/1/1" xmlns:xsi="http://www.w3.org/2001/XMLSchema-instance" xsi:schemaLocation="http://www.topografix.com/GPX/1/1 http://www.topografix.com/GPX/1/1/gpx.xsd" version="1.1" creator="VisuGPX - https://www.visugpx.com">
  <metadata>
    <name>BOUCLE DE LA SAONE ET LOIRE</name>
  </metadata>
  <trk>
    <name><![CDATA[11459167-BOUCLE DE LA SAONE ET LOIRE]]></name>
    <trkseg>
      <trkpt lat="45.88519" lon="4.48808">
        <ele>419</ele>
        <time>2020-06-10T19:38:06Z</time>
      </trkpt>
      <trkpt lat="45.88542" lon="4.48855">
        <ele>421</ele>
        <time>2020-06-10T19:38:13Z</time>
      </trkpt>
      <trkpt lat="45.88545" lon="4.48879">
        <ele>420</ele>
        <time>2020-06-10T19:38:16Z</time>
      </trkpt>
      <trkpt lat="45.88547" lon="4.48935">
        <ele>420</ele>
        <time>2020-06-10T19:38:23Z</time>
      </trkpt>
      <trkpt lat="45.88552" lon="4.48935">
        <ele>420</ele>
        <time>2020-06-10T19:38:24Z</time>
      </trkpt>
      <trkpt lat="45.8856" lon="4.48977">
        <ele>421</ele>
        <time>2020-06-10T19:38:29Z</time>
      </trkpt>
      <trkpt lat="45.88556" lon="4.4899">
        <ele>420</ele>
        <time>2020-06-10T19:38:31Z</time>
      </trkpt>
      <trkpt lat="45.88527" lon="4.49053">
        <ele>419</ele>
        <time>2020-06-10T19:38:40Z</time>
      </trkpt>
      <trkpt lat="45.88468" lon="4.49143">
        <ele>418</ele>
        <time>2020-06-10T19:38:56Z</time>
      </trkpt>
      <trkpt lat="45.88457" lon="4.49169">
        <ele>417</ele>
        <time>2020-06-10T19:39:00Z</time>
      </trkpt>
      <trkpt lat="45.88448" lon="4.49212">
        <ele>416</ele>
        <time>2020-06-10T19:39:05Z</time>
      </trkpt>
      <trkpt lat="45.88442" lon="4.49241">
        <ele>415</ele>
        <time>2020-06-10T19:39:09Z</time>
      </trkpt>
      <trkpt lat="45.88418" lon="4.49284">
        <ele>413</ele>
        <time>2020-06-10T19:39:16Z</time>
      </trkpt>
      <trkpt lat="45.88409" lon="4.49328">
        <ele>411</ele>
        <time>2020-06-10T19:39:21Z</time>
      </trkpt>
      <trkpt lat="45.88376" lon="4.49374">
        <ele>408</ele>
        <time>2020-06-10T19:39:30Z</time>
      </trkpt>
      <trkpt lat="45.88242" lon="4.4963">
        <ele>397</ele>
        <time>2020-06-10T19:40:09Z</time>
      </trkpt>
      <trkpt lat="45.88226" lon="4.49672">
        <ele>396</ele>
        <time>2020-06-10T19:40:15Z</time>
      </trkpt>
      <trkpt lat="45.88193" lon="4.49784">
        <ele>395</ele>
        <time>2020-06-10T19:40:30Z</time>
      </trkpt>
      <trkpt lat="45.88161" lon="4.4991">
        <ele>390</ele>
        <time>2020-06-10T19:40:47Z</time>
      </trkpt>
      <trkpt lat="45.88097" lon="4.50032">
        <ele>384</ele>
        <time>2020-06-10T19:41:06Z</time>
      </trkpt>
      <trkpt lat="45.88047" lon="4.50111">
        <ele>378</ele>
        <time>2020-06-10T19:41:19Z</time>
      </trkpt>
      <trkpt lat="45.88032" lon="4.50146">
        <ele>376</ele>
        <time>2020-06-10T19:41:24Z</time>
      </trkpt>
      <trkpt lat="45.88026" lon="4.50177">
        <ele>374</ele>
        <time>2020-06-10T19:41:28Z</time>
      </trkpt>
      <trkpt lat="45.88037" lon="4.50246">
        <ele>368</ele>
        <time>2020-06-10T19:41:37Z</time>
      </trkpt>
      <trkpt lat="45.88029" lon="4.50281">
        <ele>366</ele>
        <time>2020-06-10T19:41:41Z</time>
      </trkpt>
      <trkpt lat="45.88019" lon="4.50301">
        <ele>366</ele>
        <time>2020-06-10T19:41:44Z</time>
      </trkpt>
      <trkpt lat="45.88005" lon="4.50313">
        <ele>366</ele>
        <time>2020-06-10T19:41:47Z</time>
      </trkpt>
      <trkpt lat="45.8799" lon="4.50333">
        <ele>365</ele>
        <time>2020-06-10T19:41:51Z</time>
      </trkpt>
      <trkpt lat="45.87972" lon="4.50385">
        <ele>363</ele>
        <time>2020-06-10T19:41:58Z</time>
      </trkpt>
      <trkpt lat="45.87953" lon="4.50405">
        <ele>362</ele>
        <time>2020-06-10T19:42:02Z</time>
      </trkpt>
      <trkpt lat="45.87942" lon="4.50417">
        <ele>362</ele>
        <time>2020-06-10T19:42:05Z</time>
      </trkpt>
      <trkpt lat="45.87926" lon="4.50462">
        <ele>360</ele>
        <time>2020-06-10T19:42:11Z</time>
      </trkpt>
      <trkpt lat="45.87907" lon="4.50572">
        <ele>356</ele>
        <time>2020-06-10T19:42:25Z</time>
      </trkpt>
      <trkpt lat="45.87901" lon="4.50597">
        <ele>356</ele>
        <time>2020-06-10T19:42:28Z</time>
      </trkpt>
      <trkpt lat="45.87866" lon="4.50668">
        <ele>355</ele>
        <time>2020-06-10T19:42:39Z</time>
      </trkpt>
      <trkpt lat="45.87844" lon="4.50698">
        <ele>353</ele>
        <time>2020-06-10T19:42:45Z</time>
      </trkpt>
      <trkpt lat="45.87827" lon="4.50713">
        <ele>353</ele>
        <time>2020-06-10T19:42:48Z</time>
      </trkpt>
      <trkpt lat="45.87801" lon="4.50718">
        <ele>353</ele>
        <time>2020-06-10T19:42:53Z</time>
      </trkpt>
      <trkpt lat="45.8778" lon="4.50714">
        <ele>352</ele>
        <time>2020-06-10T19:42:57Z</time>
      </trkpt>
      <trkpt lat="45.87791" lon="4.50798">
        <ele>349</ele>
        <time>2020-06-10T19:43:07Z</time>
      </trkpt>
      <trkpt lat="45.87796" lon="4.50852">
        <ele>346</ele>
        <time>2020-06-10T19:43:14Z</time>
      </trkpt>
      <trkpt lat="45.87802" lon="4.50905">
        <ele>344</ele>
        <time>2020-06-10T19:43:21Z</time>
      </trkpt>
      <trkpt lat="45.87812" lon="4.51003">
        <ele>338</ele>
        <time>2020-06-10T19:43:33Z</time>
      </trkpt>
      <trkpt lat="45.87819" lon="4.51066">
        <ele>337</ele>
        <time>2020-06-10T19:43:41Z</time>
      </trkpt>
      <trkpt lat="45.87824" lon="4.51125">
        <ele>335</ele>
        <time>2020-06-10T19:43:48Z</time>
      </trkpt>
      <trkpt lat="45.87825" lon="4.51157">
        <ele>334</ele>
        <time>2020-06-10T19:43:52Z</time>
      </trkpt>
      <trkpt lat="45.87821" lon="4.51215">
        <ele>334</ele>
        <time>2020-06-10T19:43:59Z</time>
      </trkpt>
      <trkpt lat="45.87824" lon="4.51236">
        <ele>334</ele>
        <time>2020-06-10T19:44:02Z</time>
      </trkpt>
      <trkpt lat="45.87826" lon="4.51239">
        <ele>334</ele>
        <time>2020-06-10T19:44:02Z</time>
      </trkpt>
      <trkpt lat="45.87831" lon="4.51247">
        <ele>334</ele>
        <time>2020-06-10T19:44:04Z</time>
      </trkpt>
      <trkpt lat="45.87845" lon="4.51257">
        <ele>335</ele>
        <time>2020-06-10T19:44:07Z</time>
      </trkpt>
      <trkpt lat="45.87853" lon="4.51268">
        <ele>335</ele>
        <time>2020-06-10T19:44:09Z</time>
      </trkpt>
      <trkpt lat="45.87857" lon="4.51283">
        <ele>336</ele>
        <time>2020-06-10T19:44:11Z</time>
      </trkpt>
      <trkpt lat="45.87856" lon="4.51295">
        <ele>337</ele>
        <time>2020-06-10T19:44:12Z</time>
      </trkpt>
      <trkpt lat="45.87852" lon="4.51307">
        <ele>337</ele>
        <time>2020-06-10T19:44:14Z</time>
      </trkpt>
      <trkpt lat="45.8784" lon="4.51322">
        <ele>337</ele>
        <time>2020-06-10T19:44:16Z</time>
      </trkpt>
      <trkpt lat="45.87829" lon="4.51331">
        <ele>337</ele>
        <time>2020-06-10T19:44:19Z</time>
      </trkpt>
      <trkpt lat="45.87827" lon="4.51332">
        <ele>337</ele>
        <time>2020-06-10T19:44:19Z</time>
      </trkpt>
      <trkpt lat="45.8782" lon="4.51321">
        <ele>336</ele>
        <time>2020-06-10T19:44:21Z</time>
      </trkpt>
      <trkpt lat="45.87805" lon="4.51314">
        <ele>335</ele>
        <time>2020-06-10T19:44:24Z</time>
      </trkpt>
      <trkpt lat="45.87804" lon="4.51313">
        <ele>335</ele>
        <time>2020-06-10T19:44:24Z</time>
      </trkpt>
      <trkpt lat="45.87795" lon="4.51321">
        <ele>334</ele>
        <time>2020-06-10T19:44:26Z</time>
      </trkpt>
      <trkpt lat="45.87791" lon="4.51335">
        <ele>335</ele>
        <time>2020-06-10T19:44:28Z</time>
      </trkpt>
      <trkpt lat="45.8775" lon="4.51452">
        <ele>336</ele>
        <time>2020-06-10T19:44:44Z</time>
      </trkpt>
      <trkpt lat="45.87746" lon="4.51475">
        <ele>336</ele>
        <time>2020-06-10T19:44:47Z</time>
      </trkpt>
      <trkpt lat="45.87741" lon="4.51515">
        <ele>335</ele>
        <time>2020-06-10T19:44:52Z</time>
      </trkpt>
      <trkpt lat="45.87741" lon="4.51651">
        <ele>329</ele>
        <time>2020-06-10T19:45:09Z</time>
      </trkpt>
      <trkpt lat="45.87741" lon="4.51713">
        <ele>329</ele>
        <time>2020-06-10T19:45:16Z</time>
      </trkpt>
      <trkpt lat="45.87742" lon="4.5179">
        <ele>328</ele>
        <time>2020-06-10T19:45:26Z</time>
      </trkpt>
      <trkpt lat="45.87745" lon="4.51832">
        <ele>327</ele>
        <time>2020-06-10T19:45:31Z</time>
      </trkpt>
      <trkpt lat="45.87745" lon="4.51841">
        <ele>327</ele>
        <time>2020-06-10T19:45:32Z</time>
      </trkpt>
      <trkpt lat="45.87743" lon="4.51867">
        <ele>326</ele>
        <time>2020-06-10T19:45:36Z</time>
      </trkpt>
      <trkpt lat="45.87741" lon="4.51896">
        <ele>325</ele>
        <time>2020-06-10T19:45:39Z</time>
      </trkpt>
      <trkpt lat="45.8774" lon="4.51912">
        <ele>325</ele>
        <time>2020-06-10T19:45:41Z</time>
      </trkpt>
      <trkpt lat="45.87734" lon="4.51913">
        <ele>325</ele>
        <time>2020-06-10T19:45:42Z</time>
      </trkpt>
      <trkpt lat="45.87724" lon="4.51923">
        <ele>324</ele>
        <time>2020-06-10T19:45:44Z</time>
      </trkpt>
      <trkpt lat="45.87721" lon="4.51931">
        <ele>323</ele>
        <time>2020-06-10T19:45:46Z</time>
      </trkpt>
      <trkpt lat="45.87719" lon="4.51938">
        <ele>323</ele>
        <time>2020-06-10T19:45:46Z</time>
      </trkpt>
      <trkpt lat="45.8772" lon="4.51954">
        <ele>323</ele>
        <time>2020-06-10T19:45:48Z</time>
      </trkpt>
      <trkpt lat="45.87723" lon="4.51961">
        <ele>322</ele>
        <time>2020-06-10T19:45:50Z</time>
      </trkpt>
      <trkpt lat="45.87726" lon="4.51967">
        <ele>322</ele>
        <time>2020-06-10T19:45:50Z</time>
      </trkpt>
      <trkpt lat="45.87737" lon="4.51975">
        <ele>322</ele>
        <time>2020-06-10T19:45:53Z</time>
      </trkpt>
      <trkpt lat="45.87744" lon="4.51975">
        <ele>323</ele>
        <time>2020-06-10T19:45:54Z</time>
      </trkpt>
      <trkpt lat="45.87751" lon="4.51988">
        <ele>322</ele>
        <time>2020-06-10T19:45:56Z</time>
      </trkpt>
      <trkpt lat="45.87762" lon="4.5201">
        <ele>322</ele>
        <time>2020-06-10T19:45:59Z</time>
      </trkpt>
      <trkpt lat="45.87767" lon="4.52036">
        <ele>323</ele>
        <time>2020-06-10T19:46:03Z</time>
      </trkpt>
      <trkpt lat="45.87783" lon="4.52177">
        <ele>323</ele>
        <time>2020-06-10T19:46:20Z</time>
      </trkpt>
      <trkpt lat="45.87789" lon="4.52248">
        <ele>322</ele>
        <time>2020-06-10T19:46:29Z</time>
      </trkpt>
      <trkpt lat="45.87785" lon="4.52317">
        <ele>323</ele>
        <time>2020-06-10T19:46:38Z</time>
      </trkpt>
      <trkpt lat="45.87771" lon="4.52431">
        <ele>325</ele>
        <time>2020-06-10T19:46:52Z</time>
      </trkpt>
      <trkpt lat="45.87754" lon="4.52541">
        <ele>329</ele>
        <time>2020-06-10T19:47:06Z</time>
      </trkpt>
      <trkpt lat="45.87749" lon="4.52584">
        <ele>330</ele>
        <time>2020-06-10T19:47:11Z</time>
      </trkpt>
      <trkpt lat="45.87747" lon="4.52609">
        <ele>331</ele>
        <time>2020-06-10T19:47:15Z</time>
      </trkpt>
      <trkpt lat="45.87746" lon="4.52694">
        <ele>332</ele>
        <time>2020-06-10T19:47:25Z</time>
      </trkpt>
      <trkpt lat="45.87747" lon="4.52799">
        <ele>332</ele>
        <time>2020-06-10T19:47:38Z</time>
      </trkpt>
      <trkpt lat="45.8775" lon="4.53022">
        <ele>332</ele>
        <time>2020-06-10T19:48:06Z</time>
      </trkpt>
      <trkpt lat="45.87747" lon="4.53068">
        <ele>330</ele>
        <time>2020-06-10T19:48:11Z</time>
      </trkpt>
      <trkpt lat="45.87742" lon="4.53114">
        <ele>330</ele>
        <time>2020-06-10T19:48:17Z</time>
      </trkpt>
      <trkpt lat="45.8773" lon="4.53189">
        <ele>328</ele>
        <time>2020-06-10T19:48:27Z</time>
      </trkpt>
      <trkpt lat="45.87725" lon="4.53242">
        <ele>328</ele>
        <time>2020-06-10T19:48:33Z</time>
      </trkpt>
      <trkpt lat="45.87724" lon="4.53285">
        <ele>327</ele>
        <time>2020-06-10T19:48:39Z</time>
      </trkpt>
      <trkpt lat="45.87726" lon="4.53339">
        <ele>328</ele>
        <time>2020-06-10T19:48:45Z</time>
      </trkpt>
      <trkpt lat="45.87729" lon="4.53428">
        <ele>329</ele>
        <time>2020-06-10T19:48:56Z</time>
      </trkpt>
      <trkpt lat="45.87726" lon="4.53496">
        <ele>328</ele>
        <time>2020-06-10T19:49:05Z</time>
      </trkpt>
      <trkpt lat="45.87721" lon="4.535">
        <ele>328</ele>
        <time>2020-06-10T19:49:06Z</time>
      </trkpt>
      <trkpt lat="45.87715" lon="4.53509">
        <ele>328</ele>
        <time>2020-06-10T19:49:07Z</time>
      </trkpt>
      <trkpt lat="45.87713" lon="4.53518">
        <ele>328</ele>
        <time>2020-06-10T19:49:09Z</time>
      </trkpt>
      <trkpt lat="45.87714" lon="4.5353">
        <ele>328</ele>
        <time>2020-06-10T19:49:10Z</time>
      </trkpt>
      <trkpt lat="45.87716" lon="4.53535">
        <ele>328</ele>
        <time>2020-06-10T19:49:11Z</time>
      </trkpt>
      <trkpt lat="45.87717" lon="4.53539">
        <ele>328</ele>
        <time>2020-06-10T19:49:11Z</time>
      </trkpt>
      <trkpt lat="45.87723" lon="4.53547">
        <ele>328</ele>
        <time>2020-06-10T19:49:13Z</time>
      </trkpt>
      <trkpt lat="45.8773" lon="4.53549">
        <ele>328</ele>
        <time>2020-06-10T19:49:14Z</time>
      </trkpt>
      <trkpt lat="45.8774" lon="4.53565">
        <ele>329</ele>
        <time>2020-06-10T19:49:17Z</time>
      </trkpt>
      <trkpt lat="45.87749" lon="4.5358">
        <ele>329</ele>
        <time>2020-06-10T19:49:19Z</time>
      </trkpt>
      <trkpt lat="45.87769" lon="4.53622">
        <ele>328</ele>
        <time>2020-06-10T19:49:25Z</time>
      </trkpt>
      <trkpt lat="45.87826" lon="4.53757">
        <ele>326</ele>
        <time>2020-06-10T19:49:45Z</time>
      </trkpt>
      <trkpt lat="45.87834" lon="4.53779">
        <ele>326</ele>
        <time>2020-06-10T19:49:48Z</time>
      </trkpt>
      <trkpt lat="45.87838" lon="4.53799">
        <ele>326</ele>
        <time>2020-06-10T19:49:51Z</time>
      </trkpt>
      <trkpt lat="45.87841" lon="4.53825">
        <ele>326</ele>
        <time>2020-06-10T19:49:54Z</time>
      </trkpt>
      <trkpt lat="45.8784" lon="4.53861">
        <ele>327</ele>
        <time>2020-06-10T19:49:58Z</time>
      </trkpt>
      <trkpt lat="45.87814" lon="4.5397">
        <ele>330</ele>
        <time>2020-06-10T19:50:13Z</time>
      </trkpt>
      <trkpt lat="45.878" lon="4.54041">
        <ele>332</ele>
        <time>2020-06-10T19:50:22Z</time>
      </trkpt>
      <trkpt lat="45.87791" lon="4.54097">
        <ele>334</ele>
        <time>2020-06-10T19:50:29Z</time>
      </trkpt>
      <trkpt lat="45.87783" lon="4.54162">
        <ele>338</ele>
        <time>2020-06-10T19:50:37Z</time>
      </trkpt>
      <trkpt lat="45.87783" lon="4.54185">
        <ele>339</ele>
        <time>2020-06-10T19:50:40Z</time>
      </trkpt>
      <trkpt lat="45.87784" lon="4.542">
        <ele>339</ele>
        <time>2020-06-10T19:50:42Z</time>
      </trkpt>
      <trkpt lat="45.87784" lon="4.54221">
        <ele>339</ele>
        <time>2020-06-10T19:50:44Z</time>
      </trkpt>
      <trkpt lat="45.87791" lon="4.54265">
        <ele>341</ele>
        <time>2020-06-10T19:50:50Z</time>
      </trkpt>
      <trkpt lat="45.87819" lon="4.54402">
        <ele>343</ele>
        <time>2020-06-10T19:51:08Z</time>
      </trkpt>
      <trkpt lat="45.87829" lon="4.54468">
        <ele>344</ele>
        <time>2020-06-10T19:51:16Z</time>
      </trkpt>
      <trkpt lat="45.87831" lon="4.54482">
        <ele>345</ele>
        <time>2020-06-10T19:51:18Z</time>
      </trkpt>
      <trkpt lat="45.8784" lon="4.54536">
        <ele>346</ele>
        <time>2020-06-10T19:51:25Z</time>
      </trkpt>
      <trkpt lat="45.87845" lon="4.54575">
        <ele>346</ele>
        <time>2020-06-10T19:51:30Z</time>
      </trkpt>
      <trkpt lat="45.87851" lon="4.54635">
        <ele>348</ele>
        <time>2020-06-10T19:51:37Z</time>
      </trkpt>
      <trkpt lat="45.87866" lon="4.54818">
        <ele>347</ele>
        <time>2020-06-10T19:52:00Z</time>
      </trkpt>
      <trkpt lat="45.87867" lon="4.54915">
        <ele>348</ele>
        <time>2020-06-10T19:52:12Z</time>
      </trkpt>
      <trkpt lat="45.87868" lon="4.55042">
        <ele>353</ele>
        <time>2020-06-10T19:52:28Z</time>
      </trkpt>
      <trkpt lat="45.8787" lon="4.55154">
        <ele>357</ele>
        <time>2020-06-10T19:52:42Z</time>
      </trkpt>
      <trkpt lat="45.87866" lon="4.55228">
        <ele>357</ele>
        <time>2020-06-10T19:52:51Z</time>
      </trkpt>
      <trkpt lat="45.87872" lon="4.55364">
        <ele>356</ele>
        <time>2020-06-10T19:53:08Z</time>
      </trkpt>
      <trkpt lat="45.8789" lon="4.55578">
        <ele>355</ele>
        <time>2020-06-10T19:53:34Z</time>
      </trkpt>
      <trkpt lat="45.87894" lon="4.55612">
        <ele>356</ele>
        <time>2020-06-10T19:53:39Z</time>
      </trkpt>
      <trkpt lat="45.87892" lon="4.55718">
        <ele>358</ele>
        <time>2020-06-10T19:53:52Z</time>
      </trkpt>
      <trkpt lat="45.87891" lon="4.55779">
        <ele>359</ele>
        <time>2020-06-10T19:53:59Z</time>
      </trkpt>
      <trkpt lat="45.87891" lon="4.55787">
        <ele>359</ele>
        <time>2020-06-10T19:54:00Z</time>
      </trkpt>
      <trkpt lat="45.87907" lon="4.55893">
        <ele>362</ele>
        <time>2020-06-10T19:54:14Z</time>
      </trkpt>
      <trkpt lat="45.87912" lon="4.55912">
        <ele>363</ele>
        <time>2020-06-10T19:54:16Z</time>
      </trkpt>
      <trkpt lat="45.87956" lon="4.55971">
        <ele>365</ele>
        <time>2020-06-10T19:54:27Z</time>
      </trkpt>
      <trkpt lat="45.87964" lon="4.55981">
        <ele>366</ele>
        <time>2020-06-10T19:54:29Z</time>
      </trkpt>
      <trkpt lat="45.87969" lon="4.55978">
        <ele>365</ele>
        <time>2020-06-10T19:54:30Z</time>
      </trkpt>
      <trkpt lat="45.87984" lon="4.55972">
        <ele>364</ele>
        <time>2020-06-10T19:54:33Z</time>
      </trkpt>
      <trkpt lat="45.87996" lon="4.55969">
        <ele>364</ele>
        <time>2020-06-10T19:54:35Z</time>
      </trkpt>
      <trkpt lat="45.88015" lon="4.55971">
        <ele>363</ele>
        <time>2020-06-10T19:54:38Z</time>
      </trkpt>
      <trkpt lat="45.88059" lon="4.55968">
        <ele>360</ele>
        <time>2020-06-10T19:54:46Z</time>
      </trkpt>
      <trkpt lat="45.88116" lon="4.55964">
        <ele>356</ele>
        <time>2020-06-10T19:54:56Z</time>
      </trkpt>
      <trkpt lat="45.88149" lon="4.55967">
        <ele>353</ele>
        <time>2020-06-10T19:55:02Z</time>
      </trkpt>
      <trkpt lat="45.88183" lon="4.55972">
        <ele>352</ele>
        <time>2020-06-10T19:55:08Z</time>
      </trkpt>
      <trkpt lat="45.88211" lon="4.55975">
        <ele>351</ele>
        <time>2020-06-10T19:55:13Z</time>
      </trkpt>
      <trkpt lat="45.88238" lon="4.55971">
        <ele>350</ele>
        <time>2020-06-10T19:55:18Z</time>
      </trkpt>
      <trkpt lat="45.88251" lon="4.55967">
        <ele>349</ele>
        <time>2020-06-10T19:55:20Z</time>
      </trkpt>
      <trkpt lat="45.8826" lon="4.55963">
        <ele>349</ele>
        <time>2020-06-10T19:55:22Z</time>
      </trkpt>
      <trkpt lat="45.88273" lon="4.55956">
        <ele>348</ele>
        <time>2020-06-10T19:55:24Z</time>
      </trkpt>
      <trkpt lat="45.8829" lon="4.55942">
        <ele>347</ele>
        <time>2020-06-10T19:55:28Z</time>
      </trkpt>
      <trkpt lat="45.88383" lon="4.55856">
        <ele>338</ele>
        <time>2020-06-10T19:55:48Z</time>
      </trkpt>
      <trkpt lat="45.88412" lon="4.55833">
        <ele>336</ele>
        <time>2020-06-10T19:55:54Z</time>
      </trkpt>
      <trkpt lat="45.88465" lon="4.55826">
        <ele>334</ele>
        <time>2020-06-10T19:56:03Z</time>
      </trkpt>
      <trkpt lat="45.88479" lon="4.55827">
        <ele>333</ele>
        <time>2020-06-10T19:56:05Z</time>
      </trkpt>
      <trkpt lat="45.88493" lon="4.55831">
        <ele>333</ele>
        <time>2020-06-10T19:56:08Z</time>
      </trkpt>
      <trkpt lat="45.88517" lon="4.55846">
        <ele>332</ele>
        <time>2020-06-10T19:56:13Z</time>
      </trkpt>
      <trkpt lat="45.886" lon="4.55908">
        <ele>327</ele>
        <time>2020-06-10T19:56:29Z</time>
      </trkpt>
      <trkpt lat="45.88662" lon="4.55964">
        <ele>324</ele>
        <time>2020-06-10T19:56:42Z</time>
      </trkpt>
      <trkpt lat="45.88694" lon="4.56005">
        <ele>322</ele>
        <time>2020-06-10T19:56:50Z</time>
      </trkpt>
      <trkpt lat="45.88716" lon="4.56045">
        <ele>321</ele>
        <time>2020-06-10T19:56:56Z</time>
      </trkpt>
      <trkpt lat="45.88749" lon="4.56112">
        <ele>317</ele>
        <time>2020-06-10T19:57:06Z</time>
      </trkpt>
      <trkpt lat="45.88758" lon="4.56135">
        <ele>316</ele>
        <time>2020-06-10T19:57:10Z</time>
      </trkpt>
      <trkpt lat="45.88772" lon="4.56163">
        <ele>314</ele>
        <time>2020-06-10T19:57:14Z</time>
      </trkpt>
      <trkpt lat="45.88806" lon="4.56219">
        <ele>312</ele>
        <time>2020-06-10T19:57:23Z</time>
      </trkpt>
      <trkpt lat="45.88825" lon="4.5626">
        <ele>312</ele>
        <time>2020-06-10T19:57:29Z</time>
      </trkpt>
      <trkpt lat="45.88838" lon="4.56328">
        <ele>312</ele>
        <time>2020-06-10T19:57:38Z</time>
      </trkpt>
      <trkpt lat="45.88845" lon="4.5638">
        <ele>311</ele>
        <time>2020-06-10T19:57:45Z</time>
      </trkpt>
      <trkpt lat="45.8885" lon="4.564">
        <ele>310</ele>
        <time>2020-06-10T19:57:47Z</time>
      </trkpt>
      <trkpt lat="45.88859" lon="4.56415">
        <ele>309</ele>
        <time>2020-06-10T19:57:50Z</time>
      </trkpt>
      <trkpt lat="45.88874" lon="4.56437">
        <ele>308</ele>
        <time>2020-06-10T19:57:54Z</time>
      </trkpt>
      <trkpt lat="45.88896" lon="4.56443">
        <ele>306</ele>
        <time>2020-06-10T19:57:57Z</time>
      </trkpt>
      <trkpt lat="45.88911" lon="4.56442">
        <ele>305</ele>
        <time>2020-06-10T19:58:00Z</time>
      </trkpt>
      <trkpt lat="45.88923" lon="4.56439">
        <ele>304</ele>
        <time>2020-06-10T19:58:02Z</time>
      </trkpt>
      <trkpt lat="45.88963" lon="4.56425">
        <ele>299</ele>
        <time>2020-06-10T19:58:10Z</time>
      </trkpt>
      <trkpt lat="45.88987" lon="4.56429">
        <ele>297</ele>
        <time>2020-06-10T19:58:14Z</time>
      </trkpt>
      <trkpt lat="45.89002" lon="4.56438">
        <ele>295</ele>
        <time>2020-06-10T19:58:17Z</time>
      </trkpt>
      <trkpt lat="45.89024" lon="4.56471">
        <ele>295</ele>
        <time>2020-06-10T19:58:23Z</time>
      </trkpt>
      <trkpt lat="45.89032" lon="4.56483">
        <ele>294</ele>
        <time>2020-06-10T19:58:25Z</time>
      </trkpt>
      <trkpt lat="45.89033" lon="4.56486">
        <ele>294</ele>
        <time>2020-06-10T19:58:25Z</time>
      </trkpt>
      <trkpt lat="45.89035" lon="4.56612">
        <ele>293</ele>
        <time>2020-06-10T19:58:41Z</time>
      </trkpt>
      <trkpt lat="45.8904" lon="4.5666">
        <ele>292</ele>
        <time>2020-06-10T19:58:47Z</time>
      </trkpt>
      <trkpt lat="45.89059" lon="4.56734">
        <ele>294</ele>
        <time>2020-06-10T19:58:56Z</time>
      </trkpt>
      <trkpt lat="45.89065" lon="4.56759">
        <ele>295</ele>
        <time>2020-06-10T19:59:00Z</time>
      </trkpt>
      <trkpt lat="45.89065" lon="4.56772">
        <ele>295</ele>
        <time>2020-06-10T19:59:01Z</time>
      </trkpt>
      <trkpt lat="45.89066" lon="4.56792">
        <ele>296</ele>
        <time>2020-06-10T19:59:04Z</time>
      </trkpt>
      <trkpt lat="45.89038" lon="4.57118">
        <ele>290</ele>
        <time>2020-06-10T19:59:44Z</time>
      </trkpt>
      <trkpt lat="45.89029" lon="4.57168">
        <ele>289</ele>
        <time>2020-06-10T19:59:51Z</time>
      </trkpt>
      <trkpt lat="45.89023" lon="4.57192">
        <ele>289</ele>
        <time>2020-06-10T19:59:54Z</time>
      </trkpt>
      <trkpt lat="45.89021" lon="4.57216">
        <ele>289</ele>
        <time>2020-06-10T19:59:57Z</time>
      </trkpt>
      <trkpt lat="45.89033" lon="4.57268">
        <ele>288</ele>
        <time>2020-06-10T20:00:04Z</time>
      </trkpt>
      <trkpt lat="45.89033" lon="4.57287">
        <ele>287</ele>
        <time>2020-06-10T20:00:06Z</time>
      </trkpt>
      <trkpt lat="45.89021" lon="4.57347">
        <ele>285</ele>
        <time>2020-06-10T20:00:14Z</time>
      </trkpt>
      <trkpt lat="45.89014" lon="4.57389">
        <ele>283</ele>
        <time>2020-06-10T20:00:19Z</time>
      </trkpt>
      <trkpt lat="45.89014" lon="4.57439">
        <ele>281</ele>
        <time>2020-06-10T20:00:25Z</time>
      </trkpt>
      <trkpt lat="45.89017" lon="4.57508">
        <ele>278</ele>
        <time>2020-06-10T20:00:34Z</time>
      </trkpt>
      <trkpt lat="45.8902" lon="4.57558">
        <ele>278</ele>
        <time>2020-06-10T20:00:40Z</time>
      </trkpt>
      <trkpt lat="45.89026" lon="4.57613">
        <ele>280</ele>
        <time>2020-06-10T20:00:47Z</time>
      </trkpt>
      <trkpt lat="45.89049" lon="4.57722">
        <ele>282</ele>
        <time>2020-06-10T20:01:01Z</time>
      </trkpt>
      <trkpt lat="45.89066" lon="4.57763">
        <ele>281</ele>
        <time>2020-06-10T20:01:07Z</time>
      </trkpt>
      <trkpt lat="45.89072" lon="4.57778">
        <ele>281</ele>
        <time>2020-06-10T20:01:09Z</time>
      </trkpt>
      <trkpt lat="45.89083" lon="4.57819">
        <ele>281</ele>
        <time>2020-06-10T20:01:15Z</time>
      </trkpt>
      <trkpt lat="45.89138" lon="4.57843">
        <ele>278</ele>
        <time>2020-06-10T20:01:25Z</time>
      </trkpt>
      <trkpt lat="45.89168" lon="4.57868">
        <ele>276</ele>
        <time>2020-06-10T20:01:31Z</time>
      </trkpt>
      <trkpt lat="45.89329" lon="4.58051">
        <ele>271</ele>
        <time>2020-06-10T20:02:08Z</time>
      </trkpt>
      <trkpt lat="45.89379" lon="4.58149">
        <ele>273</ele>
        <time>2020-06-10T20:02:23Z</time>
      </trkpt>
      <trkpt lat="45.89422" lon="4.58241">
        <ele>271</ele>
        <time>2020-06-10T20:02:36Z</time>
      </trkpt>
      <trkpt lat="45.89431" lon="4.58285">
        <ele>268</ele>
        <time>2020-06-10T20:02:42Z</time>
      </trkpt>
      <trkpt lat="45.89452" lon="4.58451">
        <ele>257</ele>
        <time>2020-06-10T20:03:03Z</time>
      </trkpt>
      <trkpt lat="45.89453" lon="4.58492">
        <ele>255</ele>
        <time>2020-06-10T20:03:08Z</time>
      </trkpt>
      <trkpt lat="45.8945" lon="4.58583">
        <ele>252</ele>
        <time>2020-06-10T20:03:19Z</time>
      </trkpt>
      <trkpt lat="45.89453" lon="4.58607">
        <ele>251</ele>
        <time>2020-06-10T20:03:22Z</time>
      </trkpt>
      <trkpt lat="45.89454" lon="4.58622">
        <ele>250</ele>
        <time>2020-06-10T20:03:24Z</time>
      </trkpt>
      <trkpt lat="45.8947" lon="4.58694">
        <ele>245</ele>
        <time>2020-06-10T20:03:34Z</time>
      </trkpt>
      <trkpt lat="45.89475" lon="4.58718">
        <ele>244</ele>
        <time>2020-06-10T20:03:37Z</time>
      </trkpt>
      <trkpt lat="45.8948" lon="4.58757">
        <ele>241</ele>
        <time>2020-06-10T20:03:42Z</time>
      </trkpt>
      <trkpt lat="45.89479" lon="4.58773">
        <ele>241</ele>
        <time>2020-06-10T20:03:44Z</time>
      </trkpt>
      <trkpt lat="45.89474" lon="4.58788">
        <ele>240</ele>
        <time>2020-06-10T20:03:46Z</time>
      </trkpt>
      <trkpt lat="45.89447" lon="4.58825">
        <ele>240</ele>
        <time>2020-06-10T20:03:52Z</time>
      </trkpt>
      <trkpt lat="45.89429" lon="4.58857">
        <ele>238</ele>
        <time>2020-06-10T20:03:57Z</time>
      </trkpt>
      <trkpt lat="45.89431" lon="4.5887">
        <ele>237</ele>
        <time>2020-06-10T20:03:59Z</time>
      </trkpt>
      <trkpt lat="45.8944" lon="4.58897">
        <ele>235</ele>
        <time>2020-06-10T20:04:03Z</time>
      </trkpt>
      <trkpt lat="45.89442" lon="4.58904">
        <ele>234</ele>
        <time>2020-06-10T20:04:04Z</time>
      </trkpt>
      <trkpt lat="45.89484" lon="4.59021">
        <ele>234</ele>
        <time>2020-06-10T20:04:20Z</time>
      </trkpt>
      <trkpt lat="45.89509" lon="4.59079">
        <ele>233</ele>
        <time>2020-06-10T20:04:28Z</time>
      </trkpt>
      <trkpt lat="45.89521" lon="4.59103">
        <ele>233</ele>
        <time>2020-06-10T20:04:32Z</time>
      </trkpt>
      <trkpt lat="45.8954" lon="4.59123">
        <ele>233</ele>
        <time>2020-06-10T20:04:36Z</time>
      </trkpt>
      <trkpt lat="45.89548" lon="4.59129">
        <ele>233</ele>
        <time>2020-06-10T20:04:38Z</time>
      </trkpt>
      <trkpt lat="45.89562" lon="4.59131">
        <ele>233</ele>
        <time>2020-06-10T20:04:40Z</time>
      </trkpt>
      <trkpt lat="45.8958" lon="4.5913">
        <ele>233</ele>
        <time>2020-06-10T20:04:44Z</time>
      </trkpt>
      <trkpt lat="45.89593" lon="4.59134">
        <ele>233</ele>
        <time>2020-06-10T20:04:46Z</time>
      </trkpt>
      <trkpt lat="45.89598" lon="4.59137">
        <ele>233</ele>
        <time>2020-06-10T20:04:47Z</time>
      </trkpt>
      <trkpt lat="45.89608" lon="4.59145">
        <ele>233</ele>
        <time>2020-06-10T20:04:49Z</time>
      </trkpt>
      <trkpt lat="45.8962" lon="4.59153">
        <ele>233</ele>
        <time>2020-06-10T20:04:51Z</time>
      </trkpt>
      <trkpt lat="45.89626" lon="4.59152">
        <ele>233</ele>
        <time>2020-06-10T20:04:52Z</time>
      </trkpt>
      <trkpt lat="45.89628" lon="4.59149">
        <ele>233</ele>
        <time>2020-06-10T20:04:53Z</time>
      </trkpt>
      <trkpt lat="45.89631" lon="4.59144">
        <ele>233</ele>
        <time>2020-06-10T20:04:54Z</time>
      </trkpt>
      <trkpt lat="45.89634" lon="4.59141">
        <ele>233</ele>
        <time>2020-06-10T20:04:54Z</time>
      </trkpt>
      <trkpt lat="45.8964" lon="4.59139">
        <ele>233</ele>
        <time>2020-06-10T20:04:55Z</time>
      </trkpt>
      <trkpt lat="45.89646" lon="4.59143">
        <ele>233</ele>
        <time>2020-06-10T20:04:57Z</time>
      </trkpt>
      <trkpt lat="45.89652" lon="4.59149">
        <ele>233</ele>
        <time>2020-06-10T20:04:58Z</time>
      </trkpt>
      <trkpt lat="45.89648" lon="4.5916">
        <ele>233</ele>
        <time>2020-06-10T20:04:59Z</time>
      </trkpt>
      <trkpt lat="45.89613" lon="4.59292">
        <ele>237</ele>
        <time>2020-06-10T20:05:17Z</time>
      </trkpt>
      <trkpt lat="45.89579" lon="4.59399">
        <ele>238</ele>
        <time>2020-06-10T20:05:31Z</time>
      </trkpt>
      <trkpt lat="45.89538" lon="4.5948">
        <ele>240</ele>
        <time>2020-06-10T20:05:44Z</time>
      </trkpt>
      <trkpt lat="45.89527" lon="4.59498">
        <ele>239</ele>
        <time>2020-06-10T20:05:47Z</time>
      </trkpt>
      <trkpt lat="45.89471" lon="4.59558">
        <ele>235</ele>
        <time>2020-06-10T20:05:59Z</time>
      </trkpt>
      <trkpt lat="45.89439" lon="4.596">
        <ele>235</ele>
        <time>2020-06-10T20:06:07Z</time>
      </trkpt>
      <trkpt lat="45.89417" lon="4.5963">
        <ele>233</ele>
        <time>2020-06-10T20:06:12Z</time>
      </trkpt>
      <trkpt lat="45.89291" lon="4.5982">
        <ele>238</ele>
        <time>2020-06-10T20:06:45Z</time>
      </trkpt>
      <trkpt lat="45.89241" lon="4.59888">
        <ele>238</ele>
        <time>2020-06-10T20:06:57Z</time>
      </trkpt>
      <trkpt lat="45.89168" lon="4.59982">
        <ele>237</ele>
        <time>2020-06-10T20:07:15Z</time>
      </trkpt>
      <trkpt lat="45.89139" lon="4.60028">
        <ele>239</ele>
        <time>2020-06-10T20:07:22Z</time>
      </trkpt>
      <trkpt lat="45.89118" lon="4.60078">
        <ele>240</ele>
        <time>2020-06-10T20:07:29Z</time>
      </trkpt>
      <trkpt lat="45.89104" lon="4.60126">
        <ele>241</ele>
        <time>2020-06-10T20:07:36Z</time>
      </trkpt>
      <trkpt lat="45.89097" lon="4.60159">
        <ele>241</ele>
        <time>2020-06-10T20:07:40Z</time>
      </trkpt>
      <trkpt lat="45.8907" lon="4.6035">
        <ele>243</ele>
        <time>2020-06-10T20:08:04Z</time>
      </trkpt>
      <trkpt lat="45.89045" lon="4.60495">
        <ele>242</ele>
        <time>2020-06-10T20:08:23Z</time>
      </trkpt>
      <trkpt lat="45.89026" lon="4.60569">
        <ele>240</ele>
        <time>2020-06-10T20:08:33Z</time>
      </trkpt>
      <trkpt lat="45.89001" lon="4.60651">
        <ele>239</ele>
        <time>2020-06-10T20:08:44Z</time>
      </trkpt>
      <trkpt lat="45.88986" lon="4.60694">
        <ele>238</ele>
        <time>2020-06-10T20:08:50Z</time>
      </trkpt>
      <trkpt lat="45.88906" lon="4.60903">
        <ele>229</ele>
        <time>2020-06-10T20:09:19Z</time>
      </trkpt>
      <trkpt lat="45.88891" lon="4.60961">
        <ele>229</ele>
        <time>2020-06-10T20:09:27Z</time>
      </trkpt>
      <trkpt lat="45.88883" lon="4.61021">
        <ele>229</ele>
        <time>2020-06-10T20:09:34Z</time>
      </trkpt>
      <trkpt lat="45.8888" lon="4.61087">
        <ele>229</ele>
        <time>2020-06-10T20:09:43Z</time>
      </trkpt>
      <trkpt lat="45.88879" lon="4.61193">
        <ele>227</ele>
        <time>2020-06-10T20:09:56Z</time>
      </trkpt>
      <trkpt lat="45.88876" lon="4.61278">
        <ele>226</ele>
        <time>2020-06-10T20:10:06Z</time>
      </trkpt>
      <trkpt lat="45.88873" lon="4.61304">
        <ele>226</ele>
        <time>2020-06-10T20:10:10Z</time>
      </trkpt>
      <trkpt lat="45.88882" lon="4.61309">
        <ele>227</ele>
        <time>2020-06-10T20:10:11Z</time>
      </trkpt>
      <trkpt lat="45.88897" lon="4.61326">
        <ele>228</ele>
        <time>2020-06-10T20:10:15Z</time>
      </trkpt>
      <trkpt lat="45.88903" lon="4.61342">
        <ele>228</ele>
        <time>2020-06-10T20:10:17Z</time>
      </trkpt>
      <trkpt lat="45.88902" lon="4.61369">
        <ele>228</ele>
        <time>2020-06-10T20:10:20Z</time>
      </trkpt>
      <trkpt lat="45.88886" lon="4.614">
        <ele>227</ele>
        <time>2020-06-10T20:10:25Z</time>
      </trkpt>
      <trkpt lat="45.88875" lon="4.61436">
        <ele>227</ele>
        <time>2020-06-10T20:10:30Z</time>
      </trkpt>
      <trkpt lat="45.88858" lon="4.61512">
        <ele>226</ele>
        <time>2020-06-10T20:10:40Z</time>
      </trkpt>
      <trkpt lat="45.88838" lon="4.61651">
        <ele>226</ele>
        <time>2020-06-10T20:10:57Z</time>
      </trkpt>
      <trkpt lat="45.88838" lon="4.61682">
        <ele>226</ele>
        <time>2020-06-10T20:11:01Z</time>
      </trkpt>
      <trkpt lat="45.88794" lon="4.61863">
        <ele>224</ele>
        <time>2020-06-10T20:11:25Z</time>
      </trkpt>
      <trkpt lat="45.88792" lon="4.61914">
        <ele>225</ele>
        <time>2020-06-10T20:11:31Z</time>
      </trkpt>
      <trkpt lat="45.88792" lon="4.61955">
        <ele>226</ele>
        <time>2020-06-10T20:11:36Z</time>
      </trkpt>
      <trkpt lat="45.88796" lon="4.61998">
        <ele>228</ele>
        <time>2020-06-10T20:11:42Z</time>
      </trkpt>
      <trkpt lat="45.88797" lon="4.6202">
        <ele>228</ele>
        <time>2020-06-10T20:11:44Z</time>
      </trkpt>
      <trkpt lat="45.88787" lon="4.62068">
        <ele>229</ele>
        <time>2020-06-10T20:11:51Z</time>
      </trkpt>
      <trkpt lat="45.88796" lon="4.62074">
        <ele>230</ele>
        <time>2020-06-10T20:11:52Z</time>
      </trkpt>
      <trkpt lat="45.889" lon="4.62123">
        <ele>233</ele>
        <time>2020-06-10T20:12:12Z</time>
      </trkpt>
      <trkpt lat="45.88955" lon="4.62133">
        <ele>239</ele>
        <time>2020-06-10T20:12:22Z</time>
      </trkpt>
      <trkpt lat="45.88969" lon="4.62128">
        <ele>241</ele>
        <time>2020-06-10T20:12:24Z</time>
      </trkpt>
      <trkpt lat="45.89103" lon="4.62062">
        <ele>249</ele>
        <time>2020-06-10T20:12:50Z</time>
      </trkpt>
      <trkpt lat="45.89164" lon="4.62052">
        <ele>253</ele>
        <time>2020-06-10T20:13:00Z</time>
      </trkpt>
      <trkpt lat="45.89335" lon="4.62086">
        <ele>265</ele>
        <time>2020-06-10T20:13:31Z</time>
      </trkpt>
      <trkpt lat="45.89489" lon="4.62164">
        <ele>281</ele>
        <time>2020-06-10T20:14:00Z</time>
      </trkpt>
      <trkpt lat="45.89599" lon="4.62106">
        <ele>282</ele>
        <time>2020-06-10T20:14:21Z</time>
      </trkpt>
      <trkpt lat="45.89623" lon="4.62108">
        <ele>285</ele>
        <time>2020-06-10T20:14:25Z</time>
      </trkpt>
      <trkpt lat="45.89642" lon="4.62118">
        <ele>289</ele>
        <time>2020-06-10T20:14:29Z</time>
      </trkpt>
      <trkpt lat="45.89659" lon="4.62145">
        <ele>293</ele>
        <time>2020-06-10T20:14:33Z</time>
      </trkpt>
      <trkpt lat="45.89678" lon="4.62201">
        <ele>297</ele>
        <time>2020-06-10T20:14:41Z</time>
      </trkpt>
      <trkpt lat="45.8971" lon="4.62366">
        <ele>304</ele>
        <time>2020-06-10T20:15:02Z</time>
      </trkpt>
      <trkpt lat="45.89725" lon="4.62419">
        <ele>305</ele>
        <time>2020-06-10T20:15:09Z</time>
      </trkpt>
      <trkpt lat="45.8974" lon="4.62446">
        <ele>306</ele>
        <time>2020-06-10T20:15:14Z</time>
      </trkpt>
      <trkpt lat="45.89766" lon="4.62472">
        <ele>306</ele>
        <time>2020-06-10T20:15:19Z</time>
      </trkpt>
      <trkpt lat="45.89875" lon="4.62546">
        <ele>307</ele>
        <time>2020-06-10T20:15:41Z</time>
      </trkpt>
      <trkpt lat="45.90051" lon="4.62664">
        <ele>311</ele>
        <time>2020-06-10T20:16:15Z</time>
      </trkpt>
      <trkpt lat="45.90068" lon="4.62674">
        <ele>311</ele>
        <time>2020-06-10T20:16:19Z</time>
      </trkpt>
      <trkpt lat="45.90079" lon="4.62676">
        <ele>311</ele>
        <time>2020-06-10T20:16:21Z</time>
      </trkpt>
      <trkpt lat="45.901" lon="4.62674">
        <ele>311</ele>
        <time>2020-06-10T20:16:24Z</time>
      </trkpt>
      <trkpt lat="45.90142" lon="4.62651">
        <ele>312</ele>
        <time>2020-06-10T20:16:32Z</time>
      </trkpt>
      <trkpt lat="45.90652" lon="4.62264">
        <ele>324</ele>
        <time>2020-06-10T20:18:15Z</time>
      </trkpt>
      <trkpt lat="45.90827" lon="4.62134">
        <ele>328</ele>
        <time>2020-06-10T20:18:50Z</time>
      </trkpt>
      <trkpt lat="45.90886" lon="4.62095">
        <ele>328</ele>
        <time>2020-06-10T20:19:02Z</time>
      </trkpt>
      <trkpt lat="45.90928" lon="4.62082">
        <ele>328</ele>
        <time>2020-06-10T20:19:09Z</time>
      </trkpt>
      <trkpt lat="45.91019" lon="4.62063">
        <ele>327</ele>
        <time>2020-06-10T20:19:26Z</time>
      </trkpt>
      <trkpt lat="45.91082" lon="4.62066">
        <ele>328</ele>
        <time>2020-06-10T20:19:37Z</time>
      </trkpt>
      <trkpt lat="45.91154" lon="4.62076">
        <ele>330</ele>
        <time>2020-06-10T20:19:50Z</time>
      </trkpt>
      <trkpt lat="45.9123" lon="4.62066">
        <ele>333</ele>
        <time>2020-06-10T20:20:03Z</time>
      </trkpt>
      <trkpt lat="45.91393" lon="4.62007">
        <ele>343</ele>
        <time>2020-06-10T20:20:33Z</time>
      </trkpt>
      <trkpt lat="45.91501" lon="4.62027">
        <ele>345</ele>
        <time>2020-06-10T20:20:53Z</time>
      </trkpt>
      <trkpt lat="45.91557" lon="4.62015">
        <ele>347</ele>
        <time>2020-06-10T20:21:03Z</time>
      </trkpt>
      <trkpt lat="45.91753" lon="4.61986">
        <ele>350</ele>
        <time>2020-06-10T20:21:38Z</time>
      </trkpt>
      <trkpt lat="45.91772" lon="4.61985">
        <ele>351</ele>
        <time>2020-06-10T20:21:41Z</time>
      </trkpt>
      <trkpt lat="45.91781" lon="4.61981">
        <ele>352</ele>
        <time>2020-06-10T20:21:43Z</time>
      </trkpt>
      <trkpt lat="45.91827" lon="4.62022">
        <ele>351</ele>
        <time>2020-06-10T20:21:52Z</time>
      </trkpt>
      <trkpt lat="45.91869" lon="4.62071">
        <ele>349</ele>
        <time>2020-06-10T20:22:02Z</time>
      </trkpt>
      <trkpt lat="45.91911" lon="4.62129">
        <ele>349</ele>
        <time>2020-06-10T20:22:12Z</time>
      </trkpt>
      <trkpt lat="45.91943" lon="4.62178">
        <ele>348</ele>
        <time>2020-06-10T20:22:21Z</time>
      </trkpt>
      <trkpt lat="45.91954" lon="4.62172">
        <ele>349</ele>
        <time>2020-06-10T20:22:23Z</time>
      </trkpt>
      <trkpt lat="45.92009" lon="4.6217">
        <ele>352</ele>
        <time>2020-06-10T20:22:33Z</time>
      </trkpt>
      <trkpt lat="45.92035" lon="4.62162">
        <ele>352</ele>
        <time>2020-06-10T20:22:37Z</time>
      </trkpt>
      <trkpt lat="45.92097" lon="4.62114">
        <ele>356</ele>
        <time>2020-06-10T20:22:50Z</time>
      </trkpt>
      <trkpt lat="45.92135" lon="4.62015">
        <ele>359</ele>
        <time>2020-06-10T20:23:04Z</time>
      </trkpt>
      <trkpt lat="45.92153" lon="4.61961">
        <ele>360</ele>
        <time>2020-06-10T20:23:11Z</time>
      </trkpt>
      <trkpt lat="45.92155" lon="4.61946">
        <ele>360</ele>
        <time>2020-06-10T20:23:13Z</time>
      </trkpt>
      <trkpt lat="45.92169" lon="4.61944">
        <ele>359</ele>
        <time>2020-06-10T20:23:16Z</time>
      </trkpt>
      <trkpt lat="45.92407" lon="4.61851">
        <ele>359</ele>
        <time>2020-06-10T20:24:00Z</time>
      </trkpt>
      <trkpt lat="45.92435" lon="4.61846">
        <ele>360</ele>
        <time>2020-06-10T20:24:05Z</time>
      </trkpt>
      <trkpt lat="45.9248" lon="4.61853">
        <ele>362</ele>
        <time>2020-06-10T20:24:13Z</time>
      </trkpt>
      <trkpt lat="45.92489" lon="4.61858">
        <ele>362</ele>
        <time>2020-06-10T20:24:14Z</time>
      </trkpt>
      <trkpt lat="45.92506" lon="4.6185">
        <ele>364</ele>
        <time>2020-06-10T20:24:17Z</time>
      </trkpt>
      <trkpt lat="45.92522" lon="4.61833">
        <ele>365</ele>
        <time>2020-06-10T20:24:21Z</time>
      </trkpt>
      <trkpt lat="45.92572" lon="4.61806">
        <ele>368</ele>
        <time>2020-06-10T20:24:31Z</time>
      </trkpt>
      <trkpt lat="45.92581" lon="4.61803">
        <ele>369</ele>
        <time>2020-06-10T20:24:32Z</time>
      </trkpt>
      <trkpt lat="45.92623" lon="4.61766">
        <ele>372</ele>
        <time>2020-06-10T20:24:41Z</time>
      </trkpt>
      <trkpt lat="45.92642" lon="4.61762">
        <ele>373</ele>
        <time>2020-06-10T20:24:44Z</time>
      </trkpt>
      <trkpt lat="45.92764" lon="4.61858">
        <ele>378</ele>
        <time>2020-06-10T20:25:09Z</time>
      </trkpt>
      <trkpt lat="45.92786" lon="4.61871">
        <ele>377</ele>
        <time>2020-06-10T20:25:13Z</time>
      </trkpt>
      <trkpt lat="45.92799" lon="4.61873">
        <ele>377</ele>
        <time>2020-06-10T20:25:16Z</time>
      </trkpt>
      <trkpt lat="45.9285" lon="4.61866">
        <ele>378</ele>
        <time>2020-06-10T20:25:25Z</time>
      </trkpt>
      <trkpt lat="45.92913" lon="4.61873">
        <ele>375</ele>
        <time>2020-06-10T20:25:36Z</time>
      </trkpt>
      <trkpt lat="45.92955" lon="4.61866">
        <ele>372</ele>
        <time>2020-06-10T20:25:44Z</time>
      </trkpt>
      <trkpt lat="45.92984" lon="4.61844">
        <ele>370</ele>
        <time>2020-06-10T20:25:49Z</time>
      </trkpt>
      <trkpt lat="45.93023" lon="4.61771">
        <ele>368</ele>
        <time>2020-06-10T20:26:01Z</time>
      </trkpt>
      <trkpt lat="45.93036" lon="4.61754">
        <ele>367</ele>
        <time>2020-06-10T20:26:04Z</time>
      </trkpt>
      <trkpt lat="45.93046" lon="4.61746">
        <ele>366</ele>
        <time>2020-06-10T20:26:06Z</time>
      </trkpt>
      <trkpt lat="45.93055" lon="4.61734">
        <ele>366</ele>
        <time>2020-06-10T20:26:08Z</time>
      </trkpt>
      <trkpt lat="45.93088" lon="4.61669">
        <ele>369</ele>
        <time>2020-06-10T20:26:18Z</time>
      </trkpt>
      <trkpt lat="45.93114" lon="4.61647">
        <ele>370</ele>
        <time>2020-06-10T20:26:23Z</time>
      </trkpt>
      <trkpt lat="45.93141" lon="4.61642">
        <ele>369</ele>
        <time>2020-06-10T20:26:28Z</time>
      </trkpt>
      <trkpt lat="45.9326" lon="4.61636">
        <ele>361</ele>
        <time>2020-06-10T20:26:49Z</time>
      </trkpt>
      <trkpt lat="45.93282" lon="4.61645">
        <ele>359</ele>
        <time>2020-06-10T20:26:54Z</time>
      </trkpt>
      <trkpt lat="45.93297" lon="4.61662">
        <ele>358</ele>
        <time>2020-06-10T20:26:57Z</time>
      </trkpt>
      <trkpt lat="45.93313" lon="4.617">
        <ele>357</ele>
        <time>2020-06-10T20:27:02Z</time>
      </trkpt>
      <trkpt lat="45.93334" lon="4.61827">
        <ele>355</ele>
        <time>2020-06-10T20:27:19Z</time>
      </trkpt>
      <trkpt lat="45.93334" lon="4.61857">
        <ele>356</ele>
        <time>2020-06-10T20:27:22Z</time>
      </trkpt>
      <trkpt lat="45.93378" lon="4.61883">
        <ele>365</ele>
        <time>2020-06-10T20:27:31Z</time>
      </trkpt>
      <trkpt lat="45.93415" lon="4.61921">
        <ele>371</ele>
        <time>2020-06-10T20:27:39Z</time>
      </trkpt>
      <trkpt lat="45.93458" lon="4.61973">
        <ele>382</ele>
        <time>2020-06-10T20:27:49Z</time>
      </trkpt>
      <trkpt lat="45.93478" lon="4.62013">
        <ele>385</ele>
        <time>2020-06-10T20:27:55Z</time>
      </trkpt>
      <trkpt lat="45.93502" lon="4.62097">
        <ele>384</ele>
        <time>2020-06-10T20:28:06Z</time>
      </trkpt>
      <trkpt lat="45.9354" lon="4.6211">
        <ele>386</ele>
        <time>2020-06-10T20:28:13Z</time>
      </trkpt>
      <trkpt lat="45.93554" lon="4.62105">
        <ele>388</ele>
        <time>2020-06-10T20:28:16Z</time>
      </trkpt>
      <trkpt lat="45.93594" lon="4.62114">
        <ele>389</ele>
        <time>2020-06-10T20:28:23Z</time>
      </trkpt>
      <trkpt lat="45.93659" lon="4.62115">
        <ele>391</ele>
        <time>2020-06-10T20:28:34Z</time>
      </trkpt>
      <trkpt lat="45.93744" lon="4.62146">
        <ele>393</ele>
        <time>2020-06-10T20:28:50Z</time>
      </trkpt>
      <trkpt lat="45.93801" lon="4.62149">
        <ele>396</ele>
        <time>2020-06-10T20:29:00Z</time>
      </trkpt>
      <trkpt lat="45.93815" lon="4.62152">
        <ele>396</ele>
        <time>2020-06-10T20:29:03Z</time>
      </trkpt>
      <trkpt lat="45.93843" lon="4.62164">
        <ele>397</ele>
        <time>2020-06-10T20:29:08Z</time>
      </trkpt>
      <trkpt lat="45.93872" lon="4.62188">
        <ele>395</ele>
        <time>2020-06-10T20:29:14Z</time>
      </trkpt>
      <trkpt lat="45.9392" lon="4.62207">
        <ele>393</ele>
        <time>2020-06-10T20:29:23Z</time>
      </trkpt>
      <trkpt lat="45.93955" lon="4.62204">
        <ele>393</ele>
        <time>2020-06-10T20:29:29Z</time>
      </trkpt>
      <trkpt lat="45.93996" lon="4.62182">
        <ele>395</ele>
        <time>2020-06-10T20:29:37Z</time>
      </trkpt>
      <trkpt lat="45.94032" lon="4.62165">
        <ele>398</ele>
        <time>2020-06-10T20:29:44Z</time>
      </trkpt>
      <trkpt lat="45.94067" lon="4.62156">
        <ele>401</ele>
        <time>2020-06-10T20:29:50Z</time>
      </trkpt>
      <trkpt lat="45.94095" lon="4.62153">
        <ele>402</ele>
        <time>2020-06-10T20:29:55Z</time>
      </trkpt>
      <trkpt lat="45.94173" lon="4.62184">
        <ele>401</ele>
        <time>2020-06-10T20:30:09Z</time>
      </trkpt>
      <trkpt lat="45.94226" lon="4.62201">
        <ele>401</ele>
        <time>2020-06-10T20:30:19Z</time>
      </trkpt>
      <trkpt lat="45.94256" lon="4.62201">
        <ele>402</ele>
        <time>2020-06-10T20:30:24Z</time>
      </trkpt>
      <trkpt lat="45.94299" lon="4.62191">
        <ele>404</ele>
        <time>2020-06-10T20:30:32Z</time>
      </trkpt>
      <trkpt lat="45.94333" lon="4.6218">
        <ele>406</ele>
        <time>2020-06-10T20:30:38Z</time>
      </trkpt>
      <trkpt lat="45.94362" lon="4.62197">
        <ele>404</ele>
        <time>2020-06-10T20:30:44Z</time>
      </trkpt>
      <trkpt lat="45.94415" lon="4.62239">
        <ele>402</ele>
        <time>2020-06-10T20:30:55Z</time>
      </trkpt>
      <trkpt lat="45.94459" lon="4.6226">
        <ele>401</ele>
        <time>2020-06-10T20:31:03Z</time>
      </trkpt>
      <trkpt lat="45.94464" lon="4.62273">
        <ele>400</ele>
        <time>2020-06-10T20:31:05Z</time>
      </trkpt>
      <trkpt lat="45.94499" lon="4.62256">
        <ele>401</ele>
        <time>2020-06-10T20:31:11Z</time>
      </trkpt>
      <trkpt lat="45.94525" lon="4.62241">
        <ele>398</ele>
        <time>2020-06-10T20:31:16Z</time>
      </trkpt>
      <trkpt lat="45.94625" lon="4.62267">
        <ele>386</ele>
        <time>2020-06-10T20:31:34Z</time>
      </trkpt>
      <trkpt lat="45.94646" lon="4.62276">
        <ele>384</ele>
        <time>2020-06-10T20:31:38Z</time>
      </trkpt>
      <trkpt lat="45.94707" lon="4.62285">
        <ele>378</ele>
        <time>2020-06-10T20:31:49Z</time>
      </trkpt>
      <trkpt lat="45.94725" lon="4.62284">
        <ele>376</ele>
        <time>2020-06-10T20:31:52Z</time>
      </trkpt>
      <trkpt lat="45.94782" lon="4.62309">
        <ele>372</ele>
        <time>2020-06-10T20:32:03Z</time>
      </trkpt>
      <trkpt lat="45.94806" lon="4.62313">
        <ele>371</ele>
        <time>2020-06-10T20:32:07Z</time>
      </trkpt>
      <trkpt lat="45.94927" lon="4.6228">
        <ele>374</ele>
        <time>2020-06-10T20:32:29Z</time>
      </trkpt>
      <trkpt lat="45.95049" lon="4.62302">
        <ele>371</ele>
        <time>2020-06-10T20:32:51Z</time>
      </trkpt>
      <trkpt lat="45.95102" lon="4.62297">
        <ele>371</ele>
        <time>2020-06-10T20:33:00Z</time>
      </trkpt>
      <trkpt lat="45.95181" lon="4.62298">
        <ele>370</ele>
        <time>2020-06-10T20:33:14Z</time>
      </trkpt>
      <trkpt lat="45.95203" lon="4.62297">
        <ele>370</ele>
        <time>2020-06-10T20:33:18Z</time>
      </trkpt>
      <trkpt lat="45.95215" lon="4.62279">
        <ele>371</ele>
        <time>2020-06-10T20:33:21Z</time>
      </trkpt>
      <trkpt lat="45.95314" lon="4.62163">
        <ele>375</ele>
        <time>2020-06-10T20:33:44Z</time>
      </trkpt>
      <trkpt lat="45.95334" lon="4.62148">
        <ele>374</ele>
        <time>2020-06-10T20:33:48Z</time>
      </trkpt>
      <trkpt lat="45.9536" lon="4.62137">
        <ele>370</ele>
        <time>2020-06-10T20:33:53Z</time>
      </trkpt>
      <trkpt lat="45.95372" lon="4.62147">
        <ele>367</ele>
        <time>2020-06-10T20:33:56Z</time>
      </trkpt>
      <trkpt lat="45.954" lon="4.62208">
        <ele>358</ele>
        <time>2020-06-10T20:34:05Z</time>
      </trkpt>
      <trkpt lat="45.95428" lon="4.62212">
        <ele>354</ele>
        <time>2020-06-10T20:34:10Z</time>
      </trkpt>
      <trkpt lat="45.95478" lon="4.62209">
        <ele>351</ele>
        <time>2020-06-10T20:34:18Z</time>
      </trkpt>
      <trkpt lat="45.95495" lon="4.62218">
        <ele>348</ele>
        <time>2020-06-10T20:34:22Z</time>
      </trkpt>
      <trkpt lat="45.95507" lon="4.62232">
        <ele>347</ele>
        <time>2020-06-10T20:34:24Z</time>
      </trkpt>
      <trkpt lat="45.95532" lon="4.62272">
        <ele>345</ele>
        <time>2020-06-10T20:34:31Z</time>
      </trkpt>
      <trkpt lat="45.9557" lon="4.62272">
        <ele>347</ele>
        <time>2020-06-10T20:34:38Z</time>
      </trkpt>
      <trkpt lat="45.95658" lon="4.62255">
        <ele>342</ele>
        <time>2020-06-10T20:34:54Z</time>
      </trkpt>
      <trkpt lat="45.95677" lon="4.62246">
        <ele>339</ele>
        <time>2020-06-10T20:34:57Z</time>
      </trkpt>
      <trkpt lat="45.95728" lon="4.62198">
        <ele>333</ele>
        <time>2020-06-10T20:35:08Z</time>
      </trkpt>
      <trkpt lat="45.9577" lon="4.62169">
        <ele>333</ele>
        <time>2020-06-10T20:35:16Z</time>
      </trkpt>
      <trkpt lat="45.95796" lon="4.62159">
        <ele>334</ele>
        <time>2020-06-10T20:35:21Z</time>
      </trkpt>
      <trkpt lat="45.95817" lon="4.62095">
        <ele>336</ele>
        <time>2020-06-10T20:35:30Z</time>
      </trkpt>
      <trkpt lat="45.95827" lon="4.62101">
        <ele>336</ele>
        <time>2020-06-10T20:35:32Z</time>
      </trkpt>
      <trkpt lat="45.95834" lon="4.62113">
        <ele>336</ele>
        <time>2020-06-10T20:35:34Z</time>
      </trkpt>
      <trkpt lat="45.95837" lon="4.62136">
        <ele>336</ele>
        <time>2020-06-10T20:35:37Z</time>
      </trkpt>
      <trkpt lat="45.95847" lon="4.6224">
        <ele>340</ele>
        <time>2020-06-10T20:35:50Z</time>
      </trkpt>
      <trkpt lat="45.95852" lon="4.62257">
        <ele>341</ele>
        <time>2020-06-10T20:35:52Z</time>
      </trkpt>
      <trkpt lat="45.95882" lon="4.62304">
        <ele>348</ele>
        <time>2020-06-10T20:36:00Z</time>
      </trkpt>
      <trkpt lat="45.95896" lon="4.62319">
        <ele>350</ele>
        <time>2020-06-10T20:36:03Z</time>
      </trkpt>
      <trkpt lat="45.95919" lon="4.62336">
        <ele>354</ele>
        <time>2020-06-10T20:36:08Z</time>
      </trkpt>
      <trkpt lat="45.95936" lon="4.62354">
        <ele>356</ele>
        <time>2020-06-10T20:36:11Z</time>
      </trkpt>
      <trkpt lat="45.95963" lon="4.62373">
        <ele>358</ele>
        <time>2020-06-10T20:36:17Z</time>
      </trkpt>
      <trkpt lat="45.95996" lon="4.62388">
        <ele>362</ele>
        <time>2020-06-10T20:36:23Z</time>
      </trkpt>
      <trkpt lat="45.96025" lon="4.62406">
        <ele>362</ele>
        <time>2020-06-10T20:36:28Z</time>
      </trkpt>
      <trkpt lat="45.96106" lon="4.62518">
        <ele>353</ele>
        <time>2020-06-10T20:36:48Z</time>
      </trkpt>
      <trkpt lat="45.96137" lon="4.62552">
        <ele>349</ele>
        <time>2020-06-10T20:36:55Z</time>
      </trkpt>
      <trkpt lat="45.96165" lon="4.62565">
        <ele>346</ele>
        <time>2020-06-10T20:37:01Z</time>
      </trkpt>
      <trkpt lat="45.96241" lon="4.62556">
        <ele>341</ele>
        <time>2020-06-10T20:37:14Z</time>
      </trkpt>
      <trkpt lat="45.96257" lon="4.62586">
        <ele>339</ele>
        <time>2020-06-10T20:37:19Z</time>
      </trkpt>
      <trkpt lat="45.96257" lon="4.62615">
        <ele>337</ele>
        <time>2020-06-10T20:37:22Z</time>
      </trkpt>
      <trkpt lat="45.96232" lon="4.62727">
        <ele>331</ele>
        <time>2020-06-10T20:37:37Z</time>
      </trkpt>
      <trkpt lat="45.96235" lon="4.62741">
        <ele>330</ele>
        <time>2020-06-10T20:37:39Z</time>
      </trkpt>
      <trkpt lat="45.96244" lon="4.62751">
        <ele>328</ele>
        <time>2020-06-10T20:37:41Z</time>
      </trkpt>
      <trkpt lat="45.96256" lon="4.62751">
        <ele>327</ele>
        <time>2020-06-10T20:37:43Z</time>
      </trkpt>
      <trkpt lat="45.96265" lon="4.62739">
        <ele>327</ele>
        <time>2020-06-10T20:37:45Z</time>
      </trkpt>
      <trkpt lat="45.96276" lon="4.62713">
        <ele>329</ele>
        <time>2020-06-10T20:37:49Z</time>
      </trkpt>
      <trkpt lat="45.96285" lon="4.62708">
        <ele>329</ele>
        <time>2020-06-10T20:37:51Z</time>
      </trkpt>
      <trkpt lat="45.96283" lon="4.62791">
        <ele>320</ele>
        <time>2020-06-10T20:38:01Z</time>
      </trkpt>
      <trkpt lat="45.9633" lon="4.62818">
        <ele>311</ele>
        <time>2020-06-10T20:38:10Z</time>
      </trkpt>
      <trkpt lat="45.96401" lon="4.62865">
        <ele>302</ele>
        <time>2020-06-10T20:38:24Z</time>
      </trkpt>
      <trkpt lat="45.9639" lon="4.62929">
        <ele>299</ele>
        <time>2020-06-10T20:38:32Z</time>
      </trkpt>
      <trkpt lat="45.96389" lon="4.62944">
        <ele>299</ele>
        <time>2020-06-10T20:38:34Z</time>
      </trkpt>
      <trkpt lat="45.96394" lon="4.63054">
        <ele>294</ele>
        <time>2020-06-10T20:38:47Z</time>
      </trkpt>
      <trkpt lat="45.96403" lon="4.63064">
        <ele>294</ele>
        <time>2020-06-10T20:38:49Z</time>
      </trkpt>
      <trkpt lat="45.9641" lon="4.63088">
        <ele>293</ele>
        <time>2020-06-10T20:38:53Z</time>
      </trkpt>
      <trkpt lat="45.96429" lon="4.6318">
        <ele>297</ele>
        <time>2020-06-10T20:39:05Z</time>
      </trkpt>
      <trkpt lat="45.96444" lon="4.63229">
        <ele>303</ele>
        <time>2020-06-10T20:39:11Z</time>
      </trkpt>
      <trkpt lat="45.9645" lon="4.63259">
        <ele>305</ele>
        <time>2020-06-10T20:39:15Z</time>
      </trkpt>
      <trkpt lat="45.96452" lon="4.63314">
        <ele>308</ele>
        <time>2020-06-10T20:39:22Z</time>
      </trkpt>
      <trkpt lat="45.96454" lon="4.63335">
        <ele>309</ele>
        <time>2020-06-10T20:39:24Z</time>
      </trkpt>
      <trkpt lat="45.96457" lon="4.63343">
        <ele>310</ele>
        <time>2020-06-10T20:39:26Z</time>
      </trkpt>
      <trkpt lat="45.96452" lon="4.634">
        <ele>311</ele>
        <time>2020-06-10T20:39:33Z</time>
      </trkpt>
      <trkpt lat="45.96457" lon="4.63469">
        <ele>314</ele>
        <time>2020-06-10T20:39:41Z</time>
      </trkpt>
      <trkpt lat="45.96464" lon="4.63512">
        <ele>316</ele>
        <time>2020-06-10T20:39:47Z</time>
      </trkpt>
      <trkpt lat="45.96479" lon="4.63566">
        <ele>318</ele>
        <time>2020-06-10T20:39:54Z</time>
      </trkpt>
      <trkpt lat="45.96491" lon="4.63593">
        <ele>319</ele>
        <time>2020-06-10T20:39:58Z</time>
      </trkpt>
      <trkpt lat="45.96514" lon="4.63628">
        <ele>318</ele>
        <time>2020-06-10T20:40:04Z</time>
      </trkpt>
      <trkpt lat="45.96553" lon="4.63671">
        <ele>316</ele>
        <time>2020-06-10T20:40:13Z</time>
      </trkpt>
      <trkpt lat="45.9682" lon="4.63822">
        <ele>298</ele>
        <time>2020-06-10T20:41:04Z</time>
      </trkpt>
      <trkpt lat="45.96877" lon="4.63857">
        <ele>296</ele>
        <time>2020-06-10T20:41:15Z</time>
      </trkpt>
      <trkpt lat="45.96901" lon="4.63881">
        <ele>296</ele>
        <time>2020-06-10T20:41:20Z</time>
      </trkpt>
      <trkpt lat="45.96969" lon="4.63958">
        <ele>293</ele>
        <time>2020-06-10T20:41:35Z</time>
      </trkpt>
      <trkpt lat="45.97002" lon="4.64012">
        <ele>291</ele>
        <time>2020-06-10T20:41:44Z</time>
      </trkpt>
      <trkpt lat="45.97007" lon="4.6405">
        <ele>290</ele>
        <time>2020-06-10T20:41:49Z</time>
      </trkpt>
      <trkpt lat="45.9701" lon="4.64153">
        <ele>289</ele>
        <time>2020-06-10T20:42:02Z</time>
      </trkpt>
      <trkpt lat="45.97016" lon="4.64219">
        <ele>289</ele>
        <time>2020-06-10T20:42:10Z</time>
      </trkpt>
      <trkpt lat="45.97028" lon="4.64271">
        <ele>290</ele>
        <time>2020-06-10T20:42:17Z</time>
      </trkpt>
      <trkpt lat="45.97056" lon="4.6432">
        <ele>293</ele>
        <time>2020-06-10T20:42:25Z</time>
      </trkpt>
      <trkpt lat="45.97099" lon="4.64362">
        <ele>294</ele>
        <time>2020-06-10T20:42:34Z</time>
      </trkpt>
      <trkpt lat="45.97151" lon="4.64395">
        <ele>292</ele>
        <time>2020-06-10T20:42:44Z</time>
      </trkpt>
      <trkpt lat="45.97172" lon="4.64425">
        <ele>291</ele>
        <time>2020-06-10T20:42:49Z</time>
      </trkpt>
      <trkpt lat="45.97336" lon="4.64738">
        <ele>288</ele>
        <time>2020-06-10T20:43:38Z</time>
      </trkpt>
      <trkpt lat="45.97613" lon="4.64852">
        <ele>289</ele>
        <time>2020-06-10T20:44:29Z</time>
      </trkpt>
      <trkpt lat="45.97689" lon="4.64849">
        <ele>289</ele>
        <time>2020-06-10T20:44:42Z</time>
      </trkpt>
      <trkpt lat="45.97745" lon="4.6485">
        <ele>289</ele>
        <time>2020-06-10T20:44:52Z</time>
      </trkpt>
      <trkpt lat="45.97766" lon="4.64863">
        <ele>289</ele>
        <time>2020-06-10T20:44:56Z</time>
      </trkpt>
      <trkpt lat="45.97851" lon="4.64966">
        <ele>287</ele>
        <time>2020-06-10T20:45:16Z</time>
      </trkpt>
      <trkpt lat="45.97872" lon="4.64982">
        <ele>286</ele>
        <time>2020-06-10T20:45:20Z</time>
      </trkpt>
      <trkpt lat="45.97996" lon="4.64931">
        <ele>282</ele>
        <time>2020-06-10T20:45:43Z</time>
      </trkpt>
      <trkpt lat="45.98015" lon="4.64921">
        <ele>280</ele>
        <time>2020-06-10T20:45:47Z</time>
      </trkpt>
      <trkpt lat="45.98049" lon="4.64854">
        <ele>279</ele>
        <time>2020-06-10T20:45:57Z</time>
      </trkpt>
      <trkpt lat="45.98075" lon="4.64811">
        <ele>277</ele>
        <time>2020-06-10T20:46:04Z</time>
      </trkpt>
      <trkpt lat="45.98094" lon="4.64765">
        <ele>274</ele>
        <time>2020-06-10T20:46:11Z</time>
      </trkpt>
      <trkpt lat="45.9811" lon="4.64684">
        <ele>268</ele>
        <time>2020-06-10T20:46:21Z</time>
      </trkpt>
      <trkpt lat="45.98111" lon="4.64659">
        <ele>266</ele>
        <time>2020-06-10T20:46:24Z</time>
      </trkpt>
      <trkpt lat="45.98105" lon="4.6463">
        <ele>265</ele>
        <time>2020-06-10T20:46:28Z</time>
      </trkpt>
      <trkpt lat="45.98087" lon="4.6457">
        <ele>264</ele>
        <time>2020-06-10T20:46:36Z</time>
      </trkpt>
      <trkpt lat="45.98081" lon="4.64544">
        <ele>264</ele>
        <time>2020-06-10T20:46:40Z</time>
      </trkpt>
      <trkpt lat="45.98082" lon="4.64523">
        <ele>264</ele>
        <time>2020-06-10T20:46:42Z</time>
      </trkpt>
      <trkpt lat="45.98089" lon="4.64503">
        <ele>263</ele>
        <time>2020-06-10T20:46:45Z</time>
      </trkpt>
      <trkpt lat="45.98103" lon="4.64498">
        <ele>262</ele>
        <time>2020-06-10T20:46:48Z</time>
      </trkpt>
      <trkpt lat="45.98116" lon="4.64496">
        <ele>261</ele>
        <time>2020-06-10T20:46:50Z</time>
      </trkpt>
      <trkpt lat="45.98123" lon="4.64502">
        <ele>260</ele>
        <time>2020-06-10T20:46:51Z</time>
      </trkpt>
      <trkpt lat="45.98134" lon="4.64525">
        <ele>258</ele>
        <time>2020-06-10T20:46:55Z</time>
      </trkpt>
      <trkpt lat="45.98142" lon="4.64537">
        <ele>257</ele>
        <time>2020-06-10T20:46:57Z</time>
      </trkpt>
      <trkpt lat="45.98152" lon="4.64536">
        <ele>256</ele>
        <time>2020-06-10T20:46:59Z</time>
      </trkpt>
      <trkpt lat="45.98231" lon="4.64491">
        <ele>255</ele>
        <time>2020-06-10T20:47:14Z</time>
      </trkpt>
      <trkpt lat="45.98242" lon="4.64496">
        <ele>255</ele>
        <time>2020-06-10T20:47:16Z</time>
      </trkpt>
      <trkpt lat="45.98267" lon="4.64502">
        <ele>256</ele>
        <time>2020-06-10T20:47:20Z</time>
      </trkpt>
      <trkpt lat="45.98283" lon="4.64499">
        <ele>257</ele>
        <time>2020-06-10T20:47:23Z</time>
      </trkpt>
      <trkpt lat="45.9831" lon="4.64474">
        <ele>261</ele>
        <time>2020-06-10T20:47:29Z</time>
      </trkpt>
      <trkpt lat="45.98344" lon="4.64451">
        <ele>265</ele>
        <time>2020-06-10T20:47:36Z</time>
      </trkpt>
      <trkpt lat="45.98419" lon="4.64414">
        <ele>269</ele>
        <time>2020-06-10T20:47:50Z</time>
      </trkpt>
      <trkpt lat="45.98456" lon="4.644">
        <ele>272</ele>
        <time>2020-06-10T20:47:56Z</time>
      </trkpt>
      <trkpt lat="45.98518" lon="4.64382">
        <ele>276</ele>
        <time>2020-06-10T20:48:08Z</time>
      </trkpt>
      <trkpt lat="45.98579" lon="4.64397">
        <ele>282</ele>
        <time>2020-06-10T20:48:19Z</time>
      </trkpt>
      <trkpt lat="45.98604" lon="4.64394">
        <ele>283</ele>
        <time>2020-06-10T20:48:23Z</time>
      </trkpt>
      <trkpt lat="45.98637" lon="4.64394">
        <ele>285</ele>
        <time>2020-06-10T20:48:29Z</time>
      </trkpt>
      <trkpt lat="45.98685" lon="4.64416">
        <ele>287</ele>
        <time>2020-06-10T20:48:38Z</time>
      </trkpt>
      <trkpt lat="45.98726" lon="4.64439">
        <ele>289</ele>
        <time>2020-06-10T20:48:46Z</time>
      </trkpt>
      <trkpt lat="45.98775" lon="4.64501">
        <ele>289</ele>
        <time>2020-06-10T20:48:57Z</time>
      </trkpt>
      <trkpt lat="45.98799" lon="4.64513">
        <ele>289</ele>
        <time>2020-06-10T20:49:02Z</time>
      </trkpt>
      <trkpt lat="45.98961" lon="4.64522">
        <ele>288</ele>
        <time>2020-06-10T20:49:31Z</time>
      </trkpt>
      <trkpt lat="45.99055" lon="4.64522">
        <ele>287</ele>
        <time>2020-06-10T20:49:48Z</time>
      </trkpt>
      <trkpt lat="45.99057" lon="4.64526">
        <ele>287</ele>
        <time>2020-06-10T20:49:48Z</time>
      </trkpt>
      <trkpt lat="45.9906" lon="4.64527">
        <ele>287</ele>
        <time>2020-06-10T20:49:49Z</time>
      </trkpt>
      <trkpt lat="45.99062" lon="4.64526">
        <ele>287</ele>
        <time>2020-06-10T20:49:49Z</time>
      </trkpt>
      <trkpt lat="45.99065" lon="4.6452">
        <ele>287</ele>
        <time>2020-06-10T20:49:50Z</time>
      </trkpt>
      <trkpt lat="45.99116" lon="4.6453">
        <ele>288</ele>
        <time>2020-06-10T20:49:59Z</time>
      </trkpt>
      <trkpt lat="45.99204" lon="4.64536">
        <ele>290</ele>
        <time>2020-06-10T20:50:15Z</time>
      </trkpt>
      <trkpt lat="45.99235" lon="4.64548">
        <ele>291</ele>
        <time>2020-06-10T20:50:21Z</time>
      </trkpt>
      <trkpt lat="45.99258" lon="4.64554">
        <ele>291</ele>
        <time>2020-06-10T20:50:25Z</time>
      </trkpt>
      <trkpt lat="45.9934" lon="4.64566">
        <ele>292</ele>
        <time>2020-06-10T20:50:39Z</time>
      </trkpt>
      <trkpt lat="45.9934" lon="4.64596">
        <ele>291</ele>
        <time>2020-06-10T20:50:43Z</time>
      </trkpt>
      <trkpt lat="45.99374" lon="4.6462">
        <ele>292</ele>
        <time>2020-06-10T20:50:50Z</time>
      </trkpt>
      <trkpt lat="45.99402" lon="4.64626">
        <ele>293</ele>
        <time>2020-06-10T20:50:55Z</time>
      </trkpt>
      <trkpt lat="45.99465" lon="4.64648">
        <ele>293</ele>
        <time>2020-06-10T20:51:06Z</time>
      </trkpt>
      <trkpt lat="45.99567" lon="4.64697">
        <ele>293</ele>
        <time>2020-06-10T20:51:26Z</time>
      </trkpt>
      <trkpt lat="45.99586" lon="4.64698">
        <ele>293</ele>
        <time>2020-06-10T20:51:29Z</time>
      </trkpt>
      <trkpt lat="45.99619" lon="4.64695">
        <ele>294</ele>
        <time>2020-06-10T20:51:35Z</time>
      </trkpt>
      <trkpt lat="45.99758" lon="4.64658">
        <ele>292</ele>
        <time>2020-06-10T20:52:00Z</time>
      </trkpt>
      <trkpt lat="45.99773" lon="4.6465">
        <ele>291</ele>
        <time>2020-06-10T20:52:03Z</time>
      </trkpt>
      <trkpt lat="45.99791" lon="4.64636">
        <ele>291</ele>
        <time>2020-06-10T20:52:06Z</time>
      </trkpt>
      <trkpt lat="45.99861" lon="4.64549">
        <ele>291</ele>
        <time>2020-06-10T20:52:23Z</time>
      </trkpt>
      <trkpt lat="45.9983" lon="4.64771">
        <ele>287</ele>
        <time>2020-06-10T20:52:51Z</time>
      </trkpt>
      <trkpt lat="45.99768" lon="4.65172">
        <ele>283</ele>
        <time>2020-06-10T20:53:42Z</time>
      </trkpt>
      <trkpt lat="45.99815" lon="4.65169">
        <ele>280</ele>
        <time>2020-06-10T20:53:50Z</time>
      </trkpt>
      <trkpt lat="45.99822" lon="4.65168">
        <ele>280</ele>
        <time>2020-06-10T20:53:51Z</time>
      </trkpt>
      <trkpt lat="45.99913" lon="4.6491">
        <ele>282</ele>
        <time>2020-06-10T20:54:27Z</time>
      </trkpt>
      <trkpt lat="45.9993" lon="4.64882">
        <ele>280</ele>
        <time>2020-06-10T20:54:32Z</time>
      </trkpt>
      <trkpt lat="46.00087" lon="4.64877">
        <ele>265</ele>
        <time>2020-06-10T20:55:00Z</time>
      </trkpt>
      <trkpt lat="46.00106" lon="4.64878">
        <ele>264</ele>
        <time>2020-06-10T20:55:03Z</time>
      </trkpt>
      <trkpt lat="46.00177" lon="4.64876">
        <ele>260</ele>
        <time>2020-06-10T20:55:16Z</time>
      </trkpt>
      <trkpt lat="46.002" lon="4.64883">
        <ele>258</ele>
        <time>2020-06-10T20:55:20Z</time>
      </trkpt>
      <trkpt lat="46.00276" lon="4.64906">
        <ele>254</ele>
        <time>2020-06-10T20:55:34Z</time>
      </trkpt>
      <trkpt lat="46.00303" lon="4.64914">
        <ele>253</ele>
        <time>2020-06-10T20:55:39Z</time>
      </trkpt>
      <trkpt lat="46.00309" lon="4.64916">
        <ele>253</ele>
        <time>2020-06-10T20:55:40Z</time>
      </trkpt>
      <trkpt lat="46.00314" lon="4.64918">
        <ele>252</ele>
        <time>2020-06-10T20:55:41Z</time>
      </trkpt>
      <trkpt lat="46.0033" lon="4.64861">
        <ele>253</ele>
        <time>2020-06-10T20:55:48Z</time>
      </trkpt>
      <trkpt lat="46.00378" lon="4.6472">
        <ele>260</ele>
        <time>2020-06-10T20:56:08Z</time>
      </trkpt>
      <trkpt lat="46.00385" lon="4.64691">
        <ele>260</ele>
        <time>2020-06-10T20:56:11Z</time>
      </trkpt>
      <trkpt lat="46.00395" lon="4.64674">
        <ele>261</ele>
        <time>2020-06-10T20:56:14Z</time>
      </trkpt>
      <trkpt lat="46.00405" lon="4.64665">
        <ele>261</ele>
        <time>2020-06-10T20:56:16Z</time>
      </trkpt>
      <trkpt lat="46.00421" lon="4.64641">
        <ele>262</ele>
        <time>2020-06-10T20:56:20Z</time>
      </trkpt>
      <trkpt lat="46.00456" lon="4.64553">
        <ele>268</ele>
        <time>2020-06-10T20:56:33Z</time>
      </trkpt>
      <trkpt lat="46.00496" lon="4.64444">
        <ele>274</ele>
        <time>2020-06-10T20:56:48Z</time>
      </trkpt>
      <trkpt lat="46.00501" lon="4.64499">
        <ele>275</ele>
        <time>2020-06-10T20:56:55Z</time>
      </trkpt>
      <trkpt lat="46.00498" lon="4.64517">
        <ele>276</ele>
        <time>2020-06-10T20:56:57Z</time>
      </trkpt>
      <trkpt lat="46.00491" lon="4.64539">
        <ele>275</ele>
        <time>2020-06-10T20:57:00Z</time>
      </trkpt>
      <trkpt lat="46.00486" lon="4.64559">
        <ele>275</ele>
        <time>2020-06-10T20:57:03Z</time>
      </trkpt>
      <trkpt lat="46.00484" lon="4.64598">
        <ele>277</ele>
        <time>2020-06-10T20:57:08Z</time>
      </trkpt>
      <trkpt lat="46.00481" lon="4.64716">
        <ele>279</ele>
        <time>2020-06-10T20:57:22Z</time>
      </trkpt>
      <trkpt lat="46.00485" lon="4.64809">
        <ele>281</ele>
        <time>2020-06-10T20:57:34Z</time>
      </trkpt>
      <trkpt lat="46.00489" lon="4.64845">
        <ele>282</ele>
        <time>2020-06-10T20:57:38Z</time>
      </trkpt>
      <trkpt lat="46.00502" lon="4.64878">
        <ele>284</ele>
        <time>2020-06-10T20:57:43Z</time>
      </trkpt>
      <trkpt lat="46.00525" lon="4.64894">
        <ele>286</ele>
        <time>2020-06-10T20:57:48Z</time>
      </trkpt>
      <trkpt lat="46.00545" lon="4.64898">
        <ele>288</ele>
        <time>2020-06-10T20:57:51Z</time>
      </trkpt>
      <trkpt lat="46.0056" lon="4.649">
        <ele>289</ele>
        <time>2020-06-10T20:57:54Z</time>
      </trkpt>
      <trkpt lat="46.00659" lon="4.64903">
        <ele>291</ele>
        <time>2020-06-10T20:58:11Z</time>
      </trkpt>
      <trkpt lat="46.00736" lon="4.6491">
        <ele>290</ele>
        <time>2020-06-10T20:58:25Z</time>
      </trkpt>
      <trkpt lat="46.00799" lon="4.64921">
        <ele>289</ele>
        <time>2020-06-10T20:58:36Z</time>
      </trkpt>
      <trkpt lat="46.00831" lon="4.64931">
        <ele>288</ele>
        <time>2020-06-10T20:58:42Z</time>
      </trkpt>
      <trkpt lat="46.00856" lon="4.64939">
        <ele>287</ele>
        <time>2020-06-10T20:58:47Z</time>
      </trkpt>
      <trkpt lat="46.00888" lon="4.64952">
        <ele>285</ele>
        <time>2020-06-10T20:58:53Z</time>
      </trkpt>
      <trkpt lat="46.00924" lon="4.64976">
        <ele>284</ele>
        <time>2020-06-10T20:59:00Z</time>
      </trkpt>
      <trkpt lat="46.00953" lon="4.65002">
        <ele>287</ele>
        <time>2020-06-10T20:59:06Z</time>
      </trkpt>
      <trkpt lat="46.00992" lon="4.65042">
        <ele>289</ele>
        <time>2020-06-10T20:59:14Z</time>
      </trkpt>
      <trkpt lat="46.01048" lon="4.65058">
        <ele>292</ele>
        <time>2020-06-10T20:59:25Z</time>
      </trkpt>
      <trkpt lat="46.01101" lon="4.65089">
        <ele>292</ele>
        <time>2020-06-10T20:59:35Z</time>
      </trkpt>
      <trkpt lat="46.01112" lon="4.651">
        <ele>291</ele>
        <time>2020-06-10T20:59:37Z</time>
      </trkpt>
      <trkpt lat="46.01116" lon="4.65105">
        <ele>291</ele>
        <time>2020-06-10T20:59:38Z</time>
      </trkpt>
      <trkpt lat="46.01211" lon="4.6522">
        <ele>284</ele>
        <time>2020-06-10T21:00:00Z</time>
      </trkpt>
      <trkpt lat="46.01263" lon="4.65341">
        <ele>281</ele>
        <time>2020-06-10T21:00:18Z</time>
      </trkpt>
      <trkpt lat="46.01292" lon="4.65378">
        <ele>277</ele>
        <time>2020-06-10T21:00:25Z</time>
      </trkpt>
      <trkpt lat="46.01352" lon="4.65403">
        <ele>275</ele>
        <time>2020-06-10T21:00:36Z</time>
      </trkpt>
      <trkpt lat="46.01388" lon="4.65459">
        <ele>274</ele>
        <time>2020-06-10T21:00:45Z</time>
      </trkpt>
      <trkpt lat="46.01412" lon="4.65538">
        <ele>273</ele>
        <time>2020-06-10T21:00:56Z</time>
      </trkpt>
      <trkpt lat="46.01421" lon="4.65554">
        <ele>273</ele>
        <time>2020-06-10T21:00:58Z</time>
      </trkpt>
      <trkpt lat="46.01441" lon="4.65565">
        <ele>274</ele>
        <time>2020-06-10T21:01:02Z</time>
      </trkpt>
      <trkpt lat="46.01485" lon="4.65577">
        <ele>277</ele>
        <time>2020-06-10T21:01:10Z</time>
      </trkpt>
      <trkpt lat="46.01598" lon="4.65563">
        <ele>285</ele>
        <time>2020-06-10T21:01:30Z</time>
      </trkpt>
      <trkpt lat="46.01617" lon="4.6558">
        <ele>286</ele>
        <time>2020-06-10T21:01:34Z</time>
      </trkpt>
      <trkpt lat="46.01664" lon="4.65627">
        <ele>285</ele>
        <time>2020-06-10T21:01:44Z</time>
      </trkpt>
      <trkpt lat="46.01695" lon="4.65667">
        <ele>283</ele>
        <time>2020-06-10T21:01:52Z</time>
      </trkpt>
      <trkpt lat="46.01734" lon="4.65721">
        <ele>281</ele>
        <time>2020-06-10T21:02:01Z</time>
      </trkpt>
      <trkpt lat="46.01771" lon="4.65726">
        <ele>280</ele>
        <time>2020-06-10T21:02:08Z</time>
      </trkpt>
      <trkpt lat="46.01841" lon="4.65743">
        <ele>279</ele>
        <time>2020-06-10T21:02:21Z</time>
      </trkpt>
      <trkpt lat="46.019" lon="4.65753">
        <ele>279</ele>
        <time>2020-06-10T21:02:31Z</time>
      </trkpt>
      <trkpt lat="46.01916" lon="4.65753">
        <ele>279</ele>
        <time>2020-06-10T21:02:34Z</time>
      </trkpt>
      <trkpt lat="46.01956" lon="4.65736">
        <ele>279</ele>
        <time>2020-06-10T21:02:42Z</time>
      </trkpt>
      <trkpt lat="46.01977" lon="4.6573">
        <ele>278</ele>
        <time>2020-06-10T21:02:45Z</time>
      </trkpt>
      <trkpt lat="46.01996" lon="4.6573">
        <ele>278</ele>
        <time>2020-06-10T21:02:49Z</time>
      </trkpt>
      <trkpt lat="46.02122" lon="4.65775">
        <ele>272</ele>
        <time>2020-06-10T21:03:12Z</time>
      </trkpt>
      <trkpt lat="46.02135" lon="4.65776">
        <ele>272</ele>
        <time>2020-06-10T21:03:14Z</time>
      </trkpt>
      <trkpt lat="46.02167" lon="4.65774">
        <ele>270</ele>
        <time>2020-06-10T21:03:20Z</time>
      </trkpt>
      <trkpt lat="46.02211" lon="4.65771">
        <ele>268</ele>
        <time>2020-06-10T21:03:28Z</time>
      </trkpt>
      <trkpt lat="46.0222" lon="4.65769">
        <ele>267</ele>
        <time>2020-06-10T21:03:29Z</time>
      </trkpt>
      <trkpt lat="46.02237" lon="4.6576">
        <ele>267</ele>
        <time>2020-06-10T21:03:33Z</time>
      </trkpt>
      <trkpt lat="46.02273" lon="4.65731">
        <ele>267</ele>
        <time>2020-06-10T21:03:40Z</time>
      </trkpt>
      <trkpt lat="46.02288" lon="4.65723">
        <ele>267</ele>
        <time>2020-06-10T21:03:43Z</time>
      </trkpt>
      <trkpt lat="46.02295" lon="4.65723">
        <ele>267</ele>
        <time>2020-06-10T21:03:44Z</time>
      </trkpt>
      <trkpt lat="46.02299" lon="4.65725">
        <ele>267</ele>
        <time>2020-06-10T21:03:45Z</time>
      </trkpt>
      <trkpt lat="46.02306" lon="4.6573">
        <ele>267</ele>
        <time>2020-06-10T21:03:46Z</time>
      </trkpt>
      <trkpt lat="46.02335" lon="4.65768">
        <ele>265</ele>
        <time>2020-06-10T21:03:53Z</time>
      </trkpt>
      <trkpt lat="46.02372" lon="4.65808">
        <ele>262</ele>
        <time>2020-06-10T21:04:01Z</time>
      </trkpt>
      <trkpt lat="46.02383" lon="4.65822">
        <ele>261</ele>
        <time>2020-06-10T21:04:04Z</time>
      </trkpt>
      <trkpt lat="46.02404" lon="4.6586">
        <ele>259</ele>
        <time>2020-06-10T21:04:10Z</time>
      </trkpt>
      <trkpt lat="46.02411" lon="4.65878">
        <ele>259</ele>
        <time>2020-06-10T21:04:12Z</time>
      </trkpt>
      <trkpt lat="46.02415" lon="4.65889">
        <ele>258</ele>
        <time>2020-06-10T21:04:14Z</time>
      </trkpt>
      <trkpt lat="46.02419" lon="4.65904">
        <ele>257</ele>
        <time>2020-06-10T21:04:16Z</time>
      </trkpt>
      <trkpt lat="46.02424" lon="4.65936">
        <ele>256</ele>
        <time>2020-06-10T21:04:20Z</time>
      </trkpt>
      <trkpt lat="46.02429" lon="4.65989">
        <ele>257</ele>
        <time>2020-06-10T21:04:27Z</time>
      </trkpt>
      <trkpt lat="46.02441" lon="4.66059">
        <ele>255</ele>
        <time>2020-06-10T21:04:36Z</time>
      </trkpt>
      <trkpt lat="46.02444" lon="4.66067">
        <ele>255</ele>
        <time>2020-06-10T21:04:37Z</time>
      </trkpt>
      <trkpt lat="46.02451" lon="4.66089">
        <ele>254</ele>
        <time>2020-06-10T21:04:40Z</time>
      </trkpt>
      <trkpt lat="46.0247" lon="4.66141">
        <ele>254</ele>
        <time>2020-06-10T21:04:47Z</time>
      </trkpt>
      <trkpt lat="46.02473" lon="4.66154">
        <ele>254</ele>
        <time>2020-06-10T21:04:49Z</time>
      </trkpt>
      <trkpt lat="46.02474" lon="4.66157">
        <ele>254</ele>
        <time>2020-06-10T21:04:49Z</time>
      </trkpt>
      <trkpt lat="46.0248" lon="4.66169">
        <ele>254</ele>
        <time>2020-06-10T21:04:51Z</time>
      </trkpt>
      <trkpt lat="46.02482" lon="4.66172">
        <ele>254</ele>
        <time>2020-06-10T21:04:51Z</time>
      </trkpt>
      <trkpt lat="46.02481" lon="4.66175">
        <ele>254</ele>
        <time>2020-06-10T21:04:52Z</time>
      </trkpt>
      <trkpt lat="46.02481" lon="4.66186">
        <ele>254</ele>
        <time>2020-06-10T21:04:53Z</time>
      </trkpt>
      <trkpt lat="46.02483" lon="4.66189">
        <ele>254</ele>
        <time>2020-06-10T21:04:54Z</time>
      </trkpt>
      <trkpt lat="46.02485" lon="4.66191">
        <ele>254</ele>
        <time>2020-06-10T21:04:54Z</time>
      </trkpt>
      <trkpt lat="46.02487" lon="4.66192">
        <ele>254</ele>
        <time>2020-06-10T21:04:54Z</time>
      </trkpt>
      <trkpt lat="46.02489" lon="4.66192">
        <ele>254</ele>
        <time>2020-06-10T21:04:55Z</time>
      </trkpt>
      <trkpt lat="46.02492" lon="4.66191">
        <ele>254</ele>
        <time>2020-06-10T21:04:55Z</time>
      </trkpt>
      <trkpt lat="46.02495" lon="4.66187">
        <ele>254</ele>
        <time>2020-06-10T21:04:56Z</time>
      </trkpt>
      <trkpt lat="46.02496" lon="4.66184">
        <ele>254</ele>
        <time>2020-06-10T21:04:57Z</time>
      </trkpt>
      <trkpt lat="46.02497" lon="4.66181">
        <ele>254</ele>
        <time>2020-06-10T21:04:57Z</time>
      </trkpt>
      <trkpt lat="46.02501" lon="4.66182">
        <ele>254</ele>
        <time>2020-06-10T21:04:58Z</time>
      </trkpt>
      <trkpt lat="46.02512" lon="4.66192">
        <ele>252</ele>
        <time>2020-06-10T21:05:00Z</time>
      </trkpt>
      <trkpt lat="46.02519" lon="4.66201">
        <ele>251</ele>
        <time>2020-06-10T21:05:02Z</time>
      </trkpt>
      <trkpt lat="46.02554" lon="4.66267">
        <ele>248</ele>
        <time>2020-06-10T21:05:12Z</time>
      </trkpt>
      <trkpt lat="46.02575" lon="4.66276">
        <ele>245</ele>
        <time>2020-06-10T21:05:16Z</time>
      </trkpt>
      <trkpt lat="46.02586" lon="4.66277">
        <ele>244</ele>
        <time>2020-06-10T21:05:18Z</time>
      </trkpt>
      <trkpt lat="46.0259" lon="4.66277">
        <ele>244</ele>
        <time>2020-06-10T21:05:18Z</time>
      </trkpt>
      <trkpt lat="46.02599" lon="4.66267">
        <ele>243</ele>
        <time>2020-06-10T21:05:21Z</time>
      </trkpt>
      <trkpt lat="46.02605" lon="4.66256">
        <ele>243</ele>
        <time>2020-06-10T21:05:22Z</time>
      </trkpt>
      <trkpt lat="46.02608" lon="4.6624">
        <ele>242</ele>
        <time>2020-06-10T21:05:24Z</time>
      </trkpt>
      <trkpt lat="46.02609" lon="4.66225">
        <ele>241</ele>
        <time>2020-06-10T21:05:26Z</time>
      </trkpt>
      <trkpt lat="46.02616" lon="4.66191">
        <ele>240</ele>
        <time>2020-06-10T21:05:31Z</time>
      </trkpt>
      <trkpt lat="46.02623" lon="4.66169">
        <ele>239</ele>
        <time>2020-06-10T21:05:34Z</time>
      </trkpt>
      <trkpt lat="46.02641" lon="4.66158">
        <ele>237</ele>
        <time>2020-06-10T21:05:37Z</time>
      </trkpt>
      <trkpt lat="46.02655" lon="4.66154">
        <ele>236</ele>
        <time>2020-06-10T21:05:40Z</time>
      </trkpt>
      <trkpt lat="46.02703" lon="4.66146">
        <ele>236</ele>
        <time>2020-06-10T21:05:48Z</time>
      </trkpt>
      <trkpt lat="46.02732" lon="4.66136">
        <ele>236</ele>
        <time>2020-06-10T21:05:53Z</time>
      </trkpt>
      <trkpt lat="46.02772" lon="4.6611">
        <ele>235</ele>
        <time>2020-06-10T21:06:01Z</time>
      </trkpt>
      <trkpt lat="46.02825" lon="4.66061">
        <ele>234</ele>
        <time>2020-06-10T21:06:12Z</time>
      </trkpt>
      <trkpt lat="46.02861" lon="4.66025">
        <ele>237</ele>
        <time>2020-06-10T21:06:20Z</time>
      </trkpt>
      <trkpt lat="46.02882" lon="4.66012">
        <ele>239</ele>
        <time>2020-06-10T21:06:24Z</time>
      </trkpt>
      <trkpt lat="46.02904" lon="4.66004">
        <ele>241</ele>
        <time>2020-06-10T21:06:28Z</time>
      </trkpt>
      <trkpt lat="46.02921" lon="4.66007">
        <ele>242</ele>
        <time>2020-06-10T21:06:31Z</time>
      </trkpt>
      <trkpt lat="46.02925" lon="4.66009">
        <ele>242</ele>
        <time>2020-06-10T21:06:32Z</time>
      </trkpt>
      <trkpt lat="46.0294" lon="4.66017">
        <ele>244</ele>
        <time>2020-06-10T21:06:35Z</time>
      </trkpt>
      <trkpt lat="46.02952" lon="4.66027">
        <ele>244</ele>
        <time>2020-06-10T21:06:37Z</time>
      </trkpt>
      <trkpt lat="46.02959" lon="4.66033">
        <ele>245</ele>
        <time>2020-06-10T21:06:39Z</time>
      </trkpt>
      <trkpt lat="46.02993" lon="4.66066">
        <ele>246</ele>
        <time>2020-06-10T21:06:46Z</time>
      </trkpt>
      <trkpt lat="46.02997" lon="4.6607">
        <ele>247</ele>
        <time>2020-06-10T21:06:47Z</time>
      </trkpt>
      <trkpt lat="46.03004" lon="4.66075">
        <ele>247</ele>
        <time>2020-06-10T21:06:48Z</time>
      </trkpt>
      <trkpt lat="46.03059" lon="4.66124">
        <ele>248</ele>
        <time>2020-06-10T21:07:00Z</time>
      </trkpt>
      <trkpt lat="46.0308" lon="4.6615">
        <ele>248</ele>
        <time>2020-06-10T21:07:05Z</time>
      </trkpt>
      <trkpt lat="46.03097" lon="4.66184">
        <ele>246</ele>
        <time>2020-06-10T21:07:10Z</time>
      </trkpt>
      <trkpt lat="46.03105" lon="4.66196">
        <ele>246</ele>
        <time>2020-06-10T21:07:12Z</time>
      </trkpt>
      <trkpt lat="46.03114" lon="4.66204">
        <ele>246</ele>
        <time>2020-06-10T21:07:14Z</time>
      </trkpt>
      <trkpt lat="46.03137" lon="4.66219">
        <ele>246</ele>
        <time>2020-06-10T21:07:19Z</time>
      </trkpt>
      <trkpt lat="46.03192" lon="4.66249">
        <ele>247</ele>
        <time>2020-06-10T21:07:29Z</time>
      </trkpt>
      <trkpt lat="46.03202" lon="4.66259">
        <ele>247</ele>
        <time>2020-06-10T21:07:31Z</time>
      </trkpt>
      <trkpt lat="46.03208" lon="4.66268">
        <ele>246</ele>
        <time>2020-06-10T21:07:33Z</time>
      </trkpt>
      <trkpt lat="46.03237" lon="4.66327">
        <ele>244</ele>
        <time>2020-06-10T21:07:42Z</time>
      </trkpt>
      <trkpt lat="46.03249" lon="4.66345">
        <ele>244</ele>
        <time>2020-06-10T21:07:45Z</time>
      </trkpt>
      <trkpt lat="46.03269" lon="4.66366">
        <ele>243</ele>
        <time>2020-06-10T21:07:49Z</time>
      </trkpt>
      <trkpt lat="46.03343" lon="4.66438">
        <ele>242</ele>
        <time>2020-06-10T21:08:05Z</time>
      </trkpt>
      <trkpt lat="46.03393" lon="4.66499">
        <ele>243</ele>
        <time>2020-06-10T21:08:17Z</time>
      </trkpt>
      <trkpt lat="46.03398" lon="4.66499">
        <ele>243</ele>
        <time>2020-06-10T21:08:18Z</time>
      </trkpt>
      <trkpt lat="46.03402" lon="4.6651">
        <ele>244</ele>
        <time>2020-06-10T21:08:19Z</time>
      </trkpt>
      <trkpt lat="46.03409" lon="4.66532">
        <ele>244</ele>
        <time>2020-06-10T21:08:22Z</time>
      </trkpt>
      <trkpt lat="46.03412" lon="4.6654">
        <ele>244</ele>
        <time>2020-06-10T21:08:23Z</time>
      </trkpt>
      <trkpt lat="46.03416" lon="4.66555">
        <ele>245</ele>
        <time>2020-06-10T21:08:25Z</time>
      </trkpt>
      <trkpt lat="46.03442" lon="4.66555">
        <ele>245</ele>
        <time>2020-06-10T21:08:30Z</time>
      </trkpt>
      <trkpt lat="46.03451" lon="4.66554">
        <ele>245</ele>
        <time>2020-06-10T21:08:31Z</time>
      </trkpt>
      <trkpt lat="46.03481" lon="4.66542">
        <ele>245</ele>
        <time>2020-06-10T21:08:37Z</time>
      </trkpt>
      <trkpt lat="46.03508" lon="4.66528">
        <ele>245</ele>
        <time>2020-06-10T21:08:42Z</time>
      </trkpt>
      <trkpt lat="46.0353" lon="4.66517">
        <ele>244</ele>
        <time>2020-06-10T21:08:46Z</time>
      </trkpt>
      <trkpt lat="46.03556" lon="4.66486">
        <ele>242</ele>
        <time>2020-06-10T21:08:52Z</time>
      </trkpt>
      <trkpt lat="46.03568" lon="4.66476">
        <ele>242</ele>
        <time>2020-06-10T21:08:55Z</time>
      </trkpt>
      <trkpt lat="46.03583" lon="4.66471">
        <ele>241</ele>
        <time>2020-06-10T21:08:57Z</time>
      </trkpt>
      <trkpt lat="46.03619" lon="4.66467">
        <ele>239</ele>
        <time>2020-06-10T21:09:04Z</time>
      </trkpt>
      <trkpt lat="46.03633" lon="4.66459">
        <ele>239</ele>
        <time>2020-06-10T21:09:07Z</time>
      </trkpt>
      <trkpt lat="46.03659" lon="4.66444">
        <ele>238</ele>
        <time>2020-06-10T21:09:11Z</time>
      </trkpt>
      <trkpt lat="46.03731" lon="4.66391">
        <ele>242</ele>
        <time>2020-06-10T21:09:26Z</time>
      </trkpt>
      <trkpt lat="46.03755" lon="4.66374">
        <ele>243</ele>
        <time>2020-06-10T21:09:31Z</time>
      </trkpt>
      <trkpt lat="46.03773" lon="4.66364">
        <ele>243</ele>
        <time>2020-06-10T21:09:34Z</time>
      </trkpt>
      <trkpt lat="46.03835" lon="4.66328">
        <ele>242</ele>
        <time>2020-06-10T21:09:46Z</time>
      </trkpt>
      <trkpt lat="46.03922" lon="4.6628">
        <ele>245</ele>
        <time>2020-06-10T21:10:03Z</time>
      </trkpt>
      <trkpt lat="46.03966" lon="4.66257">
        <ele>245</ele>
        <time>2020-06-10T21:10:11Z</time>
      </trkpt>
      <trkpt lat="46.03972" lon="4.66253">
        <ele>245</ele>
        <time>2020-06-10T21:10:12Z</time>
      </trkpt>
      <trkpt lat="46.04001" lon="4.66222">
        <ele>245</ele>
        <time>2020-06-10T21:10:18Z</time>
      </trkpt>
      <trkpt lat="46.04035" lon="4.66178">
        <ele>245</ele>
        <time>2020-06-10T21:10:27Z</time>
      </trkpt>
      <trkpt lat="46.04131" lon="4.66061">
        <ele>247</ele>
        <time>2020-06-10T21:10:49Z</time>
      </trkpt>
      <trkpt lat="46.04175" lon="4.66001">
        <ele>247</ele>
        <time>2020-06-10T21:11:00Z</time>
      </trkpt>
      <trkpt lat="46.04264" lon="4.66122">
        <ele>247</ele>
        <time>2020-06-10T21:11:22Z</time>
      </trkpt>
      <trkpt lat="46.0432" lon="4.66218">
        <ele>248</ele>
        <time>2020-06-10T21:11:37Z</time>
      </trkpt>
      <trkpt lat="46.0437" lon="4.6631">
        <ele>249</ele>
        <time>2020-06-10T21:11:51Z</time>
      </trkpt>
      <trkpt lat="46.04435" lon="4.66433">
        <ele>250</ele>
        <time>2020-06-10T21:12:11Z</time>
      </trkpt>
      <trkpt lat="46.04519" lon="4.66584">
        <ele>250</ele>
        <time>2020-06-10T21:12:34Z</time>
      </trkpt>
      <trkpt lat="46.04552" lon="4.6665">
        <ele>251</ele>
        <time>2020-06-10T21:12:44Z</time>
      </trkpt>
      <trkpt lat="46.04618" lon="4.6677">
        <ele>251</ele>
        <time>2020-06-10T21:13:03Z</time>
      </trkpt>
      <trkpt lat="46.04642" lon="4.66814">
        <ele>251</ele>
        <time>2020-06-10T21:13:10Z</time>
      </trkpt>
      <trkpt lat="46.04683" lon="4.66891">
        <ele>250</ele>
        <time>2020-06-10T21:13:22Z</time>
      </trkpt>
      <trkpt lat="46.04702" lon="4.66939">
        <ele>250</ele>
        <time>2020-06-10T21:13:29Z</time>
      </trkpt>
      <trkpt lat="46.04724" lon="4.6701">
        <ele>249</ele>
        <time>2020-06-10T21:13:39Z</time>
      </trkpt>
      <trkpt lat="46.04726" lon="4.67017">
        <ele>249</ele>
        <time>2020-06-10T21:13:40Z</time>
      </trkpt>
      <trkpt lat="46.04754" lon="4.67106">
        <ele>248</ele>
        <time>2020-06-10T21:13:52Z</time>
      </trkpt>
      <trkpt lat="46.04756" lon="4.67113">
        <ele>247</ele>
        <time>2020-06-10T21:13:53Z</time>
      </trkpt>
      <trkpt lat="46.04761" lon="4.67134">
        <ele>247</ele>
        <time>2020-06-10T21:13:55Z</time>
      </trkpt>
      <trkpt lat="46.04774" lon="4.67254">
        <ele>242</ele>
        <time>2020-06-10T21:14:10Z</time>
      </trkpt>
      <trkpt lat="46.04785" lon="4.67376">
        <ele>235</ele>
        <time>2020-06-10T21:14:26Z</time>
      </trkpt>
      <trkpt lat="46.04787" lon="4.6739">
        <ele>234</ele>
        <time>2020-06-10T21:14:27Z</time>
      </trkpt>
      <trkpt lat="46.04796" lon="4.67428">
        <ele>230</ele>
        <time>2020-06-10T21:14:32Z</time>
      </trkpt>
      <trkpt lat="46.04822" lon="4.67489">
        <ele>224</ele>
        <time>2020-06-10T21:14:41Z</time>
      </trkpt>
      <trkpt lat="46.04869" lon="4.67584">
        <ele>219</ele>
        <time>2020-06-10T21:14:56Z</time>
      </trkpt>
      <trkpt lat="46.04878" lon="4.676">
        <ele>219</ele>
        <time>2020-06-10T21:14:58Z</time>
      </trkpt>
      <trkpt lat="46.04928" lon="4.677">
        <ele>217</ele>
        <time>2020-06-10T21:15:13Z</time>
      </trkpt>
      <trkpt lat="46.04932" lon="4.67708">
        <ele>217</ele>
        <time>2020-06-10T21:15:15Z</time>
      </trkpt>
      <trkpt lat="46.04933" lon="4.6771">
        <ele>217</ele>
        <time>2020-06-10T21:15:15Z</time>
      </trkpt>
      <trkpt lat="46.04942" lon="4.67729">
        <ele>217</ele>
        <time>2020-06-10T21:15:18Z</time>
      </trkpt>
      <trkpt lat="46.04949" lon="4.67747">
        <ele>217</ele>
        <time>2020-06-10T21:15:20Z</time>
      </trkpt>
      <trkpt lat="46.04955" lon="4.67764">
        <ele>217</ele>
        <time>2020-06-10T21:15:23Z</time>
      </trkpt>
      <trkpt lat="46.04966" lon="4.678">
        <ele>216</ele>
        <time>2020-06-10T21:15:27Z</time>
      </trkpt>
      <trkpt lat="46.05004" lon="4.67903">
        <ele>213</ele>
        <time>2020-06-10T21:15:42Z</time>
      </trkpt>
      <trkpt lat="46.05033" lon="4.67982">
        <ele>214</ele>
        <time>2020-06-10T21:15:53Z</time>
      </trkpt>
      <trkpt lat="46.05089" lon="4.68132">
        <ele>213</ele>
        <time>2020-06-10T21:16:14Z</time>
      </trkpt>
      <trkpt lat="46.05099" lon="4.68165">
        <ele>213</ele>
        <time>2020-06-10T21:16:18Z</time>
      </trkpt>
      <trkpt lat="46.05103" lon="4.68177">
        <ele>213</ele>
        <time>2020-06-10T21:16:20Z</time>
      </trkpt>
      <trkpt lat="46.05143" lon="4.68332">
        <ele>212</ele>
        <time>2020-06-10T21:16:40Z</time>
      </trkpt>
      <trkpt lat="46.05177" lon="4.68502">
        <ele>211</ele>
        <time>2020-06-10T21:17:02Z</time>
      </trkpt>
      <trkpt lat="46.05183" lon="4.68546">
        <ele>212</ele>
        <time>2020-06-10T21:17:08Z</time>
      </trkpt>
      <trkpt lat="46.05185" lon="4.68563">
        <ele>212</ele>
        <time>2020-06-10T21:17:10Z</time>
      </trkpt>
      <trkpt lat="46.05187" lon="4.68612">
        <ele>212</ele>
        <time>2020-06-10T21:17:16Z</time>
      </trkpt>
      <trkpt lat="46.05189" lon="4.68637">
        <ele>211</ele>
        <time>2020-06-10T21:17:19Z</time>
      </trkpt>
      <trkpt lat="46.05193" lon="4.68677">
        <ele>211</ele>
        <time>2020-06-10T21:17:24Z</time>
      </trkpt>
      <trkpt lat="46.052" lon="4.68721">
        <ele>210</ele>
        <time>2020-06-10T21:17:30Z</time>
      </trkpt>
      <trkpt lat="46.05215" lon="4.68802">
        <ele>210</ele>
        <time>2020-06-10T21:17:40Z</time>
      </trkpt>
      <trkpt lat="46.05241" lon="4.68939">
        <ele>208</ele>
        <time>2020-06-10T21:17:58Z</time>
      </trkpt>
      <trkpt lat="46.05243" lon="4.68952">
        <ele>208</ele>
        <time>2020-06-10T21:17:59Z</time>
      </trkpt>
      <trkpt lat="46.05279" lon="4.6911">
        <ele>208</ele>
        <time>2020-06-10T21:18:20Z</time>
      </trkpt>
      <trkpt lat="46.05295" lon="4.69186">
        <ele>208</ele>
        <time>2020-06-10T21:18:30Z</time>
      </trkpt>
      <trkpt lat="46.05313" lon="4.69257">
        <ele>206</ele>
        <time>2020-06-10T21:18:39Z</time>
      </trkpt>
      <trkpt lat="46.05334" lon="4.69314">
        <ele>204</ele>
        <time>2020-06-10T21:18:47Z</time>
      </trkpt>
      <trkpt lat="46.05349" lon="4.69339">
        <ele>204</ele>
        <time>2020-06-10T21:18:51Z</time>
      </trkpt>
      <trkpt lat="46.05371" lon="4.69375">
        <ele>205</ele>
        <time>2020-06-10T21:18:57Z</time>
      </trkpt>
      <trkpt lat="46.05403" lon="4.69417">
        <ele>205</ele>
        <time>2020-06-10T21:19:05Z</time>
      </trkpt>
      <trkpt lat="46.05421" lon="4.69452">
        <ele>204</ele>
        <time>2020-06-10T21:19:10Z</time>
      </trkpt>
      <trkpt lat="46.05441" lon="4.69496">
        <ele>203</ele>
        <time>2020-06-10T21:19:16Z</time>
      </trkpt>
      <trkpt lat="46.05504" lon="4.69653">
        <ele>200</ele>
        <time>2020-06-10T21:19:39Z</time>
      </trkpt>
      <trkpt lat="46.0553" lon="4.69732">
        <ele>200</ele>
        <time>2020-06-10T21:19:50Z</time>
      </trkpt>
      <trkpt lat="46.05545" lon="4.69789">
        <ele>200</ele>
        <time>2020-06-10T21:19:57Z</time>
      </trkpt>
      <trkpt lat="46.05567" lon="4.6985">
        <ele>201</ele>
        <time>2020-06-10T21:20:06Z</time>
      </trkpt>
      <trkpt lat="46.05597" lon="4.69909">
        <ele>201</ele>
        <time>2020-06-10T21:20:15Z</time>
      </trkpt>
      <trkpt lat="46.05702" lon="4.7011">
        <ele>198</ele>
        <time>2020-06-10T21:20:46Z</time>
      </trkpt>
      <trkpt lat="46.05798" lon="4.70278">
        <ele>197</ele>
        <time>2020-06-10T21:21:13Z</time>
      </trkpt>
      <trkpt lat="46.05818" lon="4.70305">
        <ele>197</ele>
        <time>2020-06-10T21:21:17Z</time>
      </trkpt>
      <trkpt lat="46.05853" lon="4.70353">
        <ele>197</ele>
        <time>2020-06-10T21:21:26Z</time>
      </trkpt>
      <trkpt lat="46.05922" lon="4.70471">
        <ele>196</ele>
        <time>2020-06-10T21:21:45Z</time>
      </trkpt>
      <trkpt lat="46.05929" lon="4.7049">
        <ele>196</ele>
        <time>2020-06-10T21:21:48Z</time>
      </trkpt>
      <trkpt lat="46.05929" lon="4.70508">
        <ele>196</ele>
        <time>2020-06-10T21:21:50Z</time>
      </trkpt>
      <trkpt lat="46.05927" lon="4.70525">
        <ele>195</ele>
        <time>2020-06-10T21:21:52Z</time>
      </trkpt>
      <trkpt lat="46.05915" lon="4.70561">
        <ele>195</ele>
        <time>2020-06-10T21:21:57Z</time>
      </trkpt>
      <trkpt lat="46.05914" lon="4.70566">
        <ele>195</ele>
        <time>2020-06-10T21:21:58Z</time>
      </trkpt>
      <trkpt lat="46.05908" lon="4.7059">
        <ele>195</ele>
        <time>2020-06-10T21:22:01Z</time>
      </trkpt>
      <trkpt lat="46.05902" lon="4.70656">
        <ele>194</ele>
        <time>2020-06-10T21:22:09Z</time>
      </trkpt>
      <trkpt lat="46.05902" lon="4.70673">
        <ele>194</ele>
        <time>2020-06-10T21:22:11Z</time>
      </trkpt>
      <trkpt lat="46.05904" lon="4.70692">
        <ele>194</ele>
        <time>2020-06-10T21:22:14Z</time>
      </trkpt>
      <trkpt lat="46.0591" lon="4.70729">
        <ele>194</ele>
        <time>2020-06-10T21:22:18Z</time>
      </trkpt>
      <trkpt lat="46.05921" lon="4.70778">
        <ele>194</ele>
        <time>2020-06-10T21:22:25Z</time>
      </trkpt>
      <trkpt lat="46.05922" lon="4.70783">
        <ele>194</ele>
        <time>2020-06-10T21:22:25Z</time>
      </trkpt>
      <trkpt lat="46.05926" lon="4.70834">
        <ele>195</ele>
        <time>2020-06-10T21:22:32Z</time>
      </trkpt>
      <trkpt lat="46.05929" lon="4.70878">
        <ele>195</ele>
        <time>2020-06-10T21:22:37Z</time>
      </trkpt>
      <trkpt lat="46.05937" lon="4.70932">
        <ele>194</ele>
        <time>2020-06-10T21:22:44Z</time>
      </trkpt>
      <trkpt lat="46.05944" lon="4.70958">
        <ele>194</ele>
        <time>2020-06-10T21:22:47Z</time>
      </trkpt>
      <trkpt lat="46.0595" lon="4.70981">
        <ele>193</ele>
        <time>2020-06-10T21:22:50Z</time>
      </trkpt>
      <trkpt lat="46.05959" lon="4.71009">
        <ele>193</ele>
        <time>2020-06-10T21:22:54Z</time>
      </trkpt>
      <trkpt lat="46.05978" lon="4.71057">
        <ele>192</ele>
        <time>2020-06-10T21:23:01Z</time>
      </trkpt>
      <trkpt lat="46.05989" lon="4.71084">
        <ele>193</ele>
        <time>2020-06-10T21:23:05Z</time>
      </trkpt>
      <trkpt lat="46.06004" lon="4.71122">
        <ele>193</ele>
        <time>2020-06-10T21:23:10Z</time>
      </trkpt>
      <trkpt lat="46.06016" lon="4.71155">
        <ele>194</ele>
        <time>2020-06-10T21:23:15Z</time>
      </trkpt>
      <trkpt lat="46.06056" lon="4.71265">
        <ele>193</ele>
        <time>2020-06-10T21:23:30Z</time>
      </trkpt>
      <trkpt lat="46.06068" lon="4.71298">
        <ele>193</ele>
        <time>2020-06-10T21:23:35Z</time>
      </trkpt>
      <trkpt lat="46.06091" lon="4.71364">
        <ele>193</ele>
        <time>2020-06-10T21:23:44Z</time>
      </trkpt>
      <trkpt lat="46.06115" lon="4.71447">
        <ele>193</ele>
        <time>2020-06-10T21:23:55Z</time>
      </trkpt>
      <trkpt lat="46.06129" lon="4.71497">
        <ele>192</ele>
        <time>2020-06-10T21:24:02Z</time>
      </trkpt>
      <trkpt lat="46.06146" lon="4.71534">
        <ele>192</ele>
        <time>2020-06-10T21:24:07Z</time>
      </trkpt>
      <trkpt lat="46.06188" lon="4.71588">
        <ele>191</ele>
        <time>2020-06-10T21:24:17Z</time>
      </trkpt>
      <trkpt lat="46.06198" lon="4.71603">
        <ele>191</ele>
        <time>2020-06-10T21:24:20Z</time>
      </trkpt>
      <trkpt lat="46.06231" lon="4.7166">
        <ele>191</ele>
        <time>2020-06-10T21:24:29Z</time>
      </trkpt>
      <trkpt lat="46.06234" lon="4.71666">
        <ele>191</ele>
        <time>2020-06-10T21:24:30Z</time>
      </trkpt>
      <trkpt lat="46.06236" lon="4.7167">
        <ele>191</ele>
        <time>2020-06-10T21:24:30Z</time>
      </trkpt>
      <trkpt lat="46.06243" lon="4.71689">
        <ele>190</ele>
        <time>2020-06-10T21:24:33Z</time>
      </trkpt>
      <trkpt lat="46.06257" lon="4.71728">
        <ele>191</ele>
        <time>2020-06-10T21:24:38Z</time>
      </trkpt>
      <trkpt lat="46.06274" lon="4.71776">
        <ele>190</ele>
        <time>2020-06-10T21:24:45Z</time>
      </trkpt>
      <trkpt lat="46.06279" lon="4.71795">
        <ele>190</ele>
        <time>2020-06-10T21:24:48Z</time>
      </trkpt>
      <trkpt lat="46.06287" lon="4.71831">
        <ele>189</ele>
        <time>2020-06-10T21:24:52Z</time>
      </trkpt>
      <trkpt lat="46.06291" lon="4.71846">
        <ele>189</ele>
        <time>2020-06-10T21:24:54Z</time>
      </trkpt>
      <trkpt lat="46.06298" lon="4.71883">
        <ele>189</ele>
        <time>2020-06-10T21:24:59Z</time>
      </trkpt>
      <trkpt lat="46.06307" lon="4.71916">
        <ele>190</ele>
        <time>2020-06-10T21:25:03Z</time>
      </trkpt>
      <trkpt lat="46.06319" lon="4.71961">
        <ele>189</ele>
        <time>2020-06-10T21:25:09Z</time>
      </trkpt>
      <trkpt lat="46.06328" lon="4.71994">
        <ele>189</ele>
        <time>2020-06-10T21:25:14Z</time>
      </trkpt>
      <trkpt lat="46.06383" lon="4.72158">
        <ele>189</ele>
        <time>2020-06-10T21:25:36Z</time>
      </trkpt>
      <trkpt lat="46.06392" lon="4.72185">
        <ele>189</ele>
        <time>2020-06-10T21:25:40Z</time>
      </trkpt>
      <trkpt lat="46.06398" lon="4.72204">
        <ele>189</ele>
        <time>2020-06-10T21:25:42Z</time>
      </trkpt>
      <trkpt lat="46.06416" lon="4.72255">
        <ele>189</ele>
        <time>2020-06-10T21:25:50Z</time>
      </trkpt>
      <trkpt lat="46.0641" lon="4.72261">
        <ele>190</ele>
        <time>2020-06-10T21:25:51Z</time>
      </trkpt>
      <trkpt lat="46.06409" lon="4.72268">
        <ele>190</ele>
        <time>2020-06-10T21:25:52Z</time>
      </trkpt>
      <trkpt lat="46.0641" lon="4.72279">
        <ele>191</ele>
        <time>2020-06-10T21:25:53Z</time>
      </trkpt>
      <trkpt lat="46.06415" lon="4.72285">
        <ele>191</ele>
        <time>2020-06-10T21:25:54Z</time>
      </trkpt>
      <trkpt lat="46.06423" lon="4.72286">
        <ele>191</ele>
        <time>2020-06-10T21:25:56Z</time>
      </trkpt>
      <trkpt lat="46.0643" lon="4.72277">
        <ele>190</ele>
        <time>2020-06-10T21:25:57Z</time>
      </trkpt>
      <trkpt lat="46.06453" lon="4.72288">
        <ele>190</ele>
        <time>2020-06-10T21:26:02Z</time>
      </trkpt>
      <trkpt lat="46.06432" lon="4.7237">
        <ele>194</ele>
        <time>2020-06-10T21:26:12Z</time>
      </trkpt>
      <trkpt lat="46.06409" lon="4.72449">
        <ele>197</ele>
        <time>2020-06-10T21:26:23Z</time>
      </trkpt>
      <trkpt lat="46.06391" lon="4.72469">
        <ele>198</ele>
        <time>2020-06-10T21:26:27Z</time>
      </trkpt>
      <trkpt lat="46.06401" lon="4.72494">
        <ele>199</ele>
        <time>2020-06-10T21:26:31Z</time>
      </trkpt>
      <trkpt lat="46.06412" lon="4.72551">
        <ele>197</ele>
        <time>2020-06-10T21:26:38Z</time>
      </trkpt>
      <trkpt lat="46.06433" lon="4.72675">
        <ele>191</ele>
        <time>2020-06-10T21:26:54Z</time>
      </trkpt>
      <trkpt lat="46.06454" lon="4.72804">
        <ele>188</ele>
        <time>2020-06-10T21:27:10Z</time>
      </trkpt>
      <trkpt lat="46.06461" lon="4.72844">
        <ele>188</ele>
        <time>2020-06-10T21:27:15Z</time>
      </trkpt>
      <trkpt lat="46.06479" lon="4.72948">
        <ele>189</ele>
        <time>2020-06-10T21:27:28Z</time>
      </trkpt>
      <trkpt lat="46.0648" lon="4.72955">
        <ele>189</ele>
        <time>2020-06-10T21:27:29Z</time>
      </trkpt>
      <trkpt lat="46.0648" lon="4.72967">
        <ele>189</ele>
        <time>2020-06-10T21:27:31Z</time>
      </trkpt>
      <trkpt lat="46.06478" lon="4.72979">
        <ele>189</ele>
        <time>2020-06-10T21:27:32Z</time>
      </trkpt>
      <trkpt lat="46.06476" lon="4.7298">
        <ele>189</ele>
        <time>2020-06-10T21:27:33Z</time>
      </trkpt>
      <trkpt lat="46.06473" lon="4.72984">
        <ele>189</ele>
        <time>2020-06-10T21:27:33Z</time>
      </trkpt>
      <trkpt lat="46.06473" lon="4.7299">
        <ele>189</ele>
        <time>2020-06-10T21:27:34Z</time>
      </trkpt>
      <trkpt lat="46.06473" lon="4.72993">
        <ele>189</ele>
        <time>2020-06-10T21:27:34Z</time>
      </trkpt>
      <trkpt lat="46.06474" lon="4.72996">
        <ele>189</ele>
        <time>2020-06-10T21:27:35Z</time>
      </trkpt>
      <trkpt lat="46.06481" lon="4.72999">
        <ele>189</ele>
        <time>2020-06-10T21:27:36Z</time>
      </trkpt>
      <trkpt lat="46.06483" lon="4.72998">
        <ele>189</ele>
        <time>2020-06-10T21:27:37Z</time>
      </trkpt>
      <trkpt lat="46.06491" lon="4.7301">
        <ele>189</ele>
        <time>2020-06-10T21:27:39Z</time>
      </trkpt>
      <trkpt lat="46.065" lon="4.73027">
        <ele>189</ele>
        <time>2020-06-10T21:27:41Z</time>
      </trkpt>
      <trkpt lat="46.0654" lon="4.73132">
        <ele>188</ele>
        <time>2020-06-10T21:27:56Z</time>
      </trkpt>
      <trkpt lat="46.06543" lon="4.73151">
        <ele>187</ele>
        <time>2020-06-10T21:27:58Z</time>
      </trkpt>
      <trkpt lat="46.06544" lon="4.73163">
        <ele>187</ele>
        <time>2020-06-10T21:28:00Z</time>
      </trkpt>
      <trkpt lat="46.06545" lon="4.73173">
        <ele>187</ele>
        <time>2020-06-10T21:28:01Z</time>
      </trkpt>
      <trkpt lat="46.0655" lon="4.73221">
        <ele>186</ele>
        <time>2020-06-10T21:28:07Z</time>
      </trkpt>
      <trkpt lat="46.0656" lon="4.73246">
        <ele>185</ele>
        <time>2020-06-10T21:28:11Z</time>
      </trkpt>
      <trkpt lat="46.06563" lon="4.73255">
        <ele>185</ele>
        <time>2020-06-10T21:28:12Z</time>
      </trkpt>
      <trkpt lat="46.06579" lon="4.73301">
        <ele>183</ele>
        <time>2020-06-10T21:28:18Z</time>
      </trkpt>
      <trkpt lat="46.06583" lon="4.73311">
        <ele>183</ele>
        <time>2020-06-10T21:28:20Z</time>
      </trkpt>
      <trkpt lat="46.06585" lon="4.73318">
        <ele>183</ele>
        <time>2020-06-10T21:28:21Z</time>
      </trkpt>
      <trkpt lat="46.06583" lon="4.73321">
        <ele>182</ele>
        <time>2020-06-10T21:28:21Z</time>
      </trkpt>
      <trkpt lat="46.06581" lon="4.73329">
        <ele>182</ele>
        <time>2020-06-10T21:28:22Z</time>
      </trkpt>
      <trkpt lat="46.06582" lon="4.73335">
        <ele>182</ele>
        <time>2020-06-10T21:28:23Z</time>
      </trkpt>
      <trkpt lat="46.06583" lon="4.73339">
        <ele>182</ele>
        <time>2020-06-10T21:28:24Z</time>
      </trkpt>
      <trkpt lat="46.06586" lon="4.73341">
        <ele>182</ele>
        <time>2020-06-10T21:28:24Z</time>
      </trkpt>
      <trkpt lat="46.06592" lon="4.73342">
        <ele>182</ele>
        <time>2020-06-10T21:28:25Z</time>
      </trkpt>
      <trkpt lat="46.06594" lon="4.7334">
        <ele>182</ele>
        <time>2020-06-10T21:28:26Z</time>
      </trkpt>
      <trkpt lat="46.06597" lon="4.73337">
        <ele>182</ele>
        <time>2020-06-10T21:28:26Z</time>
      </trkpt>
      <trkpt lat="46.06602" lon="4.73345">
        <ele>182</ele>
        <time>2020-06-10T21:28:28Z</time>
      </trkpt>
      <trkpt lat="46.06624" lon="4.73358">
        <ele>182</ele>
        <time>2020-06-10T21:28:32Z</time>
      </trkpt>
      <trkpt lat="46.06632" lon="4.73363">
        <ele>182</ele>
        <time>2020-06-10T21:28:33Z</time>
      </trkpt>
      <trkpt lat="46.06641" lon="4.73369">
        <ele>182</ele>
        <time>2020-06-10T21:28:35Z</time>
      </trkpt>
      <trkpt lat="46.06656" lon="4.73389">
        <ele>182</ele>
        <time>2020-06-10T21:28:39Z</time>
      </trkpt>
      <trkpt lat="46.06675" lon="4.73417">
        <ele>182</ele>
        <time>2020-06-10T21:28:44Z</time>
      </trkpt>
      <trkpt lat="46.06682" lon="4.73427">
        <ele>181</ele>
        <time>2020-06-10T21:28:45Z</time>
      </trkpt>
      <trkpt lat="46.06717" lon="4.73477">
        <ele>180</ele>
        <time>2020-06-10T21:28:54Z</time>
      </trkpt>
      <trkpt lat="46.0672" lon="4.73482">
        <ele>180</ele>
        <time>2020-06-10T21:28:55Z</time>
      </trkpt>
      <trkpt lat="46.06728" lon="4.73495">
        <ele>180</ele>
        <time>2020-06-10T21:28:57Z</time>
      </trkpt>
      <trkpt lat="46.06741" lon="4.73519">
        <ele>180</ele>
        <time>2020-06-10T21:29:01Z</time>
      </trkpt>
      <trkpt lat="46.06747" lon="4.73532">
        <ele>180</ele>
        <time>2020-06-10T21:29:03Z</time>
      </trkpt>
      <trkpt lat="46.06756" lon="4.73541">
        <ele>180</ele>
        <time>2020-06-10T21:29:05Z</time>
      </trkpt>
      <trkpt lat="46.06761" lon="4.73547">
        <ele>180</ele>
        <time>2020-06-10T21:29:06Z</time>
      </trkpt>
      <trkpt lat="46.06775" lon="4.73578">
        <ele>180</ele>
        <time>2020-06-10T21:29:10Z</time>
      </trkpt>
      <trkpt lat="46.0678" lon="4.73582">
        <ele>180</ele>
        <time>2020-06-10T21:29:11Z</time>
      </trkpt>
      <trkpt lat="46.06796" lon="4.73605">
        <ele>179</ele>
        <time>2020-06-10T21:29:16Z</time>
      </trkpt>
      <trkpt lat="46.06893" lon="4.73716">
        <ele>176</ele>
        <time>2020-06-10T21:29:38Z</time>
      </trkpt>
      <trkpt lat="46.0691" lon="4.73742">
        <ele>177</ele>
        <time>2020-06-10T21:29:42Z</time>
      </trkpt>
      <trkpt lat="46.0693" lon="4.73764">
        <ele>177</ele>
        <time>2020-06-10T21:29:46Z</time>
      </trkpt>
      <trkpt lat="46.06954" lon="4.7378">
        <ele>176</ele>
        <time>2020-06-10T21:29:51Z</time>
      </trkpt>
      <trkpt lat="46.06977" lon="4.73786">
        <ele>176</ele>
        <time>2020-06-10T21:29:55Z</time>
      </trkpt>
      <trkpt lat="46.07041" lon="4.73794">
        <ele>177</ele>
        <time>2020-06-10T21:30:07Z</time>
      </trkpt>
      <trkpt lat="46.07062" lon="4.73799">
        <ele>178</ele>
        <time>2020-06-10T21:30:11Z</time>
      </trkpt>
      <trkpt lat="46.07094" lon="4.73818">
        <ele>178</ele>
        <time>2020-06-10T21:30:17Z</time>
      </trkpt>
      <trkpt lat="46.07119" lon="4.7384">
        <ele>177</ele>
        <time>2020-06-10T21:30:22Z</time>
      </trkpt>
      <trkpt lat="46.07143" lon="4.73873">
        <ele>176</ele>
        <time>2020-06-10T21:30:28Z</time>
      </trkpt>
      <trkpt lat="46.07211" lon="4.7407">
        <ele>177</ele>
        <time>2020-06-10T21:30:55Z</time>
      </trkpt>
      <trkpt lat="46.07237" lon="4.74145">
        <ele>177</ele>
        <time>2020-06-10T21:31:05Z</time>
      </trkpt>
      <trkpt lat="46.07282" lon="4.74285">
        <ele>174</ele>
        <time>2020-06-10T21:31:24Z</time>
      </trkpt>
      <trkpt lat="46.07293" lon="4.74348">
        <ele>174</ele>
        <time>2020-06-10T21:31:32Z</time>
      </trkpt>
      <trkpt lat="46.073" lon="4.74424">
        <ele>175</ele>
        <time>2020-06-10T21:31:42Z</time>
      </trkpt>
      <trkpt lat="46.07307" lon="4.74457">
        <ele>175</ele>
        <time>2020-06-10T21:31:46Z</time>
      </trkpt>
      <trkpt lat="46.07313" lon="4.74473">
        <ele>175</ele>
        <time>2020-06-10T21:31:48Z</time>
      </trkpt>
      <trkpt lat="46.0733" lon="4.74513">
        <ele>176</ele>
        <time>2020-06-10T21:31:54Z</time>
      </trkpt>
      <trkpt lat="46.07361" lon="4.74561">
        <ele>175</ele>
        <time>2020-06-10T21:32:02Z</time>
      </trkpt>
      <trkpt lat="46.07399" lon="4.74639">
        <ele>173</ele>
        <time>2020-06-10T21:32:14Z</time>
      </trkpt>
      <trkpt lat="46.07449" lon="4.74735">
        <ele>173</ele>
        <time>2020-06-10T21:32:29Z</time>
      </trkpt>
      <trkpt lat="46.0748" lon="4.74772">
        <ele>173</ele>
        <time>2020-06-10T21:32:36Z</time>
      </trkpt>
      <trkpt lat="46.0775" lon="4.74988">
        <ele>173</ele>
        <time>2020-06-10T21:33:31Z</time>
      </trkpt>
      <trkpt lat="46.0782" lon="4.75049">
        <ele>171</ele>
        <time>2020-06-10T21:33:45Z</time>
      </trkpt>
      <trkpt lat="46.07854" lon="4.751">
        <ele>171</ele>
        <time>2020-06-10T21:33:54Z</time>
      </trkpt>
      <trkpt lat="46.07904" lon="4.75188">
        <ele>171</ele>
        <time>2020-06-10T21:34:08Z</time>
      </trkpt>
      <trkpt lat="46.08003" lon="4.75395">
        <ele>167</ele>
        <time>2020-06-10T21:34:39Z</time>
      </trkpt>
      <trkpt lat="46.08082" lon="4.75564">
        <ele>172</ele>
        <time>2020-06-10T21:35:04Z</time>
      </trkpt>
      <trkpt lat="46.08092" lon="4.75585">
        <ele>174</ele>
        <time>2020-06-10T21:35:08Z</time>
      </trkpt>
      <trkpt lat="46.08021" lon="4.75665">
        <ele>174</ele>
        <time>2020-06-10T21:35:24Z</time>
      </trkpt>
      <trkpt lat="46.0805" lon="4.75726">
        <ele>176</ele>
        <time>2020-06-10T21:35:33Z</time>
      </trkpt>
      <trkpt lat="46.08069" lon="4.75772">
        <ele>177</ele>
        <time>2020-06-10T21:35:39Z</time>
      </trkpt>
      <trkpt lat="46.08073" lon="4.75788">
        <ele>178</ele>
        <time>2020-06-10T21:35:41Z</time>
      </trkpt>
      <trkpt lat="46.08073" lon="4.758">
        <ele>178</ele>
        <time>2020-06-10T21:35:43Z</time>
      </trkpt>
      <trkpt lat="46.08078" lon="4.7585">
        <ele>179</ele>
        <time>2020-06-10T21:35:49Z</time>
      </trkpt>
      <trkpt lat="46.08078" lon="4.75879">
        <ele>179</ele>
        <time>2020-06-10T21:35:53Z</time>
      </trkpt>
      <trkpt lat="46.08091" lon="4.75888">
        <ele>180</ele>
        <time>2020-06-10T21:35:55Z</time>
      </trkpt>
      <trkpt lat="46.08228" lon="4.75952">
        <ele>190</ele>
        <time>2020-06-10T21:36:21Z</time>
      </trkpt>
      <trkpt lat="46.08299" lon="4.75976">
        <ele>193</ele>
        <time>2020-06-10T21:36:34Z</time>
      </trkpt>
      <trkpt lat="46.08289" lon="4.76011">
        <ele>192</ele>
        <time>2020-06-10T21:36:39Z</time>
      </trkpt>
      <trkpt lat="46.08281" lon="4.76029">
        <ele>193</ele>
        <time>2020-06-10T21:36:41Z</time>
      </trkpt>
      <trkpt lat="46.08271" lon="4.76039">
        <ele>194</ele>
        <time>2020-06-10T21:36:43Z</time>
      </trkpt>
      <trkpt lat="46.0826" lon="4.76045">
        <ele>194</ele>
        <time>2020-06-10T21:36:45Z</time>
      </trkpt>
      <trkpt lat="46.08244" lon="4.76046">
        <ele>193</ele>
        <time>2020-06-10T21:36:48Z</time>
      </trkpt>
      <trkpt lat="46.08204" lon="4.76037">
        <ele>193</ele>
        <time>2020-06-10T21:36:56Z</time>
      </trkpt>
      <trkpt lat="46.08174" lon="4.76047">
        <ele>195</ele>
        <time>2020-06-10T21:37:01Z</time>
      </trkpt>
      <trkpt lat="46.08161" lon="4.76057">
        <ele>196</ele>
        <time>2020-06-10T21:37:04Z</time>
      </trkpt>
      <trkpt lat="46.08151" lon="4.76071">
        <ele>196</ele>
        <time>2020-06-10T21:37:06Z</time>
      </trkpt>
      <trkpt lat="46.08142" lon="4.76087">
        <ele>197</ele>
        <time>2020-06-10T21:37:09Z</time>
      </trkpt>
      <trkpt lat="46.08134" lon="4.76112">
        <ele>197</ele>
        <time>2020-06-10T21:37:12Z</time>
      </trkpt>
      <trkpt lat="46.08129" lon="4.7614">
        <ele>198</ele>
        <time>2020-06-10T21:37:16Z</time>
      </trkpt>
      <trkpt lat="46.08126" lon="4.7625">
        <ele>201</ele>
        <time>2020-06-10T21:37:29Z</time>
      </trkpt>
      <trkpt lat="46.08121" lon="4.76288">
        <ele>201</ele>
        <time>2020-06-10T21:37:34Z</time>
      </trkpt>
      <trkpt lat="46.08113" lon="4.76318">
        <ele>201</ele>
        <time>2020-06-10T21:37:38Z</time>
      </trkpt>
      <trkpt lat="46.08089" lon="4.76387">
        <ele>202</ele>
        <time>2020-06-10T21:37:47Z</time>
      </trkpt>
      <trkpt lat="46.08078" lon="4.76422">
        <ele>202</ele>
        <time>2020-06-10T21:37:52Z</time>
      </trkpt>
      <trkpt lat="46.08071" lon="4.76458">
        <ele>203</ele>
        <time>2020-06-10T21:37:57Z</time>
      </trkpt>
      <trkpt lat="46.08055" lon="4.76781">
        <ele>204</ele>
        <time>2020-06-10T21:38:37Z</time>
      </trkpt>
      <trkpt lat="46.08064" lon="4.76912">
        <ele>208</ele>
        <time>2020-06-10T21:38:53Z</time>
      </trkpt>
      <trkpt lat="46.08061" lon="4.76912">
        <ele>208</ele>
        <time>2020-06-10T21:38:54Z</time>
      </trkpt>
      <trkpt lat="46.08064" lon="4.76912">
        <ele>208</ele>
        <time>2020-06-10T21:38:54Z</time>
      </trkpt>
      <trkpt lat="46.08183" lon="4.76894">
        <ele>215</ele>
        <time>2020-06-10T21:39:15Z</time>
      </trkpt>
      <trkpt lat="46.08287" lon="4.76882">
        <ele>218</ele>
        <time>2020-06-10T21:39:34Z</time>
      </trkpt>
      <trkpt lat="46.08312" lon="4.76878">
        <ele>219</ele>
        <time>2020-06-10T21:39:38Z</time>
      </trkpt>
      <trkpt lat="46.08362" lon="4.76872">
        <ele>221</ele>
        <time>2020-06-10T21:39:47Z</time>
      </trkpt>
      <trkpt lat="46.08384" lon="4.76869">
        <ele>222</ele>
        <time>2020-06-10T21:39:51Z</time>
      </trkpt>
      <trkpt lat="46.08436" lon="4.76861">
        <ele>223</ele>
        <time>2020-06-10T21:40:01Z</time>
      </trkpt>
      <trkpt lat="46.08492" lon="4.76852">
        <ele>225</ele>
        <time>2020-06-10T21:40:11Z</time>
      </trkpt>
      <trkpt lat="46.08531" lon="4.76845">
        <ele>226</ele>
        <time>2020-06-10T21:40:18Z</time>
      </trkpt>
      <trkpt lat="46.08563" lon="4.7684">
        <ele>227</ele>
        <time>2020-06-10T21:40:23Z</time>
      </trkpt>
      <trkpt lat="46.08613" lon="4.76832">
        <ele>227</ele>
        <time>2020-06-10T21:40:32Z</time>
      </trkpt>
      <trkpt lat="46.08627" lon="4.7683">
        <ele>227</ele>
        <time>2020-06-10T21:40:35Z</time>
      </trkpt>
      <trkpt lat="46.08671" lon="4.76821">
        <ele>226</ele>
        <time>2020-06-10T21:40:43Z</time>
      </trkpt>
      <trkpt lat="46.08687" lon="4.76815">
        <ele>225</ele>
        <time>2020-06-10T21:40:46Z</time>
      </trkpt>
      <trkpt lat="46.08696" lon="4.7681">
        <ele>225</ele>
        <time>2020-06-10T21:40:47Z</time>
      </trkpt>
      <trkpt lat="46.08698" lon="4.76817">
        <ele>225</ele>
        <time>2020-06-10T21:40:48Z</time>
      </trkpt>
      <trkpt lat="46.08706" lon="4.76827">
        <ele>225</ele>
        <time>2020-06-10T21:40:50Z</time>
      </trkpt>
      <trkpt lat="46.08717" lon="4.7683">
        <ele>224</ele>
        <time>2020-06-10T21:40:52Z</time>
      </trkpt>
      <trkpt lat="46.08726" lon="4.76824">
        <ele>224</ele>
        <time>2020-06-10T21:40:54Z</time>
      </trkpt>
      <trkpt lat="46.08731" lon="4.76811">
        <ele>224</ele>
        <time>2020-06-10T21:40:56Z</time>
      </trkpt>
      <trkpt lat="46.08732" lon="4.76804">
        <ele>224</ele>
        <time>2020-06-10T21:40:57Z</time>
      </trkpt>
      <trkpt lat="46.08737" lon="4.76807">
        <ele>223</ele>
        <time>2020-06-10T21:40:58Z</time>
      </trkpt>
      <trkpt lat="46.0875" lon="4.76808">
        <ele>223</ele>
        <time>2020-06-10T21:41:00Z</time>
      </trkpt>
      <trkpt lat="46.08817" lon="4.76801">
        <ele>223</ele>
        <time>2020-06-10T21:41:12Z</time>
      </trkpt>
      <trkpt lat="46.08848" lon="4.76804">
        <ele>222</ele>
        <time>2020-06-10T21:41:17Z</time>
      </trkpt>
      <trkpt lat="46.08955" lon="4.76827">
        <ele>220</ele>
        <time>2020-06-10T21:41:37Z</time>
      </trkpt>
      <trkpt lat="46.09018" lon="4.76846">
        <ele>218</ele>
        <time>2020-06-10T21:41:48Z</time>
      </trkpt>
      <trkpt lat="46.09049" lon="4.76858">
        <ele>216</ele>
        <time>2020-06-10T21:41:54Z</time>
      </trkpt>
      <trkpt lat="46.09091" lon="4.76884">
        <ele>212</ele>
        <time>2020-06-10T21:42:02Z</time>
      </trkpt>
      <trkpt lat="46.09234" lon="4.7698">
        <ele>205</ele>
        <time>2020-06-10T21:42:30Z</time>
      </trkpt>
      <trkpt lat="46.09402" lon="4.77099">
        <ele>195</ele>
        <time>2020-06-10T21:43:03Z</time>
      </trkpt>
      <trkpt lat="46.09626" lon="4.77244">
        <ele>199</ele>
        <time>2020-06-10T21:43:47Z</time>
      </trkpt>
      <trkpt lat="46.09649" lon="4.77263">
        <ele>199</ele>
        <time>2020-06-10T21:43:52Z</time>
      </trkpt>
      <trkpt lat="46.09647" lon="4.77269">
        <ele>199</ele>
        <time>2020-06-10T21:43:53Z</time>
      </trkpt>
      <trkpt lat="46.09648" lon="4.77283">
        <ele>200</ele>
        <time>2020-06-10T21:43:54Z</time>
      </trkpt>
      <trkpt lat="46.09654" lon="4.77294">
        <ele>200</ele>
        <time>2020-06-10T21:43:56Z</time>
      </trkpt>
      <trkpt lat="46.09659" lon="4.77297">
        <ele>200</ele>
        <time>2020-06-10T21:43:57Z</time>
      </trkpt>
      <trkpt lat="46.09664" lon="4.77297">
        <ele>200</ele>
        <time>2020-06-10T21:43:58Z</time>
      </trkpt>
      <trkpt lat="46.09669" lon="4.77295">
        <ele>200</ele>
        <time>2020-06-10T21:43:59Z</time>
      </trkpt>
      <trkpt lat="46.09675" lon="4.77286">
        <ele>199</ele>
        <time>2020-06-10T21:44:00Z</time>
      </trkpt>
      <trkpt lat="46.09677" lon="4.77281">
        <ele>199</ele>
        <time>2020-06-10T21:44:01Z</time>
      </trkpt>
      <trkpt lat="46.09689" lon="4.77282">
        <ele>198</ele>
        <time>2020-06-10T21:44:03Z</time>
      </trkpt>
      <trkpt lat="46.09703" lon="4.77286">
        <ele>198</ele>
        <time>2020-06-10T21:44:06Z</time>
      </trkpt>
      <trkpt lat="46.0989" lon="4.77389">
        <ele>194</ele>
        <time>2020-06-10T21:44:41Z</time>
      </trkpt>
      <trkpt lat="46.09971" lon="4.77435">
        <ele>191</ele>
        <time>2020-06-10T21:44:57Z</time>
      </trkpt>
      <trkpt lat="46.09997" lon="4.77456">
        <ele>190</ele>
        <time>2020-06-10T21:45:02Z</time>
      </trkpt>
      <trkpt lat="46.09999" lon="4.77466">
        <ele>190</ele>
        <time>2020-06-10T21:45:03Z</time>
      </trkpt>
      <trkpt lat="46.10004" lon="4.77473">
        <ele>190</ele>
        <time>2020-06-10T21:45:05Z</time>
      </trkpt>
      <trkpt lat="46.10008" lon="4.77474">
        <ele>190</ele>
        <time>2020-06-10T21:45:05Z</time>
      </trkpt>
      <trkpt lat="46.10015" lon="4.77471">
        <ele>190</ele>
        <time>2020-06-10T21:45:07Z</time>
      </trkpt>
      <trkpt lat="46.10019" lon="4.77462">
        <ele>190</ele>
        <time>2020-06-10T21:45:08Z</time>
      </trkpt>
      <trkpt lat="46.10032" lon="4.77466">
        <ele>190</ele>
        <time>2020-06-10T21:45:10Z</time>
      </trkpt>
      <trkpt lat="46.10056" lon="4.7748">
        <ele>189</ele>
        <time>2020-06-10T21:45:15Z</time>
      </trkpt>
      <trkpt lat="46.10117" lon="4.77505">
        <ele>188</ele>
        <time>2020-06-10T21:45:26Z</time>
      </trkpt>
      <trkpt lat="46.10141" lon="4.77511">
        <ele>188</ele>
        <time>2020-06-10T21:45:31Z</time>
      </trkpt>
      <trkpt lat="46.10167" lon="4.77512">
        <ele>187</ele>
        <time>2020-06-10T21:45:35Z</time>
      </trkpt>
      <trkpt lat="46.10181" lon="4.77513">
        <ele>187</ele>
        <time>2020-06-10T21:45:38Z</time>
      </trkpt>
      <trkpt lat="46.1026" lon="4.77516">
        <ele>184</ele>
        <time>2020-06-10T21:45:52Z</time>
      </trkpt>
      <trkpt lat="46.10304" lon="4.77528">
        <ele>183</ele>
        <time>2020-06-10T21:46:00Z</time>
      </trkpt>
      <trkpt lat="46.10325" lon="4.77539">
        <ele>182</ele>
        <time>2020-06-10T21:46:04Z</time>
      </trkpt>
      <trkpt lat="46.10354" lon="4.7756">
        <ele>182</ele>
        <time>2020-06-10T21:46:09Z</time>
      </trkpt>
      <trkpt lat="46.10377" lon="4.77579">
        <ele>181</ele>
        <time>2020-06-10T21:46:14Z</time>
      </trkpt>
      <trkpt lat="46.1039" lon="4.77591">
        <ele>181</ele>
        <time>2020-06-10T21:46:17Z</time>
      </trkpt>
      <trkpt lat="46.10418" lon="4.77613">
        <ele>180</ele>
        <time>2020-06-10T21:46:23Z</time>
      </trkpt>
      <trkpt lat="46.10424" lon="4.77617">
        <ele>180</ele>
        <time>2020-06-10T21:46:24Z</time>
      </trkpt>
      <trkpt lat="46.10452" lon="4.77635">
        <ele>180</ele>
        <time>2020-06-10T21:46:29Z</time>
      </trkpt>
      <trkpt lat="46.10464" lon="4.77641">
        <ele>180</ele>
        <time>2020-06-10T21:46:31Z</time>
      </trkpt>
      <trkpt lat="46.10534" lon="4.77666">
        <ele>179</ele>
        <time>2020-06-10T21:46:44Z</time>
      </trkpt>
      <trkpt lat="46.10561" lon="4.7768">
        <ele>179</ele>
        <time>2020-06-10T21:46:49Z</time>
      </trkpt>
      <trkpt lat="46.10585" lon="4.77696">
        <ele>179</ele>
        <time>2020-06-10T21:46:54Z</time>
      </trkpt>
      <trkpt lat="46.10594" lon="4.77705">
        <ele>179</ele>
        <time>2020-06-10T21:46:56Z</time>
      </trkpt>
      <trkpt lat="46.10603" lon="4.77714">
        <ele>179</ele>
        <time>2020-06-10T21:46:58Z</time>
      </trkpt>
      <trkpt lat="46.10614" lon="4.77727">
        <ele>179</ele>
        <time>2020-06-10T21:47:01Z</time>
      </trkpt>
      <trkpt lat="46.10724" lon="4.77879">
        <ele>177</ele>
        <time>2020-06-10T21:47:28Z</time>
      </trkpt>
      <trkpt lat="46.10751" lon="4.77909">
        <ele>179</ele>
        <time>2020-06-10T21:47:34Z</time>
      </trkpt>
      <trkpt lat="46.10776" lon="4.77932">
        <ele>181</ele>
        <time>2020-06-10T21:47:39Z</time>
      </trkpt>
      <trkpt lat="46.10791" lon="4.77943">
        <ele>182</ele>
        <time>2020-06-10T21:47:42Z</time>
      </trkpt>
      <trkpt lat="46.10863" lon="4.77976">
        <ele>183</ele>
        <time>2020-06-10T21:47:55Z</time>
      </trkpt>
      <trkpt lat="46.11046" lon="4.7804">
        <ele>183</ele>
        <time>2020-06-10T21:48:29Z</time>
      </trkpt>
      <trkpt lat="46.11072" lon="4.78051">
        <ele>183</ele>
        <time>2020-06-10T21:48:34Z</time>
      </trkpt>
      <trkpt lat="46.11124" lon="4.78081">
        <ele>183</ele>
        <time>2020-06-10T21:48:44Z</time>
      </trkpt>
      <trkpt lat="46.1115" lon="4.78098">
        <ele>183</ele>
        <time>2020-06-10T21:48:49Z</time>
      </trkpt>
      <trkpt lat="46.11176" lon="4.78119">
        <ele>182</ele>
        <time>2020-06-10T21:48:54Z</time>
      </trkpt>
      <trkpt lat="46.11316" lon="4.78248">
        <ele>182</ele>
        <time>2020-06-10T21:49:24Z</time>
      </trkpt>
      <trkpt lat="46.11423" lon="4.7833">
        <ele>182</ele>
        <time>2020-06-10T21:49:45Z</time>
      </trkpt>
      <trkpt lat="46.11464" lon="4.78351">
        <ele>182</ele>
        <time>2020-06-10T21:49:53Z</time>
      </trkpt>
      <trkpt lat="46.11552" lon="4.78388">
        <ele>181</ele>
        <time>2020-06-10T21:50:09Z</time>
      </trkpt>
      <trkpt lat="46.11601" lon="4.78414">
        <ele>182</ele>
        <time>2020-06-10T21:50:19Z</time>
      </trkpt>
      <trkpt lat="46.11678" lon="4.78459">
        <ele>183</ele>
        <time>2020-06-10T21:50:33Z</time>
      </trkpt>
      <trkpt lat="46.11696" lon="4.78467">
        <ele>183</ele>
        <time>2020-06-10T21:50:37Z</time>
      </trkpt>
      <trkpt lat="46.1176" lon="4.78504">
        <ele>185</ele>
        <time>2020-06-10T21:50:49Z</time>
      </trkpt>
      <trkpt lat="46.11787" lon="4.78522">
        <ele>185</ele>
        <time>2020-06-10T21:50:54Z</time>
      </trkpt>
      <trkpt lat="46.11837" lon="4.78574">
        <ele>185</ele>
        <time>2020-06-10T21:51:05Z</time>
      </trkpt>
      <trkpt lat="46.11849" lon="4.7859">
        <ele>185</ele>
        <time>2020-06-10T21:51:08Z</time>
      </trkpt>
      <trkpt lat="46.11887" lon="4.78624">
        <ele>185</ele>
        <time>2020-06-10T21:51:16Z</time>
      </trkpt>
      <trkpt lat="46.12016" lon="4.78712">
        <ele>184</ele>
        <time>2020-06-10T21:51:41Z</time>
      </trkpt>
      <trkpt lat="46.12041" lon="4.78727">
        <ele>183</ele>
        <time>2020-06-10T21:51:46Z</time>
      </trkpt>
      <trkpt lat="46.12138" lon="4.78772">
        <ele>181</ele>
        <time>2020-06-10T21:52:04Z</time>
      </trkpt>
      <trkpt lat="46.12197" lon="4.7881">
        <ele>180</ele>
        <time>2020-06-10T21:52:16Z</time>
      </trkpt>
      <trkpt lat="46.1223" lon="4.78827">
        <ele>179</ele>
        <time>2020-06-10T21:52:22Z</time>
      </trkpt>
      <trkpt lat="46.12304" lon="4.7885">
        <ele>178</ele>
        <time>2020-06-10T21:52:36Z</time>
      </trkpt>
      <trkpt lat="46.12326" lon="4.7886">
        <ele>178</ele>
        <time>2020-06-10T21:52:40Z</time>
      </trkpt>
      <trkpt lat="46.12376" lon="4.78901">
        <ele>180</ele>
        <time>2020-06-10T21:52:50Z</time>
      </trkpt>
      <trkpt lat="46.12561" lon="4.79046">
        <ele>177</ele>
        <time>2020-06-10T21:53:27Z</time>
      </trkpt>
      <trkpt lat="46.12632" lon="4.79105">
        <ele>177</ele>
        <time>2020-06-10T21:53:42Z</time>
      </trkpt>
      <trkpt lat="46.12792" lon="4.79246">
        <ele>184</ele>
        <time>2020-06-10T21:54:15Z</time>
      </trkpt>
      <trkpt lat="46.12904" lon="4.79337">
        <ele>184</ele>
        <time>2020-06-10T21:54:38Z</time>
      </trkpt>
      <trkpt lat="46.13059" lon="4.79478">
        <ele>176</ele>
        <time>2020-06-10T21:55:11Z</time>
      </trkpt>
      <trkpt lat="46.13066" lon="4.79485">
        <ele>175</ele>
        <time>2020-06-10T21:55:12Z</time>
      </trkpt>
      <trkpt lat="46.13105" lon="4.79522">
        <ele>173</ele>
        <time>2020-06-10T21:55:21Z</time>
      </trkpt>
      <trkpt lat="46.13179" lon="4.79609">
        <ele>174</ele>
        <time>2020-06-10T21:55:38Z</time>
      </trkpt>
      <trkpt lat="46.13375" lon="4.79905">
        <ele>178</ele>
        <time>2020-06-10T21:56:28Z</time>
      </trkpt>
      <trkpt lat="46.1354" lon="4.80162">
        <ele>178</ele>
        <time>2020-06-10T21:57:11Z</time>
      </trkpt>
      <trkpt lat="46.13595" lon="4.8024">
        <ele>178</ele>
        <time>2020-06-10T21:57:25Z</time>
      </trkpt>
      <trkpt lat="46.13727" lon="4.8039">
        <ele>183</ele>
        <time>2020-06-10T21:57:55Z</time>
      </trkpt>
      <trkpt lat="46.13842" lon="4.80531">
        <ele>186</ele>
        <time>2020-06-10T21:58:22Z</time>
      </trkpt>
      <trkpt lat="46.13891" lon="4.80586">
        <ele>190</ele>
        <time>2020-06-10T21:58:33Z</time>
      </trkpt>
      <trkpt lat="46.13938" lon="4.8062">
        <ele>190</ele>
        <time>2020-06-10T21:58:42Z</time>
      </trkpt>
      <trkpt lat="46.14037" lon="4.80675">
        <ele>187</ele>
        <time>2020-06-10T21:59:01Z</time>
      </trkpt>
      <trkpt lat="46.14251" lon="4.80759">
        <ele>183</ele>
        <time>2020-06-10T21:59:41Z</time>
      </trkpt>
      <trkpt lat="46.1436" lon="4.80808">
        <ele>178</ele>
        <time>2020-06-10T22:00:01Z</time>
      </trkpt>
      <trkpt lat="46.14607" lon="4.80938">
        <ele>173</ele>
        <time>2020-06-10T22:00:48Z</time>
      </trkpt>
      <trkpt lat="46.1469" lon="4.80961">
        <ele>171</ele>
        <time>2020-06-10T22:01:03Z</time>
      </trkpt>
      <trkpt lat="46.14705" lon="4.80969">
        <ele>171</ele>
        <time>2020-06-10T22:01:05Z</time>
      </trkpt>
      <trkpt lat="46.14793" lon="4.81023">
        <ele>171</ele>
        <time>2020-06-10T22:01:23Z</time>
      </trkpt>
      <trkpt lat="46.14882" lon="4.81074">
        <ele>172</ele>
        <time>2020-06-10T22:01:40Z</time>
      </trkpt>
      <trkpt lat="46.14901" lon="4.81088">
        <ele>172</ele>
        <time>2020-06-10T22:01:43Z</time>
      </trkpt>
      <trkpt lat="46.14948" lon="4.81129">
        <ele>172</ele>
        <time>2020-06-10T22:01:53Z</time>
      </trkpt>
      <trkpt lat="46.15009" lon="4.81189">
        <ele>173</ele>
        <time>2020-06-10T22:02:06Z</time>
      </trkpt>
      <trkpt lat="46.15042" lon="4.81225">
        <ele>171</ele>
        <time>2020-06-10T22:02:14Z</time>
      </trkpt>
      <trkpt lat="46.1514" lon="4.81344">
        <ele>172</ele>
        <time>2020-06-10T22:02:36Z</time>
      </trkpt>
      <trkpt lat="46.15203" lon="4.81403">
        <ele>175</ele>
        <time>2020-06-10T22:02:50Z</time>
      </trkpt>
      <trkpt lat="46.15393" lon="4.81563">
        <ele>183</ele>
        <time>2020-06-10T22:03:29Z</time>
      </trkpt>
      <trkpt lat="46.15422" lon="4.81578">
        <ele>185</ele>
        <time>2020-06-10T22:03:34Z</time>
      </trkpt>
      <trkpt lat="46.15508" lon="4.81613">
        <ele>179</ele>
        <time>2020-06-10T22:03:50Z</time>
      </trkpt>
      <trkpt lat="46.15572" lon="4.81648">
        <ele>179</ele>
        <time>2020-06-10T22:04:02Z</time>
      </trkpt>
      <trkpt lat="46.15608" lon="4.81664">
        <ele>180</ele>
        <time>2020-06-10T22:04:09Z</time>
      </trkpt>
      <trkpt lat="46.15673" lon="4.81682">
        <ele>181</ele>
        <time>2020-06-10T22:04:21Z</time>
      </trkpt>
      <trkpt lat="46.1572" lon="4.81685">
        <ele>181</ele>
        <time>2020-06-10T22:04:29Z</time>
      </trkpt>
      <trkpt lat="46.15824" lon="4.81676">
        <ele>181</ele>
        <time>2020-06-10T22:04:48Z</time>
      </trkpt>
      <trkpt lat="46.15886" lon="4.81648">
        <ele>178</ele>
        <time>2020-06-10T22:04:59Z</time>
      </trkpt>
      <trkpt lat="46.15923" lon="4.81637">
        <ele>177</ele>
        <time>2020-06-10T22:05:06Z</time>
      </trkpt>
      <trkpt lat="46.15984" lon="4.81628">
        <ele>175</ele>
        <time>2020-06-10T22:05:17Z</time>
      </trkpt>
      <trkpt lat="46.16012" lon="4.81616">
        <ele>174</ele>
        <time>2020-06-10T22:05:22Z</time>
      </trkpt>
      <trkpt lat="46.16118" lon="4.81563">
        <ele>172</ele>
        <time>2020-06-10T22:05:42Z</time>
      </trkpt>
      <trkpt lat="46.16158" lon="4.8155">
        <ele>172</ele>
        <time>2020-06-10T22:05:49Z</time>
      </trkpt>
      <trkpt lat="46.16191" lon="4.81549">
        <ele>172</ele>
        <time>2020-06-10T22:05:55Z</time>
      </trkpt>
      <trkpt lat="46.16304" lon="4.81568">
        <ele>174</ele>
        <time>2020-06-10T22:06:16Z</time>
      </trkpt>
      <trkpt lat="46.16383" lon="4.81598">
        <ele>175</ele>
        <time>2020-06-10T22:06:30Z</time>
      </trkpt>
      <trkpt lat="46.16446" lon="4.81633">
        <ele>177</ele>
        <time>2020-06-10T22:06:42Z</time>
      </trkpt>
      <trkpt lat="46.16614" lon="4.81769">
        <ele>180</ele>
        <time>2020-06-10T22:07:16Z</time>
      </trkpt>
      <trkpt lat="46.16835" lon="4.819">
        <ele>185</ele>
        <time>2020-06-10T22:07:59Z</time>
      </trkpt>
      <trkpt lat="46.169" lon="4.81951">
        <ele>185</ele>
        <time>2020-06-10T22:08:12Z</time>
      </trkpt>
      <trkpt lat="46.16939" lon="4.81969">
        <ele>184</ele>
        <time>2020-06-10T22:08:19Z</time>
      </trkpt>
      <trkpt lat="46.16952" lon="4.81973">
        <ele>184</ele>
        <time>2020-06-10T22:08:22Z</time>
      </trkpt>
      <trkpt lat="46.16964" lon="4.81977">
        <ele>183</ele>
        <time>2020-06-10T22:08:24Z</time>
      </trkpt>
      <trkpt lat="46.17021" lon="4.81984">
        <ele>180</ele>
        <time>2020-06-10T22:08:34Z</time>
      </trkpt>
      <trkpt lat="46.17072" lon="4.8199">
        <ele>176</ele>
        <time>2020-06-10T22:08:43Z</time>
      </trkpt>
      <trkpt lat="46.17111" lon="4.81992">
        <ele>175</ele>
        <time>2020-06-10T22:08:50Z</time>
      </trkpt>
      <trkpt lat="46.17143" lon="4.8199">
        <ele>174</ele>
        <time>2020-06-10T22:08:56Z</time>
      </trkpt>
      <trkpt lat="46.17185" lon="4.8198">
        <ele>174</ele>
        <time>2020-06-10T22:09:03Z</time>
      </trkpt>
      <trkpt lat="46.17256" lon="4.81941">
        <ele>177</ele>
        <time>2020-06-10T22:09:17Z</time>
      </trkpt>
      <trkpt lat="46.17263" lon="4.81937">
        <ele>177</ele>
        <time>2020-06-10T22:09:18Z</time>
      </trkpt>
      <trkpt lat="46.17306" lon="4.81914">
        <ele>177</ele>
        <time>2020-06-10T22:09:26Z</time>
      </trkpt>
      <trkpt lat="46.17327" lon="4.81904">
        <ele>177</ele>
        <time>2020-06-10T22:09:30Z</time>
      </trkpt>
      <trkpt lat="46.17354" lon="4.81893">
        <ele>177</ele>
        <time>2020-06-10T22:09:35Z</time>
      </trkpt>
      <trkpt lat="46.17402" lon="4.81879">
        <ele>178</ele>
        <time>2020-06-10T22:09:44Z</time>
      </trkpt>
      <trkpt lat="46.17436" lon="4.81876">
        <ele>177</ele>
        <time>2020-06-10T22:09:50Z</time>
      </trkpt>
      <trkpt lat="46.1745" lon="4.81874">
        <ele>177</ele>
        <time>2020-06-10T22:09:53Z</time>
      </trkpt>
      <trkpt lat="46.17487" lon="4.81871">
        <ele>177</ele>
        <time>2020-06-10T22:09:59Z</time>
      </trkpt>
      <trkpt lat="46.17506" lon="4.81869">
        <ele>177</ele>
        <time>2020-06-10T22:10:03Z</time>
      </trkpt>
      <trkpt lat="46.17518" lon="4.81868">
        <ele>177</ele>
        <time>2020-06-10T22:10:05Z</time>
      </trkpt>
      <trkpt lat="46.17581" lon="4.81858">
        <ele>177</ele>
        <time>2020-06-10T22:10:16Z</time>
      </trkpt>
      <trkpt lat="46.17591" lon="4.81856">
        <ele>177</ele>
        <time>2020-06-10T22:10:18Z</time>
      </trkpt>
      <trkpt lat="46.17596" lon="4.81855">
        <ele>177</ele>
        <time>2020-06-10T22:10:19Z</time>
      </trkpt>
      <trkpt lat="46.17632" lon="4.81848">
        <ele>178</ele>
        <time>2020-06-10T22:10:25Z</time>
      </trkpt>
      <trkpt lat="46.17655" lon="4.81843">
        <ele>178</ele>
        <time>2020-06-10T22:10:29Z</time>
      </trkpt>
      <trkpt lat="46.17686" lon="4.81839">
        <ele>178</ele>
        <time>2020-06-10T22:10:35Z</time>
      </trkpt>
      <trkpt lat="46.17727" lon="4.81842">
        <ele>178</ele>
        <time>2020-06-10T22:10:42Z</time>
      </trkpt>
      <trkpt lat="46.17797" lon="4.81833">
        <ele>178</ele>
        <time>2020-06-10T22:10:55Z</time>
      </trkpt>
      <trkpt lat="46.17822" lon="4.81856">
        <ele>178</ele>
        <time>2020-06-10T22:11:00Z</time>
      </trkpt>
      <trkpt lat="46.17839" lon="4.81878">
        <ele>177</ele>
        <time>2020-06-10T22:11:04Z</time>
      </trkpt>
      <trkpt lat="46.17853" lon="4.81897">
        <ele>177</ele>
        <time>2020-06-10T22:11:07Z</time>
      </trkpt>
      <trkpt lat="46.1787" lon="4.8192">
        <ele>177</ele>
        <time>2020-06-10T22:11:12Z</time>
      </trkpt>
      <trkpt lat="46.17874" lon="4.81926">
        <ele>177</ele>
        <time>2020-06-10T22:11:13Z</time>
      </trkpt>
      <trkpt lat="46.17898" lon="4.81948">
        <ele>176</ele>
        <time>2020-06-10T22:11:18Z</time>
      </trkpt>
      <trkpt lat="46.17907" lon="4.81963">
        <ele>176</ele>
        <time>2020-06-10T22:11:20Z</time>
      </trkpt>
      <trkpt lat="46.17907" lon="4.81968">
        <ele>176</ele>
        <time>2020-06-10T22:11:21Z</time>
      </trkpt>
      <trkpt lat="46.17909" lon="4.81974">
        <ele>176</ele>
        <time>2020-06-10T22:11:22Z</time>
      </trkpt>
      <trkpt lat="46.17912" lon="4.81977">
        <ele>176</ele>
        <time>2020-06-10T22:11:22Z</time>
      </trkpt>
      <trkpt lat="46.17914" lon="4.81979">
        <ele>176</ele>
        <time>2020-06-10T22:11:23Z</time>
      </trkpt>
      <trkpt lat="46.17922" lon="4.8198">
        <ele>176</ele>
        <time>2020-06-10T22:11:24Z</time>
      </trkpt>
      <trkpt lat="46.17925" lon="4.81977">
        <ele>176</ele>
        <time>2020-06-10T22:11:25Z</time>
      </trkpt>
      <trkpt lat="46.17942" lon="4.82005">
        <ele>175</ele>
        <time>2020-06-10T22:11:29Z</time>
      </trkpt>
      <trkpt lat="46.17959" lon="4.82023">
        <ele>175</ele>
        <time>2020-06-10T22:11:33Z</time>
      </trkpt>
      <trkpt lat="46.18016" lon="4.82076">
        <ele>176</ele>
        <time>2020-06-10T22:11:45Z</time>
      </trkpt>
      <trkpt lat="46.18084" lon="4.82138">
        <ele>177</ele>
        <time>2020-06-10T22:11:59Z</time>
      </trkpt>
      <trkpt lat="46.18091" lon="4.82144">
        <ele>177</ele>
        <time>2020-06-10T22:12:01Z</time>
      </trkpt>
      <trkpt lat="46.18099" lon="4.82151">
        <ele>177</ele>
        <time>2020-06-10T22:12:03Z</time>
      </trkpt>
      <trkpt lat="46.1811" lon="4.82159">
        <ele>177</ele>
        <time>2020-06-10T22:12:05Z</time>
      </trkpt>
      <trkpt lat="46.18163" lon="4.82202">
        <ele>176</ele>
        <time>2020-06-10T22:12:16Z</time>
      </trkpt>
      <trkpt lat="46.18173" lon="4.8221">
        <ele>176</ele>
        <time>2020-06-10T22:12:18Z</time>
      </trkpt>
      <trkpt lat="46.18228" lon="4.82253">
        <ele>176</ele>
        <time>2020-06-10T22:12:29Z</time>
      </trkpt>
      <trkpt lat="46.18237" lon="4.82261">
        <ele>176</ele>
        <time>2020-06-10T22:12:31Z</time>
      </trkpt>
      <trkpt lat="46.18276" lon="4.82289">
        <ele>176</ele>
        <time>2020-06-10T22:12:38Z</time>
      </trkpt>
      <trkpt lat="46.18353" lon="4.8233">
        <ele>177</ele>
        <time>2020-06-10T22:12:53Z</time>
      </trkpt>
      <trkpt lat="46.18436" lon="4.82372">
        <ele>177</ele>
        <time>2020-06-10T22:13:09Z</time>
      </trkpt>
      <trkpt lat="46.18456" lon="4.8238">
        <ele>178</ele>
        <time>2020-06-10T22:13:12Z</time>
      </trkpt>
      <trkpt lat="46.18493" lon="4.82386">
        <ele>178</ele>
        <time>2020-06-10T22:13:19Z</time>
      </trkpt>
      <trkpt lat="46.18498" lon="4.82386">
        <ele>178</ele>
        <time>2020-06-10T22:13:20Z</time>
      </trkpt>
      <trkpt lat="46.18546" lon="4.82388">
        <ele>177</ele>
        <time>2020-06-10T22:13:28Z</time>
      </trkpt>
      <trkpt lat="46.18568" lon="4.82387">
        <ele>177</ele>
        <time>2020-06-10T22:13:32Z</time>
      </trkpt>
      <trkpt lat="46.18665" lon="4.82384">
        <ele>177</ele>
        <time>2020-06-10T22:13:50Z</time>
      </trkpt>
      <trkpt lat="46.18724" lon="4.82376">
        <ele>176</ele>
        <time>2020-06-10T22:14:00Z</time>
      </trkpt>
      <trkpt lat="46.18773" lon="4.82367">
        <ele>176</ele>
        <time>2020-06-10T22:14:09Z</time>
      </trkpt>
      <trkpt lat="46.18815" lon="4.82362">
        <ele>176</ele>
        <time>2020-06-10T22:14:16Z</time>
      </trkpt>
      <trkpt lat="46.18862" lon="4.82365">
        <ele>177</ele>
        <time>2020-06-10T22:14:25Z</time>
      </trkpt>
      <trkpt lat="46.18914" lon="4.82373">
        <ele>177</ele>
        <time>2020-06-10T22:14:34Z</time>
      </trkpt>
      <trkpt lat="46.18925" lon="4.82375">
        <ele>177</ele>
        <time>2020-06-10T22:14:36Z</time>
      </trkpt>
      <trkpt lat="46.18941" lon="4.82377">
        <ele>177</ele>
        <time>2020-06-10T22:14:39Z</time>
      </trkpt>
      <trkpt lat="46.18954" lon="4.8238">
        <ele>178</ele>
        <time>2020-06-10T22:14:41Z</time>
      </trkpt>
      <trkpt lat="46.18985" lon="4.82391">
        <ele>178</ele>
        <time>2020-06-10T22:14:47Z</time>
      </trkpt>
      <trkpt lat="46.18998" lon="4.82394">
        <ele>178</ele>
        <time>2020-06-10T22:14:49Z</time>
      </trkpt>
      <trkpt lat="46.19037" lon="4.82404">
        <ele>179</ele>
        <time>2020-06-10T22:14:56Z</time>
      </trkpt>
      <trkpt lat="46.19063" lon="4.82413">
        <ele>180</ele>
        <time>2020-06-10T22:15:01Z</time>
      </trkpt>
      <trkpt lat="46.19077" lon="4.8242">
        <ele>180</ele>
        <time>2020-06-10T22:15:04Z</time>
      </trkpt>
      <trkpt lat="46.19082" lon="4.82422">
        <ele>180</ele>
        <time>2020-06-10T22:15:05Z</time>
      </trkpt>
      <trkpt lat="46.19089" lon="4.82426">
        <ele>180</ele>
        <time>2020-06-10T22:15:06Z</time>
      </trkpt>
      <trkpt lat="46.19107" lon="4.82435">
        <ele>180</ele>
        <time>2020-06-10T22:15:09Z</time>
      </trkpt>
      <trkpt lat="46.19157" lon="4.82452">
        <ele>180</ele>
        <time>2020-06-10T22:15:18Z</time>
      </trkpt>
      <trkpt lat="46.192" lon="4.82475">
        <ele>181</ele>
        <time>2020-06-10T22:15:27Z</time>
      </trkpt>
      <trkpt lat="46.19208" lon="4.82479">
        <ele>181</ele>
        <time>2020-06-10T22:15:28Z</time>
      </trkpt>
      <trkpt lat="46.1924" lon="4.825">
        <ele>183</ele>
        <time>2020-06-10T22:15:34Z</time>
      </trkpt>
      <trkpt lat="46.19251" lon="4.82507">
        <ele>183</ele>
        <time>2020-06-10T22:15:36Z</time>
      </trkpt>
      <trkpt lat="46.19265" lon="4.82515">
        <ele>183</ele>
        <time>2020-06-10T22:15:39Z</time>
      </trkpt>
      <trkpt lat="46.19345" lon="4.82562">
        <ele>182</ele>
        <time>2020-06-10T22:15:55Z</time>
      </trkpt>
      <trkpt lat="46.19391" lon="4.82583">
        <ele>180</ele>
        <time>2020-06-10T22:16:03Z</time>
      </trkpt>
      <trkpt lat="46.19399" lon="4.82586">
        <ele>180</ele>
        <time>2020-06-10T22:16:05Z</time>
      </trkpt>
      <trkpt lat="46.19425" lon="4.82595">
        <ele>180</ele>
        <time>2020-06-10T22:16:09Z</time>
      </trkpt>
      <trkpt lat="46.19441" lon="4.82599">
        <ele>180</ele>
        <time>2020-06-10T22:16:12Z</time>
      </trkpt>
      <trkpt lat="46.19464" lon="4.82606">
        <ele>180</ele>
        <time>2020-06-10T22:16:16Z</time>
      </trkpt>
      <trkpt lat="46.19471" lon="4.82609">
        <ele>180</ele>
        <time>2020-06-10T22:16:18Z</time>
      </trkpt>
      <trkpt lat="46.19524" lon="4.82631">
        <ele>181</ele>
        <time>2020-06-10T22:16:28Z</time>
      </trkpt>
      <trkpt lat="46.19575" lon="4.82658">
        <ele>182</ele>
        <time>2020-06-10T22:16:37Z</time>
      </trkpt>
      <trkpt lat="46.19593" lon="4.82671">
        <ele>183</ele>
        <time>2020-06-10T22:16:41Z</time>
      </trkpt>
      <trkpt lat="46.19655" lon="4.82738">
        <ele>187</ele>
        <time>2020-06-10T22:16:55Z</time>
      </trkpt>
      <trkpt lat="46.19675" lon="4.82756">
        <ele>187</ele>
        <time>2020-06-10T22:16:59Z</time>
      </trkpt>
      <trkpt lat="46.19727" lon="4.82788">
        <ele>186</ele>
        <time>2020-06-10T22:17:09Z</time>
      </trkpt>
      <trkpt lat="46.19751" lon="4.82801">
        <ele>186</ele>
        <time>2020-06-10T22:17:13Z</time>
      </trkpt>
      <trkpt lat="46.1978" lon="4.82808">
        <ele>186</ele>
        <time>2020-06-10T22:17:19Z</time>
      </trkpt>
      <trkpt lat="46.19784" lon="4.82809">
        <ele>186</ele>
        <time>2020-06-10T22:17:19Z</time>
      </trkpt>
      <trkpt lat="46.19795" lon="4.82812">
        <ele>185</ele>
        <time>2020-06-10T22:17:21Z</time>
      </trkpt>
      <trkpt lat="46.19851" lon="4.82813">
        <ele>185</ele>
        <time>2020-06-10T22:17:31Z</time>
      </trkpt>
      <trkpt lat="46.19877" lon="4.82811">
        <ele>186</ele>
        <time>2020-06-10T22:17:36Z</time>
      </trkpt>
      <trkpt lat="46.19905" lon="4.82812">
        <ele>187</ele>
        <time>2020-06-10T22:17:41Z</time>
      </trkpt>
      <trkpt lat="46.19947" lon="4.82823">
        <ele>188</ele>
        <time>2020-06-10T22:17:48Z</time>
      </trkpt>
      <trkpt lat="46.19972" lon="4.82833">
        <ele>189</ele>
        <time>2020-06-10T22:17:53Z</time>
      </trkpt>
      <trkpt lat="46.20001" lon="4.82854">
        <ele>190</ele>
        <time>2020-06-10T22:17:59Z</time>
      </trkpt>
      <trkpt lat="46.20039" lon="4.8289">
        <ele>191</ele>
        <time>2020-06-10T22:18:07Z</time>
      </trkpt>
      <trkpt lat="46.20051" lon="4.82905">
        <ele>191</ele>
        <time>2020-06-10T22:18:10Z</time>
      </trkpt>
      <trkpt lat="46.20065" lon="4.82927">
        <ele>192</ele>
        <time>2020-06-10T22:18:13Z</time>
      </trkpt>
      <trkpt lat="46.20075" lon="4.82944">
        <ele>192</ele>
        <time>2020-06-10T22:18:16Z</time>
      </trkpt>
      <trkpt lat="46.20083" lon="4.82957">
        <ele>192</ele>
        <time>2020-06-10T22:18:18Z</time>
      </trkpt>
      <trkpt lat="46.20116" lon="4.83007">
        <ele>194</ele>
        <time>2020-06-10T22:18:27Z</time>
      </trkpt>
      <trkpt lat="46.20162" lon="4.83066">
        <ele>196</ele>
        <time>2020-06-10T22:18:38Z</time>
      </trkpt>
      <trkpt lat="46.20193" lon="4.83095">
        <ele>197</ele>
        <time>2020-06-10T22:18:44Z</time>
      </trkpt>
      <trkpt lat="46.20219" lon="4.83114">
        <ele>197</ele>
        <time>2020-06-10T22:18:50Z</time>
      </trkpt>
      <trkpt lat="46.20246" lon="4.83132">
        <ele>198</ele>
        <time>2020-06-10T22:18:55Z</time>
      </trkpt>
      <trkpt lat="46.20274" lon="4.83146">
        <ele>199</ele>
        <time>2020-06-10T22:19:00Z</time>
      </trkpt>
      <trkpt lat="46.20341" lon="4.83178">
        <ele>200</ele>
        <time>2020-06-10T22:19:13Z</time>
      </trkpt>
      <trkpt lat="46.2038" lon="4.83203">
        <ele>200</ele>
        <time>2020-06-10T22:19:20Z</time>
      </trkpt>
      <trkpt lat="46.20498" lon="4.83283">
        <ele>203</ele>
        <time>2020-06-10T22:19:43Z</time>
      </trkpt>
      <trkpt lat="46.20508" lon="4.83291">
        <ele>203</ele>
        <time>2020-06-10T22:19:45Z</time>
      </trkpt>
      <trkpt lat="46.20528" lon="4.83307">
        <ele>203</ele>
        <time>2020-06-10T22:19:50Z</time>
      </trkpt>
      <trkpt lat="46.20609" lon="4.83395">
        <ele>205</ele>
        <time>2020-06-10T22:20:08Z</time>
      </trkpt>
      <trkpt lat="46.20632" lon="4.83415">
        <ele>206</ele>
        <time>2020-06-10T22:20:12Z</time>
      </trkpt>
      <trkpt lat="46.2065" lon="4.83427">
        <ele>206</ele>
        <time>2020-06-10T22:20:16Z</time>
      </trkpt>
      <trkpt lat="46.20656" lon="4.8343">
        <ele>206</ele>
        <time>2020-06-10T22:20:17Z</time>
      </trkpt>
      <trkpt lat="46.20676" lon="4.83443">
        <ele>206</ele>
        <time>2020-06-10T22:20:21Z</time>
      </trkpt>
      <trkpt lat="46.20711" lon="4.83465">
        <ele>206</ele>
        <time>2020-06-10T22:20:28Z</time>
      </trkpt>
      <trkpt lat="46.20781" lon="4.83505">
        <ele>206</ele>
        <time>2020-06-10T22:20:41Z</time>
      </trkpt>
      <trkpt lat="46.20841" lon="4.83535">
        <ele>206</ele>
        <time>2020-06-10T22:20:52Z</time>
      </trkpt>
      <trkpt lat="46.20897" lon="4.83566">
        <ele>204</ele>
        <time>2020-06-10T22:21:03Z</time>
      </trkpt>
      <trkpt lat="46.20906" lon="4.8357">
        <ele>203</ele>
        <time>2020-06-10T22:21:05Z</time>
      </trkpt>
      <trkpt lat="46.20911" lon="4.83572">
        <ele>203</ele>
        <time>2020-06-10T22:21:06Z</time>
      </trkpt>
      <trkpt lat="46.20927" lon="4.83576">
        <ele>203</ele>
        <time>2020-06-10T22:21:09Z</time>
      </trkpt>
      <trkpt lat="46.20988" lon="4.83586">
        <ele>200</ele>
        <time>2020-06-10T22:21:19Z</time>
      </trkpt>
      <trkpt lat="46.21" lon="4.83589">
        <ele>200</ele>
        <time>2020-06-10T22:21:22Z</time>
      </trkpt>
      <trkpt lat="46.21081" lon="4.83599">
        <ele>196</ele>
        <time>2020-06-10T22:21:36Z</time>
      </trkpt>
      <trkpt lat="46.2111" lon="4.83602">
        <ele>196</ele>
        <time>2020-06-10T22:21:41Z</time>
      </trkpt>
      <trkpt lat="46.21134" lon="4.83599">
        <ele>195</ele>
        <time>2020-06-10T22:21:46Z</time>
      </trkpt>
      <trkpt lat="46.21153" lon="4.83589">
        <ele>195</ele>
        <time>2020-06-10T22:21:49Z</time>
      </trkpt>
      <trkpt lat="46.21197" lon="4.83567">
        <ele>195</ele>
        <time>2020-06-10T22:21:57Z</time>
      </trkpt>
      <trkpt lat="46.21224" lon="4.83557">
        <ele>194</ele>
        <time>2020-06-10T22:22:02Z</time>
      </trkpt>
      <trkpt lat="46.21249" lon="4.83552">
        <ele>194</ele>
        <time>2020-06-10T22:22:07Z</time>
      </trkpt>
      <trkpt lat="46.21339" lon="4.83546">
        <ele>194</ele>
        <time>2020-06-10T22:22:23Z</time>
      </trkpt>
      <trkpt lat="46.21402" lon="4.83538">
        <ele>193</ele>
        <time>2020-06-10T22:22:34Z</time>
      </trkpt>
      <trkpt lat="46.2148" lon="4.83518">
        <ele>188</ele>
        <time>2020-06-10T22:22:48Z</time>
      </trkpt>
      <trkpt lat="46.21539" lon="4.835">
        <ele>187</ele>
        <time>2020-06-10T22:22:59Z</time>
      </trkpt>
      <trkpt lat="46.21582" lon="4.83488">
        <ele>188</ele>
        <time>2020-06-10T22:23:07Z</time>
      </trkpt>
      <trkpt lat="46.21623" lon="4.8347">
        <ele>188</ele>
        <time>2020-06-10T22:23:14Z</time>
      </trkpt>
      <trkpt lat="46.2166" lon="4.83447">
        <ele>188</ele>
        <time>2020-06-10T22:23:22Z</time>
      </trkpt>
      <trkpt lat="46.2167" lon="4.83441">
        <ele>188</ele>
        <time>2020-06-10T22:23:24Z</time>
      </trkpt>
      <trkpt lat="46.21681" lon="4.83438">
        <ele>188</ele>
        <time>2020-06-10T22:23:26Z</time>
      </trkpt>
      <trkpt lat="46.21716" lon="4.8344">
        <ele>187</ele>
        <time>2020-06-10T22:23:32Z</time>
      </trkpt>
      <trkpt lat="46.21739" lon="4.83447">
        <ele>187</ele>
        <time>2020-06-10T22:23:36Z</time>
      </trkpt>
      <trkpt lat="46.21742" lon="4.83448">
        <ele>187</ele>
        <time>2020-06-10T22:23:36Z</time>
      </trkpt>
      <trkpt lat="46.21775" lon="4.8346">
        <ele>187</ele>
        <time>2020-06-10T22:23:43Z</time>
      </trkpt>
      <trkpt lat="46.21816" lon="4.83474">
        <ele>186</ele>
        <time>2020-06-10T22:23:50Z</time>
      </trkpt>
      <trkpt lat="46.2182" lon="4.83476">
        <ele>186</ele>
        <time>2020-06-10T22:23:51Z</time>
      </trkpt>
      <trkpt lat="46.21865" lon="4.83483">
        <ele>185</ele>
        <time>2020-06-10T22:23:59Z</time>
      </trkpt>
      <trkpt lat="46.21876" lon="4.83487">
        <ele>185</ele>
        <time>2020-06-10T22:24:01Z</time>
      </trkpt>
      <trkpt lat="46.21923" lon="4.83516">
        <ele>183</ele>
        <time>2020-06-10T22:24:10Z</time>
      </trkpt>
      <trkpt lat="46.21952" lon="4.83528">
        <ele>183</ele>
        <time>2020-06-10T22:24:15Z</time>
      </trkpt>
      <trkpt lat="46.21975" lon="4.83528">
        <ele>183</ele>
        <time>2020-06-10T22:24:19Z</time>
      </trkpt>
      <trkpt lat="46.2201" lon="4.83526">
        <ele>183</ele>
        <time>2020-06-10T22:24:26Z</time>
      </trkpt>
      <trkpt lat="46.22065" lon="4.83517">
        <ele>182</ele>
        <time>2020-06-10T22:24:35Z</time>
      </trkpt>
      <trkpt lat="46.22081" lon="4.83514">
        <ele>182</ele>
        <time>2020-06-10T22:24:38Z</time>
      </trkpt>
      <trkpt lat="46.22083" lon="4.83534">
        <ele>181</ele>
        <time>2020-06-10T22:24:41Z</time>
      </trkpt>
      <trkpt lat="46.2209" lon="4.83574">
        <ele>179</ele>
        <time>2020-06-10T22:24:46Z</time>
      </trkpt>
      <trkpt lat="46.22093" lon="4.83581">
        <ele>179</ele>
        <time>2020-06-10T22:24:47Z</time>
      </trkpt>
      <trkpt lat="46.22103" lon="4.83605">
        <ele>178</ele>
        <time>2020-06-10T22:24:50Z</time>
      </trkpt>
      <trkpt lat="46.22106" lon="4.8361">
        <ele>178</ele>
        <time>2020-06-10T22:24:51Z</time>
      </trkpt>
      <trkpt lat="46.22114" lon="4.83626">
        <ele>178</ele>
        <time>2020-06-10T22:24:54Z</time>
      </trkpt>
      <trkpt lat="46.22119" lon="4.83632">
        <ele>178</ele>
        <time>2020-06-10T22:24:55Z</time>
      </trkpt>
      <trkpt lat="46.2215" lon="4.83651">
        <ele>178</ele>
        <time>2020-06-10T22:25:01Z</time>
      </trkpt>
      <trkpt lat="46.22166" lon="4.83675">
        <ele>178</ele>
        <time>2020-06-10T22:25:05Z</time>
      </trkpt>
      <trkpt lat="46.22178" lon="4.83685">
        <ele>178</ele>
        <time>2020-06-10T22:25:07Z</time>
      </trkpt>
      <trkpt lat="46.22194" lon="4.83691">
        <ele>178</ele>
        <time>2020-06-10T22:25:10Z</time>
      </trkpt>
      <trkpt lat="46.22239" lon="4.83711">
        <ele>178</ele>
        <time>2020-06-10T22:25:19Z</time>
      </trkpt>
      <trkpt lat="46.2225" lon="4.83718">
        <ele>178</ele>
        <time>2020-06-10T22:25:21Z</time>
      </trkpt>
      <trkpt lat="46.22288" lon="4.8374">
        <ele>179</ele>
        <time>2020-06-10T22:25:28Z</time>
      </trkpt>
      <trkpt lat="46.22298" lon="4.83746">
        <ele>179</ele>
        <time>2020-06-10T22:25:30Z</time>
      </trkpt>
      <trkpt lat="46.2233" lon="4.8378">
        <ele>180</ele>
        <time>2020-06-10T22:25:37Z</time>
      </trkpt>
      <trkpt lat="46.22348" lon="4.8379">
        <ele>181</ele>
        <time>2020-06-10T22:25:41Z</time>
      </trkpt>
      <trkpt lat="46.22363" lon="4.83795">
        <ele>181</ele>
        <time>2020-06-10T22:25:43Z</time>
      </trkpt>
      <trkpt lat="46.22367" lon="4.83798">
        <ele>181</ele>
        <time>2020-06-10T22:25:44Z</time>
      </trkpt>
      <trkpt lat="46.22377" lon="4.83804">
        <ele>182</ele>
        <time>2020-06-10T22:25:46Z</time>
      </trkpt>
      <trkpt lat="46.22402" lon="4.83826">
        <ele>183</ele>
        <time>2020-06-10T22:25:51Z</time>
      </trkpt>
      <trkpt lat="46.2242" lon="4.83852">
        <ele>184</ele>
        <time>2020-06-10T22:25:56Z</time>
      </trkpt>
      <trkpt lat="46.22441" lon="4.83871">
        <ele>184</ele>
        <time>2020-06-10T22:26:00Z</time>
      </trkpt>
      <trkpt lat="46.22482" lon="4.83899">
        <ele>184</ele>
        <time>2020-06-10T22:26:08Z</time>
      </trkpt>
      <trkpt lat="46.22556" lon="4.83942">
        <ele>187</ele>
        <time>2020-06-10T22:26:22Z</time>
      </trkpt>
      <trkpt lat="46.22621" lon="4.83984">
        <ele>189</ele>
        <time>2020-06-10T22:26:35Z</time>
      </trkpt>
      <trkpt lat="46.22645" lon="4.83996">
        <ele>188</ele>
        <time>2020-06-10T22:26:40Z</time>
      </trkpt>
      <trkpt lat="46.22678" lon="4.84007">
        <ele>186</ele>
        <time>2020-06-10T22:26:46Z</time>
      </trkpt>
      <trkpt lat="46.22685" lon="4.84007">
        <ele>186</ele>
        <time>2020-06-10T22:26:47Z</time>
      </trkpt>
      <trkpt lat="46.22686" lon="4.84013">
        <ele>186</ele>
        <time>2020-06-10T22:26:48Z</time>
      </trkpt>
      <trkpt lat="46.22687" lon="4.84045">
        <ele>186</ele>
        <time>2020-06-10T22:26:52Z</time>
      </trkpt>
      <trkpt lat="46.22682" lon="4.84099">
        <ele>187</ele>
        <time>2020-06-10T22:26:58Z</time>
      </trkpt>
      <trkpt lat="46.22686" lon="4.84107">
        <ele>187</ele>
        <time>2020-06-10T22:26:59Z</time>
      </trkpt>
      <trkpt lat="46.22695" lon="4.84104">
        <ele>186</ele>
        <time>2020-06-10T22:27:01Z</time>
      </trkpt>
      <trkpt lat="46.22759" lon="4.84112">
        <ele>182</ele>
        <time>2020-06-10T22:27:13Z</time>
      </trkpt>
      <trkpt lat="46.22769" lon="4.84117">
        <ele>183</ele>
        <time>2020-06-10T22:27:14Z</time>
      </trkpt>
      <trkpt lat="46.22782" lon="4.84127">
        <ele>183</ele>
        <time>2020-06-10T22:27:17Z</time>
      </trkpt>
      <trkpt lat="46.22797" lon="4.84134">
        <ele>184</ele>
        <time>2020-06-10T22:27:20Z</time>
      </trkpt>
      <trkpt lat="46.22813" lon="4.84138">
        <ele>184</ele>
        <time>2020-06-10T22:27:23Z</time>
      </trkpt>
      <trkpt lat="46.22863" lon="4.84129">
        <ele>185</ele>
        <time>2020-06-10T22:27:32Z</time>
      </trkpt>
      <trkpt lat="46.22886" lon="4.8413">
        <ele>186</ele>
        <time>2020-06-10T22:27:36Z</time>
      </trkpt>
      <trkpt lat="46.22898" lon="4.84127">
        <ele>187</ele>
        <time>2020-06-10T22:27:38Z</time>
      </trkpt>
      <trkpt lat="46.22912" lon="4.84118">
        <ele>187</ele>
        <time>2020-06-10T22:27:41Z</time>
      </trkpt>
      <trkpt lat="46.22929" lon="4.84103">
        <ele>187</ele>
        <time>2020-06-10T22:27:44Z</time>
      </trkpt>
      <trkpt lat="46.2294" lon="4.84087">
        <ele>187</ele>
        <time>2020-06-10T22:27:47Z</time>
      </trkpt>
      <trkpt lat="46.22952" lon="4.84071">
        <ele>186</ele>
        <time>2020-06-10T22:27:50Z</time>
      </trkpt>
      <trkpt lat="46.22963" lon="4.84061">
        <ele>186</ele>
        <time>2020-06-10T22:27:52Z</time>
      </trkpt>
      <trkpt lat="46.22965" lon="4.84059">
        <ele>186</ele>
        <time>2020-06-10T22:27:53Z</time>
      </trkpt>
      <trkpt lat="46.22967" lon="4.84063">
        <ele>186</ele>
        <time>2020-06-10T22:27:53Z</time>
      </trkpt>
      <trkpt lat="46.22974" lon="4.84068">
        <ele>187</ele>
        <time>2020-06-10T22:27:55Z</time>
      </trkpt>
      <trkpt lat="46.22981" lon="4.84067">
        <ele>187</ele>
        <time>2020-06-10T22:27:56Z</time>
      </trkpt>
      <trkpt lat="46.22984" lon="4.84064">
        <ele>187</ele>
        <time>2020-06-10T22:27:57Z</time>
      </trkpt>
      <trkpt lat="46.22987" lon="4.84059">
        <ele>187</ele>
        <time>2020-06-10T22:27:57Z</time>
      </trkpt>
      <trkpt lat="46.22988" lon="4.84047">
        <ele>186</ele>
        <time>2020-06-10T22:27:59Z</time>
      </trkpt>
      <trkpt lat="46.22987" lon="4.84041">
        <ele>186</ele>
        <time>2020-06-10T22:28:00Z</time>
      </trkpt>
      <trkpt lat="46.2299" lon="4.84039">
        <ele>186</ele>
        <time>2020-06-10T22:28:00Z</time>
      </trkpt>
      <trkpt lat="46.23001" lon="4.84032">
        <ele>186</ele>
        <time>2020-06-10T22:28:02Z</time>
      </trkpt>
      <trkpt lat="46.23017" lon="4.84029">
        <ele>185</ele>
        <time>2020-06-10T22:28:05Z</time>
      </trkpt>
      <trkpt lat="46.2303" lon="4.84023">
        <ele>185</ele>
        <time>2020-06-10T22:28:08Z</time>
      </trkpt>
      <trkpt lat="46.23044" lon="4.84015">
        <ele>185</ele>
        <time>2020-06-10T22:28:10Z</time>
      </trkpt>
      <trkpt lat="46.23057" lon="4.84007">
        <ele>185</ele>
        <time>2020-06-10T22:28:13Z</time>
      </trkpt>
      <trkpt lat="46.23069" lon="4.83995">
        <ele>185</ele>
        <time>2020-06-10T22:28:15Z</time>
      </trkpt>
      <trkpt lat="46.23083" lon="4.83976">
        <ele>185</ele>
        <time>2020-06-10T22:28:19Z</time>
      </trkpt>
      <trkpt lat="46.23129" lon="4.83901">
        <ele>184</ele>
        <time>2020-06-10T22:28:31Z</time>
      </trkpt>
      <trkpt lat="46.23151" lon="4.83868">
        <ele>184</ele>
        <time>2020-06-10T22:28:37Z</time>
      </trkpt>
      <trkpt lat="46.23176" lon="4.83838">
        <ele>184</ele>
        <time>2020-06-10T22:28:43Z</time>
      </trkpt>
      <trkpt lat="46.23189" lon="4.83825">
        <ele>184</ele>
        <time>2020-06-10T22:28:45Z</time>
      </trkpt>
      <trkpt lat="46.23239" lon="4.83787">
        <ele>183</ele>
        <time>2020-06-10T22:28:55Z</time>
      </trkpt>
      <trkpt lat="46.23253" lon="4.83783">
        <ele>182</ele>
        <time>2020-06-10T22:28:58Z</time>
      </trkpt>
      <trkpt lat="46.23274" lon="4.8378">
        <ele>182</ele>
        <time>2020-06-10T22:29:02Z</time>
      </trkpt>
      <trkpt lat="46.23309" lon="4.83784">
        <ele>183</ele>
        <time>2020-06-10T22:29:08Z</time>
      </trkpt>
      <trkpt lat="46.23326" lon="4.83781">
        <ele>183</ele>
        <time>2020-06-10T22:29:11Z</time>
      </trkpt>
      <trkpt lat="46.23336" lon="4.83776">
        <ele>183</ele>
        <time>2020-06-10T22:29:13Z</time>
      </trkpt>
      <trkpt lat="46.23351" lon="4.83761">
        <ele>182</ele>
        <time>2020-06-10T22:29:16Z</time>
      </trkpt>
      <trkpt lat="46.23434" lon="4.83637">
        <ele>180</ele>
        <time>2020-06-10T22:29:37Z</time>
      </trkpt>
      <trkpt lat="46.23452" lon="4.83616">
        <ele>180</ele>
        <time>2020-06-10T22:29:42Z</time>
      </trkpt>
      <trkpt lat="46.23462" lon="4.83607">
        <ele>180</ele>
        <time>2020-06-10T22:29:44Z</time>
      </trkpt>
      <trkpt lat="46.23486" lon="4.83594">
        <ele>180</ele>
        <time>2020-06-10T22:29:48Z</time>
      </trkpt>
      <trkpt lat="46.23494" lon="4.83591">
        <ele>180</ele>
        <time>2020-06-10T22:29:50Z</time>
      </trkpt>
      <trkpt lat="46.23508" lon="4.83588">
        <ele>180</ele>
        <time>2020-06-10T22:29:52Z</time>
      </trkpt>
      <trkpt lat="46.23521" lon="4.83585">
        <ele>180</ele>
        <time>2020-06-10T22:29:55Z</time>
      </trkpt>
      <trkpt lat="46.23558" lon="4.83578">
        <ele>180</ele>
        <time>2020-06-10T22:30:01Z</time>
      </trkpt>
      <trkpt lat="46.23579" lon="4.83571">
        <ele>180</ele>
        <time>2020-06-10T22:30:05Z</time>
      </trkpt>
      <trkpt lat="46.23612" lon="4.83555">
        <ele>180</ele>
        <time>2020-06-10T22:30:11Z</time>
      </trkpt>
      <trkpt lat="46.23651" lon="4.83527">
        <ele>180</ele>
        <time>2020-06-10T22:30:19Z</time>
      </trkpt>
      <trkpt lat="46.23709" lon="4.83485">
        <ele>179</ele>
        <time>2020-06-10T22:30:30Z</time>
      </trkpt>
      <trkpt lat="46.23718" lon="4.83478">
        <ele>179</ele>
        <time>2020-06-10T22:30:32Z</time>
      </trkpt>
      <trkpt lat="46.23739" lon="4.8346">
        <ele>179</ele>
        <time>2020-06-10T22:30:37Z</time>
      </trkpt>
      <trkpt lat="46.23759" lon="4.83438">
        <ele>178</ele>
        <time>2020-06-10T22:30:41Z</time>
      </trkpt>
      <trkpt lat="46.23835" lon="4.83358">
        <ele>177</ele>
        <time>2020-06-10T22:30:58Z</time>
      </trkpt>
      <trkpt lat="46.23864" lon="4.83327">
        <ele>176</ele>
        <time>2020-06-10T22:31:04Z</time>
      </trkpt>
      <trkpt lat="46.2389" lon="4.83292">
        <ele>176</ele>
        <time>2020-06-10T22:31:11Z</time>
      </trkpt>
      <trkpt lat="46.23911" lon="4.83251">
        <ele>175</ele>
        <time>2020-06-10T22:31:17Z</time>
      </trkpt>
      <trkpt lat="46.2392" lon="4.83238">
        <ele>175</ele>
        <time>2020-06-10T22:31:19Z</time>
      </trkpt>
      <trkpt lat="46.23926" lon="4.83233">
        <ele>175</ele>
        <time>2020-06-10T22:31:20Z</time>
      </trkpt>
      <trkpt lat="46.2398" lon="4.83206">
        <ele>177</ele>
        <time>2020-06-10T22:31:31Z</time>
      </trkpt>
      <trkpt lat="46.23987" lon="4.83206">
        <ele>177</ele>
        <time>2020-06-10T22:31:32Z</time>
      </trkpt>
      <trkpt lat="46.2399" lon="4.83207">
        <ele>177</ele>
        <time>2020-06-10T22:31:32Z</time>
      </trkpt>
      <trkpt lat="46.23997" lon="4.83186">
        <ele>177</ele>
        <time>2020-06-10T22:31:35Z</time>
      </trkpt>
      <trkpt lat="46.23998" lon="4.83181">
        <ele>178</ele>
        <time>2020-06-10T22:31:36Z</time>
      </trkpt>
      <trkpt lat="46.24008" lon="4.83154">
        <ele>178</ele>
        <time>2020-06-10T22:31:40Z</time>
      </trkpt>
      <trkpt lat="46.24015" lon="4.83144">
        <ele>178</ele>
        <time>2020-06-10T22:31:41Z</time>
      </trkpt>
      <trkpt lat="46.2402" lon="4.83141">
        <ele>177</ele>
        <time>2020-06-10T22:31:42Z</time>
      </trkpt>
      <trkpt lat="46.24026" lon="4.8314">
        <ele>177</ele>
        <time>2020-06-10T22:31:43Z</time>
      </trkpt>
      <trkpt lat="46.24033" lon="4.8314">
        <ele>177</ele>
        <time>2020-06-10T22:31:45Z</time>
      </trkpt>
      <trkpt lat="46.24043" lon="4.8314">
        <ele>177</ele>
        <time>2020-06-10T22:31:46Z</time>
      </trkpt>
      <trkpt lat="46.2405" lon="4.83139">
        <ele>177</ele>
        <time>2020-06-10T22:31:48Z</time>
      </trkpt>
      <trkpt lat="46.24058" lon="4.83136">
        <ele>177</ele>
        <time>2020-06-10T22:31:49Z</time>
      </trkpt>
      <trkpt lat="46.24059" lon="4.83136">
        <ele>177</ele>
        <time>2020-06-10T22:31:49Z</time>
      </trkpt>
      <trkpt lat="46.24087" lon="4.83125">
        <ele>176</ele>
        <time>2020-06-10T22:31:54Z</time>
      </trkpt>
      <trkpt lat="46.24096" lon="4.83122">
        <ele>176</ele>
        <time>2020-06-10T22:31:56Z</time>
      </trkpt>
      <trkpt lat="46.24107" lon="4.83083">
        <ele>175</ele>
        <time>2020-06-10T22:32:01Z</time>
      </trkpt>
      <trkpt lat="46.24111" lon="4.8307">
        <ele>175</ele>
        <time>2020-06-10T22:32:03Z</time>
      </trkpt>
      <trkpt lat="46.24116" lon="4.83053">
        <ele>175</ele>
        <time>2020-06-10T22:32:05Z</time>
      </trkpt>
      <trkpt lat="46.24128" lon="4.8301">
        <ele>175</ele>
        <time>2020-06-10T22:32:11Z</time>
      </trkpt>
      <trkpt lat="46.24131" lon="4.82997">
        <ele>175</ele>
        <time>2020-06-10T22:32:13Z</time>
      </trkpt>
      <trkpt lat="46.2414" lon="4.82954">
        <ele>174</ele>
        <time>2020-06-10T22:32:18Z</time>
      </trkpt>
      <trkpt lat="46.2415" lon="4.82901">
        <ele>173</ele>
        <time>2020-06-10T22:32:25Z</time>
      </trkpt>
      <trkpt lat="46.24151" lon="4.82851">
        <ele>172</ele>
        <time>2020-06-10T22:32:31Z</time>
      </trkpt>
      <trkpt lat="46.24151" lon="4.82839">
        <ele>172</ele>
        <time>2020-06-10T22:32:33Z</time>
      </trkpt>
      <trkpt lat="46.24152" lon="4.82829">
        <ele>172</ele>
        <time>2020-06-10T22:32:34Z</time>
      </trkpt>
      <trkpt lat="46.24156" lon="4.82775">
        <ele>171</ele>
        <time>2020-06-10T22:32:41Z</time>
      </trkpt>
      <trkpt lat="46.24171" lon="4.8262">
        <ele>172</ele>
        <time>2020-06-10T22:33:00Z</time>
      </trkpt>
      <trkpt lat="46.24179" lon="4.82562">
        <ele>172</ele>
        <time>2020-06-10T22:33:07Z</time>
      </trkpt>
      <trkpt lat="46.24205" lon="4.82424">
        <ele>172</ele>
        <time>2020-06-10T22:33:25Z</time>
      </trkpt>
      <trkpt lat="46.24244" lon="4.8223">
        <ele>172</ele>
        <time>2020-06-10T22:33:50Z</time>
      </trkpt>
      <trkpt lat="46.24244" lon="4.82221">
        <ele>172</ele>
        <time>2020-06-10T22:33:51Z</time>
      </trkpt>
      <trkpt lat="46.24244" lon="4.82208">
        <ele>172</ele>
        <time>2020-06-10T22:33:52Z</time>
      </trkpt>
      <trkpt lat="46.24241" lon="4.82167">
        <ele>173</ele>
        <time>2020-06-10T22:33:57Z</time>
      </trkpt>
      <trkpt lat="46.24231" lon="4.82123">
        <ele>172</ele>
        <time>2020-06-10T22:34:03Z</time>
      </trkpt>
      <trkpt lat="46.242" lon="4.8201">
        <ele>170</ele>
        <time>2020-06-10T22:34:18Z</time>
      </trkpt>
      <trkpt lat="46.24123" lon="4.81712">
        <ele>171</ele>
        <time>2020-06-10T22:34:57Z</time>
      </trkpt>
      <trkpt lat="46.24117" lon="4.81687">
        <ele>171</ele>
        <time>2020-06-10T22:35:00Z</time>
      </trkpt>
      <trkpt lat="46.24113" lon="4.81666">
        <ele>171</ele>
        <time>2020-06-10T22:35:03Z</time>
      </trkpt>
      <trkpt lat="46.24108" lon="4.81612">
        <ele>172</ele>
        <time>2020-06-10T22:35:10Z</time>
      </trkpt>
      <trkpt lat="46.24106" lon="4.81579">
        <ele>172</ele>
        <time>2020-06-10T22:35:14Z</time>
      </trkpt>
      <trkpt lat="46.24106" lon="4.81533">
        <ele>171</ele>
        <time>2020-06-10T22:35:20Z</time>
      </trkpt>
      <trkpt lat="46.24108" lon="4.81493">
        <ele>171</ele>
        <time>2020-06-10T22:35:24Z</time>
      </trkpt>
      <trkpt lat="46.2411" lon="4.81469">
        <ele>171</ele>
        <time>2020-06-10T22:35:27Z</time>
      </trkpt>
      <trkpt lat="46.24113" lon="4.81449">
        <ele>170</ele>
        <time>2020-06-10T22:35:30Z</time>
      </trkpt>
      <trkpt lat="46.24133" lon="4.8132">
        <ele>169</ele>
        <time>2020-06-10T22:35:46Z</time>
      </trkpt>
      <trkpt lat="46.24137" lon="4.81298">
        <ele>170</ele>
        <time>2020-06-10T22:35:49Z</time>
      </trkpt>
      <trkpt lat="46.24145" lon="4.81243">
        <ele>170</ele>
        <time>2020-06-10T22:35:56Z</time>
      </trkpt>
      <trkpt lat="46.24152" lon="4.81233">
        <ele>170</ele>
        <time>2020-06-10T22:35:58Z</time>
      </trkpt>
      <trkpt lat="46.24185" lon="4.81022">
        <ele>167</ele>
        <time>2020-06-10T22:36:24Z</time>
      </trkpt>
      <trkpt lat="46.24152" lon="4.81233">
        <ele>170</ele>
        <time>2020-06-10T22:36:51Z</time>
      </trkpt>
      <trkpt lat="46.24145" lon="4.81243">
        <ele>170</ele>
        <time>2020-06-10T22:36:53Z</time>
      </trkpt>
      <trkpt lat="46.24192" lon="4.80936">
        <ele>167</ele>
        <time>2020-06-10T22:37:31Z</time>
      </trkpt>
      <trkpt lat="46.24228" lon="4.80704">
        <ele>171</ele>
        <time>2020-06-10T22:38:01Z</time>
      </trkpt>
      <trkpt lat="46.24241" lon="4.80622">
        <ele>170</ele>
        <time>2020-06-10T22:38:11Z</time>
      </trkpt>
      <trkpt lat="46.24245" lon="4.80556">
        <ele>170</ele>
        <time>2020-06-10T22:38:19Z</time>
      </trkpt>
      <trkpt lat="46.24245" lon="4.80502">
        <ele>169</ele>
        <time>2020-06-10T22:38:26Z</time>
      </trkpt>
      <trkpt lat="46.24243" lon="4.80473">
        <ele>169</ele>
        <time>2020-06-10T22:38:29Z</time>
      </trkpt>
      <trkpt lat="46.24234" lon="4.80412">
        <ele>170</ele>
        <time>2020-06-10T22:38:37Z</time>
      </trkpt>
      <trkpt lat="46.24214" lon="4.80308">
        <ele>169</ele>
        <time>2020-06-10T22:38:50Z</time>
      </trkpt>
      <trkpt lat="46.24209" lon="4.8027">
        <ele>170</ele>
        <time>2020-06-10T22:38:55Z</time>
      </trkpt>
      <trkpt lat="46.24205" lon="4.80199">
        <ele>170</ele>
        <time>2020-06-10T22:39:04Z</time>
      </trkpt>
      <trkpt lat="46.24208" lon="4.80128">
        <ele>170</ele>
        <time>2020-06-10T22:39:13Z</time>
      </trkpt>
      <trkpt lat="46.24246" lon="4.79878">
        <ele>173</ele>
        <time>2020-06-10T22:39:44Z</time>
      </trkpt>
      <trkpt lat="46.24264" lon="4.79757">
        <ele>173</ele>
        <time>2020-06-10T22:39:59Z</time>
      </trkpt>
      <trkpt lat="46.24421" lon="4.78731">
        <ele>177</ele>
        <time>2020-06-10T22:42:09Z</time>
      </trkpt>
      <trkpt lat="46.24415" lon="4.78453">
        <ele>186</ele>
        <time>2020-06-10T22:42:43Z</time>
      </trkpt>
      <trkpt lat="46.24413" lon="4.78416">
        <ele>187</ele>
        <time>2020-06-10T22:42:47Z</time>
      </trkpt>
      <trkpt lat="46.24413" lon="4.78409">
        <ele>187</ele>
        <time>2020-06-10T22:42:48Z</time>
      </trkpt>
      <trkpt lat="46.24405" lon="4.78286">
        <ele>194</ele>
        <time>2020-06-10T22:43:04Z</time>
      </trkpt>
      <trkpt lat="46.24404" lon="4.7824">
        <ele>196</ele>
        <time>2020-06-10T22:43:09Z</time>
      </trkpt>
      <trkpt lat="46.24404" lon="4.78215">
        <ele>196</ele>
        <time>2020-06-10T22:43:12Z</time>
      </trkpt>
      <trkpt lat="46.24406" lon="4.78179">
        <ele>197</ele>
        <time>2020-06-10T22:43:17Z</time>
      </trkpt>
      <trkpt lat="46.24408" lon="4.78149">
        <ele>197</ele>
        <time>2020-06-10T22:43:20Z</time>
      </trkpt>
      <trkpt lat="46.24411" lon="4.7813">
        <ele>197</ele>
        <time>2020-06-10T22:43:23Z</time>
      </trkpt>
      <trkpt lat="46.24417" lon="4.78103">
        <ele>198</ele>
        <time>2020-06-10T22:43:26Z</time>
      </trkpt>
      <trkpt lat="46.24427" lon="4.78054">
        <ele>199</ele>
        <time>2020-06-10T22:43:33Z</time>
      </trkpt>
      <trkpt lat="46.24437" lon="4.78">
        <ele>201</ele>
        <time>2020-06-10T22:43:39Z</time>
      </trkpt>
      <trkpt lat="46.24444" lon="4.77965">
        <ele>201</ele>
        <time>2020-06-10T22:43:44Z</time>
      </trkpt>
      <trkpt lat="46.24448" lon="4.77944">
        <ele>201</ele>
        <time>2020-06-10T22:43:47Z</time>
      </trkpt>
      <trkpt lat="46.24458" lon="4.77867">
        <ele>203</ele>
        <time>2020-06-10T22:43:56Z</time>
      </trkpt>
      <trkpt lat="46.24464" lon="4.77787">
        <ele>203</ele>
        <time>2020-06-10T22:44:06Z</time>
      </trkpt>
      <trkpt lat="46.24493" lon="4.77456">
        <ele>205</ele>
        <time>2020-06-10T22:44:47Z</time>
      </trkpt>
      <trkpt lat="46.24502" lon="4.77348">
        <ele>206</ele>
        <time>2020-06-10T22:45:01Z</time>
      </trkpt>
      <trkpt lat="46.24509" lon="4.77295">
        <ele>206</ele>
        <time>2020-06-10T22:45:07Z</time>
      </trkpt>
      <trkpt lat="46.24519" lon="4.77242">
        <ele>207</ele>
        <time>2020-06-10T22:45:14Z</time>
      </trkpt>
      <trkpt lat="46.24524" lon="4.77217">
        <ele>207</ele>
        <time>2020-06-10T22:45:17Z</time>
      </trkpt>
      <trkpt lat="46.24576" lon="4.76974">
        <ele>210</ele>
        <time>2020-06-10T22:45:49Z</time>
      </trkpt>
      <trkpt lat="46.24584" lon="4.76925">
        <ele>210</ele>
        <time>2020-06-10T22:45:55Z</time>
      </trkpt>
      <trkpt lat="46.2459" lon="4.76886">
        <ele>210</ele>
        <time>2020-06-10T22:46:00Z</time>
      </trkpt>
      <trkpt lat="46.24592" lon="4.7686">
        <ele>209</ele>
        <time>2020-06-10T22:46:03Z</time>
      </trkpt>
      <trkpt lat="46.24598" lon="4.76623">
        <ele>207</ele>
        <time>2020-06-10T22:46:32Z</time>
      </trkpt>
      <trkpt lat="46.246" lon="4.76492">
        <ele>208</ele>
        <time>2020-06-10T22:46:48Z</time>
      </trkpt>
      <trkpt lat="46.24601" lon="4.76466">
        <ele>207</ele>
        <time>2020-06-10T22:46:51Z</time>
      </trkpt>
      <trkpt lat="46.2461" lon="4.76388">
        <ele>205</ele>
        <time>2020-06-10T22:47:01Z</time>
      </trkpt>
      <trkpt lat="46.24619" lon="4.76329">
        <ele>205</ele>
        <time>2020-06-10T22:47:09Z</time>
      </trkpt>
      <trkpt lat="46.24624" lon="4.76298">
        <ele>205</ele>
        <time>2020-06-10T22:47:12Z</time>
      </trkpt>
      <trkpt lat="46.24625" lon="4.76288">
        <ele>204</ele>
        <time>2020-06-10T22:47:14Z</time>
      </trkpt>
      <trkpt lat="46.24627" lon="4.76277">
        <ele>204</ele>
        <time>2020-06-10T22:47:15Z</time>
      </trkpt>
      <trkpt lat="46.24643" lon="4.76207">
        <ele>205</ele>
        <time>2020-06-10T22:47:24Z</time>
      </trkpt>
      <trkpt lat="46.24664" lon="4.76156">
        <ele>207</ele>
        <time>2020-06-10T22:47:31Z</time>
      </trkpt>
      <trkpt lat="46.24686" lon="4.76103">
        <ele>208</ele>
        <time>2020-06-10T22:47:39Z</time>
      </trkpt>
      <trkpt lat="46.24698" lon="4.7607">
        <ele>209</ele>
        <time>2020-06-10T22:47:44Z</time>
      </trkpt>
      <trkpt lat="46.24706" lon="4.76042">
        <ele>209</ele>
        <time>2020-06-10T22:47:47Z</time>
      </trkpt>
      <trkpt lat="46.2475" lon="4.7579">
        <ele>210</ele>
        <time>2020-06-10T22:48:19Z</time>
      </trkpt>
      <trkpt lat="46.24757" lon="4.75754">
        <ele>211</ele>
        <time>2020-06-10T22:48:24Z</time>
      </trkpt>
      <trkpt lat="46.24762" lon="4.7573">
        <ele>211</ele>
        <time>2020-06-10T22:48:27Z</time>
      </trkpt>
      <trkpt lat="46.24769" lon="4.75706">
        <ele>212</ele>
        <time>2020-06-10T22:48:30Z</time>
      </trkpt>
      <trkpt lat="46.24777" lon="4.75684">
        <ele>212</ele>
        <time>2020-06-10T22:48:33Z</time>
      </trkpt>
      <trkpt lat="46.24789" lon="4.7566">
        <ele>213</ele>
        <time>2020-06-10T22:48:37Z</time>
      </trkpt>
      <trkpt lat="46.24793" lon="4.75651">
        <ele>213</ele>
        <time>2020-06-10T22:48:38Z</time>
      </trkpt>
      <trkpt lat="46.24837" lon="4.75577">
        <ele>212</ele>
        <time>2020-06-10T22:48:50Z</time>
      </trkpt>
      <trkpt lat="46.24902" lon="4.75454">
        <ele>214</ele>
        <time>2020-06-10T22:49:09Z</time>
      </trkpt>
      <trkpt lat="46.24919" lon="4.75414">
        <ele>213</ele>
        <time>2020-06-10T22:49:15Z</time>
      </trkpt>
      <trkpt lat="46.25" lon="4.75191">
        <ele>219</ele>
        <time>2020-06-10T22:49:46Z</time>
      </trkpt>
      <trkpt lat="46.25012" lon="4.75166">
        <ele>219</ele>
        <time>2020-06-10T22:49:50Z</time>
      </trkpt>
      <trkpt lat="46.25023" lon="4.75131">
        <ele>220</ele>
        <time>2020-06-10T22:49:55Z</time>
      </trkpt>
      <trkpt lat="46.25037" lon="4.75075">
        <ele>219</ele>
        <time>2020-06-10T22:50:02Z</time>
      </trkpt>
      <trkpt lat="46.25049" lon="4.74996">
        <ele>219</ele>
        <time>2020-06-10T22:50:12Z</time>
      </trkpt>
      <trkpt lat="46.25052" lon="4.74958">
        <ele>220</ele>
        <time>2020-06-10T22:50:17Z</time>
      </trkpt>
      <trkpt lat="46.25055" lon="4.74939">
        <ele>220</ele>
        <time>2020-06-10T22:50:19Z</time>
      </trkpt>
      <trkpt lat="46.25058" lon="4.74922">
        <ele>220</ele>
        <time>2020-06-10T22:50:21Z</time>
      </trkpt>
      <trkpt lat="46.25069" lon="4.74891">
        <ele>220</ele>
        <time>2020-06-10T22:50:25Z</time>
      </trkpt>
      <trkpt lat="46.2508" lon="4.74869">
        <ele>220</ele>
        <time>2020-06-10T22:50:29Z</time>
      </trkpt>
      <trkpt lat="46.25113" lon="4.74818">
        <ele>223</ele>
        <time>2020-06-10T22:50:37Z</time>
      </trkpt>
      <trkpt lat="46.25245" lon="4.7462">
        <ele>225</ele>
        <time>2020-06-10T22:51:11Z</time>
      </trkpt>
      <trkpt lat="46.2527" lon="4.74583">
        <ele>226</ele>
        <time>2020-06-10T22:51:18Z</time>
      </trkpt>
      <trkpt lat="46.25289" lon="4.74556">
        <ele>227</ele>
        <time>2020-06-10T22:51:22Z</time>
      </trkpt>
      <trkpt lat="46.25325" lon="4.74511">
        <ele>228</ele>
        <time>2020-06-10T22:51:31Z</time>
      </trkpt>
      <trkpt lat="46.25335" lon="4.74498">
        <ele>228</ele>
        <time>2020-06-10T22:51:33Z</time>
      </trkpt>
      <trkpt lat="46.25355" lon="4.74474">
        <ele>230</ele>
        <time>2020-06-10T22:51:38Z</time>
      </trkpt>
      <trkpt lat="46.25389" lon="4.74425">
        <ele>231</ele>
        <time>2020-06-10T22:51:46Z</time>
      </trkpt>
      <trkpt lat="46.254" lon="4.74401">
        <ele>231</ele>
        <time>2020-06-10T22:51:50Z</time>
      </trkpt>
      <trkpt lat="46.2542" lon="4.74355">
        <ele>232</ele>
        <time>2020-06-10T22:51:57Z</time>
      </trkpt>
      <trkpt lat="46.25453" lon="4.74278">
        <ele>233</ele>
        <time>2020-06-10T22:52:08Z</time>
      </trkpt>
      <trkpt lat="46.25461" lon="4.74259">
        <ele>234</ele>
        <time>2020-06-10T22:52:10Z</time>
      </trkpt>
      <trkpt lat="46.2547" lon="4.74228">
        <ele>234</ele>
        <time>2020-06-10T22:52:15Z</time>
      </trkpt>
      <trkpt lat="46.25496" lon="4.74153">
        <ele>234</ele>
        <time>2020-06-10T22:52:25Z</time>
      </trkpt>
      <trkpt lat="46.25501" lon="4.74134">
        <ele>234</ele>
        <time>2020-06-10T22:52:27Z</time>
      </trkpt>
      <trkpt lat="46.25529" lon="4.74042">
        <ele>237</ele>
        <time>2020-06-10T22:52:40Z</time>
      </trkpt>
      <trkpt lat="46.25563" lon="4.73937">
        <ele>239</ele>
        <time>2020-06-10T22:52:54Z</time>
      </trkpt>
      <trkpt lat="46.25572" lon="4.73913">
        <ele>239</ele>
        <time>2020-06-10T22:52:57Z</time>
      </trkpt>
      <trkpt lat="46.25586" lon="4.73891">
        <ele>238</ele>
        <time>2020-06-10T22:53:01Z</time>
      </trkpt>
      <trkpt lat="46.25601" lon="4.73872">
        <ele>240</ele>
        <time>2020-06-10T22:53:05Z</time>
      </trkpt>
      <trkpt lat="46.25681" lon="4.73798">
        <ele>244</ele>
        <time>2020-06-10T22:53:21Z</time>
      </trkpt>
      <trkpt lat="46.25713" lon="4.73766">
        <ele>245</ele>
        <time>2020-06-10T22:53:28Z</time>
      </trkpt>
      <trkpt lat="46.25745" lon="4.73726">
        <ele>245</ele>
        <time>2020-06-10T22:53:36Z</time>
      </trkpt>
      <trkpt lat="46.25793" lon="4.73662">
        <ele>245</ele>
        <time>2020-06-10T22:53:48Z</time>
      </trkpt>
      <trkpt lat="46.2583" lon="4.73609">
        <ele>246</ele>
        <time>2020-06-10T22:53:57Z</time>
      </trkpt>
      <trkpt lat="46.25845" lon="4.73585">
        <ele>246</ele>
        <time>2020-06-10T22:54:01Z</time>
      </trkpt>
      <trkpt lat="46.25868" lon="4.73546">
        <ele>248</ele>
        <time>2020-06-10T22:54:07Z</time>
      </trkpt>
      <trkpt lat="46.25959" lon="4.73395">
        <ele>253</ele>
        <time>2020-06-10T22:54:32Z</time>
      </trkpt>
      <trkpt lat="46.25964" lon="4.73386">
        <ele>253</ele>
        <time>2020-06-10T22:54:33Z</time>
      </trkpt>
      <trkpt lat="46.26021" lon="4.73291">
        <ele>256</ele>
        <time>2020-06-10T22:54:49Z</time>
      </trkpt>
      <trkpt lat="46.26083" lon="4.73189">
        <ele>257</ele>
        <time>2020-06-10T22:55:05Z</time>
      </trkpt>
      <trkpt lat="46.2609" lon="4.73178">
        <ele>258</ele>
        <time>2020-06-10T22:55:07Z</time>
      </trkpt>
      <trkpt lat="46.26107" lon="4.73143">
        <ele>260</ele>
        <time>2020-06-10T22:55:12Z</time>
      </trkpt>
      <trkpt lat="46.26154" lon="4.73016">
        <ele>263</ele>
        <time>2020-06-10T22:55:30Z</time>
      </trkpt>
      <trkpt lat="46.26168" lon="4.72989">
        <ele>263</ele>
        <time>2020-06-10T22:55:34Z</time>
      </trkpt>
      <trkpt lat="46.26172" lon="4.72983">
        <ele>263</ele>
        <time>2020-06-10T22:55:35Z</time>
      </trkpt>
      <trkpt lat="46.26198" lon="4.72943">
        <ele>265</ele>
        <time>2020-06-10T22:55:42Z</time>
      </trkpt>
      <trkpt lat="46.26226" lon="4.72906">
        <ele>267</ele>
        <time>2020-06-10T22:55:49Z</time>
      </trkpt>
      <trkpt lat="46.26233" lon="4.72896">
        <ele>267</ele>
        <time>2020-06-10T22:55:51Z</time>
      </trkpt>
      <trkpt lat="46.26256" lon="4.72875">
        <ele>269</ele>
        <time>2020-06-10T22:55:55Z</time>
      </trkpt>
      <trkpt lat="46.26285" lon="4.7286">
        <ele>271</ele>
        <time>2020-06-10T22:56:01Z</time>
      </trkpt>
      <trkpt lat="46.26334" lon="4.72847">
        <ele>276</ele>
        <time>2020-06-10T22:56:10Z</time>
      </trkpt>
      <trkpt lat="46.26354" lon="4.7284">
        <ele>277</ele>
        <time>2020-06-10T22:56:13Z</time>
      </trkpt>
      <trkpt lat="46.2637" lon="4.72829">
        <ele>278</ele>
        <time>2020-06-10T22:56:17Z</time>
      </trkpt>
      <trkpt lat="46.26409" lon="4.72784">
        <ele>279</ele>
        <time>2020-06-10T22:56:25Z</time>
      </trkpt>
      <trkpt lat="46.2644" lon="4.7276">
        <ele>280</ele>
        <time>2020-06-10T22:56:32Z</time>
      </trkpt>
      <trkpt lat="46.26455" lon="4.72751">
        <ele>281</ele>
        <time>2020-06-10T22:56:35Z</time>
      </trkpt>
      <trkpt lat="46.26463" lon="4.72748">
        <ele>281</ele>
        <time>2020-06-10T22:56:36Z</time>
      </trkpt>
      <trkpt lat="46.2647" lon="4.72747">
        <ele>282</ele>
        <time>2020-06-10T22:56:37Z</time>
      </trkpt>
      <trkpt lat="46.26481" lon="4.72748">
        <ele>283</ele>
        <time>2020-06-10T22:56:39Z</time>
      </trkpt>
      <trkpt lat="46.26518" lon="4.72761">
        <ele>286</ele>
        <time>2020-06-10T22:56:46Z</time>
      </trkpt>
      <trkpt lat="46.26546" lon="4.72775">
        <ele>287</ele>
        <time>2020-06-10T22:56:51Z</time>
      </trkpt>
      <trkpt lat="46.26556" lon="4.72783">
        <ele>287</ele>
        <time>2020-06-10T22:56:53Z</time>
      </trkpt>
      <trkpt lat="46.2656" lon="4.72788">
        <ele>288</ele>
        <time>2020-06-10T22:56:54Z</time>
      </trkpt>
      <trkpt lat="46.26563" lon="4.72792">
        <ele>288</ele>
        <time>2020-06-10T22:56:55Z</time>
      </trkpt>
      <trkpt lat="46.26664" lon="4.72967">
        <ele>298</ele>
        <time>2020-06-10T22:57:23Z</time>
      </trkpt>
      <trkpt lat="46.26676" lon="4.7298">
        <ele>299</ele>
        <time>2020-06-10T22:57:26Z</time>
      </trkpt>
      <trkpt lat="46.26686" lon="4.72989">
        <ele>300</ele>
        <time>2020-06-10T22:57:28Z</time>
      </trkpt>
      <trkpt lat="46.26703" lon="4.72992">
        <ele>301</ele>
        <time>2020-06-10T22:57:31Z</time>
      </trkpt>
      <trkpt lat="46.26747" lon="4.72989">
        <ele>302</ele>
        <time>2020-06-10T22:57:39Z</time>
      </trkpt>
      <trkpt lat="46.26762" lon="4.72978">
        <ele>302</ele>
        <time>2020-06-10T22:57:42Z</time>
      </trkpt>
      <trkpt lat="46.26778" lon="4.72969">
        <ele>303</ele>
        <time>2020-06-10T22:57:45Z</time>
      </trkpt>
      <trkpt lat="46.26826" lon="4.72947">
        <ele>306</ele>
        <time>2020-06-10T22:57:54Z</time>
      </trkpt>
      <trkpt lat="46.26846" lon="4.72934">
        <ele>306</ele>
        <time>2020-06-10T22:57:58Z</time>
      </trkpt>
      <trkpt lat="46.26869" lon="4.72913">
        <ele>306</ele>
        <time>2020-06-10T22:58:02Z</time>
      </trkpt>
      <trkpt lat="46.26912" lon="4.72864">
        <ele>308</ele>
        <time>2020-06-10T22:58:12Z</time>
      </trkpt>
      <trkpt lat="46.26918" lon="4.72856">
        <ele>309</ele>
        <time>2020-06-10T22:58:14Z</time>
      </trkpt>
      <trkpt lat="46.26924" lon="4.72853">
        <ele>309</ele>
        <time>2020-06-10T22:58:15Z</time>
      </trkpt>
      <trkpt lat="46.26935" lon="4.72852">
        <ele>310</ele>
        <time>2020-06-10T22:58:17Z</time>
      </trkpt>
      <trkpt lat="46.26939" lon="4.7285">
        <ele>310</ele>
        <time>2020-06-10T22:58:17Z</time>
      </trkpt>
      <trkpt lat="46.26942" lon="4.72845">
        <ele>310</ele>
        <time>2020-06-10T22:58:18Z</time>
      </trkpt>
      <trkpt lat="46.26947" lon="4.72822">
        <ele>311</ele>
        <time>2020-06-10T22:58:21Z</time>
      </trkpt>
      <trkpt lat="46.26964" lon="4.72815">
        <ele>313</ele>
        <time>2020-06-10T22:58:24Z</time>
      </trkpt>
      <trkpt lat="46.2697" lon="4.72814">
        <ele>313</ele>
        <time>2020-06-10T22:58:25Z</time>
      </trkpt>
      <trkpt lat="46.26997" lon="4.72806">
        <ele>316</ele>
        <time>2020-06-10T22:58:30Z</time>
      </trkpt>
      <trkpt lat="46.27082" lon="4.72786">
        <ele>321</ele>
        <time>2020-06-10T22:58:46Z</time>
      </trkpt>
      <trkpt lat="46.27122" lon="4.72768">
        <ele>324</ele>
        <time>2020-06-10T22:58:53Z</time>
      </trkpt>
      <trkpt lat="46.2744" lon="4.7258">
        <ele>337</ele>
        <time>2020-06-10T22:59:54Z</time>
      </trkpt>
      <trkpt lat="46.27459" lon="4.72572">
        <ele>338</ele>
        <time>2020-06-10T22:59:58Z</time>
      </trkpt>
      <trkpt lat="46.27473" lon="4.72572">
        <ele>338</ele>
        <time>2020-06-10T23:00:00Z</time>
      </trkpt>
      <trkpt lat="46.27491" lon="4.72578">
        <ele>339</ele>
        <time>2020-06-10T23:00:04Z</time>
      </trkpt>
      <trkpt lat="46.27541" lon="4.72602">
        <ele>344</ele>
        <time>2020-06-10T23:00:13Z</time>
      </trkpt>
      <trkpt lat="46.27555" lon="4.72606">
        <ele>345</ele>
        <time>2020-06-10T23:00:16Z</time>
      </trkpt>
      <trkpt lat="46.27581" lon="4.72603">
        <ele>346</ele>
        <time>2020-06-10T23:00:20Z</time>
      </trkpt>
      <trkpt lat="46.27669" lon="4.72573">
        <ele>350</ele>
        <time>2020-06-10T23:00:36Z</time>
      </trkpt>
      <trkpt lat="46.27701" lon="4.72566">
        <ele>351</ele>
        <time>2020-06-10T23:00:42Z</time>
      </trkpt>
      <trkpt lat="46.27733" lon="4.72564">
        <ele>353</ele>
        <time>2020-06-10T23:00:48Z</time>
      </trkpt>
      <trkpt lat="46.2776" lon="4.72568">
        <ele>355</ele>
        <time>2020-06-10T23:00:53Z</time>
      </trkpt>
      <trkpt lat="46.2792" lon="4.72609">
        <ele>365</ele>
        <time>2020-06-10T23:01:21Z</time>
      </trkpt>
      <trkpt lat="46.27937" lon="4.7261">
        <ele>366</ele>
        <time>2020-06-10T23:01:24Z</time>
      </trkpt>
      <trkpt lat="46.27949" lon="4.72609">
        <ele>367</ele>
        <time>2020-06-10T23:01:27Z</time>
      </trkpt>
      <trkpt lat="46.27999" lon="4.72582">
        <ele>369</ele>
        <time>2020-06-10T23:01:36Z</time>
      </trkpt>
      <trkpt lat="46.28045" lon="4.72556">
        <ele>373</ele>
        <time>2020-06-10T23:01:45Z</time>
      </trkpt>
      <trkpt lat="46.28087" lon="4.72531">
        <ele>376</ele>
        <time>2020-06-10T23:01:53Z</time>
      </trkpt>
      <trkpt lat="46.28117" lon="4.72509">
        <ele>380</ele>
        <time>2020-06-10T23:01:59Z</time>
      </trkpt>
      <trkpt lat="46.28128" lon="4.72496">
        <ele>380</ele>
        <time>2020-06-10T23:02:01Z</time>
      </trkpt>
      <trkpt lat="46.28142" lon="4.72472">
        <ele>382</ele>
        <time>2020-06-10T23:02:05Z</time>
      </trkpt>
      <trkpt lat="46.28215" lon="4.72311">
        <ele>389</ele>
        <time>2020-06-10T23:02:29Z</time>
      </trkpt>
      <trkpt lat="46.28227" lon="4.72294">
        <ele>389</ele>
        <time>2020-06-10T23:02:32Z</time>
      </trkpt>
      <trkpt lat="46.28241" lon="4.72283">
        <ele>389</ele>
        <time>2020-06-10T23:02:35Z</time>
      </trkpt>
      <trkpt lat="46.28298" lon="4.72247">
        <ele>394</ele>
        <time>2020-06-10T23:02:46Z</time>
      </trkpt>
      <trkpt lat="46.28318" lon="4.72232">
        <ele>395</ele>
        <time>2020-06-10T23:02:50Z</time>
      </trkpt>
      <trkpt lat="46.28337" lon="4.72212">
        <ele>395</ele>
        <time>2020-06-10T23:02:54Z</time>
      </trkpt>
      <trkpt lat="46.2838" lon="4.72147">
        <ele>399</ele>
        <time>2020-06-10T23:03:05Z</time>
      </trkpt>
      <trkpt lat="46.28411" lon="4.72096">
        <ele>401</ele>
        <time>2020-06-10T23:03:14Z</time>
      </trkpt>
      <trkpt lat="46.28428" lon="4.72051">
        <ele>403</ele>
        <time>2020-06-10T23:03:20Z</time>
      </trkpt>
      <trkpt lat="46.28459" lon="4.71926">
        <ele>407</ele>
        <time>2020-06-10T23:03:36Z</time>
      </trkpt>
      <trkpt lat="46.28478" lon="4.71854">
        <ele>410</ele>
        <time>2020-06-10T23:03:46Z</time>
      </trkpt>
      <trkpt lat="46.28488" lon="4.71818">
        <ele>412</ele>
        <time>2020-06-10T23:03:50Z</time>
      </trkpt>
      <trkpt lat="46.28517" lon="4.71707">
        <ele>416</ele>
        <time>2020-06-10T23:04:05Z</time>
      </trkpt>
      <trkpt lat="46.28537" lon="4.71633">
        <ele>420</ele>
        <time>2020-06-10T23:04:15Z</time>
      </trkpt>
      <trkpt lat="46.28543" lon="4.71589">
        <ele>421</ele>
        <time>2020-06-10T23:04:20Z</time>
      </trkpt>
      <trkpt lat="46.28545" lon="4.71543">
        <ele>422</ele>
        <time>2020-06-10T23:04:26Z</time>
      </trkpt>
      <trkpt lat="46.2855" lon="4.71516">
        <ele>423</ele>
        <time>2020-06-10T23:04:29Z</time>
      </trkpt>
      <trkpt lat="46.28555" lon="4.71503">
        <ele>424</ele>
        <time>2020-06-10T23:04:31Z</time>
      </trkpt>
      <trkpt lat="46.28566" lon="4.71484">
        <ele>426</ele>
        <time>2020-06-10T23:04:34Z</time>
      </trkpt>
      <trkpt lat="46.28576" lon="4.71487">
        <ele>426</ele>
        <time>2020-06-10T23:04:36Z</time>
      </trkpt>
      <trkpt lat="46.28621" lon="4.71476">
        <ele>430</ele>
        <time>2020-06-10T23:04:44Z</time>
      </trkpt>
      <trkpt lat="46.28576" lon="4.71487">
        <ele>426</ele>
        <time>2020-06-10T23:04:52Z</time>
      </trkpt>
      <trkpt lat="46.28566" lon="4.71484">
        <ele>426</ele>
        <time>2020-06-10T23:04:54Z</time>
      </trkpt>
      <trkpt lat="46.28656" lon="4.71381">
        <ele>434</ele>
        <time>2020-06-10T23:05:15Z</time>
      </trkpt>
      <trkpt lat="46.28681" lon="4.71357">
        <ele>436</ele>
        <time>2020-06-10T23:05:20Z</time>
      </trkpt>
      <trkpt lat="46.28697" lon="4.71344">
        <ele>437</ele>
        <time>2020-06-10T23:05:23Z</time>
      </trkpt>
      <trkpt lat="46.2874" lon="4.71328">
        <ele>437</ele>
        <time>2020-06-10T23:05:31Z</time>
      </trkpt>
      <trkpt lat="46.28756" lon="4.71319">
        <ele>438</ele>
        <time>2020-06-10T23:05:34Z</time>
      </trkpt>
      <trkpt lat="46.28771" lon="4.71304">
        <ele>439</ele>
        <time>2020-06-10T23:05:37Z</time>
      </trkpt>
      <trkpt lat="46.28785" lon="4.71285">
        <ele>440</ele>
        <time>2020-06-10T23:05:41Z</time>
      </trkpt>
      <trkpt lat="46.28803" lon="4.7125">
        <ele>442</ele>
        <time>2020-06-10T23:05:46Z</time>
      </trkpt>
      <trkpt lat="46.28809" lon="4.71231">
        <ele>442</ele>
        <time>2020-06-10T23:05:49Z</time>
      </trkpt>
      <trkpt lat="46.28812" lon="4.71205">
        <ele>443</ele>
        <time>2020-06-10T23:05:52Z</time>
      </trkpt>
      <trkpt lat="46.28813" lon="4.71182">
        <ele>444</ele>
        <time>2020-06-10T23:05:55Z</time>
      </trkpt>
      <trkpt lat="46.28806" lon="4.71135">
        <ele>446</ele>
        <time>2020-06-10T23:06:01Z</time>
      </trkpt>
      <trkpt lat="46.28793" lon="4.71096">
        <ele>447</ele>
        <time>2020-06-10T23:06:06Z</time>
      </trkpt>
      <trkpt lat="46.28755" lon="4.71008">
        <ele>451</ele>
        <time>2020-06-10T23:06:19Z</time>
      </trkpt>
      <trkpt lat="46.28744" lon="4.70969">
        <ele>452</ele>
        <time>2020-06-10T23:06:24Z</time>
      </trkpt>
      <trkpt lat="46.28741" lon="4.70943">
        <ele>453</ele>
        <time>2020-06-10T23:06:27Z</time>
      </trkpt>
      <trkpt lat="46.28741" lon="4.70924">
        <ele>454</ele>
        <time>2020-06-10T23:06:30Z</time>
      </trkpt>
      <trkpt lat="46.28759" lon="4.70759">
        <ele>460</ele>
        <time>2020-06-10T23:06:50Z</time>
      </trkpt>
      <trkpt lat="46.28764" lon="4.70727">
        <ele>461</ele>
        <time>2020-06-10T23:06:54Z</time>
      </trkpt>
      <trkpt lat="46.28772" lon="4.70695">
        <ele>462</ele>
        <time>2020-06-10T23:06:58Z</time>
      </trkpt>
      <trkpt lat="46.28884" lon="4.70296">
        <ele>482</ele>
        <time>2020-06-10T23:07:51Z</time>
      </trkpt>
      <trkpt lat="46.28901" lon="4.70236">
        <ele>484</ele>
        <time>2020-06-10T23:07:59Z</time>
      </trkpt>
      <trkpt lat="46.28912" lon="4.70208">
        <ele>486</ele>
        <time>2020-06-10T23:08:03Z</time>
      </trkpt>
      <trkpt lat="46.29039" lon="4.69977">
        <ele>495</ele>
        <time>2020-06-10T23:08:39Z</time>
      </trkpt>
      <trkpt lat="46.29089" lon="4.69903">
        <ele>500</ele>
        <time>2020-06-10T23:08:52Z</time>
      </trkpt>
      <trkpt lat="46.29105" lon="4.69875">
        <ele>502</ele>
        <time>2020-06-10T23:08:57Z</time>
      </trkpt>
      <trkpt lat="46.2912" lon="4.69853">
        <ele>504</ele>
        <time>2020-06-10T23:09:00Z</time>
      </trkpt>
      <trkpt lat="46.29143" lon="4.69838">
        <ele>505</ele>
        <time>2020-06-10T23:09:05Z</time>
      </trkpt>
      <trkpt lat="46.29173" lon="4.69826">
        <ele>505</ele>
        <time>2020-06-10T23:09:10Z</time>
      </trkpt>
      <trkpt lat="46.29193" lon="4.69811">
        <ele>505</ele>
        <time>2020-06-10T23:09:14Z</time>
      </trkpt>
      <trkpt lat="46.29202" lon="4.69795">
        <ele>506</ele>
        <time>2020-06-10T23:09:17Z</time>
      </trkpt>
      <trkpt lat="46.2921" lon="4.69772">
        <ele>507</ele>
        <time>2020-06-10T23:09:20Z</time>
      </trkpt>
      <trkpt lat="46.29212" lon="4.69756">
        <ele>509</ele>
        <time>2020-06-10T23:09:22Z</time>
      </trkpt>
      <trkpt lat="46.29211" lon="4.6971">
        <ele>511</ele>
        <time>2020-06-10T23:09:28Z</time>
      </trkpt>
      <trkpt lat="46.29198" lon="4.69581">
        <ele>519</ele>
        <time>2020-06-10T23:09:44Z</time>
      </trkpt>
      <trkpt lat="46.29202" lon="4.69513">
        <ele>523</ele>
        <time>2020-06-10T23:09:52Z</time>
      </trkpt>
      <trkpt lat="46.29202" lon="4.69472">
        <ele>524</ele>
        <time>2020-06-10T23:09:57Z</time>
      </trkpt>
      <trkpt lat="46.29189" lon="4.6929">
        <ele>518</ele>
        <time>2020-06-10T23:10:20Z</time>
      </trkpt>
      <trkpt lat="46.29179" lon="4.69187">
        <ele>513</ele>
        <time>2020-06-10T23:10:33Z</time>
      </trkpt>
      <trkpt lat="46.29172" lon="4.69127">
        <ele>509</ele>
        <time>2020-06-10T23:10:40Z</time>
      </trkpt>
      <trkpt lat="46.2916" lon="4.6909">
        <ele>507</ele>
        <time>2020-06-10T23:10:45Z</time>
      </trkpt>
      <trkpt lat="46.29133" lon="4.69023">
        <ele>505</ele>
        <time>2020-06-10T23:10:55Z</time>
      </trkpt>
      <trkpt lat="46.29129" lon="4.68993">
        <ele>504</ele>
        <time>2020-06-10T23:10:58Z</time>
      </trkpt>
      <trkpt lat="46.29128" lon="4.68941">
        <ele>503</ele>
        <time>2020-06-10T23:11:05Z</time>
      </trkpt>
      <trkpt lat="46.29131" lon="4.68917">
        <ele>502</ele>
        <time>2020-06-10T23:11:08Z</time>
      </trkpt>
      <trkpt lat="46.2914" lon="4.68893">
        <ele>504</ele>
        <time>2020-06-10T23:11:11Z</time>
      </trkpt>
      <trkpt lat="46.29158" lon="4.68871">
        <ele>503</ele>
        <time>2020-06-10T23:11:15Z</time>
      </trkpt>
      <trkpt lat="46.29179" lon="4.68854">
        <ele>501</ele>
        <time>2020-06-10T23:11:20Z</time>
      </trkpt>
      <trkpt lat="46.29347" lon="4.68745">
        <ele>484</ele>
        <time>2020-06-10T23:11:52Z</time>
      </trkpt>
      <trkpt lat="46.29497" lon="4.68594">
        <ele>471</ele>
        <time>2020-06-10T23:12:25Z</time>
      </trkpt>
      <trkpt lat="46.29519" lon="4.68548">
        <ele>468</ele>
        <time>2020-06-10T23:12:32Z</time>
      </trkpt>
      <trkpt lat="46.29549" lon="4.68459">
        <ele>465</ele>
        <time>2020-06-10T23:12:44Z</time>
      </trkpt>
      <trkpt lat="46.29558" lon="4.68408">
        <ele>465</ele>
        <time>2020-06-10T23:12:50Z</time>
      </trkpt>
      <trkpt lat="46.29584" lon="4.68325">
        <ele>463</ele>
        <time>2020-06-10T23:13:02Z</time>
      </trkpt>
      <trkpt lat="46.29597" lon="4.68299">
        <ele>462</ele>
        <time>2020-06-10T23:13:06Z</time>
      </trkpt>
      <trkpt lat="46.29612" lon="4.68274">
        <ele>461</ele>
        <time>2020-06-10T23:13:10Z</time>
      </trkpt>
      <trkpt lat="46.29662" lon="4.68218">
        <ele>450</ele>
        <time>2020-06-10T23:13:21Z</time>
      </trkpt>
      <trkpt lat="46.29701" lon="4.68165">
        <ele>446</ele>
        <time>2020-06-10T23:13:30Z</time>
      </trkpt>
      <trkpt lat="46.29727" lon="4.68134">
        <ele>443</ele>
        <time>2020-06-10T23:13:36Z</time>
      </trkpt>
      <trkpt lat="46.29804" lon="4.68001">
        <ele>436</ele>
        <time>2020-06-10T23:13:58Z</time>
      </trkpt>
      <trkpt lat="46.29823" lon="4.67965">
        <ele>434</ele>
        <time>2020-06-10T23:14:03Z</time>
      </trkpt>
      <trkpt lat="46.29838" lon="4.67949">
        <ele>432</ele>
        <time>2020-06-10T23:14:07Z</time>
      </trkpt>
      <trkpt lat="46.29849" lon="4.67942">
        <ele>432</ele>
        <time>2020-06-10T23:14:09Z</time>
      </trkpt>
      <trkpt lat="46.29867" lon="4.6794">
        <ele>429</ele>
        <time>2020-06-10T23:14:12Z</time>
      </trkpt>
      <trkpt lat="46.29891" lon="4.67943">
        <ele>426</ele>
        <time>2020-06-10T23:14:16Z</time>
      </trkpt>
      <trkpt lat="46.2991" lon="4.67943">
        <ele>423</ele>
        <time>2020-06-10T23:14:20Z</time>
      </trkpt>
      <trkpt lat="46.29923" lon="4.67939">
        <ele>422</ele>
        <time>2020-06-10T23:14:22Z</time>
      </trkpt>
      <trkpt lat="46.29948" lon="4.67923">
        <ele>420</ele>
        <time>2020-06-10T23:14:27Z</time>
      </trkpt>
      <trkpt lat="46.29976" lon="4.679">
        <ele>418</ele>
        <time>2020-06-10T23:14:33Z</time>
      </trkpt>
      <trkpt lat="46.29991" lon="4.67876">
        <ele>417</ele>
        <time>2020-06-10T23:14:37Z</time>
      </trkpt>
      <trkpt lat="46.29999" lon="4.67856">
        <ele>417</ele>
        <time>2020-06-10T23:14:39Z</time>
      </trkpt>
      <trkpt lat="46.30012" lon="4.67833">
        <ele>417</ele>
        <time>2020-06-10T23:14:43Z</time>
      </trkpt>
      <trkpt lat="46.30025" lon="4.67827">
        <ele>416</ele>
        <time>2020-06-10T23:14:45Z</time>
      </trkpt>
      <trkpt lat="46.30032" lon="4.67829">
        <ele>415</ele>
        <time>2020-06-10T23:14:47Z</time>
      </trkpt>
      <trkpt lat="46.30043" lon="4.67834">
        <ele>414</ele>
        <time>2020-06-10T23:14:49Z</time>
      </trkpt>
      <trkpt lat="46.3005" lon="4.67845">
        <ele>414</ele>
        <time>2020-06-10T23:14:51Z</time>
      </trkpt>
      <trkpt lat="46.30059" lon="4.67881">
        <ele>413</ele>
        <time>2020-06-10T23:14:55Z</time>
      </trkpt>
      <trkpt lat="46.30062" lon="4.67897">
        <ele>413</ele>
        <time>2020-06-10T23:14:57Z</time>
      </trkpt>
      <trkpt lat="46.30066" lon="4.67957">
        <ele>410</ele>
        <time>2020-06-10T23:15:05Z</time>
      </trkpt>
      <trkpt lat="46.30061" lon="4.67972">
        <ele>408</ele>
        <time>2020-06-10T23:15:07Z</time>
      </trkpt>
      <trkpt lat="46.30056" lon="4.67981">
        <ele>408</ele>
        <time>2020-06-10T23:15:08Z</time>
      </trkpt>
      <trkpt lat="46.30047" lon="4.67987">
        <ele>407</ele>
        <time>2020-06-10T23:15:10Z</time>
      </trkpt>
      <trkpt lat="46.30017" lon="4.67987">
        <ele>407</ele>
        <time>2020-06-10T23:15:15Z</time>
      </trkpt>
      <trkpt lat="46.30006" lon="4.67988">
        <ele>407</ele>
        <time>2020-06-10T23:15:17Z</time>
      </trkpt>
      <trkpt lat="46.29998" lon="4.67993">
        <ele>407</ele>
        <time>2020-06-10T23:15:19Z</time>
      </trkpt>
      <trkpt lat="46.29991" lon="4.68002">
        <ele>407</ele>
        <time>2020-06-10T23:15:21Z</time>
      </trkpt>
      <trkpt lat="46.29986" lon="4.68015">
        <ele>406</ele>
        <time>2020-06-10T23:15:22Z</time>
      </trkpt>
      <trkpt lat="46.29973" lon="4.68065">
        <ele>402</ele>
        <time>2020-06-10T23:15:29Z</time>
      </trkpt>
      <trkpt lat="46.2996" lon="4.68085">
        <ele>402</ele>
        <time>2020-06-10T23:15:32Z</time>
      </trkpt>
      <trkpt lat="46.29958" lon="4.68097">
        <ele>401</ele>
        <time>2020-06-10T23:15:34Z</time>
      </trkpt>
      <trkpt lat="46.29961" lon="4.68143">
        <ele>397</ele>
        <time>2020-06-10T23:15:39Z</time>
      </trkpt>
      <trkpt lat="46.2996" lon="4.68202">
        <ele>394</ele>
        <time>2020-06-10T23:15:47Z</time>
      </trkpt>
      <trkpt lat="46.29944" lon="4.68308">
        <ele>394</ele>
        <time>2020-06-10T23:16:00Z</time>
      </trkpt>
      <trkpt lat="46.29944" lon="4.68323">
        <ele>393</ele>
        <time>2020-06-10T23:16:02Z</time>
      </trkpt>
      <trkpt lat="46.29948" lon="4.6833">
        <ele>393</ele>
        <time>2020-06-10T23:16:03Z</time>
      </trkpt>
      <trkpt lat="46.29953" lon="4.68334">
        <ele>393</ele>
        <time>2020-06-10T23:16:04Z</time>
      </trkpt>
      <trkpt lat="46.29961" lon="4.68337">
        <ele>393</ele>
        <time>2020-06-10T23:16:06Z</time>
      </trkpt>
      <trkpt lat="46.29972" lon="4.68333">
        <ele>392</ele>
        <time>2020-06-10T23:16:08Z</time>
      </trkpt>
      <trkpt lat="46.30047" lon="4.68292">
        <ele>384</ele>
        <time>2020-06-10T23:16:22Z</time>
      </trkpt>
      <trkpt lat="46.30081" lon="4.68271">
        <ele>380</ele>
        <time>2020-06-10T23:16:28Z</time>
      </trkpt>
      <trkpt lat="46.30102" lon="4.68253">
        <ele>376</ele>
        <time>2020-06-10T23:16:33Z</time>
      </trkpt>
      <trkpt lat="46.30113" lon="4.6825">
        <ele>374</ele>
        <time>2020-06-10T23:16:35Z</time>
      </trkpt>
      <trkpt lat="46.30131" lon="4.68255">
        <ele>373</ele>
        <time>2020-06-10T23:16:38Z</time>
      </trkpt>
      <trkpt lat="46.30156" lon="4.68271">
        <ele>371</ele>
        <time>2020-06-10T23:16:43Z</time>
      </trkpt>
      <trkpt lat="46.30199" lon="4.68285">
        <ele>368</ele>
        <time>2020-06-10T23:16:51Z</time>
      </trkpt>
      <trkpt lat="46.30232" lon="4.68285">
        <ele>364</ele>
        <time>2020-06-10T23:16:57Z</time>
      </trkpt>
      <trkpt lat="46.30271" lon="4.68273">
        <ele>361</ele>
        <time>2020-06-10T23:17:04Z</time>
      </trkpt>
      <trkpt lat="46.30301" lon="4.68273">
        <ele>360</ele>
        <time>2020-06-10T23:17:09Z</time>
      </trkpt>
      <trkpt lat="46.30339" lon="4.68276">
        <ele>359</ele>
        <time>2020-06-10T23:17:16Z</time>
      </trkpt>
      <trkpt lat="46.30441" lon="4.68258">
        <ele>354</ele>
        <time>2020-06-10T23:17:34Z</time>
      </trkpt>
      <trkpt lat="46.30468" lon="4.68243">
        <ele>352</ele>
        <time>2020-06-10T23:17:39Z</time>
      </trkpt>
      <trkpt lat="46.30498" lon="4.68214">
        <ele>349</ele>
        <time>2020-06-10T23:17:46Z</time>
      </trkpt>
      <trkpt lat="46.30534" lon="4.68158">
        <ele>344</ele>
        <time>2020-06-10T23:17:55Z</time>
      </trkpt>
      <trkpt lat="46.30549" lon="4.68144">
        <ele>344</ele>
        <time>2020-06-10T23:17:58Z</time>
      </trkpt>
      <trkpt lat="46.30566" lon="4.68139">
        <ele>343</ele>
        <time>2020-06-10T23:18:01Z</time>
      </trkpt>
      <trkpt lat="46.30606" lon="4.68133">
        <ele>341</ele>
        <time>2020-06-10T23:18:08Z</time>
      </trkpt>
      <trkpt lat="46.30623" lon="4.68125">
        <ele>340</ele>
        <time>2020-06-10T23:18:12Z</time>
      </trkpt>
      <trkpt lat="46.30695" lon="4.68071">
        <ele>335</ele>
        <time>2020-06-10T23:18:26Z</time>
      </trkpt>
      <trkpt lat="46.30741" lon="4.68029">
        <ele>328</ele>
        <time>2020-06-10T23:18:36Z</time>
      </trkpt>
      <trkpt lat="46.30806" lon="4.67979">
        <ele>322</ele>
        <time>2020-06-10T23:18:49Z</time>
      </trkpt>
      <trkpt lat="46.30823" lon="4.67957">
        <ele>320</ele>
        <time>2020-06-10T23:18:53Z</time>
      </trkpt>
      <trkpt lat="46.30841" lon="4.67897">
        <ele>314</ele>
        <time>2020-06-10T23:19:01Z</time>
      </trkpt>
      <trkpt lat="46.30893" lon="4.67679">
        <ele>303</ele>
        <time>2020-06-10T23:19:29Z</time>
      </trkpt>
      <trkpt lat="46.30797" lon="4.67576">
        <ele>306</ele>
        <time>2020-06-10T23:19:51Z</time>
      </trkpt>
      <trkpt lat="46.30758" lon="4.67534">
        <ele>308</ele>
        <time>2020-06-10T23:19:59Z</time>
      </trkpt>
      <trkpt lat="46.30734" lon="4.67502">
        <ele>308</ele>
        <time>2020-06-10T23:20:05Z</time>
      </trkpt>
      <trkpt lat="46.30714" lon="4.67481">
        <ele>312</ele>
        <time>2020-06-10T23:20:09Z</time>
      </trkpt>
      <trkpt lat="46.30644" lon="4.67433">
        <ele>316</ele>
        <time>2020-06-10T23:20:23Z</time>
      </trkpt>
      <trkpt lat="46.30613" lon="4.67406">
        <ele>316</ele>
        <time>2020-06-10T23:20:30Z</time>
      </trkpt>
      <trkpt lat="46.30579" lon="4.6736">
        <ele>316</ele>
        <time>2020-06-10T23:20:38Z</time>
      </trkpt>
      <trkpt lat="46.30579" lon="4.67288">
        <ele>320</ele>
        <time>2020-06-10T23:20:47Z</time>
      </trkpt>
      <trkpt lat="46.30581" lon="4.67262">
        <ele>322</ele>
        <time>2020-06-10T23:20:50Z</time>
      </trkpt>
      <trkpt lat="46.30589" lon="4.67221">
        <ele>327</ele>
        <time>2020-06-10T23:20:55Z</time>
      </trkpt>
      <trkpt lat="46.30601" lon="4.67176">
        <ele>332</ele>
        <time>2020-06-10T23:21:01Z</time>
      </trkpt>
      <trkpt lat="46.30624" lon="4.6708">
        <ele>336</ele>
        <time>2020-06-10T23:21:14Z</time>
      </trkpt>
      <trkpt lat="46.30634" lon="4.67058">
        <ele>336</ele>
        <time>2020-06-10T23:21:17Z</time>
      </trkpt>
      <trkpt lat="46.30654" lon="4.67027">
        <ele>333</ele>
        <time>2020-06-10T23:21:22Z</time>
      </trkpt>
      <trkpt lat="46.30668" lon="4.66997">
        <ele>331</ele>
        <time>2020-06-10T23:21:26Z</time>
      </trkpt>
      <trkpt lat="46.30681" lon="4.66911">
        <ele>338</ele>
        <time>2020-06-10T23:21:37Z</time>
      </trkpt>
      <trkpt lat="46.30689" lon="4.66877">
        <ele>340</ele>
        <time>2020-06-10T23:21:42Z</time>
      </trkpt>
      <trkpt lat="46.30701" lon="4.66838">
        <ele>341</ele>
        <time>2020-06-10T23:21:47Z</time>
      </trkpt>
      <trkpt lat="46.30717" lon="4.66797">
        <ele>341</ele>
        <time>2020-06-10T23:21:53Z</time>
      </trkpt>
      <trkpt lat="46.30754" lon="4.66708">
        <ele>342</ele>
        <time>2020-06-10T23:22:06Z</time>
      </trkpt>
      <trkpt lat="46.3076" lon="4.66687">
        <ele>343</ele>
        <time>2020-06-10T23:22:08Z</time>
      </trkpt>
      <trkpt lat="46.3077" lon="4.66648">
        <ele>346</ele>
        <time>2020-06-10T23:22:13Z</time>
      </trkpt>
      <trkpt lat="46.30787" lon="4.66498">
        <ele>354</ele>
        <time>2020-06-10T23:22:32Z</time>
      </trkpt>
      <trkpt lat="46.30791" lon="4.66481">
        <ele>354</ele>
        <time>2020-06-10T23:22:34Z</time>
      </trkpt>
      <trkpt lat="46.30798" lon="4.66465">
        <ele>353</ele>
        <time>2020-06-10T23:22:37Z</time>
      </trkpt>
      <trkpt lat="46.30808" lon="4.66454">
        <ele>352</ele>
        <time>2020-06-10T23:22:39Z</time>
      </trkpt>
      <trkpt lat="46.3082" lon="4.66451">
        <ele>350</ele>
        <time>2020-06-10T23:22:41Z</time>
      </trkpt>
      <trkpt lat="46.30829" lon="4.66451">
        <ele>348</ele>
        <time>2020-06-10T23:22:43Z</time>
      </trkpt>
      <trkpt lat="46.30852" lon="4.66459">
        <ele>350</ele>
        <time>2020-06-10T23:22:47Z</time>
      </trkpt>
      <trkpt lat="46.30866" lon="4.66467">
        <ele>352</ele>
        <time>2020-06-10T23:22:50Z</time>
      </trkpt>
      <trkpt lat="46.30883" lon="4.66486">
        <ele>354</ele>
        <time>2020-06-10T23:22:53Z</time>
      </trkpt>
      <trkpt lat="46.30889" lon="4.66497">
        <ele>354</ele>
        <time>2020-06-10T23:22:55Z</time>
      </trkpt>
      <trkpt lat="46.30894" lon="4.66515">
        <ele>355</ele>
        <time>2020-06-10T23:22:57Z</time>
      </trkpt>
      <trkpt lat="46.30897" lon="4.66541">
        <ele>355</ele>
        <time>2020-06-10T23:23:01Z</time>
      </trkpt>
      <trkpt lat="46.30896" lon="4.66613">
        <ele>356</ele>
        <time>2020-06-10T23:23:10Z</time>
      </trkpt>
      <trkpt lat="46.30894" lon="4.66649">
        <ele>357</ele>
        <time>2020-06-10T23:23:14Z</time>
      </trkpt>
      <trkpt lat="46.30891" lon="4.66671">
        <ele>358</ele>
        <time>2020-06-10T23:23:17Z</time>
      </trkpt>
      <trkpt lat="46.30867" lon="4.66745">
        <ele>356</ele>
        <time>2020-06-10T23:23:27Z</time>
      </trkpt>
      <trkpt lat="46.30864" lon="4.66768">
        <ele>356</ele>
        <time>2020-06-10T23:23:30Z</time>
      </trkpt>
      <trkpt lat="46.30866" lon="4.66786">
        <ele>357</ele>
        <time>2020-06-10T23:23:32Z</time>
      </trkpt>
      <trkpt lat="46.30874" lon="4.66836">
        <ele>360</ele>
        <time>2020-06-10T23:23:38Z</time>
      </trkpt>
      <trkpt lat="46.30877" lon="4.66871">
        <ele>363</ele>
        <time>2020-06-10T23:23:43Z</time>
      </trkpt>
      <trkpt lat="46.30876" lon="4.66895">
        <ele>364</ele>
        <time>2020-06-10T23:23:46Z</time>
      </trkpt>
      <trkpt lat="46.30874" lon="4.66915">
        <ele>365</ele>
        <time>2020-06-10T23:23:48Z</time>
      </trkpt>
      <trkpt lat="46.30846" lon="4.67007">
        <ele>368</ele>
        <time>2020-06-10T23:24:00Z</time>
      </trkpt>
      <trkpt lat="46.30809" lon="4.67085">
        <ele>367</ele>
        <time>2020-06-10T23:24:12Z</time>
      </trkpt>
      <trkpt lat="46.308" lon="4.67116">
        <ele>366</ele>
        <time>2020-06-10T23:24:16Z</time>
      </trkpt>
      <trkpt lat="46.30798" lon="4.67132">
        <ele>366</ele>
        <time>2020-06-10T23:24:18Z</time>
      </trkpt>
      <trkpt lat="46.30797" lon="4.67179">
        <ele>367</ele>
        <time>2020-06-10T23:24:24Z</time>
      </trkpt>
      <trkpt lat="46.308" lon="4.672">
        <ele>367</ele>
        <time>2020-06-10T23:24:27Z</time>
      </trkpt>
      <trkpt lat="46.30806" lon="4.67216">
        <ele>368</ele>
        <time>2020-06-10T23:24:29Z</time>
      </trkpt>
      <trkpt lat="46.30815" lon="4.67226">
        <ele>369</ele>
        <time>2020-06-10T23:24:31Z</time>
      </trkpt>
      <trkpt lat="46.30826" lon="4.6723">
        <ele>371</ele>
        <time>2020-06-10T23:24:33Z</time>
      </trkpt>
      <trkpt lat="46.30987" lon="4.67221">
        <ele>381</ele>
        <time>2020-06-10T23:25:01Z</time>
      </trkpt>
      <trkpt lat="46.31119" lon="4.67217">
        <ele>383</ele>
        <time>2020-06-10T23:25:25Z</time>
      </trkpt>
      <trkpt lat="46.31182" lon="4.6721">
        <ele>384</ele>
        <time>2020-06-10T23:25:36Z</time>
      </trkpt>
      <trkpt lat="46.31198" lon="4.67204">
        <ele>385</ele>
        <time>2020-06-10T23:25:39Z</time>
      </trkpt>
      <trkpt lat="46.31208" lon="4.67198">
        <ele>386</ele>
        <time>2020-06-10T23:25:41Z</time>
      </trkpt>
      <trkpt lat="46.31215" lon="4.6719">
        <ele>388</ele>
        <time>2020-06-10T23:25:43Z</time>
      </trkpt>
      <trkpt lat="46.31223" lon="4.67167">
        <ele>391</ele>
        <time>2020-06-10T23:25:46Z</time>
      </trkpt>
      <trkpt lat="46.31232" lon="4.67075">
        <ele>397</ele>
        <time>2020-06-10T23:25:57Z</time>
      </trkpt>
      <trkpt lat="46.31237" lon="4.67039">
        <ele>398</ele>
        <time>2020-06-10T23:26:02Z</time>
      </trkpt>
      <trkpt lat="46.31291" lon="4.66878">
        <ele>406</ele>
        <time>2020-06-10T23:26:24Z</time>
      </trkpt>
      <trkpt lat="46.31303" lon="4.66835">
        <ele>407</ele>
        <time>2020-06-10T23:26:29Z</time>
      </trkpt>
      <trkpt lat="46.31311" lon="4.6679">
        <ele>409</ele>
        <time>2020-06-10T23:26:35Z</time>
      </trkpt>
      <trkpt lat="46.3131" lon="4.66755">
        <ele>410</ele>
        <time>2020-06-10T23:26:39Z</time>
      </trkpt>
      <trkpt lat="46.31308" lon="4.66738">
        <ele>411</ele>
        <time>2020-06-10T23:26:42Z</time>
      </trkpt>
      <trkpt lat="46.31295" lon="4.66681">
        <ele>411</ele>
        <time>2020-06-10T23:26:49Z</time>
      </trkpt>
      <trkpt lat="46.31291" lon="4.66653">
        <ele>411</ele>
        <time>2020-06-10T23:26:52Z</time>
      </trkpt>
      <trkpt lat="46.31291" lon="4.66631">
        <ele>411</ele>
        <time>2020-06-10T23:26:55Z</time>
      </trkpt>
      <trkpt lat="46.31293" lon="4.66609">
        <ele>411</ele>
        <time>2020-06-10T23:26:58Z</time>
      </trkpt>
      <trkpt lat="46.31296" lon="4.66593">
        <ele>412</ele>
        <time>2020-06-10T23:27:00Z</time>
      </trkpt>
      <trkpt lat="46.31301" lon="4.6658">
        <ele>412</ele>
        <time>2020-06-10T23:27:02Z</time>
      </trkpt>
      <trkpt lat="46.31308" lon="4.66569">
        <ele>412</ele>
        <time>2020-06-10T23:27:04Z</time>
      </trkpt>
      <trkpt lat="46.31316" lon="4.66563">
        <ele>413</ele>
        <time>2020-06-10T23:27:05Z</time>
      </trkpt>
      <trkpt lat="46.31325" lon="4.6656">
        <ele>413</ele>
        <time>2020-06-10T23:27:07Z</time>
      </trkpt>
      <trkpt lat="46.31334" lon="4.66559">
        <ele>414</ele>
        <time>2020-06-10T23:27:08Z</time>
      </trkpt>
      <trkpt lat="46.31357" lon="4.66564">
        <ele>416</ele>
        <time>2020-06-10T23:27:13Z</time>
      </trkpt>
      <trkpt lat="46.31382" lon="4.66577">
        <ele>419</ele>
        <time>2020-06-10T23:27:17Z</time>
      </trkpt>
      <trkpt lat="46.31411" lon="4.66596">
        <ele>421</ele>
        <time>2020-06-10T23:27:23Z</time>
      </trkpt>
      <trkpt lat="46.31547" lon="4.66694">
        <ele>431</ele>
        <time>2020-06-10T23:27:50Z</time>
      </trkpt>
      <trkpt lat="46.31569" lon="4.66706">
        <ele>432</ele>
        <time>2020-06-10T23:27:54Z</time>
      </trkpt>
      <trkpt lat="46.31581" lon="4.66699">
        <ele>433</ele>
        <time>2020-06-10T23:27:57Z</time>
      </trkpt>
      <trkpt lat="46.31605" lon="4.66676">
        <ele>436</ele>
        <time>2020-06-10T23:28:02Z</time>
      </trkpt>
      <trkpt lat="46.31699" lon="4.66569">
        <ele>448</ele>
        <time>2020-06-10T23:28:23Z</time>
      </trkpt>
      <trkpt lat="46.31704" lon="4.66558">
        <ele>449</ele>
        <time>2020-06-10T23:28:25Z</time>
      </trkpt>
      <trkpt lat="46.31707" lon="4.66544">
        <ele>452</ele>
        <time>2020-06-10T23:28:26Z</time>
      </trkpt>
      <trkpt lat="46.31707" lon="4.66532">
        <ele>453</ele>
        <time>2020-06-10T23:28:28Z</time>
      </trkpt>
      <trkpt lat="46.31705" lon="4.66521">
        <ele>454</ele>
        <time>2020-06-10T23:28:29Z</time>
      </trkpt>
      <trkpt lat="46.31699" lon="4.66509">
        <ele>454</ele>
        <time>2020-06-10T23:28:31Z</time>
      </trkpt>
      <trkpt lat="46.31667" lon="4.66475">
        <ele>452</ele>
        <time>2020-06-10T23:28:38Z</time>
      </trkpt>
      <trkpt lat="46.31649" lon="4.66447">
        <ele>453</ele>
        <time>2020-06-10T23:28:43Z</time>
      </trkpt>
      <trkpt lat="46.3164" lon="4.66422">
        <ele>455</ele>
        <time>2020-06-10T23:28:46Z</time>
      </trkpt>
      <trkpt lat="46.3161" lon="4.66317">
        <ele>461</ele>
        <time>2020-06-10T23:29:00Z</time>
      </trkpt>
      <trkpt lat="46.31579" lon="4.66254">
        <ele>462</ele>
        <time>2020-06-10T23:29:10Z</time>
      </trkpt>
      <trkpt lat="46.31547" lon="4.66168">
        <ele>470</ele>
        <time>2020-06-10T23:29:22Z</time>
      </trkpt>
      <trkpt lat="46.31539" lon="4.66151">
        <ele>472</ele>
        <time>2020-06-10T23:29:24Z</time>
      </trkpt>
      <trkpt lat="46.31525" lon="4.66134">
        <ele>473</ele>
        <time>2020-06-10T23:29:28Z</time>
      </trkpt>
      <trkpt lat="46.31512" lon="4.66124">
        <ele>473</ele>
        <time>2020-06-10T23:29:30Z</time>
      </trkpt>
      <trkpt lat="46.3149" lon="4.66112">
        <ele>472</ele>
        <time>2020-06-10T23:29:34Z</time>
      </trkpt>
      <trkpt lat="46.31446" lon="4.66072">
        <ele>471</ele>
        <time>2020-06-10T23:29:44Z</time>
      </trkpt>
      <trkpt lat="46.31432" lon="4.66055">
        <ele>471</ele>
        <time>2020-06-10T23:29:47Z</time>
      </trkpt>
      <trkpt lat="46.31419" lon="4.66034">
        <ele>472</ele>
        <time>2020-06-10T23:29:50Z</time>
      </trkpt>
      <trkpt lat="46.31411" lon="4.66015">
        <ele>473</ele>
        <time>2020-06-10T23:29:53Z</time>
      </trkpt>
      <trkpt lat="46.31398" lon="4.65964">
        <ele>476</ele>
        <time>2020-06-10T23:30:00Z</time>
      </trkpt>
      <trkpt lat="46.31384" lon="4.65889">
        <ele>478</ele>
        <time>2020-06-10T23:30:09Z</time>
      </trkpt>
      <trkpt lat="46.31381" lon="4.65857">
        <ele>479</ele>
        <time>2020-06-10T23:30:13Z</time>
      </trkpt>
      <trkpt lat="46.31381" lon="4.65828">
        <ele>480</ele>
        <time>2020-06-10T23:30:17Z</time>
      </trkpt>
      <trkpt lat="46.31385" lon="4.65759">
        <ele>482</ele>
        <time>2020-06-10T23:30:25Z</time>
      </trkpt>
      <trkpt lat="46.31394" lon="4.65726">
        <ele>484</ele>
        <time>2020-06-10T23:30:30Z</time>
      </trkpt>
      <trkpt lat="46.31403" lon="4.65704">
        <ele>485</ele>
        <time>2020-06-10T23:30:33Z</time>
      </trkpt>
      <trkpt lat="46.31416" lon="4.65681">
        <ele>488</ele>
        <time>2020-06-10T23:30:36Z</time>
      </trkpt>
      <trkpt lat="46.31444" lon="4.6564">
        <ele>489</ele>
        <time>2020-06-10T23:30:44Z</time>
      </trkpt>
      <trkpt lat="46.31508" lon="4.65563">
        <ele>494</ele>
        <time>2020-06-10T23:30:58Z</time>
      </trkpt>
      <trkpt lat="46.31517" lon="4.65555">
        <ele>495</ele>
        <time>2020-06-10T23:31:00Z</time>
      </trkpt>
      <trkpt lat="46.31528" lon="4.65554">
        <ele>496</ele>
        <time>2020-06-10T23:31:02Z</time>
      </trkpt>
      <trkpt lat="46.31537" lon="4.65556">
        <ele>497</ele>
        <time>2020-06-10T23:31:04Z</time>
      </trkpt>
      <trkpt lat="46.31547" lon="4.65561">
        <ele>498</ele>
        <time>2020-06-10T23:31:06Z</time>
      </trkpt>
      <trkpt lat="46.31575" lon="4.65591">
        <ele>501</ele>
        <time>2020-06-10T23:31:12Z</time>
      </trkpt>
      <trkpt lat="46.3159" lon="4.65599">
        <ele>502</ele>
        <time>2020-06-10T23:31:15Z</time>
      </trkpt>
      <trkpt lat="46.31597" lon="4.656">
        <ele>501</ele>
        <time>2020-06-10T23:31:16Z</time>
      </trkpt>
      <trkpt lat="46.31603" lon="4.65599">
        <ele>501</ele>
        <time>2020-06-10T23:31:17Z</time>
      </trkpt>
      <trkpt lat="46.31611" lon="4.65593">
        <ele>500</ele>
        <time>2020-06-10T23:31:19Z</time>
      </trkpt>
      <trkpt lat="46.3162" lon="4.65582">
        <ele>499</ele>
        <time>2020-06-10T23:31:21Z</time>
      </trkpt>
      <trkpt lat="46.31628" lon="4.65568">
        <ele>500</ele>
        <time>2020-06-10T23:31:23Z</time>
      </trkpt>
      <trkpt lat="46.31635" lon="4.65545">
        <ele>502</ele>
        <time>2020-06-10T23:31:26Z</time>
      </trkpt>
      <trkpt lat="46.31639" lon="4.65529">
        <ele>504</ele>
        <time>2020-06-10T23:31:28Z</time>
      </trkpt>
      <trkpt lat="46.31639" lon="4.65514">
        <ele>505</ele>
        <time>2020-06-10T23:31:30Z</time>
      </trkpt>
      <trkpt lat="46.31638" lon="4.65503">
        <ele>506</ele>
        <time>2020-06-10T23:31:31Z</time>
      </trkpt>
      <trkpt lat="46.31635" lon="4.65494">
        <ele>507</ele>
        <time>2020-06-10T23:31:33Z</time>
      </trkpt>
      <trkpt lat="46.31629" lon="4.65485">
        <ele>508</ele>
        <time>2020-06-10T23:31:34Z</time>
      </trkpt>
      <trkpt lat="46.31591" lon="4.65452">
        <ele>511</ele>
        <time>2020-06-10T23:31:42Z</time>
      </trkpt>
      <trkpt lat="46.31583" lon="4.6544">
        <ele>512</ele>
        <time>2020-06-10T23:31:44Z</time>
      </trkpt>
      <trkpt lat="46.31566" lon="4.65406">
        <ele>514</ele>
        <time>2020-06-10T23:31:49Z</time>
      </trkpt>
      <trkpt lat="46.31554" lon="4.65385">
        <ele>515</ele>
        <time>2020-06-10T23:31:53Z</time>
      </trkpt>
      <trkpt lat="46.31511" lon="4.65338">
        <ele>516</ele>
        <time>2020-06-10T23:32:02Z</time>
      </trkpt>
      <trkpt lat="46.31496" lon="4.6531">
        <ele>517</ele>
        <time>2020-06-10T23:32:07Z</time>
      </trkpt>
      <trkpt lat="46.31489" lon="4.65285">
        <ele>519</ele>
        <time>2020-06-10T23:32:10Z</time>
      </trkpt>
      <trkpt lat="46.31484" lon="4.65251">
        <ele>521</ele>
        <time>2020-06-10T23:32:14Z</time>
      </trkpt>
      <trkpt lat="46.31481" lon="4.65221">
        <ele>523</ele>
        <time>2020-06-10T23:32:18Z</time>
      </trkpt>
      <trkpt lat="46.31484" lon="4.65149">
        <ele>527</ele>
        <time>2020-06-10T23:32:27Z</time>
      </trkpt>
      <trkpt lat="46.31488" lon="4.65119">
        <ele>528</ele>
        <time>2020-06-10T23:32:30Z</time>
      </trkpt>
      <trkpt lat="46.31492" lon="4.65096">
        <ele>529</ele>
        <time>2020-06-10T23:32:33Z</time>
      </trkpt>
      <trkpt lat="46.31496" lon="4.65083">
        <ele>529</ele>
        <time>2020-06-10T23:32:35Z</time>
      </trkpt>
      <trkpt lat="46.31503" lon="4.65067">
        <ele>530</ele>
        <time>2020-06-10T23:32:37Z</time>
      </trkpt>
      <trkpt lat="46.31511" lon="4.65053">
        <ele>531</ele>
        <time>2020-06-10T23:32:40Z</time>
      </trkpt>
      <trkpt lat="46.31523" lon="4.65039">
        <ele>532</ele>
        <time>2020-06-10T23:32:42Z</time>
      </trkpt>
      <trkpt lat="46.31534" lon="4.65029">
        <ele>533</ele>
        <time>2020-06-10T23:32:45Z</time>
      </trkpt>
      <trkpt lat="46.3155" lon="4.65019">
        <ele>535</ele>
        <time>2020-06-10T23:32:48Z</time>
      </trkpt>
      <trkpt lat="46.31615" lon="4.64998">
        <ele>542</ele>
        <time>2020-06-10T23:33:00Z</time>
      </trkpt>
      <trkpt lat="46.31676" lon="4.64972">
        <ele>546</ele>
        <time>2020-06-10T23:33:11Z</time>
      </trkpt>
      <trkpt lat="46.31789" lon="4.64944">
        <ele>555</ele>
        <time>2020-06-10T23:33:31Z</time>
      </trkpt>
      <trkpt lat="46.31831" lon="4.64929">
        <ele>558</ele>
        <time>2020-06-10T23:33:39Z</time>
      </trkpt>
      <trkpt lat="46.31859" lon="4.64915">
        <ele>561</ele>
        <time>2020-06-10T23:33:44Z</time>
      </trkpt>
      <trkpt lat="46.31852" lon="4.64929">
        <ele>560</ele>
        <time>2020-06-10T23:33:46Z</time>
      </trkpt>
      <trkpt lat="46.31841" lon="4.64938">
        <ele>560</ele>
        <time>2020-06-10T23:33:49Z</time>
      </trkpt>
      <trkpt lat="46.31828" lon="4.64945">
        <ele>559</ele>
        <time>2020-06-10T23:33:51Z</time>
      </trkpt>
      <trkpt lat="46.31675" lon="4.65003">
        <ele>551</ele>
        <time>2020-06-10T23:34:19Z</time>
      </trkpt>
      <trkpt lat="46.31586" lon="4.65056">
        <ele>545</ele>
        <time>2020-06-10T23:34:36Z</time>
      </trkpt>
      <trkpt lat="46.31574" lon="4.65068">
        <ele>544</ele>
        <time>2020-06-10T23:34:39Z</time>
      </trkpt>
      <trkpt lat="46.31561" lon="4.65087">
        <ele>543</ele>
        <time>2020-06-10T23:34:42Z</time>
      </trkpt>
      <trkpt lat="46.31555" lon="4.65101">
        <ele>542</ele>
        <time>2020-06-10T23:34:44Z</time>
      </trkpt>
      <trkpt lat="46.3155" lon="4.65125">
        <ele>541</ele>
        <time>2020-06-10T23:34:47Z</time>
      </trkpt>
      <trkpt lat="46.31549" lon="4.65148">
        <ele>541</ele>
        <time>2020-06-10T23:34:50Z</time>
      </trkpt>
      <trkpt lat="46.31554" lon="4.65197">
        <ele>540</ele>
        <time>2020-06-10T23:34:56Z</time>
      </trkpt>
      <trkpt lat="46.31561" lon="4.65226">
        <ele>539</ele>
        <time>2020-06-10T23:35:00Z</time>
      </trkpt>
      <trkpt lat="46.31571" lon="4.65249">
        <ele>540</ele>
        <time>2020-06-10T23:35:03Z</time>
      </trkpt>
      <trkpt lat="46.31588" lon="4.6527">
        <ele>539</ele>
        <time>2020-06-10T23:35:07Z</time>
      </trkpt>
      <trkpt lat="46.31614" lon="4.65293">
        <ele>537</ele>
        <time>2020-06-10T23:35:13Z</time>
      </trkpt>
      <trkpt lat="46.31664" lon="4.65329">
        <ele>536</ele>
        <time>2020-06-10T23:35:23Z</time>
      </trkpt>
      <trkpt lat="46.31691" lon="4.6534">
        <ele>533</ele>
        <time>2020-06-10T23:35:28Z</time>
      </trkpt>
      <trkpt lat="46.31704" lon="4.65339">
        <ele>532</ele>
        <time>2020-06-10T23:35:30Z</time>
      </trkpt>
      <trkpt lat="46.31719" lon="4.65335">
        <ele>532</ele>
        <time>2020-06-10T23:35:33Z</time>
      </trkpt>
      <trkpt lat="46.31745" lon="4.65324">
        <ele>533</ele>
        <time>2020-06-10T23:35:38Z</time>
      </trkpt>
      <trkpt lat="46.31824" lon="4.65274">
        <ele>534</ele>
        <time>2020-06-10T23:35:53Z</time>
      </trkpt>
      <trkpt lat="46.3187" lon="4.65256">
        <ele>534</ele>
        <time>2020-06-10T23:36:01Z</time>
      </trkpt>
      <trkpt lat="46.31899" lon="4.65249">
        <ele>533</ele>
        <time>2020-06-10T23:36:07Z</time>
      </trkpt>
      <trkpt lat="46.31924" lon="4.65249">
        <ele>532</ele>
        <time>2020-06-10T23:36:11Z</time>
      </trkpt>
      <trkpt lat="46.3194" lon="4.65251">
        <ele>531</ele>
        <time>2020-06-10T23:36:14Z</time>
      </trkpt>
      <trkpt lat="46.31965" lon="4.65258">
        <ele>528</ele>
        <time>2020-06-10T23:36:19Z</time>
      </trkpt>
      <trkpt lat="46.32013" lon="4.65278">
        <ele>523</ele>
        <time>2020-06-10T23:36:27Z</time>
      </trkpt>
      <trkpt lat="46.32032" lon="4.65281">
        <ele>520</ele>
        <time>2020-06-10T23:36:31Z</time>
      </trkpt>
      <trkpt lat="46.32055" lon="4.65275">
        <ele>519</ele>
        <time>2020-06-10T23:36:35Z</time>
      </trkpt>
      <trkpt lat="46.32072" lon="4.65264">
        <ele>518</ele>
        <time>2020-06-10T23:36:38Z</time>
      </trkpt>
      <trkpt lat="46.32086" lon="4.6525">
        <ele>517</ele>
        <time>2020-06-10T23:36:41Z</time>
      </trkpt>
      <trkpt lat="46.32098" lon="4.65233">
        <ele>515</ele>
        <time>2020-06-10T23:36:44Z</time>
      </trkpt>
      <trkpt lat="46.32144" lon="4.65142">
        <ele>515</ele>
        <time>2020-06-10T23:36:58Z</time>
      </trkpt>
      <trkpt lat="46.32153" lon="4.65129">
        <ele>516</ele>
        <time>2020-06-10T23:37:00Z</time>
      </trkpt>
      <trkpt lat="46.32164" lon="4.65118">
        <ele>516</ele>
        <time>2020-06-10T23:37:03Z</time>
      </trkpt>
      <trkpt lat="46.32196" lon="4.65102">
        <ele>514</ele>
        <time>2020-06-10T23:37:09Z</time>
      </trkpt>
      <trkpt lat="46.32215" lon="4.65097">
        <ele>513</ele>
        <time>2020-06-10T23:37:12Z</time>
      </trkpt>
      <trkpt lat="46.32297" lon="4.65089">
        <ele>507</ele>
        <time>2020-06-10T23:37:27Z</time>
      </trkpt>
      <trkpt lat="46.32318" lon="4.65083">
        <ele>506</ele>
        <time>2020-06-10T23:37:31Z</time>
      </trkpt>
      <trkpt lat="46.32337" lon="4.65074">
        <ele>506</ele>
        <time>2020-06-10T23:37:34Z</time>
      </trkpt>
      <trkpt lat="46.32378" lon="4.65049">
        <ele>509</ele>
        <time>2020-06-10T23:37:42Z</time>
      </trkpt>
      <trkpt lat="46.324" lon="4.65042">
        <ele>509</ele>
        <time>2020-06-10T23:37:46Z</time>
      </trkpt>
      <trkpt lat="46.3241" lon="4.65047">
        <ele>508</ele>
        <time>2020-06-10T23:37:48Z</time>
      </trkpt>
      <trkpt lat="46.32424" lon="4.65066">
        <ele>506</ele>
        <time>2020-06-10T23:37:51Z</time>
      </trkpt>
      <trkpt lat="46.32432" lon="4.65082">
        <ele>505</ele>
        <time>2020-06-10T23:37:54Z</time>
      </trkpt>
      <trkpt lat="46.32474" lon="4.65198">
        <ele>495</ele>
        <time>2020-06-10T23:38:10Z</time>
      </trkpt>
      <trkpt lat="46.32491" lon="4.65235">
        <ele>494</ele>
        <time>2020-06-10T23:38:15Z</time>
      </trkpt>
      <trkpt lat="46.3251" lon="4.65266">
        <ele>491</ele>
        <time>2020-06-10T23:38:21Z</time>
      </trkpt>
      <trkpt lat="46.32519" lon="4.65272">
        <ele>491</ele>
        <time>2020-06-10T23:38:22Z</time>
      </trkpt>
      <trkpt lat="46.32534" lon="4.65277">
        <ele>490</ele>
        <time>2020-06-10T23:38:25Z</time>
      </trkpt>
      <trkpt lat="46.32588" lon="4.65288">
        <ele>489</ele>
        <time>2020-06-10T23:38:35Z</time>
      </trkpt>
      <trkpt lat="46.32609" lon="4.65294">
        <ele>490</ele>
        <time>2020-06-10T23:38:39Z</time>
      </trkpt>
      <trkpt lat="46.32627" lon="4.65303">
        <ele>490</ele>
        <time>2020-06-10T23:38:42Z</time>
      </trkpt>
      <trkpt lat="46.3265" lon="4.65318">
        <ele>489</ele>
        <time>2020-06-10T23:38:46Z</time>
      </trkpt>
      <trkpt lat="46.32683" lon="4.65342">
        <ele>488</ele>
        <time>2020-06-10T23:38:53Z</time>
      </trkpt>
      <trkpt lat="46.32711" lon="4.65379">
        <ele>485</ele>
        <time>2020-06-10T23:39:00Z</time>
      </trkpt>
      <trkpt lat="46.32754" lon="4.65448">
        <ele>478</ele>
        <time>2020-06-10T23:39:11Z</time>
      </trkpt>
      <trkpt lat="46.32765" lon="4.65461">
        <ele>476</ele>
        <time>2020-06-10T23:39:14Z</time>
      </trkpt>
      <trkpt lat="46.32771" lon="4.65464">
        <ele>475</ele>
        <time>2020-06-10T23:39:15Z</time>
      </trkpt>
      <trkpt lat="46.32783" lon="4.65459">
        <ele>475</ele>
        <time>2020-06-10T23:39:17Z</time>
      </trkpt>
      <trkpt lat="46.32788" lon="4.65454">
        <ele>476</ele>
        <time>2020-06-10T23:39:18Z</time>
      </trkpt>
      <trkpt lat="46.32804" lon="4.65426">
        <ele>479</ele>
        <time>2020-06-10T23:39:23Z</time>
      </trkpt>
      <trkpt lat="46.32811" lon="4.65418">
        <ele>480</ele>
        <time>2020-06-10T23:39:24Z</time>
      </trkpt>
      <trkpt lat="46.32822" lon="4.65415">
        <ele>480</ele>
        <time>2020-06-10T23:39:26Z</time>
      </trkpt>
      <trkpt lat="46.32831" lon="4.65415">
        <ele>479</ele>
        <time>2020-06-10T23:39:28Z</time>
      </trkpt>
      <trkpt lat="46.32899" lon="4.65455">
        <ele>476</ele>
        <time>2020-06-10T23:39:41Z</time>
      </trkpt>
      <trkpt lat="46.32956" lon="4.65502">
        <ele>472</ele>
        <time>2020-06-10T23:39:53Z</time>
      </trkpt>
      <trkpt lat="46.33058" lon="4.65575">
        <ele>470</ele>
        <time>2020-06-10T23:40:13Z</time>
      </trkpt>
      <trkpt lat="46.33081" lon="4.65594">
        <ele>468</ele>
        <time>2020-06-10T23:40:17Z</time>
      </trkpt>
      <trkpt lat="46.33102" lon="4.65619">
        <ele>466</ele>
        <time>2020-06-10T23:40:22Z</time>
      </trkpt>
      <trkpt lat="46.33136" lon="4.65669">
        <ele>462</ele>
        <time>2020-06-10T23:40:31Z</time>
      </trkpt>
      <trkpt lat="46.3316" lon="4.65716">
        <ele>462</ele>
        <time>2020-06-10T23:40:38Z</time>
      </trkpt>
      <trkpt lat="46.33164" lon="4.65738">
        <ele>461</ele>
        <time>2020-06-10T23:40:41Z</time>
      </trkpt>
      <trkpt lat="46.33163" lon="4.65772">
        <ele>459</ele>
        <time>2020-06-10T23:40:45Z</time>
      </trkpt>
      <trkpt lat="46.33149" lon="4.65829">
        <ele>455</ele>
        <time>2020-06-10T23:40:53Z</time>
      </trkpt>
      <trkpt lat="46.33146" lon="4.65851">
        <ele>455</ele>
        <time>2020-06-10T23:40:55Z</time>
      </trkpt>
      <trkpt lat="46.33145" lon="4.6587">
        <ele>455</ele>
        <time>2020-06-10T23:40:58Z</time>
      </trkpt>
      <trkpt lat="46.3315" lon="4.65906">
        <ele>457</ele>
        <time>2020-06-10T23:41:02Z</time>
      </trkpt>
      <trkpt lat="46.33149" lon="4.65922">
        <ele>457</ele>
        <time>2020-06-10T23:41:04Z</time>
      </trkpt>
      <trkpt lat="46.33145" lon="4.65935">
        <ele>457</ele>
        <time>2020-06-10T23:41:06Z</time>
      </trkpt>
      <trkpt lat="46.33128" lon="4.65963">
        <ele>454</ele>
        <time>2020-06-10T23:41:10Z</time>
      </trkpt>
      <trkpt lat="46.33065" lon="4.66041">
        <ele>448</ele>
        <time>2020-06-10T23:41:25Z</time>
      </trkpt>
      <trkpt lat="46.33026" lon="4.66098">
        <ele>446</ele>
        <time>2020-06-10T23:41:35Z</time>
      </trkpt>
      <trkpt lat="46.32914" lon="4.66235">
        <ele>441</ele>
        <time>2020-06-10T23:42:01Z</time>
      </trkpt>
      <trkpt lat="46.32829" lon="4.66344">
        <ele>438</ele>
        <time>2020-06-10T23:42:21Z</time>
      </trkpt>
      <trkpt lat="46.32803" lon="4.66396">
        <ele>434</ele>
        <time>2020-06-10T23:42:29Z</time>
      </trkpt>
      <trkpt lat="46.32777" lon="4.66481">
        <ele>431</ele>
        <time>2020-06-10T23:42:41Z</time>
      </trkpt>
      <trkpt lat="46.32765" lon="4.66538">
        <ele>429</ele>
        <time>2020-06-10T23:42:48Z</time>
      </trkpt>
      <trkpt lat="46.32756" lon="4.66644">
        <ele>422</ele>
        <time>2020-06-10T23:43:01Z</time>
      </trkpt>
      <trkpt lat="46.32756" lon="4.66673">
        <ele>420</ele>
        <time>2020-06-10T23:43:05Z</time>
      </trkpt>
      <trkpt lat="46.32759" lon="4.66693">
        <ele>417</ele>
        <time>2020-06-10T23:43:07Z</time>
      </trkpt>
      <trkpt lat="46.32771" lon="4.6672">
        <ele>416</ele>
        <time>2020-06-10T23:43:11Z</time>
      </trkpt>
      <trkpt lat="46.32791" lon="4.66734">
        <ele>417</ele>
        <time>2020-06-10T23:43:15Z</time>
      </trkpt>
      <trkpt lat="46.32862" lon="4.66741">
        <ele>423</ele>
        <time>2020-06-10T23:43:28Z</time>
      </trkpt>
      <trkpt lat="46.32932" lon="4.66771">
        <ele>419</ele>
        <time>2020-06-10T23:43:41Z</time>
      </trkpt>
      <trkpt lat="46.32976" lon="4.66804">
        <ele>419</ele>
        <time>2020-06-10T23:43:50Z</time>
      </trkpt>
      <trkpt lat="46.32985" lon="4.66816">
        <ele>418</ele>
        <time>2020-06-10T23:43:52Z</time>
      </trkpt>
      <trkpt lat="46.32991" lon="4.66833">
        <ele>416</ele>
        <time>2020-06-10T23:43:54Z</time>
      </trkpt>
      <trkpt lat="46.32992" lon="4.66845">
        <ele>416</ele>
        <time>2020-06-10T23:43:56Z</time>
      </trkpt>
      <trkpt lat="46.32992" lon="4.66878">
        <ele>414</ele>
        <time>2020-06-10T23:44:00Z</time>
      </trkpt>
      <trkpt lat="46.32987" lon="4.66915">
        <ele>411</ele>
        <time>2020-06-10T23:44:04Z</time>
      </trkpt>
      <trkpt lat="46.32983" lon="4.66937">
        <ele>410</ele>
        <time>2020-06-10T23:44:07Z</time>
      </trkpt>
      <trkpt lat="46.32974" lon="4.66964">
        <ele>408</ele>
        <time>2020-06-10T23:44:11Z</time>
      </trkpt>
      <trkpt lat="46.32949" lon="4.67016">
        <ele>403</ele>
        <time>2020-06-10T23:44:18Z</time>
      </trkpt>
      <trkpt lat="46.32941" lon="4.67036">
        <ele>402</ele>
        <time>2020-06-10T23:44:21Z</time>
      </trkpt>
      <trkpt lat="46.32936" lon="4.67058">
        <ele>402</ele>
        <time>2020-06-10T23:44:24Z</time>
      </trkpt>
      <trkpt lat="46.32932" lon="4.67082">
        <ele>401</ele>
        <time>2020-06-10T23:44:27Z</time>
      </trkpt>
      <trkpt lat="46.32926" lon="4.67144">
        <ele>401</ele>
        <time>2020-06-10T23:44:35Z</time>
      </trkpt>
      <trkpt lat="46.32921" lon="4.67168">
        <ele>401</ele>
        <time>2020-06-10T23:44:38Z</time>
      </trkpt>
      <trkpt lat="46.3291" lon="4.67196">
        <ele>400</ele>
        <time>2020-06-10T23:44:42Z</time>
      </trkpt>
      <trkpt lat="46.32895" lon="4.6722">
        <ele>398</ele>
        <time>2020-06-10T23:44:46Z</time>
      </trkpt>
      <trkpt lat="46.3288" lon="4.67254">
        <ele>395</ele>
        <time>2020-06-10T23:44:51Z</time>
      </trkpt>
      <trkpt lat="46.32871" lon="4.67284">
        <ele>394</ele>
        <time>2020-06-10T23:44:55Z</time>
      </trkpt>
      <trkpt lat="46.32862" lon="4.67332">
        <ele>393</ele>
        <time>2020-06-10T23:45:01Z</time>
      </trkpt>
      <trkpt lat="46.32859" lon="4.67397">
        <ele>391</ele>
        <time>2020-06-10T23:45:09Z</time>
      </trkpt>
      <trkpt lat="46.32854" lon="4.67437">
        <ele>389</ele>
        <time>2020-06-10T23:45:14Z</time>
      </trkpt>
      <trkpt lat="46.32844" lon="4.67489">
        <ele>385</ele>
        <time>2020-06-10T23:45:21Z</time>
      </trkpt>
      <trkpt lat="46.3284" lon="4.67519">
        <ele>383</ele>
        <time>2020-06-10T23:45:24Z</time>
      </trkpt>
      <trkpt lat="46.3284" lon="4.67543">
        <ele>381</ele>
        <time>2020-06-10T23:45:27Z</time>
      </trkpt>
      <trkpt lat="46.32844" lon="4.67557">
        <ele>381</ele>
        <time>2020-06-10T23:45:29Z</time>
      </trkpt>
      <trkpt lat="46.32848" lon="4.67567">
        <ele>381</ele>
        <time>2020-06-10T23:45:31Z</time>
      </trkpt>
      <trkpt lat="46.32874" lon="4.67601">
        <ele>380</ele>
        <time>2020-06-10T23:45:37Z</time>
      </trkpt>
      <trkpt lat="46.32902" lon="4.67623">
        <ele>378</ele>
        <time>2020-06-10T23:45:42Z</time>
      </trkpt>
      <trkpt lat="46.32936" lon="4.67636">
        <ele>377</ele>
        <time>2020-06-10T23:45:49Z</time>
      </trkpt>
      <trkpt lat="46.33015" lon="4.67647">
        <ele>380</ele>
        <time>2020-06-10T23:46:03Z</time>
      </trkpt>
      <trkpt lat="46.33039" lon="4.67655">
        <ele>379</ele>
        <time>2020-06-10T23:46:07Z</time>
      </trkpt>
      <trkpt lat="46.33203" lon="4.67773">
        <ele>361</ele>
        <time>2020-06-10T23:46:40Z</time>
      </trkpt>
      <trkpt lat="46.33215" lon="4.67778">
        <ele>360</ele>
        <time>2020-06-10T23:46:42Z</time>
      </trkpt>
      <trkpt lat="46.33239" lon="4.67782">
        <ele>361</ele>
        <time>2020-06-10T23:46:46Z</time>
      </trkpt>
      <trkpt lat="46.33258" lon="4.67781">
        <ele>361</ele>
        <time>2020-06-10T23:46:50Z</time>
      </trkpt>
      <trkpt lat="46.333" lon="4.67773">
        <ele>361</ele>
        <time>2020-06-10T23:46:57Z</time>
      </trkpt>
      <trkpt lat="46.33337" lon="4.67769">
        <ele>360</ele>
        <time>2020-06-10T23:47:04Z</time>
      </trkpt>
      <trkpt lat="46.33373" lon="4.67773">
        <ele>360</ele>
        <time>2020-06-10T23:47:10Z</time>
      </trkpt>
      <trkpt lat="46.33413" lon="4.67784">
        <ele>358</ele>
        <time>2020-06-10T23:47:18Z</time>
      </trkpt>
      <trkpt lat="46.33442" lon="4.67788">
        <ele>355</ele>
        <time>2020-06-10T23:47:23Z</time>
      </trkpt>
      <trkpt lat="46.33479" lon="4.6779">
        <ele>352</ele>
        <time>2020-06-10T23:47:29Z</time>
      </trkpt>
      <trkpt lat="46.33507" lon="4.67785">
        <ele>351</ele>
        <time>2020-06-10T23:47:34Z</time>
      </trkpt>
      <trkpt lat="46.33544" lon="4.67772">
        <ele>347</ele>
        <time>2020-06-10T23:47:41Z</time>
      </trkpt>
      <trkpt lat="46.33571" lon="4.67755">
        <ele>345</ele>
        <time>2020-06-10T23:47:46Z</time>
      </trkpt>
      <trkpt lat="46.33578" lon="4.67743">
        <ele>346</ele>
        <time>2020-06-10T23:47:48Z</time>
      </trkpt>
      <trkpt lat="46.33583" lon="4.67727">
        <ele>347</ele>
        <time>2020-06-10T23:47:50Z</time>
      </trkpt>
      <trkpt lat="46.33598" lon="4.67595">
        <ele>352</ele>
        <time>2020-06-10T23:48:07Z</time>
      </trkpt>
      <trkpt lat="46.33603" lon="4.67566">
        <ele>353</ele>
        <time>2020-06-10T23:48:11Z</time>
      </trkpt>
      <trkpt lat="46.3361" lon="4.67544">
        <ele>354</ele>
        <time>2020-06-10T23:48:14Z</time>
      </trkpt>
      <trkpt lat="46.33623" lon="4.6752">
        <ele>354</ele>
        <time>2020-06-10T23:48:17Z</time>
      </trkpt>
      <trkpt lat="46.33635" lon="4.67509">
        <ele>352</ele>
        <time>2020-06-10T23:48:20Z</time>
      </trkpt>
      <trkpt lat="46.33682" lon="4.675">
        <ele>341</ele>
        <time>2020-06-10T23:48:28Z</time>
      </trkpt>
      <trkpt lat="46.33697" lon="4.67492">
        <ele>339</ele>
        <time>2020-06-10T23:48:31Z</time>
      </trkpt>
      <trkpt lat="46.33721" lon="4.67467">
        <ele>338</ele>
        <time>2020-06-10T23:48:36Z</time>
      </trkpt>
      <trkpt lat="46.33752" lon="4.67424">
        <ele>338</ele>
        <time>2020-06-10T23:48:44Z</time>
      </trkpt>
      <trkpt lat="46.33764" lon="4.67391">
        <ele>338</ele>
        <time>2020-06-10T23:48:49Z</time>
      </trkpt>
      <trkpt lat="46.33768" lon="4.67371">
        <ele>339</ele>
        <time>2020-06-10T23:48:51Z</time>
      </trkpt>
      <trkpt lat="46.33772" lon="4.67327">
        <ele>341</ele>
        <time>2020-06-10T23:48:57Z</time>
      </trkpt>
      <trkpt lat="46.33778" lon="4.67314">
        <ele>341</ele>
        <time>2020-06-10T23:48:58Z</time>
      </trkpt>
      <trkpt lat="46.33793" lon="4.67302">
        <ele>340</ele>
        <time>2020-06-10T23:49:02Z</time>
      </trkpt>
      <trkpt lat="46.3382" lon="4.67285">
        <ele>337</ele>
        <time>2020-06-10T23:49:07Z</time>
      </trkpt>
      <trkpt lat="46.33829" lon="4.67284">
        <ele>335</ele>
        <time>2020-06-10T23:49:08Z</time>
      </trkpt>
      <trkpt lat="46.33838" lon="4.67288">
        <ele>335</ele>
        <time>2020-06-10T23:49:10Z</time>
      </trkpt>
      <trkpt lat="46.33847" lon="4.67301">
        <ele>335</ele>
        <time>2020-06-10T23:49:12Z</time>
      </trkpt>
      <trkpt lat="46.33863" lon="4.6734">
        <ele>333</ele>
        <time>2020-06-10T23:49:18Z</time>
      </trkpt>
      <trkpt lat="46.33873" lon="4.67356">
        <ele>333</ele>
        <time>2020-06-10T23:49:21Z</time>
      </trkpt>
      <trkpt lat="46.33896" lon="4.6738">
        <ele>335</ele>
        <time>2020-06-10T23:49:26Z</time>
      </trkpt>
      <trkpt lat="46.339" lon="4.67391">
        <ele>335</ele>
        <time>2020-06-10T23:49:27Z</time>
      </trkpt>
      <trkpt lat="46.33901" lon="4.67405">
        <ele>334</ele>
        <time>2020-06-10T23:49:29Z</time>
      </trkpt>
      <trkpt lat="46.33897" lon="4.6742">
        <ele>334</ele>
        <time>2020-06-10T23:49:31Z</time>
      </trkpt>
      <trkpt lat="46.33858" lon="4.67498">
        <ele>329</ele>
        <time>2020-06-10T23:49:43Z</time>
      </trkpt>
      <trkpt lat="46.3385" lon="4.67522">
        <ele>328</ele>
        <time>2020-06-10T23:49:46Z</time>
      </trkpt>
      <trkpt lat="46.33827" lon="4.67607">
        <ele>325</ele>
        <time>2020-06-10T23:49:57Z</time>
      </trkpt>
      <trkpt lat="46.33805" lon="4.67677">
        <ele>323</ele>
        <time>2020-06-10T23:50:07Z</time>
      </trkpt>
      <trkpt lat="46.33808" lon="4.67703">
        <ele>324</ele>
        <time>2020-06-10T23:50:10Z</time>
      </trkpt>
      <trkpt lat="46.33806" lon="4.67732">
        <ele>325</ele>
        <time>2020-06-10T23:50:13Z</time>
      </trkpt>
      <trkpt lat="46.33787" lon="4.67808">
        <ele>322</ele>
        <time>2020-06-10T23:50:23Z</time>
      </trkpt>
      <trkpt lat="46.33785" lon="4.67828">
        <ele>321</ele>
        <time>2020-06-10T23:50:26Z</time>
      </trkpt>
      <trkpt lat="46.33787" lon="4.67837">
        <ele>321</ele>
        <time>2020-06-10T23:50:27Z</time>
      </trkpt>
      <trkpt lat="46.33806" lon="4.67833">
        <ele>325</ele>
        <time>2020-06-10T23:50:30Z</time>
      </trkpt>
      <trkpt lat="46.33827" lon="4.67805">
        <ele>330</ele>
        <time>2020-06-10T23:50:35Z</time>
      </trkpt>
      <trkpt lat="46.33884" lon="4.67743">
        <ele>344</ele>
        <time>2020-06-10T23:50:48Z</time>
      </trkpt>
      <trkpt lat="46.33892" lon="4.67733">
        <ele>346</ele>
        <time>2020-06-10T23:50:50Z</time>
      </trkpt>
      <trkpt lat="46.33896" lon="4.67724">
        <ele>347</ele>
        <time>2020-06-10T23:50:51Z</time>
      </trkpt>
      <trkpt lat="46.33899" lon="4.67709">
        <ele>348</ele>
        <time>2020-06-10T23:50:53Z</time>
      </trkpt>
      <trkpt lat="46.33906" lon="4.67648">
        <ele>349</ele>
        <time>2020-06-10T23:51:01Z</time>
      </trkpt>
      <trkpt lat="46.33916" lon="4.67628">
        <ele>351</ele>
        <time>2020-06-10T23:51:04Z</time>
      </trkpt>
      <trkpt lat="46.33917" lon="4.67608">
        <ele>350</ele>
        <time>2020-06-10T23:51:06Z</time>
      </trkpt>
      <trkpt lat="46.3392" lon="4.67594">
        <ele>350</ele>
        <time>2020-06-10T23:51:08Z</time>
      </trkpt>
      <trkpt lat="46.33928" lon="4.67578">
        <ele>352</ele>
        <time>2020-06-10T23:51:11Z</time>
      </trkpt>
      <trkpt lat="46.33969" lon="4.67507">
        <ele>356</ele>
        <time>2020-06-10T23:51:22Z</time>
      </trkpt>
      <trkpt lat="46.33987" lon="4.6749">
        <ele>358</ele>
        <time>2020-06-10T23:51:26Z</time>
      </trkpt>
      <trkpt lat="46.34006" lon="4.67482">
        <ele>361</ele>
        <time>2020-06-10T23:51:29Z</time>
      </trkpt>
      <trkpt lat="46.34024" lon="4.67478">
        <ele>363</ele>
        <time>2020-06-10T23:51:33Z</time>
      </trkpt>
      <trkpt lat="46.34122" lon="4.67468">
        <ele>377</ele>
        <time>2020-06-10T23:51:50Z</time>
      </trkpt>
      <trkpt lat="46.3413" lon="4.67462">
        <ele>377</ele>
        <time>2020-06-10T23:51:52Z</time>
      </trkpt>
      <trkpt lat="46.34138" lon="4.67447">
        <ele>378</ele>
        <time>2020-06-10T23:51:54Z</time>
      </trkpt>
      <trkpt lat="46.34139" lon="4.67432">
        <ele>377</ele>
        <time>2020-06-10T23:51:56Z</time>
      </trkpt>
      <trkpt lat="46.34133" lon="4.67391">
        <ele>374</ele>
        <time>2020-06-10T23:52:01Z</time>
      </trkpt>
      <trkpt lat="46.34135" lon="4.67375">
        <ele>374</ele>
        <time>2020-06-10T23:52:03Z</time>
      </trkpt>
      <trkpt lat="46.34143" lon="4.67356">
        <ele>376</ele>
        <time>2020-06-10T23:52:06Z</time>
      </trkpt>
      <trkpt lat="46.34188" lon="4.67283">
        <ele>381</ele>
        <time>2020-06-10T23:52:18Z</time>
      </trkpt>
      <trkpt lat="46.34227" lon="4.67239">
        <ele>386</ele>
        <time>2020-06-10T23:52:26Z</time>
      </trkpt>
      <trkpt lat="46.34237" lon="4.6722">
        <ele>387</ele>
        <time>2020-06-10T23:52:29Z</time>
      </trkpt>
      <trkpt lat="46.34249" lon="4.67184">
        <ele>388</ele>
        <time>2020-06-10T23:52:34Z</time>
      </trkpt>
      <trkpt lat="46.3426" lon="4.67166">
        <ele>388</ele>
        <time>2020-06-10T23:52:37Z</time>
      </trkpt>
      <trkpt lat="46.34271" lon="4.67155">
        <ele>389</ele>
        <time>2020-06-10T23:52:40Z</time>
      </trkpt>
      <trkpt lat="46.34295" lon="4.67142">
        <ele>391</ele>
        <time>2020-06-10T23:52:44Z</time>
      </trkpt>
      <trkpt lat="46.34316" lon="4.67137">
        <ele>393</ele>
        <time>2020-06-10T23:52:48Z</time>
      </trkpt>
      <trkpt lat="46.34324" lon="4.67142">
        <ele>394</ele>
        <time>2020-06-10T23:52:50Z</time>
      </trkpt>
      <trkpt lat="46.34329" lon="4.67152">
        <ele>396</ele>
        <time>2020-06-10T23:52:51Z</time>
      </trkpt>
      <trkpt lat="46.34331" lon="4.67165">
        <ele>398</ele>
        <time>2020-06-10T23:52:53Z</time>
      </trkpt>
      <trkpt lat="46.34327" lon="4.67176">
        <ele>399</ele>
        <time>2020-06-10T23:52:54Z</time>
      </trkpt>
      <trkpt lat="46.34319" lon="4.67187">
        <ele>399</ele>
        <time>2020-06-10T23:52:56Z</time>
      </trkpt>
      <trkpt lat="46.34306" lon="4.67195">
        <ele>398</ele>
        <time>2020-06-10T23:52:59Z</time>
      </trkpt>
      <trkpt lat="46.34294" lon="4.67206">
        <ele>397</ele>
        <time>2020-06-10T23:53:01Z</time>
      </trkpt>
      <trkpt lat="46.34288" lon="4.67221">
        <ele>397</ele>
        <time>2020-06-10T23:53:03Z</time>
      </trkpt>
      <trkpt lat="46.34286" lon="4.67258">
        <ele>399</ele>
        <time>2020-06-10T23:53:08Z</time>
      </trkpt>
      <trkpt lat="46.34271" lon="4.67339">
        <ele>401</ele>
        <time>2020-06-10T23:53:18Z</time>
      </trkpt>
      <trkpt lat="46.34269" lon="4.67362">
        <ele>402</ele>
        <time>2020-06-10T23:53:21Z</time>
      </trkpt>
      <trkpt lat="46.34289" lon="4.67357">
        <ele>406</ele>
        <time>2020-06-10T23:53:25Z</time>
      </trkpt>
      <trkpt lat="46.3435" lon="4.6735">
        <ele>417</ele>
        <time>2020-06-10T23:53:36Z</time>
      </trkpt>
      <trkpt lat="46.34355" lon="4.67348">
        <ele>418</ele>
        <time>2020-06-10T23:53:37Z</time>
      </trkpt>
      <trkpt lat="46.34364" lon="4.67336">
        <ele>420</ele>
        <time>2020-06-10T23:53:39Z</time>
      </trkpt>
      <trkpt lat="46.34371" lon="4.67333">
        <ele>421</ele>
        <time>2020-06-10T23:53:40Z</time>
      </trkpt>
      <trkpt lat="46.34376" lon="4.67338">
        <ele>422</ele>
        <time>2020-06-10T23:53:41Z</time>
      </trkpt>
      <trkpt lat="46.34381" lon="4.67346">
        <ele>423</ele>
        <time>2020-06-10T23:53:42Z</time>
      </trkpt>
      <trkpt lat="46.34405" lon="4.67406">
        <ele>429</ele>
        <time>2020-06-10T23:53:51Z</time>
      </trkpt>
      <trkpt lat="46.34413" lon="4.67393">
        <ele>430</ele>
        <time>2020-06-10T23:53:53Z</time>
      </trkpt>
      <trkpt lat="46.34426" lon="4.67363">
        <ele>432</ele>
        <time>2020-06-10T23:53:57Z</time>
      </trkpt>
      <trkpt lat="46.34441" lon="4.67298">
        <ele>432</ele>
        <time>2020-06-10T23:54:06Z</time>
      </trkpt>
      <trkpt lat="46.34452" lon="4.67274">
        <ele>433</ele>
        <time>2020-06-10T23:54:09Z</time>
      </trkpt>
      <trkpt lat="46.34472" lon="4.67253">
        <ele>435</ele>
        <time>2020-06-10T23:54:14Z</time>
      </trkpt>
      <trkpt lat="46.34501" lon="4.67236">
        <ele>439</ele>
        <time>2020-06-10T23:54:19Z</time>
      </trkpt>
      <trkpt lat="46.34551" lon="4.67188">
        <ele>441</ele>
        <time>2020-06-10T23:54:30Z</time>
      </trkpt>
      <trkpt lat="46.34564" lon="4.67183">
        <ele>443</ele>
        <time>2020-06-10T23:54:32Z</time>
      </trkpt>
      <trkpt lat="46.34579" lon="4.67181">
        <ele>445</ele>
        <time>2020-06-10T23:54:35Z</time>
      </trkpt>
      <trkpt lat="46.34622" lon="4.67185">
        <ele>451</ele>
        <time>2020-06-10T23:54:43Z</time>
      </trkpt>
      <trkpt lat="46.34646" lon="4.67182">
        <ele>454</ele>
        <time>2020-06-10T23:54:47Z</time>
      </trkpt>
      <trkpt lat="46.34666" lon="4.67169">
        <ele>454</ele>
        <time>2020-06-10T23:54:51Z</time>
      </trkpt>
      <trkpt lat="46.34709" lon="4.67136">
        <ele>456</ele>
        <time>2020-06-10T23:55:00Z</time>
      </trkpt>
      <trkpt lat="46.34731" lon="4.67132">
        <ele>459</ele>
        <time>2020-06-10T23:55:04Z</time>
      </trkpt>
      <trkpt lat="46.3487" lon="4.67128">
        <ele>473</ele>
        <time>2020-06-10T23:55:28Z</time>
      </trkpt>
      <trkpt lat="46.34891" lon="4.67121">
        <ele>474</ele>
        <time>2020-06-10T23:55:32Z</time>
      </trkpt>
      <trkpt lat="46.34904" lon="4.67117">
        <ele>475</ele>
        <time>2020-06-10T23:55:34Z</time>
      </trkpt>
      <trkpt lat="46.34914" lon="4.67106">
        <ele>476</ele>
        <time>2020-06-10T23:55:37Z</time>
      </trkpt>
      <trkpt lat="46.34912" lon="4.6709">
        <ele>475</ele>
        <time>2020-06-10T23:55:39Z</time>
      </trkpt>
      <trkpt lat="46.34897" lon="4.67055">
        <ele>476</ele>
        <time>2020-06-10T23:55:44Z</time>
      </trkpt>
      <trkpt lat="46.34854" lon="4.66991">
        <ele>474</ele>
        <time>2020-06-10T23:55:55Z</time>
      </trkpt>
      <trkpt lat="46.34837" lon="4.66958">
        <ele>473</ele>
        <time>2020-06-10T23:56:00Z</time>
      </trkpt>
      <trkpt lat="46.34827" lon="4.66931">
        <ele>473</ele>
        <time>2020-06-10T23:56:04Z</time>
      </trkpt>
      <trkpt lat="46.34821" lon="4.669">
        <ele>474</ele>
        <time>2020-06-10T23:56:07Z</time>
      </trkpt>
      <trkpt lat="46.3482" lon="4.66872">
        <ele>476</ele>
        <time>2020-06-10T23:56:11Z</time>
      </trkpt>
      <trkpt lat="46.3482" lon="4.66856">
        <ele>477</ele>
        <time>2020-06-10T23:56:13Z</time>
      </trkpt>
      <trkpt lat="46.34827" lon="4.66818">
        <ele>480</ele>
        <time>2020-06-10T23:56:18Z</time>
      </trkpt>
      <trkpt lat="46.34833" lon="4.668">
        <ele>482</ele>
        <time>2020-06-10T23:56:20Z</time>
      </trkpt>
      <trkpt lat="46.34849" lon="4.66767">
        <ele>488</ele>
        <time>2020-06-10T23:56:25Z</time>
      </trkpt>
      <trkpt lat="46.34853" lon="4.66749">
        <ele>490</ele>
        <time>2020-06-10T23:56:27Z</time>
      </trkpt>
      <trkpt lat="46.34855" lon="4.66728">
        <ele>494</ele>
        <time>2020-06-10T23:56:30Z</time>
      </trkpt>
      <trkpt lat="46.34853" lon="4.66713">
        <ele>496</ele>
        <time>2020-06-10T23:56:32Z</time>
      </trkpt>
      <trkpt lat="46.34847" lon="4.66697">
        <ele>496</ele>
        <time>2020-06-10T23:56:34Z</time>
      </trkpt>
      <trkpt lat="46.34822" lon="4.66668">
        <ele>491</ele>
        <time>2020-06-10T23:56:40Z</time>
      </trkpt>
      <trkpt lat="46.34816" lon="4.66656">
        <ele>490</ele>
        <time>2020-06-10T23:56:42Z</time>
      </trkpt>
      <trkpt lat="46.34813" lon="4.66644">
        <ele>490</ele>
        <time>2020-06-10T23:56:43Z</time>
      </trkpt>
      <trkpt lat="46.34811" lon="4.66638">
        <ele>489</ele>
        <time>2020-06-10T23:56:44Z</time>
      </trkpt>
      <trkpt lat="46.34811" lon="4.66613">
        <ele>491</ele>
        <time>2020-06-10T23:56:47Z</time>
      </trkpt>
      <trkpt lat="46.34814" lon="4.66579">
        <ele>495</ele>
        <time>2020-06-10T23:56:51Z</time>
      </trkpt>
      <trkpt lat="46.34847" lon="4.66444">
        <ele>511</ele>
        <time>2020-06-10T23:57:09Z</time>
      </trkpt>
      <trkpt lat="46.34878" lon="4.66281">
        <ele>529</ele>
        <time>2020-06-10T23:57:30Z</time>
      </trkpt>
      <trkpt lat="46.34903" lon="4.66123">
        <ele>536</ele>
        <time>2020-06-10T23:57:50Z</time>
      </trkpt>
      <trkpt lat="46.34927" lon="4.66066">
        <ele>534</ele>
        <time>2020-06-10T23:57:58Z</time>
      </trkpt>
      <trkpt lat="46.34931" lon="4.66055">
        <ele>533</ele>
        <time>2020-06-10T23:57:59Z</time>
      </trkpt>
      <trkpt lat="46.34935" lon="4.66042">
        <ele>532</ele>
        <time>2020-06-10T23:58:01Z</time>
      </trkpt>
      <trkpt lat="46.34938" lon="4.66018">
        <ele>530</ele>
        <time>2020-06-10T23:58:04Z</time>
      </trkpt>
      <trkpt lat="46.34937" lon="4.66002">
        <ele>528</ele>
        <time>2020-06-10T23:58:06Z</time>
      </trkpt>
      <trkpt lat="46.34935" lon="4.6599">
        <ele>526</ele>
        <time>2020-06-10T23:58:08Z</time>
      </trkpt>
      <trkpt lat="46.3493" lon="4.65973">
        <ele>524</ele>
        <time>2020-06-10T23:58:10Z</time>
      </trkpt>
      <trkpt lat="46.34924" lon="4.6596">
        <ele>523</ele>
        <time>2020-06-10T23:58:12Z</time>
      </trkpt>
      <trkpt lat="46.34912" lon="4.65941">
        <ele>522</ele>
        <time>2020-06-10T23:58:15Z</time>
      </trkpt>
      <trkpt lat="46.34899" lon="4.65926">
        <ele>522</ele>
        <time>2020-06-10T23:58:18Z</time>
      </trkpt>
      <trkpt lat="46.34882" lon="4.65912">
        <ele>523</ele>
        <time>2020-06-10T23:58:21Z</time>
      </trkpt>
      <trkpt lat="46.34857" lon="4.65901">
        <ele>525</ele>
        <time>2020-06-10T23:58:26Z</time>
      </trkpt>
      <trkpt lat="46.34849" lon="4.65894">
        <ele>526</ele>
        <time>2020-06-10T23:58:28Z</time>
      </trkpt>
      <trkpt lat="46.34843" lon="4.65882">
        <ele>526</ele>
        <time>2020-06-10T23:58:30Z</time>
      </trkpt>
      <trkpt lat="46.34843" lon="4.65872">
        <ele>525</ele>
        <time>2020-06-10T23:58:31Z</time>
      </trkpt>
      <trkpt lat="46.34848" lon="4.65839">
        <ele>520</ele>
        <time>2020-06-10T23:58:35Z</time>
      </trkpt>
      <trkpt lat="46.34846" lon="4.65829">
        <ele>520</ele>
        <time>2020-06-10T23:58:36Z</time>
      </trkpt>
      <trkpt lat="46.34844" lon="4.6582">
        <ele>521</ele>
        <time>2020-06-10T23:58:37Z</time>
      </trkpt>
      <trkpt lat="46.3483" lon="4.65804">
        <ele>526</ele>
        <time>2020-06-10T23:58:40Z</time>
      </trkpt>
      <trkpt lat="46.34826" lon="4.65796">
        <ele>527</ele>
        <time>2020-06-10T23:58:42Z</time>
      </trkpt>
      <trkpt lat="46.34827" lon="4.65783">
        <ele>528</ele>
        <time>2020-06-10T23:58:43Z</time>
      </trkpt>
      <trkpt lat="46.34832" lon="4.65774">
        <ele>527</ele>
        <time>2020-06-10T23:58:45Z</time>
      </trkpt>
      <trkpt lat="46.34855" lon="4.65759">
        <ele>522</ele>
        <time>2020-06-10T23:58:49Z</time>
      </trkpt>
      <trkpt lat="46.34871" lon="4.65742">
        <ele>519</ele>
        <time>2020-06-10T23:58:53Z</time>
      </trkpt>
      <trkpt lat="46.34876" lon="4.6573">
        <ele>519</ele>
        <time>2020-06-10T23:58:54Z</time>
      </trkpt>
      <trkpt lat="46.34883" lon="4.657">
        <ele>521</ele>
        <time>2020-06-10T23:58:58Z</time>
      </trkpt>
      <trkpt lat="46.34888" lon="4.65697">
        <ele>520</ele>
        <time>2020-06-10T23:58:59Z</time>
      </trkpt>
      <trkpt lat="46.34896" lon="4.65695">
        <ele>519</ele>
        <time>2020-06-10T23:59:01Z</time>
      </trkpt>
      <trkpt lat="46.34917" lon="4.65695">
        <ele>514</ele>
        <time>2020-06-10T23:59:05Z</time>
      </trkpt>
      <trkpt lat="46.34929" lon="4.65696">
        <ele>512</ele>
        <time>2020-06-10T23:59:07Z</time>
      </trkpt>
      <trkpt lat="46.34946" lon="4.65696">
        <ele>509</ele>
        <time>2020-06-10T23:59:10Z</time>
      </trkpt>
      <trkpt lat="46.34988" lon="4.65686">
        <ele>503</ele>
        <time>2020-06-10T23:59:17Z</time>
      </trkpt>
      <trkpt lat="46.3503" lon="4.65672">
        <ele>497</ele>
        <time>2020-06-10T23:59:25Z</time>
      </trkpt>
      <trkpt lat="46.35039" lon="4.65667">
        <ele>496</ele>
        <time>2020-06-10T23:59:27Z</time>
      </trkpt>
      <trkpt lat="46.35051" lon="4.65656">
        <ele>495</ele>
        <time>2020-06-10T23:59:29Z</time>
      </trkpt>
      <trkpt lat="46.35062" lon="4.65633">
        <ele>495</ele>
        <time>2020-06-10T23:59:33Z</time>
      </trkpt>
      <trkpt lat="46.35074" lon="4.65596">
        <ele>497</ele>
        <time>2020-06-10T23:59:38Z</time>
      </trkpt>
      <trkpt lat="46.35095" lon="4.65523">
        <ele>500</ele>
        <time>2020-06-10T23:59:47Z</time>
      </trkpt>
      <trkpt lat="46.35103" lon="4.65506">
        <ele>499</ele>
        <time>2020-06-10T23:59:50Z</time>
      </trkpt>
      <trkpt lat="46.35112" lon="4.6549">
        <ele>497</ele>
        <time>2020-06-10T23:59:52Z</time>
      </trkpt>
      <trkpt lat="46.35125" lon="4.65475">
        <ele>495</ele>
        <time>2020-06-10T23:59:55Z</time>
      </trkpt>
      <trkpt lat="46.35141" lon="4.65448">
        <ele>493</ele>
        <time>2020-06-11T00:00:00Z</time>
      </trkpt>
      <trkpt lat="46.35165" lon="4.65412">
        <ele>489</ele>
        <time>2020-06-11T00:00:06Z</time>
      </trkpt>
      <trkpt lat="46.35193" lon="4.65367">
        <ele>487</ele>
        <time>2020-06-11T00:00:13Z</time>
      </trkpt>
      <trkpt lat="46.35226" lon="4.65298">
        <ele>484</ele>
        <time>2020-06-11T00:00:24Z</time>
      </trkpt>
      <trkpt lat="46.35241" lon="4.65278">
        <ele>479</ele>
        <time>2020-06-11T00:00:27Z</time>
      </trkpt>
      <trkpt lat="46.35281" lon="4.65248">
        <ele>472</ele>
        <time>2020-06-11T00:00:35Z</time>
      </trkpt>
      <trkpt lat="46.35309" lon="4.65224">
        <ele>470</ele>
        <time>2020-06-11T00:00:41Z</time>
      </trkpt>
      <trkpt lat="46.35331" lon="4.6521">
        <ele>466</ele>
        <time>2020-06-11T00:00:45Z</time>
      </trkpt>
      <trkpt lat="46.35347" lon="4.65195">
        <ele>464</ele>
        <time>2020-06-11T00:00:49Z</time>
      </trkpt>
      <trkpt lat="46.35354" lon="4.65184">
        <ele>462</ele>
        <time>2020-06-11T00:00:51Z</time>
      </trkpt>
      <trkpt lat="46.35375" lon="4.65137">
        <ele>461</ele>
        <time>2020-06-11T00:00:57Z</time>
      </trkpt>
      <trkpt lat="46.35393" lon="4.65087">
        <ele>460</ele>
        <time>2020-06-11T00:01:04Z</time>
      </trkpt>
      <trkpt lat="46.35404" lon="4.65046">
        <ele>459</ele>
        <time>2020-06-11T00:01:10Z</time>
      </trkpt>
      <trkpt lat="46.35408" lon="4.65011">
        <ele>459</ele>
        <time>2020-06-11T00:01:14Z</time>
      </trkpt>
      <trkpt lat="46.35403" lon="4.6497">
        <ele>465</ele>
        <time>2020-06-11T00:01:19Z</time>
      </trkpt>
      <trkpt lat="46.35405" lon="4.64962">
        <ele>466</ele>
        <time>2020-06-11T00:01:20Z</time>
      </trkpt>
      <trkpt lat="46.35409" lon="4.64955">
        <ele>465</ele>
        <time>2020-06-11T00:01:21Z</time>
      </trkpt>
      <trkpt lat="46.35416" lon="4.64948">
        <ele>464</ele>
        <time>2020-06-11T00:01:23Z</time>
      </trkpt>
      <trkpt lat="46.3543" lon="4.64945">
        <ele>461</ele>
        <time>2020-06-11T00:01:25Z</time>
      </trkpt>
      <trkpt lat="46.35484" lon="4.64943">
        <ele>451</ele>
        <time>2020-06-11T00:01:35Z</time>
      </trkpt>
      <trkpt lat="46.35496" lon="4.6494">
        <ele>450</ele>
        <time>2020-06-11T00:01:37Z</time>
      </trkpt>
      <trkpt lat="46.35509" lon="4.6493">
        <ele>449</ele>
        <time>2020-06-11T00:01:40Z</time>
      </trkpt>
      <trkpt lat="46.35526" lon="4.64911">
        <ele>447</ele>
        <time>2020-06-11T00:01:44Z</time>
      </trkpt>
      <trkpt lat="46.35538" lon="4.64892">
        <ele>446</ele>
        <time>2020-06-11T00:01:47Z</time>
      </trkpt>
      <trkpt lat="46.35544" lon="4.64877">
        <ele>446</ele>
        <time>2020-06-11T00:01:49Z</time>
      </trkpt>
      <trkpt lat="46.35556" lon="4.6483">
        <ele>447</ele>
        <time>2020-06-11T00:01:55Z</time>
      </trkpt>
      <trkpt lat="46.35566" lon="4.64806">
        <ele>448</ele>
        <time>2020-06-11T00:01:59Z</time>
      </trkpt>
      <trkpt lat="46.35588" lon="4.6477">
        <ele>446</ele>
        <time>2020-06-11T00:02:04Z</time>
      </trkpt>
      <trkpt lat="46.35602" lon="4.6474">
        <ele>447</ele>
        <time>2020-06-11T00:02:09Z</time>
      </trkpt>
      <trkpt lat="46.35608" lon="4.64721">
        <ele>448</ele>
        <time>2020-06-11T00:02:11Z</time>
      </trkpt>
      <trkpt lat="46.35614" lon="4.64683">
        <ele>451</ele>
        <time>2020-06-11T00:02:16Z</time>
      </trkpt>
      <trkpt lat="46.35619" lon="4.64674">
        <ele>451</ele>
        <time>2020-06-11T00:02:18Z</time>
      </trkpt>
      <trkpt lat="46.35625" lon="4.64672">
        <ele>449</ele>
        <time>2020-06-11T00:02:19Z</time>
      </trkpt>
      <trkpt lat="46.35631" lon="4.64673">
        <ele>448</ele>
        <time>2020-06-11T00:02:20Z</time>
      </trkpt>
      <trkpt lat="46.3564" lon="4.64677">
        <ele>445</ele>
        <time>2020-06-11T00:02:21Z</time>
      </trkpt>
      <trkpt lat="46.35667" lon="4.64685">
        <ele>437</ele>
        <time>2020-06-11T00:02:26Z</time>
      </trkpt>
      <trkpt lat="46.35681" lon="4.64683">
        <ele>433</ele>
        <time>2020-06-11T00:02:29Z</time>
      </trkpt>
      <trkpt lat="46.35695" lon="4.64676">
        <ele>430</ele>
        <time>2020-06-11T00:02:32Z</time>
      </trkpt>
      <trkpt lat="46.35708" lon="4.64666">
        <ele>428</ele>
        <time>2020-06-11T00:02:34Z</time>
      </trkpt>
      <trkpt lat="46.35737" lon="4.64634">
        <ele>424</ele>
        <time>2020-06-11T00:02:41Z</time>
      </trkpt>
      <trkpt lat="46.35762" lon="4.64589">
        <ele>421</ele>
        <time>2020-06-11T00:02:48Z</time>
      </trkpt>
      <trkpt lat="46.35768" lon="4.6457">
        <ele>422</ele>
        <time>2020-06-11T00:02:50Z</time>
      </trkpt>
      <trkpt lat="46.35791" lon="4.64468">
        <ele>424</ele>
        <time>2020-06-11T00:03:03Z</time>
      </trkpt>
      <trkpt lat="46.35796" lon="4.64452">
        <ele>425</ele>
        <time>2020-06-11T00:03:06Z</time>
      </trkpt>
      <trkpt lat="46.35802" lon="4.64443">
        <ele>424</ele>
        <time>2020-06-11T00:03:07Z</time>
      </trkpt>
      <trkpt lat="46.35809" lon="4.64435">
        <ele>422</ele>
        <time>2020-06-11T00:03:09Z</time>
      </trkpt>
      <trkpt lat="46.35819" lon="4.64429">
        <ele>420</ele>
        <time>2020-06-11T00:03:11Z</time>
      </trkpt>
      <trkpt lat="46.35857" lon="4.64419">
        <ele>413</ele>
        <time>2020-06-11T00:03:18Z</time>
      </trkpt>
      <trkpt lat="46.35887" lon="4.64421">
        <ele>409</ele>
        <time>2020-06-11T00:03:23Z</time>
      </trkpt>
      <trkpt lat="46.35938" lon="4.64428">
        <ele>401</ele>
        <time>2020-06-11T00:03:32Z</time>
      </trkpt>
      <trkpt lat="46.35955" lon="4.64427">
        <ele>399</ele>
        <time>2020-06-11T00:03:35Z</time>
      </trkpt>
      <trkpt lat="46.35991" lon="4.6442">
        <ele>396</ele>
        <time>2020-06-11T00:03:41Z</time>
      </trkpt>
      <trkpt lat="46.36008" lon="4.6441">
        <ele>394</ele>
        <time>2020-06-11T00:03:45Z</time>
      </trkpt>
      <trkpt lat="46.3602" lon="4.64396">
        <ele>392</ele>
        <time>2020-06-11T00:03:47Z</time>
      </trkpt>
      <trkpt lat="46.36029" lon="4.64377">
        <ele>391</ele>
        <time>2020-06-11T00:03:50Z</time>
      </trkpt>
      <trkpt lat="46.36037" lon="4.64353">
        <ele>390</ele>
        <time>2020-06-11T00:03:54Z</time>
      </trkpt>
      <trkpt lat="46.3604" lon="4.64332">
        <ele>391</ele>
        <time>2020-06-11T00:03:56Z</time>
      </trkpt>
      <trkpt lat="46.36042" lon="4.64244">
        <ele>391</ele>
        <time>2020-06-11T00:04:07Z</time>
      </trkpt>
      <trkpt lat="46.36042" lon="4.64218">
        <ele>390</ele>
        <time>2020-06-11T00:04:10Z</time>
      </trkpt>
      <trkpt lat="46.36045" lon="4.64189">
        <ele>389</ele>
        <time>2020-06-11T00:04:14Z</time>
      </trkpt>
      <trkpt lat="46.36049" lon="4.64167">
        <ele>388</ele>
        <time>2020-06-11T00:04:17Z</time>
      </trkpt>
      <trkpt lat="46.36054" lon="4.64148">
        <ele>385</ele>
        <time>2020-06-11T00:04:19Z</time>
      </trkpt>
      <trkpt lat="46.36063" lon="4.64128">
        <ele>383</ele>
        <time>2020-06-11T00:04:22Z</time>
      </trkpt>
      <trkpt lat="46.36066" lon="4.64122">
        <ele>382</ele>
        <time>2020-06-11T00:04:23Z</time>
      </trkpt>
      <trkpt lat="46.36069" lon="4.64117">
        <ele>382</ele>
        <time>2020-06-11T00:04:24Z</time>
      </trkpt>
      <trkpt lat="46.36108" lon="4.64059">
        <ele>375</ele>
        <time>2020-06-11T00:04:34Z</time>
      </trkpt>
      <trkpt lat="46.36126" lon="4.64037">
        <ele>373</ele>
        <time>2020-06-11T00:04:38Z</time>
      </trkpt>
      <trkpt lat="46.36134" lon="4.64027">
        <ele>372</ele>
        <time>2020-06-11T00:04:40Z</time>
      </trkpt>
      <trkpt lat="46.36153" lon="4.64015">
        <ele>371</ele>
        <time>2020-06-11T00:04:43Z</time>
      </trkpt>
      <trkpt lat="46.36179" lon="4.64007">
        <ele>369</ele>
        <time>2020-06-11T00:04:48Z</time>
      </trkpt>
      <trkpt lat="46.3619" lon="4.64002">
        <ele>368</ele>
        <time>2020-06-11T00:04:50Z</time>
      </trkpt>
      <trkpt lat="46.36251" lon="4.63899">
        <ele>360</ele>
        <time>2020-06-11T00:05:07Z</time>
      </trkpt>
      <trkpt lat="46.36267" lon="4.63838">
        <ele>356</ele>
        <time>2020-06-11T00:05:15Z</time>
      </trkpt>
      <trkpt lat="46.36278" lon="4.6378">
        <ele>353</ele>
        <time>2020-06-11T00:05:22Z</time>
      </trkpt>
      <trkpt lat="46.36293" lon="4.63729">
        <ele>351</ele>
        <time>2020-06-11T00:05:29Z</time>
      </trkpt>
      <trkpt lat="46.36305" lon="4.63712">
        <ele>350</ele>
        <time>2020-06-11T00:05:32Z</time>
      </trkpt>
      <trkpt lat="46.36385" lon="4.63634">
        <ele>343</ele>
        <time>2020-06-11T00:05:49Z</time>
      </trkpt>
      <trkpt lat="46.36449" lon="4.63586">
        <ele>337</ele>
        <time>2020-06-11T00:06:02Z</time>
      </trkpt>
      <trkpt lat="46.36478" lon="4.6357">
        <ele>335</ele>
        <time>2020-06-11T00:06:08Z</time>
      </trkpt>
      <trkpt lat="46.36517" lon="4.63552">
        <ele>332</ele>
        <time>2020-06-11T00:06:15Z</time>
      </trkpt>
      <trkpt lat="46.36567" lon="4.63524">
        <ele>327</ele>
        <time>2020-06-11T00:06:24Z</time>
      </trkpt>
      <trkpt lat="46.36599" lon="4.63503">
        <ele>325</ele>
        <time>2020-06-11T00:06:31Z</time>
      </trkpt>
      <trkpt lat="46.36612" lon="4.63485">
        <ele>324</ele>
        <time>2020-06-11T00:06:34Z</time>
      </trkpt>
      <trkpt lat="46.3662" lon="4.63461">
        <ele>322</ele>
        <time>2020-06-11T00:06:37Z</time>
      </trkpt>
      <trkpt lat="46.36624" lon="4.63434">
        <ele>321</ele>
        <time>2020-06-11T00:06:41Z</time>
      </trkpt>
      <trkpt lat="46.36628" lon="4.63339">
        <ele>314</ele>
        <time>2020-06-11T00:06:52Z</time>
      </trkpt>
      <trkpt lat="46.36638" lon="4.633">
        <ele>312</ele>
        <time>2020-06-11T00:06:57Z</time>
      </trkpt>
      <trkpt lat="46.3666" lon="4.63254">
        <ele>308</ele>
        <time>2020-06-11T00:07:04Z</time>
      </trkpt>
      <trkpt lat="46.3668" lon="4.63228">
        <ele>306</ele>
        <time>2020-06-11T00:07:09Z</time>
      </trkpt>
      <trkpt lat="46.36699" lon="4.63211">
        <ele>304</ele>
        <time>2020-06-11T00:07:13Z</time>
      </trkpt>
      <trkpt lat="46.36742" lon="4.63183">
        <ele>300</ele>
        <time>2020-06-11T00:07:21Z</time>
      </trkpt>
      <trkpt lat="46.36764" lon="4.63168">
        <ele>298</ele>
        <time>2020-06-11T00:07:26Z</time>
      </trkpt>
      <trkpt lat="46.36791" lon="4.63163">
        <ele>297</ele>
        <time>2020-06-11T00:07:31Z</time>
      </trkpt>
      <trkpt lat="46.36813" lon="4.63166">
        <ele>296</ele>
        <time>2020-06-11T00:07:34Z</time>
      </trkpt>
      <trkpt lat="46.3684" lon="4.63187">
        <ele>297</ele>
        <time>2020-06-11T00:07:40Z</time>
      </trkpt>
      <trkpt lat="46.36848" lon="4.63189">
        <ele>296</ele>
        <time>2020-06-11T00:07:41Z</time>
      </trkpt>
      <trkpt lat="46.36883" lon="4.63175">
        <ele>292</ele>
        <time>2020-06-11T00:07:48Z</time>
      </trkpt>
      <trkpt lat="46.3694" lon="4.63151">
        <ele>286</ele>
        <time>2020-06-11T00:07:58Z</time>
      </trkpt>
      <trkpt lat="46.3696" lon="4.63152">
        <ele>285</ele>
        <time>2020-06-11T00:08:02Z</time>
      </trkpt>
      <trkpt lat="46.36983" lon="4.63154">
        <ele>283</ele>
        <time>2020-06-11T00:08:06Z</time>
      </trkpt>
      <trkpt lat="46.36988" lon="4.63154">
        <ele>283</ele>
        <time>2020-06-11T00:08:07Z</time>
      </trkpt>
      <trkpt lat="46.37033" lon="4.63152">
        <ele>281</ele>
        <time>2020-06-11T00:08:15Z</time>
      </trkpt>
      <trkpt lat="46.37042" lon="4.63146">
        <ele>280</ele>
        <time>2020-06-11T00:08:17Z</time>
      </trkpt>
      <trkpt lat="46.3712" lon="4.63215">
        <ele>281</ele>
        <time>2020-06-11T00:08:33Z</time>
      </trkpt>
      <trkpt lat="46.37225" lon="4.63305">
        <ele>279</ele>
        <time>2020-06-11T00:08:55Z</time>
      </trkpt>
      <trkpt lat="46.37241" lon="4.63325">
        <ele>279</ele>
        <time>2020-06-11T00:08:58Z</time>
      </trkpt>
      <trkpt lat="46.37278" lon="4.63389">
        <ele>279</ele>
        <time>2020-06-11T00:09:09Z</time>
      </trkpt>
      <trkpt lat="46.37307" lon="4.63427">
        <ele>278</ele>
        <time>2020-06-11T00:09:16Z</time>
      </trkpt>
      <trkpt lat="46.3733" lon="4.63447">
        <ele>277</ele>
        <time>2020-06-11T00:09:20Z</time>
      </trkpt>
      <trkpt lat="46.37385" lon="4.63486">
        <ele>276</ele>
        <time>2020-06-11T00:09:31Z</time>
      </trkpt>
      <trkpt lat="46.37423" lon="4.63522">
        <ele>276</ele>
        <time>2020-06-11T00:09:39Z</time>
      </trkpt>
      <trkpt lat="46.37428" lon="4.63527">
        <ele>276</ele>
        <time>2020-06-11T00:09:40Z</time>
      </trkpt>
      <trkpt lat="46.37462" lon="4.63561">
        <ele>277</ele>
        <time>2020-06-11T00:09:48Z</time>
      </trkpt>
      <trkpt lat="46.37496" lon="4.63584">
        <ele>277</ele>
        <time>2020-06-11T00:09:54Z</time>
      </trkpt>
      <trkpt lat="46.37541" lon="4.63606">
        <ele>276</ele>
        <time>2020-06-11T00:10:03Z</time>
      </trkpt>
      <trkpt lat="46.37617" lon="4.63627">
        <ele>273</ele>
        <time>2020-06-11T00:10:17Z</time>
      </trkpt>
      <trkpt lat="46.37641" lon="4.63637">
        <ele>273</ele>
        <time>2020-06-11T00:10:21Z</time>
      </trkpt>
      <trkpt lat="46.37659" lon="4.63648">
        <ele>272</ele>
        <time>2020-06-11T00:10:25Z</time>
      </trkpt>
      <trkpt lat="46.37684" lon="4.6367">
        <ele>272</ele>
        <time>2020-06-11T00:10:30Z</time>
      </trkpt>
      <trkpt lat="46.37706" lon="4.63695">
        <ele>273</ele>
        <time>2020-06-11T00:10:35Z</time>
      </trkpt>
      <trkpt lat="46.37727" lon="4.63712">
        <ele>273</ele>
        <time>2020-06-11T00:10:39Z</time>
      </trkpt>
      <trkpt lat="46.37751" lon="4.63726">
        <ele>273</ele>
        <time>2020-06-11T00:10:44Z</time>
      </trkpt>
      <trkpt lat="46.37773" lon="4.63734">
        <ele>272</ele>
        <time>2020-06-11T00:10:48Z</time>
      </trkpt>
      <trkpt lat="46.37825" lon="4.63735">
        <ele>271</ele>
        <time>2020-06-11T00:10:57Z</time>
      </trkpt>
      <trkpt lat="46.3783" lon="4.63736">
        <ele>271</ele>
        <time>2020-06-11T00:10:58Z</time>
      </trkpt>
      <trkpt lat="46.37858" lon="4.63736">
        <ele>271</ele>
        <time>2020-06-11T00:11:03Z</time>
      </trkpt>
      <trkpt lat="46.37885" lon="4.63739">
        <ele>270</ele>
        <time>2020-06-11T00:11:08Z</time>
      </trkpt>
      <trkpt lat="46.37901" lon="4.63743">
        <ele>270</ele>
        <time>2020-06-11T00:11:11Z</time>
      </trkpt>
      <trkpt lat="46.3798" lon="4.63792">
        <ele>270</ele>
        <time>2020-06-11T00:11:26Z</time>
      </trkpt>
      <trkpt lat="46.38007" lon="4.63806">
        <ele>269</ele>
        <time>2020-06-11T00:11:31Z</time>
      </trkpt>
      <trkpt lat="46.38063" lon="4.63824">
        <ele>269</ele>
        <time>2020-06-11T00:11:41Z</time>
      </trkpt>
      <trkpt lat="46.38094" lon="4.63842">
        <ele>269</ele>
        <time>2020-06-11T00:11:47Z</time>
      </trkpt>
      <trkpt lat="46.38125" lon="4.63862">
        <ele>269</ele>
        <time>2020-06-11T00:11:53Z</time>
      </trkpt>
      <trkpt lat="46.3815" lon="4.63872">
        <ele>268</ele>
        <time>2020-06-11T00:11:58Z</time>
      </trkpt>
      <trkpt lat="46.38227" lon="4.63905">
        <ele>266</ele>
        <time>2020-06-11T00:12:12Z</time>
      </trkpt>
      <trkpt lat="46.38263" lon="4.63916">
        <ele>265</ele>
        <time>2020-06-11T00:12:19Z</time>
      </trkpt>
      <trkpt lat="46.38278" lon="4.63918">
        <ele>266</ele>
        <time>2020-06-11T00:12:21Z</time>
      </trkpt>
      <trkpt lat="46.38353" lon="4.63907">
        <ele>267</ele>
        <time>2020-06-11T00:12:35Z</time>
      </trkpt>
      <trkpt lat="46.38377" lon="4.63906">
        <ele>267</ele>
        <time>2020-06-11T00:12:39Z</time>
      </trkpt>
      <trkpt lat="46.38408" lon="4.63911">
        <ele>267</ele>
        <time>2020-06-11T00:12:44Z</time>
      </trkpt>
      <trkpt lat="46.38443" lon="4.63921">
        <ele>267</ele>
        <time>2020-06-11T00:12:51Z</time>
      </trkpt>
      <trkpt lat="46.38456" lon="4.63922">
        <ele>266</ele>
        <time>2020-06-11T00:12:53Z</time>
      </trkpt>
      <trkpt lat="46.38461" lon="4.63922">
        <ele>266</ele>
        <time>2020-06-11T00:12:54Z</time>
      </trkpt>
      <trkpt lat="46.38527" lon="4.63921">
        <ele>265</ele>
        <time>2020-06-11T00:13:06Z</time>
      </trkpt>
      <trkpt lat="46.38584" lon="4.63915">
        <ele>265</ele>
        <time>2020-06-11T00:13:16Z</time>
      </trkpt>
      <trkpt lat="46.38595" lon="4.63914">
        <ele>265</ele>
        <time>2020-06-11T00:13:18Z</time>
      </trkpt>
      <trkpt lat="46.38649" lon="4.63911">
        <ele>265</ele>
        <time>2020-06-11T00:13:28Z</time>
      </trkpt>
      <trkpt lat="46.38772" lon="4.63927">
        <ele>262</ele>
        <time>2020-06-11T00:13:50Z</time>
      </trkpt>
      <trkpt lat="46.38831" lon="4.63935">
        <ele>262</ele>
        <time>2020-06-11T00:14:00Z</time>
      </trkpt>
      <trkpt lat="46.3887" lon="4.6394">
        <ele>260</ele>
        <time>2020-06-11T00:14:07Z</time>
      </trkpt>
      <trkpt lat="46.38898" lon="4.63949">
        <ele>259</ele>
        <time>2020-06-11T00:14:12Z</time>
      </trkpt>
      <trkpt lat="46.38941" lon="4.63974">
        <ele>258</ele>
        <time>2020-06-11T00:14:20Z</time>
      </trkpt>
      <trkpt lat="46.38973" lon="4.63993">
        <ele>258</ele>
        <time>2020-06-11T00:14:27Z</time>
      </trkpt>
      <trkpt lat="46.38998" lon="4.64004">
        <ele>258</ele>
        <time>2020-06-11T00:14:31Z</time>
      </trkpt>
      <trkpt lat="46.39021" lon="4.64006">
        <ele>258</ele>
        <time>2020-06-11T00:14:35Z</time>
      </trkpt>
      <trkpt lat="46.39085" lon="4.63998">
        <ele>258</ele>
        <time>2020-06-11T00:14:47Z</time>
      </trkpt>
      <trkpt lat="46.39149" lon="4.63984">
        <ele>258</ele>
        <time>2020-06-11T00:14:58Z</time>
      </trkpt>
      <trkpt lat="46.39145" lon="4.63969">
        <ele>257</ele>
        <time>2020-06-11T00:15:00Z</time>
      </trkpt>
      <trkpt lat="46.39145" lon="4.63932">
        <ele>256</ele>
        <time>2020-06-11T00:15:05Z</time>
      </trkpt>
      <trkpt lat="46.39153" lon="4.63851">
        <ele>253</ele>
        <time>2020-06-11T00:15:15Z</time>
      </trkpt>
      <trkpt lat="46.39158" lon="4.63833">
        <ele>252</ele>
        <time>2020-06-11T00:15:17Z</time>
      </trkpt>
      <trkpt lat="46.39167" lon="4.63821">
        <ele>252</ele>
        <time>2020-06-11T00:15:19Z</time>
      </trkpt>
      <trkpt lat="46.39162" lon="4.63793">
        <ele>252</ele>
        <time>2020-06-11T00:15:23Z</time>
      </trkpt>
      <trkpt lat="46.39165" lon="4.63749">
        <ele>251</ele>
        <time>2020-06-11T00:15:28Z</time>
      </trkpt>
      <trkpt lat="46.39171" lon="4.63708">
        <ele>252</ele>
        <time>2020-06-11T00:15:33Z</time>
      </trkpt>
      <trkpt lat="46.39172" lon="4.63692">
        <ele>252</ele>
        <time>2020-06-11T00:15:35Z</time>
      </trkpt>
      <trkpt lat="46.39202" lon="4.63427">
        <ele>255</ele>
        <time>2020-06-11T00:16:08Z</time>
      </trkpt>
      <trkpt lat="46.39211" lon="4.63398">
        <ele>255</ele>
        <time>2020-06-11T00:16:12Z</time>
      </trkpt>
      <trkpt lat="46.39253" lon="4.63308">
        <ele>255</ele>
        <time>2020-06-11T00:16:26Z</time>
      </trkpt>
      <trkpt lat="46.39286" lon="4.6325">
        <ele>254</ele>
        <time>2020-06-11T00:16:35Z</time>
      </trkpt>
      <trkpt lat="46.39309" lon="4.63205">
        <ele>253</ele>
        <time>2020-06-11T00:16:42Z</time>
      </trkpt>
      <trkpt lat="46.3932" lon="4.63176">
        <ele>253</ele>
        <time>2020-06-11T00:16:46Z</time>
      </trkpt>
      <trkpt lat="46.39329" lon="4.63138">
        <ele>253</ele>
        <time>2020-06-11T00:16:51Z</time>
      </trkpt>
      <trkpt lat="46.39331" lon="4.63109">
        <ele>253</ele>
        <time>2020-06-11T00:16:54Z</time>
      </trkpt>
      <trkpt lat="46.3933" lon="4.63079">
        <ele>253</ele>
        <time>2020-06-11T00:16:58Z</time>
      </trkpt>
      <trkpt lat="46.39324" lon="4.63048">
        <ele>253</ele>
        <time>2020-06-11T00:17:02Z</time>
      </trkpt>
      <trkpt lat="46.3931" lon="4.63012">
        <ele>252</ele>
        <time>2020-06-11T00:17:07Z</time>
      </trkpt>
      <trkpt lat="46.39296" lon="4.62988">
        <ele>252</ele>
        <time>2020-06-11T00:17:11Z</time>
      </trkpt>
      <trkpt lat="46.39222" lon="4.62915">
        <ele>252</ele>
        <time>2020-06-11T00:17:27Z</time>
      </trkpt>
      <trkpt lat="46.39182" lon="4.62872">
        <ele>253</ele>
        <time>2020-06-11T00:17:36Z</time>
      </trkpt>
      <trkpt lat="46.39133" lon="4.62803">
        <ele>255</ele>
        <time>2020-06-11T00:17:48Z</time>
      </trkpt>
      <trkpt lat="46.39081" lon="4.62707">
        <ele>258</ele>
        <time>2020-06-11T00:18:03Z</time>
      </trkpt>
      <trkpt lat="46.3902" lon="4.62533">
        <ele>262</ele>
        <time>2020-06-11T00:18:27Z</time>
      </trkpt>
      <trkpt lat="46.38892" lon="4.62127">
        <ele>265</ele>
        <time>2020-06-11T00:19:22Z</time>
      </trkpt>
      <trkpt lat="46.38826" lon="4.61926">
        <ele>263</ele>
        <time>2020-06-11T00:19:49Z</time>
      </trkpt>
      <trkpt lat="46.38823" lon="4.6191">
        <ele>263</ele>
        <time>2020-06-11T00:19:51Z</time>
      </trkpt>
      <trkpt lat="46.38824" lon="4.61893">
        <ele>262</ele>
        <time>2020-06-11T00:19:53Z</time>
      </trkpt>
      <trkpt lat="46.38828" lon="4.61871">
        <ele>262</ele>
        <time>2020-06-11T00:19:56Z</time>
      </trkpt>
      <trkpt lat="46.38838" lon="4.61838">
        <ele>261</ele>
        <time>2020-06-11T00:20:00Z</time>
      </trkpt>
      <trkpt lat="46.38849" lon="4.61816">
        <ele>259</ele>
        <time>2020-06-11T00:20:04Z</time>
      </trkpt>
      <trkpt lat="46.38861" lon="4.618">
        <ele>258</ele>
        <time>2020-06-11T00:20:06Z</time>
      </trkpt>
      <trkpt lat="46.38875" lon="4.61779">
        <ele>256</ele>
        <time>2020-06-11T00:20:10Z</time>
      </trkpt>
      <trkpt lat="46.38974" lon="4.61635">
        <ele>260</ele>
        <time>2020-06-11T00:20:35Z</time>
      </trkpt>
      <trkpt lat="46.38979" lon="4.61626">
        <ele>261</ele>
        <time>2020-06-11T00:20:36Z</time>
      </trkpt>
      <trkpt lat="46.38858" lon="4.61538">
        <ele>261</ele>
        <time>2020-06-11T00:21:00Z</time>
      </trkpt>
      <trkpt lat="46.38843" lon="4.61522">
        <ele>261</ele>
        <time>2020-06-11T00:21:04Z</time>
      </trkpt>
      <trkpt lat="46.38832" lon="4.61504">
        <ele>262</ele>
        <time>2020-06-11T00:21:07Z</time>
      </trkpt>
      <trkpt lat="46.38821" lon="4.61472">
        <ele>262</ele>
        <time>2020-06-11T00:21:11Z</time>
      </trkpt>
      <trkpt lat="46.38788" lon="4.61335">
        <ele>266</ele>
        <time>2020-06-11T00:21:29Z</time>
      </trkpt>
      <trkpt lat="46.38777" lon="4.61308">
        <ele>265</ele>
        <time>2020-06-11T00:21:33Z</time>
      </trkpt>
      <trkpt lat="46.38736" lon="4.61233">
        <ele>264</ele>
        <time>2020-06-11T00:21:45Z</time>
      </trkpt>
      <trkpt lat="46.38722" lon="4.61214">
        <ele>265</ele>
        <time>2020-06-11T00:21:48Z</time>
      </trkpt>
      <trkpt lat="46.38619" lon="4.61116">
        <ele>265</ele>
        <time>2020-06-11T00:22:10Z</time>
      </trkpt>
      <trkpt lat="46.38549" lon="4.61026">
        <ele>268</ele>
        <time>2020-06-11T00:22:26Z</time>
      </trkpt>
      <trkpt lat="46.38532" lon="4.6101">
        <ele>268</ele>
        <time>2020-06-11T00:22:30Z</time>
      </trkpt>
      <trkpt lat="46.38491" lon="4.60981">
        <ele>270</ele>
        <time>2020-06-11T00:22:38Z</time>
      </trkpt>
      <trkpt lat="46.38434" lon="4.60944">
        <ele>271</ele>
        <time>2020-06-11T00:22:49Z</time>
      </trkpt>
      <trkpt lat="46.38402" lon="4.60918">
        <ele>271</ele>
        <time>2020-06-11T00:22:56Z</time>
      </trkpt>
      <trkpt lat="46.3835" lon="4.60866">
        <ele>268</ele>
        <time>2020-06-11T00:23:07Z</time>
      </trkpt>
      <trkpt lat="46.38336" lon="4.60848">
        <ele>268</ele>
        <time>2020-06-11T00:23:10Z</time>
      </trkpt>
      <trkpt lat="46.38329" lon="4.60833">
        <ele>268</ele>
        <time>2020-06-11T00:23:13Z</time>
      </trkpt>
      <trkpt lat="46.38324" lon="4.60814">
        <ele>267</ele>
        <time>2020-06-11T00:23:15Z</time>
      </trkpt>
      <trkpt lat="46.38316" lon="4.60729">
        <ele>266</ele>
        <time>2020-06-11T00:23:26Z</time>
      </trkpt>
      <trkpt lat="46.38309" lon="4.60711">
        <ele>266</ele>
        <time>2020-06-11T00:23:28Z</time>
      </trkpt>
      <trkpt lat="46.383" lon="4.607">
        <ele>266</ele>
        <time>2020-06-11T00:23:30Z</time>
      </trkpt>
      <trkpt lat="46.38287" lon="4.60688">
        <ele>265</ele>
        <time>2020-06-11T00:23:33Z</time>
      </trkpt>
      <trkpt lat="46.38264" lon="4.60674">
        <ele>265</ele>
        <time>2020-06-11T00:23:37Z</time>
      </trkpt>
      <trkpt lat="46.38245" lon="4.6067">
        <ele>265</ele>
        <time>2020-06-11T00:23:41Z</time>
      </trkpt>
      <trkpt lat="46.38227" lon="4.60671">
        <ele>266</ele>
        <time>2020-06-11T00:23:44Z</time>
      </trkpt>
      <trkpt lat="46.38201" lon="4.60678">
        <ele>267</ele>
        <time>2020-06-11T00:23:49Z</time>
      </trkpt>
      <trkpt lat="46.38174" lon="4.60671">
        <ele>268</ele>
        <time>2020-06-11T00:23:54Z</time>
      </trkpt>
      <trkpt lat="46.38148" lon="4.6066">
        <ele>271</ele>
        <time>2020-06-11T00:23:59Z</time>
      </trkpt>
      <trkpt lat="46.3805" lon="4.60611">
        <ele>280</ele>
        <time>2020-06-11T00:24:17Z</time>
      </trkpt>
      <trkpt lat="46.38004" lon="4.60594">
        <ele>284</ele>
        <time>2020-06-11T00:24:25Z</time>
      </trkpt>
      <trkpt lat="46.37952" lon="4.6057">
        <ele>286</ele>
        <time>2020-06-11T00:24:35Z</time>
      </trkpt>
      <trkpt lat="46.37941" lon="4.60562">
        <ele>287</ele>
        <time>2020-06-11T00:24:37Z</time>
      </trkpt>
      <trkpt lat="46.37932" lon="4.60551">
        <ele>287</ele>
        <time>2020-06-11T00:24:39Z</time>
      </trkpt>
      <trkpt lat="46.37923" lon="4.60535">
        <ele>287</ele>
        <time>2020-06-11T00:24:42Z</time>
      </trkpt>
      <trkpt lat="46.37919" lon="4.60517">
        <ele>288</ele>
        <time>2020-06-11T00:24:44Z</time>
      </trkpt>
      <trkpt lat="46.37907" lon="4.6037">
        <ele>289</ele>
        <time>2020-06-11T00:25:02Z</time>
      </trkpt>
      <trkpt lat="46.37902" lon="4.60342">
        <ele>289</ele>
        <time>2020-06-11T00:25:06Z</time>
      </trkpt>
      <trkpt lat="46.37896" lon="4.60319">
        <ele>289</ele>
        <time>2020-06-11T00:25:09Z</time>
      </trkpt>
      <trkpt lat="46.37888" lon="4.60303">
        <ele>288</ele>
        <time>2020-06-11T00:25:11Z</time>
      </trkpt>
      <trkpt lat="46.37775" lon="4.60086">
        <ele>289</ele>
        <time>2020-06-11T00:25:45Z</time>
      </trkpt>
      <trkpt lat="46.37763" lon="4.60091">
        <ele>288</ele>
        <time>2020-06-11T00:25:47Z</time>
      </trkpt>
      <trkpt lat="46.37701" lon="4.60129">
        <ele>284</ele>
        <time>2020-06-11T00:25:59Z</time>
      </trkpt>
      <trkpt lat="46.37629" lon="4.60233">
        <ele>276</ele>
        <time>2020-06-11T00:26:17Z</time>
      </trkpt>
      <trkpt lat="46.37607" lon="4.60257">
        <ele>273</ele>
        <time>2020-06-11T00:26:22Z</time>
      </trkpt>
      <trkpt lat="46.37572" lon="4.6029">
        <ele>271</ele>
        <time>2020-06-11T00:26:29Z</time>
      </trkpt>
      <trkpt lat="46.37566" lon="4.603">
        <ele>271</ele>
        <time>2020-06-11T00:26:31Z</time>
      </trkpt>
      <trkpt lat="46.37564" lon="4.60314">
        <ele>271</ele>
        <time>2020-06-11T00:26:33Z</time>
      </trkpt>
      <trkpt lat="46.37563" lon="4.60355">
        <ele>270</ele>
        <time>2020-06-11T00:26:38Z</time>
      </trkpt>
      <trkpt lat="46.37561" lon="4.60376">
        <ele>270</ele>
        <time>2020-06-11T00:26:40Z</time>
      </trkpt>
      <trkpt lat="46.37544" lon="4.60418">
        <ele>268</ele>
        <time>2020-06-11T00:26:46Z</time>
      </trkpt>
      <trkpt lat="46.37541" lon="4.60471">
        <ele>266</ele>
        <time>2020-06-11T00:26:53Z</time>
      </trkpt>
      <trkpt lat="46.37543" lon="4.60536">
        <ele>263</ele>
        <time>2020-06-11T00:27:01Z</time>
      </trkpt>
      <trkpt lat="46.37538" lon="4.60554">
        <ele>263</ele>
        <time>2020-06-11T00:27:03Z</time>
      </trkpt>
      <trkpt lat="46.37534" lon="4.60566">
        <ele>262</ele>
        <time>2020-06-11T00:27:05Z</time>
      </trkpt>
      <trkpt lat="46.3753" lon="4.60583">
        <ele>262</ele>
        <time>2020-06-11T00:27:07Z</time>
      </trkpt>
      <trkpt lat="46.37528" lon="4.60602">
        <ele>261</ele>
        <time>2020-06-11T00:27:09Z</time>
      </trkpt>
      <trkpt lat="46.37528" lon="4.60621">
        <ele>261</ele>
        <time>2020-06-11T00:27:12Z</time>
      </trkpt>
      <trkpt lat="46.37534" lon="4.60654">
        <ele>260</ele>
        <time>2020-06-11T00:27:16Z</time>
      </trkpt>
      <trkpt lat="46.37531" lon="4.60681">
        <ele>261</ele>
        <time>2020-06-11T00:27:19Z</time>
      </trkpt>
      <trkpt lat="46.37528" lon="4.60709">
        <ele>262</ele>
        <time>2020-06-11T00:27:23Z</time>
      </trkpt>
      <trkpt lat="46.37521" lon="4.6074">
        <ele>264</ele>
        <time>2020-06-11T00:27:27Z</time>
      </trkpt>
      <trkpt lat="46.3751" lon="4.60762">
        <ele>266</ele>
        <time>2020-06-11T00:27:30Z</time>
      </trkpt>
      <trkpt lat="46.37495" lon="4.60784">
        <ele>269</ele>
        <time>2020-06-11T00:27:34Z</time>
      </trkpt>
      <trkpt lat="46.37477" lon="4.60802">
        <ele>273</ele>
        <time>2020-06-11T00:27:38Z</time>
      </trkpt>
      <trkpt lat="46.37459" lon="4.60813">
        <ele>277</ele>
        <time>2020-06-11T00:27:41Z</time>
      </trkpt>
      <trkpt lat="46.37451" lon="4.6081">
        <ele>277</ele>
        <time>2020-06-11T00:27:43Z</time>
      </trkpt>
      <trkpt lat="46.37437" lon="4.60801">
        <ele>278</ele>
        <time>2020-06-11T00:27:46Z</time>
      </trkpt>
      <trkpt lat="46.37424" lon="4.60788">
        <ele>279</ele>
        <time>2020-06-11T00:27:48Z</time>
      </trkpt>
      <trkpt lat="46.37418" lon="4.60781">
        <ele>279</ele>
        <time>2020-06-11T00:27:50Z</time>
      </trkpt>
      <trkpt lat="46.37413" lon="4.60765">
        <ele>279</ele>
        <time>2020-06-11T00:27:52Z</time>
      </trkpt>
      <trkpt lat="46.3741" lon="4.60754">
        <ele>279</ele>
        <time>2020-06-11T00:27:53Z</time>
      </trkpt>
      <trkpt lat="46.37411" lon="4.60708">
        <ele>274</ele>
        <time>2020-06-11T00:27:59Z</time>
      </trkpt>
      <trkpt lat="46.37405" lon="4.60672">
        <ele>272</ele>
        <time>2020-06-11T00:28:04Z</time>
      </trkpt>
      <trkpt lat="46.37401" lon="4.60658">
        <ele>271</ele>
        <time>2020-06-11T00:28:05Z</time>
      </trkpt>
      <trkpt lat="46.37392" lon="4.60642">
        <ele>272</ele>
        <time>2020-06-11T00:28:08Z</time>
      </trkpt>
      <trkpt lat="46.37363" lon="4.60601">
        <ele>273</ele>
        <time>2020-06-11T00:28:15Z</time>
      </trkpt>
      <trkpt lat="46.37355" lon="4.60587">
        <ele>273</ele>
        <time>2020-06-11T00:28:17Z</time>
      </trkpt>
      <trkpt lat="46.37335" lon="4.60511">
        <ele>268</ele>
        <time>2020-06-11T00:28:27Z</time>
      </trkpt>
      <trkpt lat="46.37324" lon="4.60492">
        <ele>268</ele>
        <time>2020-06-11T00:28:30Z</time>
      </trkpt>
      <trkpt lat="46.373" lon="4.60464">
        <ele>270</ele>
        <time>2020-06-11T00:28:36Z</time>
      </trkpt>
      <trkpt lat="46.37262" lon="4.60428">
        <ele>273</ele>
        <time>2020-06-11T00:28:44Z</time>
      </trkpt>
      <trkpt lat="46.37252" lon="4.60413">
        <ele>274</ele>
        <time>2020-06-11T00:28:47Z</time>
      </trkpt>
      <trkpt lat="46.37232" lon="4.60394">
        <ele>276</ele>
        <time>2020-06-11T00:28:51Z</time>
      </trkpt>
      <trkpt lat="46.37214" lon="4.60368">
        <ele>277</ele>
        <time>2020-06-11T00:28:55Z</time>
      </trkpt>
      <trkpt lat="46.37198" lon="4.60349">
        <ele>278</ele>
        <time>2020-06-11T00:28:59Z</time>
      </trkpt>
      <trkpt lat="46.37179" lon="4.60335">
        <ele>280</ele>
        <time>2020-06-11T00:29:03Z</time>
      </trkpt>
      <trkpt lat="46.37167" lon="4.60308">
        <ele>281</ele>
        <time>2020-06-11T00:29:07Z</time>
      </trkpt>
      <trkpt lat="46.37164" lon="4.60275">
        <ele>281</ele>
        <time>2020-06-11T00:29:11Z</time>
      </trkpt>
      <trkpt lat="46.37159" lon="4.60252">
        <ele>281</ele>
        <time>2020-06-11T00:29:14Z</time>
      </trkpt>
      <trkpt lat="46.37135" lon="4.6021">
        <ele>283</ele>
        <time>2020-06-11T00:29:20Z</time>
      </trkpt>
      <trkpt lat="46.37122" lon="4.60193">
        <ele>285</ele>
        <time>2020-06-11T00:29:24Z</time>
      </trkpt>
      <trkpt lat="46.37102" lon="4.60158">
        <ele>286</ele>
        <time>2020-06-11T00:29:29Z</time>
      </trkpt>
      <trkpt lat="46.37075" lon="4.60115">
        <ele>287</ele>
        <time>2020-06-11T00:29:36Z</time>
      </trkpt>
      <trkpt lat="46.37041" lon="4.60075">
        <ele>289</ele>
        <time>2020-06-11T00:29:44Z</time>
      </trkpt>
      <trkpt lat="46.37033" lon="4.60069">
        <ele>289</ele>
        <time>2020-06-11T00:29:46Z</time>
      </trkpt>
      <trkpt lat="46.37019" lon="4.60051">
        <ele>290</ele>
        <time>2020-06-11T00:29:49Z</time>
      </trkpt>
      <trkpt lat="46.3699" lon="4.59985">
        <ele>290</ele>
        <time>2020-06-11T00:29:59Z</time>
      </trkpt>
      <trkpt lat="46.36975" lon="4.59971">
        <ele>291</ele>
        <time>2020-06-11T00:30:02Z</time>
      </trkpt>
      <trkpt lat="46.36974" lon="4.5997">
        <ele>291</ele>
        <time>2020-06-11T00:30:02Z</time>
      </trkpt>
      <trkpt lat="46.36965" lon="4.59955">
        <ele>291</ele>
        <time>2020-06-11T00:30:04Z</time>
      </trkpt>
      <trkpt lat="46.36945" lon="4.59912">
        <ele>291</ele>
        <time>2020-06-11T00:30:11Z</time>
      </trkpt>
      <trkpt lat="46.36932" lon="4.59892">
        <ele>292</ele>
        <time>2020-06-11T00:30:14Z</time>
      </trkpt>
      <trkpt lat="46.36921" lon="4.5988">
        <ele>292</ele>
        <time>2020-06-11T00:30:17Z</time>
      </trkpt>
      <trkpt lat="46.36868" lon="4.59783">
        <ele>294</ele>
        <time>2020-06-11T00:30:32Z</time>
      </trkpt>
      <trkpt lat="46.36846" lon="4.59736">
        <ele>294</ele>
        <time>2020-06-11T00:30:39Z</time>
      </trkpt>
      <trkpt lat="46.3684" lon="4.59709">
        <ele>293</ele>
        <time>2020-06-11T00:30:42Z</time>
      </trkpt>
      <trkpt lat="46.3684" lon="4.5968">
        <ele>292</ele>
        <time>2020-06-11T00:30:46Z</time>
      </trkpt>
      <trkpt lat="46.36839" lon="4.59669">
        <ele>291</ele>
        <time>2020-06-11T00:30:47Z</time>
      </trkpt>
      <trkpt lat="46.36833" lon="4.59654">
        <ele>291</ele>
        <time>2020-06-11T00:30:49Z</time>
      </trkpt>
      <trkpt lat="46.36819" lon="4.59624">
        <ele>290</ele>
        <time>2020-06-11T00:30:54Z</time>
      </trkpt>
      <trkpt lat="46.36786" lon="4.59579">
        <ele>290</ele>
        <time>2020-06-11T00:31:02Z</time>
      </trkpt>
      <trkpt lat="46.36777" lon="4.5956">
        <ele>290</ele>
        <time>2020-06-11T00:31:05Z</time>
      </trkpt>
      <trkpt lat="46.36767" lon="4.59514">
        <ele>289</ele>
        <time>2020-06-11T00:31:11Z</time>
      </trkpt>
      <trkpt lat="46.36752" lon="4.59466">
        <ele>287</ele>
        <time>2020-06-11T00:31:17Z</time>
      </trkpt>
      <trkpt lat="46.36735" lon="4.59435">
        <ele>286</ele>
        <time>2020-06-11T00:31:22Z</time>
      </trkpt>
      <trkpt lat="46.3672" lon="4.59414">
        <ele>286</ele>
        <time>2020-06-11T00:31:26Z</time>
      </trkpt>
      <trkpt lat="46.36638" lon="4.59325">
        <ele>285</ele>
        <time>2020-06-11T00:31:44Z</time>
      </trkpt>
      <trkpt lat="46.36613" lon="4.59277">
        <ele>287</ele>
        <time>2020-06-11T00:31:51Z</time>
      </trkpt>
      <trkpt lat="46.36591" lon="4.59242">
        <ele>291</ele>
        <time>2020-06-11T00:31:57Z</time>
      </trkpt>
      <trkpt lat="46.36549" lon="4.59202">
        <ele>294</ele>
        <time>2020-06-11T00:32:06Z</time>
      </trkpt>
      <trkpt lat="46.36502" lon="4.59165">
        <ele>298</ele>
        <time>2020-06-11T00:32:16Z</time>
      </trkpt>
      <trkpt lat="46.36493" lon="4.59149">
        <ele>298</ele>
        <time>2020-06-11T00:32:18Z</time>
      </trkpt>
      <trkpt lat="46.36481" lon="4.59103">
        <ele>297</ele>
        <time>2020-06-11T00:32:24Z</time>
      </trkpt>
      <trkpt lat="46.36476" lon="4.5906">
        <ele>294</ele>
        <time>2020-06-11T00:32:29Z</time>
      </trkpt>
      <trkpt lat="46.36477" lon="4.59036">
        <ele>293</ele>
        <time>2020-06-11T00:32:32Z</time>
      </trkpt>
      <trkpt lat="46.36481" lon="4.58989">
        <ele>289</ele>
        <time>2020-06-11T00:32:38Z</time>
      </trkpt>
      <trkpt lat="46.36487" lon="4.5894">
        <ele>285</ele>
        <time>2020-06-11T00:32:44Z</time>
      </trkpt>
      <trkpt lat="46.36503" lon="4.58838">
        <ele>280</ele>
        <time>2020-06-11T00:32:57Z</time>
      </trkpt>
      <trkpt lat="46.36516" lon="4.58765">
        <ele>277</ele>
        <time>2020-06-11T00:33:06Z</time>
      </trkpt>
      <trkpt lat="46.36517" lon="4.58723">
        <ele>276</ele>
        <time>2020-06-11T00:33:12Z</time>
      </trkpt>
      <trkpt lat="46.36516" lon="4.58704">
        <ele>276</ele>
        <time>2020-06-11T00:33:14Z</time>
      </trkpt>
      <trkpt lat="46.36513" lon="4.58666">
        <ele>276</ele>
        <time>2020-06-11T00:33:19Z</time>
      </trkpt>
      <trkpt lat="46.36505" lon="4.58639">
        <ele>275</ele>
        <time>2020-06-11T00:33:22Z</time>
      </trkpt>
      <trkpt lat="46.36495" lon="4.58616">
        <ele>274</ele>
        <time>2020-06-11T00:33:26Z</time>
      </trkpt>
      <trkpt lat="46.36463" lon="4.58563">
        <ele>273</ele>
        <time>2020-06-11T00:33:34Z</time>
      </trkpt>
      <trkpt lat="46.36459" lon="4.58551">
        <ele>273</ele>
        <time>2020-06-11T00:33:36Z</time>
      </trkpt>
      <trkpt lat="46.36466" lon="4.58519">
        <ele>272</ele>
        <time>2020-06-11T00:33:40Z</time>
      </trkpt>
      <trkpt lat="46.36473" lon="4.58504">
        <ele>271</ele>
        <time>2020-06-11T00:33:42Z</time>
      </trkpt>
      <trkpt lat="46.36507" lon="4.58448">
        <ele>270</ele>
        <time>2020-06-11T00:33:51Z</time>
      </trkpt>
      <trkpt lat="46.36522" lon="4.58423">
        <ele>270</ele>
        <time>2020-06-11T00:33:55Z</time>
      </trkpt>
      <trkpt lat="46.3651" lon="4.58376">
        <ele>271</ele>
        <time>2020-06-11T00:34:02Z</time>
      </trkpt>
      <trkpt lat="46.36499" lon="4.58355">
        <ele>271</ele>
        <time>2020-06-11T00:34:05Z</time>
      </trkpt>
      <trkpt lat="46.36476" lon="4.58338">
        <ele>273</ele>
        <time>2020-06-11T00:34:09Z</time>
      </trkpt>
      <trkpt lat="46.36435" lon="4.58308">
        <ele>275</ele>
        <time>2020-06-11T00:34:18Z</time>
      </trkpt>
      <trkpt lat="46.36361" lon="4.58254">
        <ele>280</ele>
        <time>2020-06-11T00:34:32Z</time>
      </trkpt>
      <trkpt lat="46.36346" lon="4.5825">
        <ele>282</ele>
        <time>2020-06-11T00:34:35Z</time>
      </trkpt>
      <trkpt lat="46.3634" lon="4.5825">
        <ele>282</ele>
        <time>2020-06-11T00:34:36Z</time>
      </trkpt>
      <trkpt lat="46.36334" lon="4.58255">
        <ele>283</ele>
        <time>2020-06-11T00:34:37Z</time>
      </trkpt>
      <trkpt lat="46.36327" lon="4.58263">
        <ele>284</ele>
        <time>2020-06-11T00:34:39Z</time>
      </trkpt>
      <trkpt lat="46.3629" lon="4.58323">
        <ele>288</ele>
        <time>2020-06-11T00:34:49Z</time>
      </trkpt>
      <trkpt lat="46.36234" lon="4.58403">
        <ele>296</ele>
        <time>2020-06-11T00:35:03Z</time>
      </trkpt>
      <trkpt lat="46.36204" lon="4.58451">
        <ele>299</ele>
        <time>2020-06-11T00:35:11Z</time>
      </trkpt>
      <trkpt lat="46.36187" lon="4.58474">
        <ele>300</ele>
        <time>2020-06-11T00:35:15Z</time>
      </trkpt>
      <trkpt lat="46.36176" lon="4.58479">
        <ele>301</ele>
        <time>2020-06-11T00:35:17Z</time>
      </trkpt>
      <trkpt lat="46.36169" lon="4.5848">
        <ele>301</ele>
        <time>2020-06-11T00:35:18Z</time>
      </trkpt>
      <trkpt lat="46.36166" lon="4.5848">
        <ele>301</ele>
        <time>2020-06-11T00:35:19Z</time>
      </trkpt>
      <trkpt lat="46.36152" lon="4.58477">
        <ele>302</ele>
        <time>2020-06-11T00:35:21Z</time>
      </trkpt>
      <trkpt lat="46.36134" lon="4.58475">
        <ele>303</ele>
        <time>2020-06-11T00:35:24Z</time>
      </trkpt>
      <trkpt lat="46.36109" lon="4.58481">
        <ele>304</ele>
        <time>2020-06-11T00:35:29Z</time>
      </trkpt>
      <trkpt lat="46.36092" lon="4.58486">
        <ele>305</ele>
        <time>2020-06-11T00:35:32Z</time>
      </trkpt>
      <trkpt lat="46.3607" lon="4.58481">
        <ele>306</ele>
        <time>2020-06-11T00:35:36Z</time>
      </trkpt>
      <trkpt lat="46.36061" lon="4.58477">
        <ele>306</ele>
        <time>2020-06-11T00:35:38Z</time>
      </trkpt>
      <trkpt lat="46.36057" lon="4.58475">
        <ele>306</ele>
        <time>2020-06-11T00:35:38Z</time>
      </trkpt>
      <trkpt lat="46.36017" lon="4.58437">
        <ele>306</ele>
        <time>2020-06-11T00:35:47Z</time>
      </trkpt>
      <trkpt lat="46.36" lon="4.58421">
        <ele>307</ele>
        <time>2020-06-11T00:35:51Z</time>
      </trkpt>
      <trkpt lat="46.35995" lon="4.58418">
        <ele>307</ele>
        <time>2020-06-11T00:35:52Z</time>
      </trkpt>
      <trkpt lat="46.35978" lon="4.58406">
        <ele>308</ele>
        <time>2020-06-11T00:35:55Z</time>
      </trkpt>
      <trkpt lat="46.35922" lon="4.58389">
        <ele>309</ele>
        <time>2020-06-11T00:36:05Z</time>
      </trkpt>
      <trkpt lat="46.35838" lon="4.58367">
        <ele>308</ele>
        <time>2020-06-11T00:36:20Z</time>
      </trkpt>
      <trkpt lat="46.35815" lon="4.58355">
        <ele>307</ele>
        <time>2020-06-11T00:36:25Z</time>
      </trkpt>
      <trkpt lat="46.35789" lon="4.5833">
        <ele>306</ele>
        <time>2020-06-11T00:36:30Z</time>
      </trkpt>
      <trkpt lat="46.35773" lon="4.58303">
        <ele>306</ele>
        <time>2020-06-11T00:36:35Z</time>
      </trkpt>
      <trkpt lat="46.35768" lon="4.58289">
        <ele>306</ele>
        <time>2020-06-11T00:36:36Z</time>
      </trkpt>
      <trkpt lat="46.35766" lon="4.58271">
        <ele>306</ele>
        <time>2020-06-11T00:36:39Z</time>
      </trkpt>
      <trkpt lat="46.35767" lon="4.5825">
        <ele>306</ele>
        <time>2020-06-11T00:36:41Z</time>
      </trkpt>
      <trkpt lat="46.35762" lon="4.58216">
        <ele>306</ele>
        <time>2020-06-11T00:36:46Z</time>
      </trkpt>
      <trkpt lat="46.35747" lon="4.58165">
        <ele>307</ele>
        <time>2020-06-11T00:36:52Z</time>
      </trkpt>
      <trkpt lat="46.35721" lon="4.58101">
        <ele>308</ele>
        <time>2020-06-11T00:37:01Z</time>
      </trkpt>
      <trkpt lat="46.35719" lon="4.58095">
        <ele>308</ele>
        <time>2020-06-11T00:37:02Z</time>
      </trkpt>
      <trkpt lat="46.35705" lon="4.58079">
        <ele>307</ele>
        <time>2020-06-11T00:37:05Z</time>
      </trkpt>
      <trkpt lat="46.35664" lon="4.58035">
        <ele>304</ele>
        <time>2020-06-11T00:37:15Z</time>
      </trkpt>
      <trkpt lat="46.35643" lon="4.58018">
        <ele>303</ele>
        <time>2020-06-11T00:37:19Z</time>
      </trkpt>
      <trkpt lat="46.35572" lon="4.57974">
        <ele>301</ele>
        <time>2020-06-11T00:37:33Z</time>
      </trkpt>
      <trkpt lat="46.35551" lon="4.57957">
        <ele>301</ele>
        <time>2020-06-11T00:37:37Z</time>
      </trkpt>
      <trkpt lat="46.35511" lon="4.57911">
        <ele>301</ele>
        <time>2020-06-11T00:37:46Z</time>
      </trkpt>
      <trkpt lat="46.35453" lon="4.57861">
        <ele>301</ele>
        <time>2020-06-11T00:37:58Z</time>
      </trkpt>
      <trkpt lat="46.35427" lon="4.57836">
        <ele>301</ele>
        <time>2020-06-11T00:38:03Z</time>
      </trkpt>
      <trkpt lat="46.35398" lon="4.57815">
        <ele>301</ele>
        <time>2020-06-11T00:38:09Z</time>
      </trkpt>
      <trkpt lat="46.3539" lon="4.57788">
        <ele>300</ele>
        <time>2020-06-11T00:38:13Z</time>
      </trkpt>
      <trkpt lat="46.35375" lon="4.57762">
        <ele>300</ele>
        <time>2020-06-11T00:38:17Z</time>
      </trkpt>
      <trkpt lat="46.35355" lon="4.57736">
        <ele>301</ele>
        <time>2020-06-11T00:38:22Z</time>
      </trkpt>
      <trkpt lat="46.35328" lon="4.57713">
        <ele>302</ele>
        <time>2020-06-11T00:38:27Z</time>
      </trkpt>
      <trkpt lat="46.3528" lon="4.57682">
        <ele>303</ele>
        <time>2020-06-11T00:38:37Z</time>
      </trkpt>
      <trkpt lat="46.35249" lon="4.57665">
        <ele>304</ele>
        <time>2020-06-11T00:38:43Z</time>
      </trkpt>
      <trkpt lat="46.35235" lon="4.57651">
        <ele>303</ele>
        <time>2020-06-11T00:38:46Z</time>
      </trkpt>
      <trkpt lat="46.35226" lon="4.57634">
        <ele>302</ele>
        <time>2020-06-11T00:38:48Z</time>
      </trkpt>
      <trkpt lat="46.35211" lon="4.57577">
        <ele>300</ele>
        <time>2020-06-11T00:38:56Z</time>
      </trkpt>
      <trkpt lat="46.35206" lon="4.57503">
        <ele>295</ele>
        <time>2020-06-11T00:39:05Z</time>
      </trkpt>
      <trkpt lat="46.35205" lon="4.57499">
        <ele>295</ele>
        <time>2020-06-11T00:39:05Z</time>
      </trkpt>
      <trkpt lat="46.35202" lon="4.5749">
        <ele>294</ele>
        <time>2020-06-11T00:39:07Z</time>
      </trkpt>
      <trkpt lat="46.35193" lon="4.57481">
        <ele>294</ele>
        <time>2020-06-11T00:39:09Z</time>
      </trkpt>
      <trkpt lat="46.35183" lon="4.57476">
        <ele>294</ele>
        <time>2020-06-11T00:39:10Z</time>
      </trkpt>
      <trkpt lat="46.35175" lon="4.57464">
        <ele>294</ele>
        <time>2020-06-11T00:39:13Z</time>
      </trkpt>
      <trkpt lat="46.35159" lon="4.57451">
        <ele>293</ele>
        <time>2020-06-11T00:39:16Z</time>
      </trkpt>
      <trkpt lat="46.35138" lon="4.57443">
        <ele>294</ele>
        <time>2020-06-11T00:39:20Z</time>
      </trkpt>
      <trkpt lat="46.3509" lon="4.57432">
        <ele>296</ele>
        <time>2020-06-11T00:39:28Z</time>
      </trkpt>
      <trkpt lat="46.35092" lon="4.57388">
        <ele>295</ele>
        <time>2020-06-11T00:39:34Z</time>
      </trkpt>
      <trkpt lat="46.35117" lon="4.5734">
        <ele>292</ele>
        <time>2020-06-11T00:39:41Z</time>
      </trkpt>
      <trkpt lat="46.35126" lon="4.57308">
        <ele>289</ele>
        <time>2020-06-11T00:39:45Z</time>
      </trkpt>
      <trkpt lat="46.3513" lon="4.57278">
        <ele>286</ele>
        <time>2020-06-11T00:39:49Z</time>
      </trkpt>
      <trkpt lat="46.35126" lon="4.56917">
        <ele>277</ele>
        <time>2020-06-11T00:40:33Z</time>
      </trkpt>
      <trkpt lat="46.35108" lon="4.56918">
        <ele>278</ele>
        <time>2020-06-11T00:40:37Z</time>
      </trkpt>
      <trkpt lat="46.35064" lon="4.56918">
        <ele>278</ele>
        <time>2020-06-11T00:40:44Z</time>
      </trkpt>
      <trkpt lat="46.35031" lon="4.5691">
        <ele>277</ele>
        <time>2020-06-11T00:40:50Z</time>
      </trkpt>
      <trkpt lat="46.35007" lon="4.569">
        <ele>277</ele>
        <time>2020-06-11T00:40:55Z</time>
      </trkpt>
      <trkpt lat="46.34981" lon="4.56884">
        <ele>277</ele>
        <time>2020-06-11T00:41:00Z</time>
      </trkpt>
      <trkpt lat="46.34902" lon="4.56834">
        <ele>278</ele>
        <time>2020-06-11T00:41:15Z</time>
      </trkpt>
      <trkpt lat="46.34832" lon="4.56812">
        <ele>278</ele>
        <time>2020-06-11T00:41:28Z</time>
      </trkpt>
      <trkpt lat="46.34473" lon="4.56738">
        <ele>280</ele>
        <time>2020-06-11T00:42:33Z</time>
      </trkpt>
      <trkpt lat="46.34331" lon="4.56706">
        <ele>282</ele>
        <time>2020-06-11T00:42:58Z</time>
      </trkpt>
      <trkpt lat="46.34306" lon="4.56703">
        <ele>283</ele>
        <time>2020-06-11T00:43:03Z</time>
      </trkpt>
      <trkpt lat="46.3427" lon="4.56702">
        <ele>284</ele>
        <time>2020-06-11T00:43:09Z</time>
      </trkpt>
      <trkpt lat="46.34244" lon="4.56698">
        <ele>284</ele>
        <time>2020-06-11T00:43:14Z</time>
      </trkpt>
      <trkpt lat="46.34009" lon="4.56631">
        <ele>285</ele>
        <time>2020-06-11T00:43:56Z</time>
      </trkpt>
      <trkpt lat="46.33965" lon="4.56617">
        <ele>286</ele>
        <time>2020-06-11T00:44:04Z</time>
      </trkpt>
      <trkpt lat="46.33924" lon="4.56591">
        <ele>286</ele>
        <time>2020-06-11T00:44:12Z</time>
      </trkpt>
      <trkpt lat="46.33815" lon="4.56464">
        <ele>286</ele>
        <time>2020-06-11T00:44:37Z</time>
      </trkpt>
      <trkpt lat="46.33788" lon="4.56433">
        <ele>285</ele>
        <time>2020-06-11T00:44:43Z</time>
      </trkpt>
      <trkpt lat="46.33757" lon="4.56399">
        <ele>285</ele>
        <time>2020-06-11T00:44:50Z</time>
      </trkpt>
      <trkpt lat="46.33683" lon="4.5634">
        <ele>285</ele>
        <time>2020-06-11T00:45:05Z</time>
      </trkpt>
      <trkpt lat="46.33488" lon="4.56193">
        <ele>288</ele>
        <time>2020-06-11T00:45:44Z</time>
      </trkpt>
      <trkpt lat="46.33464" lon="4.56179">
        <ele>289</ele>
        <time>2020-06-11T00:45:49Z</time>
      </trkpt>
      <trkpt lat="46.33438" lon="4.56165">
        <ele>289</ele>
        <time>2020-06-11T00:45:54Z</time>
      </trkpt>
      <trkpt lat="46.33397" lon="4.56138">
        <ele>290</ele>
        <time>2020-06-11T00:46:02Z</time>
      </trkpt>
      <trkpt lat="46.33381" lon="4.56123">
        <ele>290</ele>
        <time>2020-06-11T00:46:05Z</time>
      </trkpt>
      <trkpt lat="46.33367" lon="4.56109">
        <ele>290</ele>
        <time>2020-06-11T00:46:08Z</time>
      </trkpt>
      <trkpt lat="46.33347" lon="4.56087">
        <ele>289</ele>
        <time>2020-06-11T00:46:13Z</time>
      </trkpt>
      <trkpt lat="46.33323" lon="4.56065">
        <ele>290</ele>
        <time>2020-06-11T00:46:18Z</time>
      </trkpt>
      <trkpt lat="46.33292" lon="4.56046">
        <ele>290</ele>
        <time>2020-06-11T00:46:24Z</time>
      </trkpt>
      <trkpt lat="46.33207" lon="4.56018">
        <ele>291</ele>
        <time>2020-06-11T00:46:39Z</time>
      </trkpt>
      <trkpt lat="46.33035" lon="4.55952">
        <ele>291</ele>
        <time>2020-06-11T00:47:11Z</time>
      </trkpt>
      <trkpt lat="46.33009" lon="4.55939">
        <ele>291</ele>
        <time>2020-06-11T00:47:16Z</time>
      </trkpt>
      <trkpt lat="46.32989" lon="4.55924">
        <ele>291</ele>
        <time>2020-06-11T00:47:20Z</time>
      </trkpt>
      <trkpt lat="46.32968" lon="4.55896">
        <ele>291</ele>
        <time>2020-06-11T00:47:25Z</time>
      </trkpt>
      <trkpt lat="46.32958" lon="4.55879">
        <ele>291</ele>
        <time>2020-06-11T00:47:28Z</time>
      </trkpt>
      <trkpt lat="46.32946" lon="4.55841">
        <ele>291</ele>
        <time>2020-06-11T00:47:33Z</time>
      </trkpt>
      <trkpt lat="46.32934" lon="4.55789">
        <ele>293</ele>
        <time>2020-06-11T00:47:40Z</time>
      </trkpt>
      <trkpt lat="46.32896" lon="4.55582">
        <ele>299</ele>
        <time>2020-06-11T00:48:06Z</time>
      </trkpt>
      <trkpt lat="46.32875" lon="4.55475">
        <ele>299</ele>
        <time>2020-06-11T00:48:20Z</time>
      </trkpt>
      <trkpt lat="46.32873" lon="4.55454">
        <ele>299</ele>
        <time>2020-06-11T00:48:22Z</time>
      </trkpt>
      <trkpt lat="46.32876" lon="4.55427">
        <ele>298</ele>
        <time>2020-06-11T00:48:25Z</time>
      </trkpt>
      <trkpt lat="46.32882" lon="4.55414">
        <ele>298</ele>
        <time>2020-06-11T00:48:27Z</time>
      </trkpt>
      <trkpt lat="46.32894" lon="4.55395">
        <ele>297</ele>
        <time>2020-06-11T00:48:31Z</time>
      </trkpt>
      <trkpt lat="46.32916" lon="4.5537">
        <ele>295</ele>
        <time>2020-06-11T00:48:36Z</time>
      </trkpt>
      <trkpt lat="46.32947" lon="4.55331">
        <ele>298</ele>
        <time>2020-06-11T00:48:43Z</time>
      </trkpt>
      <trkpt lat="46.32953" lon="4.55318">
        <ele>299</ele>
        <time>2020-06-11T00:48:45Z</time>
      </trkpt>
      <trkpt lat="46.32958" lon="4.5529">
        <ele>302</ele>
        <time>2020-06-11T00:48:48Z</time>
      </trkpt>
      <trkpt lat="46.32953" lon="4.55265">
        <ele>302</ele>
        <time>2020-06-11T00:48:52Z</time>
      </trkpt>
      <trkpt lat="46.32907" lon="4.55168">
        <ele>303</ele>
        <time>2020-06-11T00:49:06Z</time>
      </trkpt>
      <trkpt lat="46.32903" lon="4.55149">
        <ele>303</ele>
        <time>2020-06-11T00:49:08Z</time>
      </trkpt>
      <trkpt lat="46.32901" lon="4.55122">
        <ele>304</ele>
        <time>2020-06-11T00:49:12Z</time>
      </trkpt>
      <trkpt lat="46.32908" lon="4.55051">
        <ele>306</ele>
        <time>2020-06-11T00:49:21Z</time>
      </trkpt>
      <trkpt lat="46.32908" lon="4.54991">
        <ele>306</ele>
        <time>2020-06-11T00:49:28Z</time>
      </trkpt>
      <trkpt lat="46.32894" lon="4.54757">
        <ele>311</ele>
        <time>2020-06-11T00:49:57Z</time>
      </trkpt>
      <trkpt lat="46.32882" lon="4.54646">
        <ele>310</ele>
        <time>2020-06-11T00:50:11Z</time>
      </trkpt>
      <trkpt lat="46.32869" lon="4.54474">
        <ele>308</ele>
        <time>2020-06-11T00:50:32Z</time>
      </trkpt>
      <trkpt lat="46.32851" lon="4.54181">
        <ele>308</ele>
        <time>2020-06-11T00:51:08Z</time>
      </trkpt>
      <trkpt lat="46.32839" lon="4.54107">
        <ele>308</ele>
        <time>2020-06-11T00:51:17Z</time>
      </trkpt>
      <trkpt lat="46.32816" lon="4.53983">
        <ele>310</ele>
        <time>2020-06-11T00:51:33Z</time>
      </trkpt>
      <trkpt lat="46.32799" lon="4.53916">
        <ele>312</ele>
        <time>2020-06-11T00:51:42Z</time>
      </trkpt>
      <trkpt lat="46.32767" lon="4.53807">
        <ele>311</ele>
        <time>2020-06-11T00:51:56Z</time>
      </trkpt>
      <trkpt lat="46.32697" lon="4.53596">
        <ele>314</ele>
        <time>2020-06-11T00:52:25Z</time>
      </trkpt>
      <trkpt lat="46.32682" lon="4.53547">
        <ele>315</ele>
        <time>2020-06-11T00:52:32Z</time>
      </trkpt>
      <trkpt lat="46.32677" lon="4.53524">
        <ele>316</ele>
        <time>2020-06-11T00:52:35Z</time>
      </trkpt>
      <trkpt lat="46.32666" lon="4.53419">
        <ele>323</ele>
        <time>2020-06-11T00:52:48Z</time>
      </trkpt>
      <trkpt lat="46.32656" lon="4.53355">
        <ele>324</ele>
        <time>2020-06-11T00:52:56Z</time>
      </trkpt>
      <trkpt lat="46.32651" lon="4.53306">
        <ele>324</ele>
        <time>2020-06-11T00:53:02Z</time>
      </trkpt>
      <trkpt lat="46.32652" lon="4.53274">
        <ele>324</ele>
        <time>2020-06-11T00:53:06Z</time>
      </trkpt>
      <trkpt lat="46.32657" lon="4.53247">
        <ele>325</ele>
        <time>2020-06-11T00:53:09Z</time>
      </trkpt>
      <trkpt lat="46.32686" lon="4.5316">
        <ele>326</ele>
        <time>2020-06-11T00:53:21Z</time>
      </trkpt>
      <trkpt lat="46.32693" lon="4.53126">
        <ele>327</ele>
        <time>2020-06-11T00:53:26Z</time>
      </trkpt>
      <trkpt lat="46.32695" lon="4.53104">
        <ele>328</ele>
        <time>2020-06-11T00:53:28Z</time>
      </trkpt>
      <trkpt lat="46.32692" lon="4.53085">
        <ele>328</ele>
        <time>2020-06-11T00:53:31Z</time>
      </trkpt>
      <trkpt lat="46.32688" lon="4.53067">
        <ele>328</ele>
        <time>2020-06-11T00:53:33Z</time>
      </trkpt>
      <trkpt lat="46.32667" lon="4.53013">
        <ele>329</ele>
        <time>2020-06-11T00:53:41Z</time>
      </trkpt>
      <trkpt lat="46.32661" lon="4.52988">
        <ele>329</ele>
        <time>2020-06-11T00:53:44Z</time>
      </trkpt>
      <trkpt lat="46.32641" lon="4.52889">
        <ele>331</ele>
        <time>2020-06-11T00:53:57Z</time>
      </trkpt>
      <trkpt lat="46.32616" lon="4.52744">
        <ele>331</ele>
        <time>2020-06-11T00:54:15Z</time>
      </trkpt>
      <trkpt lat="46.32589" lon="4.52581">
        <ele>331</ele>
        <time>2020-06-11T00:54:35Z</time>
      </trkpt>
      <trkpt lat="46.32585" lon="4.52538">
        <ele>330</ele>
        <time>2020-06-11T00:54:41Z</time>
      </trkpt>
      <trkpt lat="46.32587" lon="4.52504">
        <ele>329</ele>
        <time>2020-06-11T00:54:45Z</time>
      </trkpt>
      <trkpt lat="46.32606" lon="4.52436">
        <ele>328</ele>
        <time>2020-06-11T00:54:54Z</time>
      </trkpt>
      <trkpt lat="46.32609" lon="4.52415">
        <ele>327</ele>
        <time>2020-06-11T00:54:57Z</time>
      </trkpt>
      <trkpt lat="46.32609" lon="4.52398">
        <ele>327</ele>
        <time>2020-06-11T00:54:59Z</time>
      </trkpt>
      <trkpt lat="46.32605" lon="4.52373">
        <ele>327</ele>
        <time>2020-06-11T00:55:02Z</time>
      </trkpt>
      <trkpt lat="46.32572" lon="4.52211">
        <ele>323</ele>
        <time>2020-06-11T00:55:23Z</time>
      </trkpt>
      <trkpt lat="46.32566" lon="4.52141">
        <ele>320</ele>
        <time>2020-06-11T00:55:31Z</time>
      </trkpt>
      <trkpt lat="46.32562" lon="4.52113">
        <ele>318</ele>
        <time>2020-06-11T00:55:35Z</time>
      </trkpt>
      <trkpt lat="46.32557" lon="4.52094">
        <ele>317</ele>
        <time>2020-06-11T00:55:37Z</time>
      </trkpt>
      <trkpt lat="46.32551" lon="4.5208">
        <ele>317</ele>
        <time>2020-06-11T00:55:39Z</time>
      </trkpt>
      <trkpt lat="46.32541" lon="4.5206">
        <ele>318</ele>
        <time>2020-06-11T00:55:42Z</time>
      </trkpt>
      <trkpt lat="46.32535" lon="4.52053">
        <ele>319</ele>
        <time>2020-06-11T00:55:44Z</time>
      </trkpt>
      <trkpt lat="46.32524" lon="4.52044">
        <ele>320</ele>
        <time>2020-06-11T00:55:46Z</time>
      </trkpt>
      <trkpt lat="46.32512" lon="4.52038">
        <ele>320</ele>
        <time>2020-06-11T00:55:48Z</time>
      </trkpt>
      <trkpt lat="46.32338" lon="4.51977">
        <ele>329</ele>
        <time>2020-06-11T00:56:20Z</time>
      </trkpt>
      <trkpt lat="46.32316" lon="4.51974">
        <ele>329</ele>
        <time>2020-06-11T00:56:24Z</time>
      </trkpt>
      <trkpt lat="46.32216" lon="4.51978">
        <ele>326</ele>
        <time>2020-06-11T00:56:42Z</time>
      </trkpt>
      <trkpt lat="46.32195" lon="4.51973">
        <ele>326</ele>
        <time>2020-06-11T00:56:46Z</time>
      </trkpt>
      <trkpt lat="46.3218" lon="4.51968">
        <ele>327</ele>
        <time>2020-06-11T00:56:48Z</time>
      </trkpt>
      <trkpt lat="46.32162" lon="4.51957">
        <ele>328</ele>
        <time>2020-06-11T00:56:52Z</time>
      </trkpt>
      <trkpt lat="46.321" lon="4.51914">
        <ele>332</ele>
        <time>2020-06-11T00:57:04Z</time>
      </trkpt>
      <trkpt lat="46.32068" lon="4.51904">
        <ele>332</ele>
        <time>2020-06-11T00:57:10Z</time>
      </trkpt>
      <trkpt lat="46.32005" lon="4.51897">
        <ele>335</ele>
        <time>2020-06-11T00:57:21Z</time>
      </trkpt>
      <trkpt lat="46.31986" lon="4.51893">
        <ele>335</ele>
        <time>2020-06-11T00:57:25Z</time>
      </trkpt>
      <trkpt lat="46.31942" lon="4.51874">
        <ele>335</ele>
        <time>2020-06-11T00:57:33Z</time>
      </trkpt>
      <trkpt lat="46.31908" lon="4.51852">
        <ele>336</ele>
        <time>2020-06-11T00:57:39Z</time>
      </trkpt>
      <trkpt lat="46.31885" lon="4.51827">
        <ele>336</ele>
        <time>2020-06-11T00:57:44Z</time>
      </trkpt>
      <trkpt lat="46.31876" lon="4.5181">
        <ele>337</ele>
        <time>2020-06-11T00:57:47Z</time>
      </trkpt>
      <trkpt lat="46.31847" lon="4.5174">
        <ele>340</ele>
        <time>2020-06-11T00:57:57Z</time>
      </trkpt>
      <trkpt lat="46.31821" lon="4.51685">
        <ele>344</ele>
        <time>2020-06-11T00:58:05Z</time>
      </trkpt>
      <trkpt lat="46.3181" lon="4.51662">
        <ele>346</ele>
        <time>2020-06-11T00:58:09Z</time>
      </trkpt>
      <trkpt lat="46.31774" lon="4.51601">
        <ele>347</ele>
        <time>2020-06-11T00:58:19Z</time>
      </trkpt>
      <trkpt lat="46.31701" lon="4.51502">
        <ele>349</ele>
        <time>2020-06-11T00:58:36Z</time>
      </trkpt>
      <trkpt lat="46.31642" lon="4.51415">
        <ele>355</ele>
        <time>2020-06-11T00:58:51Z</time>
      </trkpt>
      <trkpt lat="46.31623" lon="4.51395">
        <ele>356</ele>
        <time>2020-06-11T00:58:56Z</time>
      </trkpt>
      <trkpt lat="46.3159" lon="4.51375">
        <ele>354</ele>
        <time>2020-06-11T00:59:02Z</time>
      </trkpt>
      <trkpt lat="46.31571" lon="4.51359">
        <ele>356</ele>
        <time>2020-06-11T00:59:06Z</time>
      </trkpt>
      <trkpt lat="46.31556" lon="4.51339">
        <ele>358</ele>
        <time>2020-06-11T00:59:09Z</time>
      </trkpt>
      <trkpt lat="46.31541" lon="4.51309">
        <ele>361</ele>
        <time>2020-06-11T00:59:14Z</time>
      </trkpt>
      <trkpt lat="46.31532" lon="4.51269">
        <ele>364</ele>
        <time>2020-06-11T00:59:19Z</time>
      </trkpt>
      <trkpt lat="46.31531" lon="4.51251">
        <ele>365</ele>
        <time>2020-06-11T00:59:21Z</time>
      </trkpt>
      <trkpt lat="46.3153" lon="4.5121">
        <ele>367</ele>
        <time>2020-06-11T00:59:26Z</time>
      </trkpt>
      <trkpt lat="46.31526" lon="4.51177">
        <ele>367</ele>
        <time>2020-06-11T00:59:31Z</time>
      </trkpt>
      <trkpt lat="46.3152" lon="4.51152">
        <ele>368</ele>
        <time>2020-06-11T00:59:34Z</time>
      </trkpt>
      <trkpt lat="46.31512" lon="4.51134">
        <ele>368</ele>
        <time>2020-06-11T00:59:36Z</time>
      </trkpt>
      <trkpt lat="46.31502" lon="4.51117">
        <ele>369</ele>
        <time>2020-06-11T00:59:39Z</time>
      </trkpt>
      <trkpt lat="46.31466" lon="4.51075">
        <ele>370</ele>
        <time>2020-06-11T00:59:47Z</time>
      </trkpt>
      <trkpt lat="46.31457" lon="4.51058">
        <ele>371</ele>
        <time>2020-06-11T00:59:50Z</time>
      </trkpt>
      <trkpt lat="46.3145" lon="4.51039">
        <ele>372</ele>
        <time>2020-06-11T00:59:53Z</time>
      </trkpt>
      <trkpt lat="46.31445" lon="4.5102">
        <ele>373</ele>
        <time>2020-06-11T00:59:55Z</time>
      </trkpt>
      <trkpt lat="46.31431" lon="4.50961">
        <ele>376</ele>
        <time>2020-06-11T01:00:03Z</time>
      </trkpt>
      <trkpt lat="46.3142" lon="4.50934">
        <ele>376</ele>
        <time>2020-06-11T01:00:07Z</time>
      </trkpt>
      <trkpt lat="46.31389" lon="4.50863">
        <ele>378</ele>
        <time>2020-06-11T01:00:17Z</time>
      </trkpt>
      <trkpt lat="46.31369" lon="4.50801">
        <ele>378</ele>
        <time>2020-06-11T01:00:25Z</time>
      </trkpt>
      <trkpt lat="46.31355" lon="4.50746">
        <ele>380</ele>
        <time>2020-06-11T01:00:33Z</time>
      </trkpt>
      <trkpt lat="46.31347" lon="4.50724">
        <ele>380</ele>
        <time>2020-06-11T01:00:36Z</time>
      </trkpt>
      <trkpt lat="46.31337" lon="4.50703">
        <ele>380</ele>
        <time>2020-06-11T01:00:39Z</time>
      </trkpt>
      <trkpt lat="46.31323" lon="4.50682">
        <ele>380</ele>
        <time>2020-06-11T01:00:42Z</time>
      </trkpt>
      <trkpt lat="46.31251" lon="4.50594">
        <ele>378</ele>
        <time>2020-06-11T01:00:59Z</time>
      </trkpt>
      <trkpt lat="46.31241" lon="4.50577">
        <ele>378</ele>
        <time>2020-06-11T01:01:02Z</time>
      </trkpt>
      <trkpt lat="46.31233" lon="4.50559">
        <ele>379</ele>
        <time>2020-06-11T01:01:05Z</time>
      </trkpt>
      <trkpt lat="46.31172" lon="4.50327">
        <ele>380</ele>
        <time>2020-06-11T01:01:35Z</time>
      </trkpt>
      <trkpt lat="46.31168" lon="4.50303">
        <ele>380</ele>
        <time>2020-06-11T01:01:38Z</time>
      </trkpt>
      <trkpt lat="46.31166" lon="4.50278">
        <ele>381</ele>
        <time>2020-06-11T01:01:41Z</time>
      </trkpt>
      <trkpt lat="46.31166" lon="4.50152">
        <ele>382</ele>
        <time>2020-06-11T01:01:57Z</time>
      </trkpt>
      <trkpt lat="46.31164" lon="4.50128">
        <ele>383</ele>
        <time>2020-06-11T01:02:00Z</time>
      </trkpt>
      <trkpt lat="46.31159" lon="4.50106">
        <ele>383</ele>
        <time>2020-06-11T01:02:03Z</time>
      </trkpt>
      <trkpt lat="46.311" lon="4.49967">
        <ele>383</ele>
        <time>2020-06-11T01:02:23Z</time>
      </trkpt>
      <trkpt lat="46.30967" lon="4.49675">
        <ele>386</ele>
        <time>2020-06-11T01:03:06Z</time>
      </trkpt>
      <trkpt lat="46.30954" lon="4.49641">
        <ele>387</ele>
        <time>2020-06-11T01:03:10Z</time>
      </trkpt>
      <trkpt lat="46.30944" lon="4.49609">
        <ele>387</ele>
        <time>2020-06-11T01:03:15Z</time>
      </trkpt>
      <trkpt lat="46.30937" lon="4.49578">
        <ele>388</ele>
        <time>2020-06-11T01:03:19Z</time>
      </trkpt>
      <trkpt lat="46.30916" lon="4.49437">
        <ele>388</ele>
        <time>2020-06-11T01:03:36Z</time>
      </trkpt>
      <trkpt lat="46.30914" lon="4.49416">
        <ele>388</ele>
        <time>2020-06-11T01:03:39Z</time>
      </trkpt>
      <trkpt lat="46.30901" lon="4.49328">
        <ele>391</ele>
        <time>2020-06-11T01:03:50Z</time>
      </trkpt>
      <trkpt lat="46.30897" lon="4.49307">
        <ele>392</ele>
        <time>2020-06-11T01:03:53Z</time>
      </trkpt>
      <trkpt lat="46.30889" lon="4.49269">
        <ele>393</ele>
        <time>2020-06-11T01:03:58Z</time>
      </trkpt>
      <trkpt lat="46.30872" lon="4.49219">
        <ele>395</ele>
        <time>2020-06-11T01:04:04Z</time>
      </trkpt>
      <trkpt lat="46.30864" lon="4.49193">
        <ele>396</ele>
        <time>2020-06-11T01:04:08Z</time>
      </trkpt>
      <trkpt lat="46.3086" lon="4.49181">
        <ele>396</ele>
        <time>2020-06-11T01:04:10Z</time>
      </trkpt>
      <trkpt lat="46.30858" lon="4.49175">
        <ele>397</ele>
        <time>2020-06-11T01:04:10Z</time>
      </trkpt>
      <trkpt lat="46.30854" lon="4.49162">
        <ele>397</ele>
        <time>2020-06-11T01:04:12Z</time>
      </trkpt>
      <trkpt lat="46.30851" lon="4.49149">
        <ele>398</ele>
        <time>2020-06-11T01:04:14Z</time>
      </trkpt>
      <trkpt lat="46.30848" lon="4.49137">
        <ele>398</ele>
        <time>2020-06-11T01:04:15Z</time>
      </trkpt>
      <trkpt lat="46.30847" lon="4.49133">
        <ele>398</ele>
        <time>2020-06-11T01:04:16Z</time>
      </trkpt>
      <trkpt lat="46.3084" lon="4.491">
        <ele>399</ele>
        <time>2020-06-11T01:04:20Z</time>
      </trkpt>
      <trkpt lat="46.30837" lon="4.49083">
        <ele>400</ele>
        <time>2020-06-11T01:04:22Z</time>
      </trkpt>
      <trkpt lat="46.30831" lon="4.49041">
        <ele>402</ele>
        <time>2020-06-11T01:04:28Z</time>
      </trkpt>
      <trkpt lat="46.30822" lon="4.48958">
        <ele>406</ele>
        <time>2020-06-11T01:04:38Z</time>
      </trkpt>
      <trkpt lat="46.30826" lon="4.48876">
        <ele>410</ele>
        <time>2020-06-11T01:04:48Z</time>
      </trkpt>
      <trkpt lat="46.30821" lon="4.48828">
        <ele>413</ele>
        <time>2020-06-11T01:04:54Z</time>
      </trkpt>
      <trkpt lat="46.30811" lon="4.48784">
        <ele>414</ele>
        <time>2020-06-11T01:05:00Z</time>
      </trkpt>
      <trkpt lat="46.30799" lon="4.48754">
        <ele>415</ele>
        <time>2020-06-11T01:05:04Z</time>
      </trkpt>
      <trkpt lat="46.30785" lon="4.48709">
        <ele>419</ele>
        <time>2020-06-11T01:05:10Z</time>
      </trkpt>
      <trkpt lat="46.30779" lon="4.48675">
        <ele>422</ele>
        <time>2020-06-11T01:05:14Z</time>
      </trkpt>
      <trkpt lat="46.30775" lon="4.48645">
        <ele>424</ele>
        <time>2020-06-11T01:05:18Z</time>
      </trkpt>
      <trkpt lat="46.30771" lon="4.48612">
        <ele>426</ele>
        <time>2020-06-11T01:05:22Z</time>
      </trkpt>
      <trkpt lat="46.30756" lon="4.48546">
        <ele>430</ele>
        <time>2020-06-11T01:05:31Z</time>
      </trkpt>
      <trkpt lat="46.30746" lon="4.48509">
        <ele>431</ele>
        <time>2020-06-11T01:05:36Z</time>
      </trkpt>
      <trkpt lat="46.30734" lon="4.48457">
        <ele>431</ele>
        <time>2020-06-11T01:05:42Z</time>
      </trkpt>
      <trkpt lat="46.30725" lon="4.4842">
        <ele>431</ele>
        <time>2020-06-11T01:05:47Z</time>
      </trkpt>
      <trkpt lat="46.3072" lon="4.48393">
        <ele>431</ele>
        <time>2020-06-11T01:05:51Z</time>
      </trkpt>
      <trkpt lat="46.30718" lon="4.48359">
        <ele>431</ele>
        <time>2020-06-11T01:05:55Z</time>
      </trkpt>
      <trkpt lat="46.30716" lon="4.48343">
        <ele>430</ele>
        <time>2020-06-11T01:05:57Z</time>
      </trkpt>
      <trkpt lat="46.30707" lon="4.48306">
        <ele>430</ele>
        <time>2020-06-11T01:06:02Z</time>
      </trkpt>
      <trkpt lat="46.30702" lon="4.48283">
        <ele>430</ele>
        <time>2020-06-11T01:06:05Z</time>
      </trkpt>
      <trkpt lat="46.30699" lon="4.4826">
        <ele>430</ele>
        <time>2020-06-11T01:06:08Z</time>
      </trkpt>
      <trkpt lat="46.30698" lon="4.48239">
        <ele>430</ele>
        <time>2020-06-11T01:06:10Z</time>
      </trkpt>
      <trkpt lat="46.30697" lon="4.48232">
        <ele>430</ele>
        <time>2020-06-11T01:06:11Z</time>
      </trkpt>
      <trkpt lat="46.30693" lon="4.48203">
        <ele>430</ele>
        <time>2020-06-11T01:06:15Z</time>
      </trkpt>
      <trkpt lat="46.30692" lon="4.48199">
        <ele>430</ele>
        <time>2020-06-11T01:06:15Z</time>
      </trkpt>
      <trkpt lat="46.30691" lon="4.48171">
        <ele>430</ele>
        <time>2020-06-11T01:06:19Z</time>
      </trkpt>
      <trkpt lat="46.3067" lon="4.48141">
        <ele>431</ele>
        <time>2020-06-11T01:06:24Z</time>
      </trkpt>
      <trkpt lat="46.30657" lon="4.48098">
        <ele>431</ele>
        <time>2020-06-11T01:06:30Z</time>
      </trkpt>
      <trkpt lat="46.30615" lon="4.48006">
        <ele>428</ele>
        <time>2020-06-11T01:06:43Z</time>
      </trkpt>
      <trkpt lat="46.30524" lon="4.47816">
        <ele>425</ele>
        <time>2020-06-11T01:07:12Z</time>
      </trkpt>
      <trkpt lat="46.30505" lon="4.47786">
        <ele>426</ele>
        <time>2020-06-11T01:07:17Z</time>
      </trkpt>
      <trkpt lat="46.30492" lon="4.4776">
        <ele>426</ele>
        <time>2020-06-11T01:07:21Z</time>
      </trkpt>
      <trkpt lat="46.3047" lon="4.47714">
        <ele>426</ele>
        <time>2020-06-11T01:07:27Z</time>
      </trkpt>
      <trkpt lat="46.30427" lon="4.47618">
        <ele>424</ele>
        <time>2020-06-11T01:07:41Z</time>
      </trkpt>
      <trkpt lat="46.30391" lon="4.47521">
        <ele>423</ele>
        <time>2020-06-11T01:07:55Z</time>
      </trkpt>
      <trkpt lat="46.30374" lon="4.47471">
        <ele>423</ele>
        <time>2020-06-11T01:08:02Z</time>
      </trkpt>
      <trkpt lat="46.30368" lon="4.47443">
        <ele>423</ele>
        <time>2020-06-11T01:08:05Z</time>
      </trkpt>
      <trkpt lat="46.3036" lon="4.4736">
        <ele>424</ele>
        <time>2020-06-11T01:08:16Z</time>
      </trkpt>
      <trkpt lat="46.30358" lon="4.47319">
        <ele>424</ele>
        <time>2020-06-11T01:08:21Z</time>
      </trkpt>
      <trkpt lat="46.30356" lon="4.47307">
        <ele>424</ele>
        <time>2020-06-11T01:08:22Z</time>
      </trkpt>
      <trkpt lat="46.30352" lon="4.47297">
        <ele>424</ele>
        <time>2020-06-11T01:08:24Z</time>
      </trkpt>
      <trkpt lat="46.30314" lon="4.47231">
        <ele>423</ele>
        <time>2020-06-11T01:08:34Z</time>
      </trkpt>
      <trkpt lat="46.30299" lon="4.47199">
        <ele>425</ele>
        <time>2020-06-11T01:08:39Z</time>
      </trkpt>
      <trkpt lat="46.30291" lon="4.47174">
        <ele>426</ele>
        <time>2020-06-11T01:08:42Z</time>
      </trkpt>
      <trkpt lat="46.30273" lon="4.47092">
        <ele>430</ele>
        <time>2020-06-11T01:08:53Z</time>
      </trkpt>
      <trkpt lat="46.30266" lon="4.47071">
        <ele>431</ele>
        <time>2020-06-11T01:08:56Z</time>
      </trkpt>
      <trkpt lat="46.30253" lon="4.4704">
        <ele>434</ele>
        <time>2020-06-11T01:09:00Z</time>
      </trkpt>
      <trkpt lat="46.30238" lon="4.47013">
        <ele>436</ele>
        <time>2020-06-11T01:09:05Z</time>
      </trkpt>
      <trkpt lat="46.30228" lon="4.46981">
        <ele>438</ele>
        <time>2020-06-11T01:09:09Z</time>
      </trkpt>
      <trkpt lat="46.30205" lon="4.46885">
        <ele>443</ele>
        <time>2020-06-11T01:09:21Z</time>
      </trkpt>
      <trkpt lat="46.30195" lon="4.46827">
        <ele>448</ele>
        <time>2020-06-11T01:09:29Z</time>
      </trkpt>
      <trkpt lat="46.30192" lon="4.46782">
        <ele>450</ele>
        <time>2020-06-11T01:09:34Z</time>
      </trkpt>
      <trkpt lat="46.30186" lon="4.46746">
        <ele>453</ele>
        <time>2020-06-11T01:09:39Z</time>
      </trkpt>
      <trkpt lat="46.30174" lon="4.46716">
        <ele>454</ele>
        <time>2020-06-11T01:09:43Z</time>
      </trkpt>
      <trkpt lat="46.30161" lon="4.46668">
        <ele>456</ele>
        <time>2020-06-11T01:09:49Z</time>
      </trkpt>
      <trkpt lat="46.30151" lon="4.46583">
        <ele>460</ele>
        <time>2020-06-11T01:10:00Z</time>
      </trkpt>
      <trkpt lat="46.30124" lon="4.46442">
        <ele>472</ele>
        <time>2020-06-11T01:10:18Z</time>
      </trkpt>
      <trkpt lat="46.30129" lon="4.46427">
        <ele>473</ele>
        <time>2020-06-11T01:10:20Z</time>
      </trkpt>
      <trkpt lat="46.30138" lon="4.4641">
        <ele>474</ele>
        <time>2020-06-11T01:10:23Z</time>
      </trkpt>
      <trkpt lat="46.30151" lon="4.46398">
        <ele>475</ele>
        <time>2020-06-11T01:10:25Z</time>
      </trkpt>
      <trkpt lat="46.30177" lon="4.46386">
        <ele>476</ele>
        <time>2020-06-11T01:10:30Z</time>
      </trkpt>
      <trkpt lat="46.30192" lon="4.46385">
        <ele>477</ele>
        <time>2020-06-11T01:10:33Z</time>
      </trkpt>
      <trkpt lat="46.30205" lon="4.46388">
        <ele>477</ele>
        <time>2020-06-11T01:10:35Z</time>
      </trkpt>
      <trkpt lat="46.30219" lon="4.46398">
        <ele>475</ele>
        <time>2020-06-11T01:10:38Z</time>
      </trkpt>
      <trkpt lat="46.30231" lon="4.46401">
        <ele>475</ele>
        <time>2020-06-11T01:10:40Z</time>
      </trkpt>
      <trkpt lat="46.30243" lon="4.464">
        <ele>476</ele>
        <time>2020-06-11T01:10:42Z</time>
      </trkpt>
      <trkpt lat="46.30257" lon="4.46393">
        <ele>476</ele>
        <time>2020-06-11T01:10:45Z</time>
      </trkpt>
      <trkpt lat="46.30266" lon="4.46388">
        <ele>475</ele>
        <time>2020-06-11T01:10:47Z</time>
      </trkpt>
      <trkpt lat="46.30278" lon="4.46373">
        <ele>476</ele>
        <time>2020-06-11T01:10:50Z</time>
      </trkpt>
      <trkpt lat="46.30295" lon="4.46337">
        <ele>481</ele>
        <time>2020-06-11T01:10:55Z</time>
      </trkpt>
      <trkpt lat="46.30303" lon="4.46325">
        <ele>483</ele>
        <time>2020-06-11T01:10:57Z</time>
      </trkpt>
      <trkpt lat="46.30362" lon="4.46256">
        <ele>492</ele>
        <time>2020-06-11T01:11:10Z</time>
      </trkpt>
      <trkpt lat="46.30366" lon="4.46243">
        <ele>494</ele>
        <time>2020-06-11T01:11:12Z</time>
      </trkpt>
      <trkpt lat="46.30366" lon="4.4622">
        <ele>497</ele>
        <time>2020-06-11T01:11:15Z</time>
      </trkpt>
      <trkpt lat="46.30363" lon="4.46166">
        <ele>504</ele>
        <time>2020-06-11T01:11:22Z</time>
      </trkpt>
      <trkpt lat="46.30356" lon="4.46085">
        <ele>512</ele>
        <time>2020-06-11T01:11:32Z</time>
      </trkpt>
      <trkpt lat="46.30359" lon="4.4607">
        <ele>513</ele>
        <time>2020-06-11T01:11:34Z</time>
      </trkpt>
      <trkpt lat="46.30366" lon="4.46056">
        <ele>512</ele>
        <time>2020-06-11T01:11:36Z</time>
      </trkpt>
      <trkpt lat="46.30394" lon="4.46009">
        <ele>510</ele>
        <time>2020-06-11T01:11:43Z</time>
      </trkpt>
      <trkpt lat="46.30397" lon="4.46001">
        <ele>510</ele>
        <time>2020-06-11T01:11:45Z</time>
      </trkpt>
      <trkpt lat="46.30395" lon="4.45993">
        <ele>511</ele>
        <time>2020-06-11T01:11:46Z</time>
      </trkpt>
      <trkpt lat="46.30377" lon="4.45968">
        <ele>515</ele>
        <time>2020-06-11T01:11:50Z</time>
      </trkpt>
      <trkpt lat="46.3037" lon="4.45953">
        <ele>517</ele>
        <time>2020-06-11T01:11:52Z</time>
      </trkpt>
      <trkpt lat="46.30364" lon="4.45922">
        <ele>519</ele>
        <time>2020-06-11T01:11:56Z</time>
      </trkpt>
      <trkpt lat="46.30343" lon="4.45749">
        <ele>529</ele>
        <time>2020-06-11T01:12:18Z</time>
      </trkpt>
      <trkpt lat="46.3033" lon="4.45585">
        <ele>536</ele>
        <time>2020-06-11T01:12:38Z</time>
      </trkpt>
      <trkpt lat="46.30322" lon="4.45548">
        <ele>539</ele>
        <time>2020-06-11T01:12:43Z</time>
      </trkpt>
      <trkpt lat="46.3029" lon="4.45428">
        <ele>544</ele>
        <time>2020-06-11T01:12:59Z</time>
      </trkpt>
      <trkpt lat="46.30273" lon="4.45359">
        <ele>544</ele>
        <time>2020-06-11T01:13:08Z</time>
      </trkpt>
      <trkpt lat="46.30263" lon="4.45296">
        <ele>545</ele>
        <time>2020-06-11T01:13:16Z</time>
      </trkpt>
      <trkpt lat="46.30253" lon="4.45206">
        <ele>549</ele>
        <time>2020-06-11T01:13:27Z</time>
      </trkpt>
      <trkpt lat="46.30243" lon="4.45164">
        <ele>551</ele>
        <time>2020-06-11T01:13:32Z</time>
      </trkpt>
      <trkpt lat="46.30216" lon="4.45088">
        <ele>555</ele>
        <time>2020-06-11T01:13:43Z</time>
      </trkpt>
      <trkpt lat="46.30212" lon="4.45068">
        <ele>555</ele>
        <time>2020-06-11T01:13:45Z</time>
      </trkpt>
      <trkpt lat="46.30215" lon="4.45059">
        <ele>555</ele>
        <time>2020-06-11T01:13:47Z</time>
      </trkpt>
      <trkpt lat="46.30201" lon="4.45045">
        <ele>555</ele>
        <time>2020-06-11T01:13:50Z</time>
      </trkpt>
      <trkpt lat="46.30197" lon="4.4504">
        <ele>555</ele>
        <time>2020-06-11T01:13:51Z</time>
      </trkpt>
      <trkpt lat="46.30099" lon="4.44946">
        <ele>549</ele>
        <time>2020-06-11T01:14:11Z</time>
      </trkpt>
      <trkpt lat="46.30029" lon="4.44876">
        <ele>544</ele>
        <time>2020-06-11T01:14:27Z</time>
      </trkpt>
      <trkpt lat="46.30001" lon="4.44843">
        <ele>543</ele>
        <time>2020-06-11T01:14:33Z</time>
      </trkpt>
      <trkpt lat="46.2997" lon="4.4481">
        <ele>541</ele>
        <time>2020-06-11T01:14:40Z</time>
      </trkpt>
      <trkpt lat="46.29947" lon="4.44792">
        <ele>539</ele>
        <time>2020-06-11T01:14:45Z</time>
      </trkpt>
      <trkpt lat="46.29924" lon="4.44779">
        <ele>539</ele>
        <time>2020-06-11T01:14:49Z</time>
      </trkpt>
      <trkpt lat="46.29889" lon="4.44771">
        <ele>535</ele>
        <time>2020-06-11T01:14:55Z</time>
      </trkpt>
      <trkpt lat="46.29839" lon="4.44763">
        <ele>530</ele>
        <time>2020-06-11T01:15:04Z</time>
      </trkpt>
      <trkpt lat="46.29816" lon="4.44752">
        <ele>528</ele>
        <time>2020-06-11T01:15:08Z</time>
      </trkpt>
      <trkpt lat="46.298" lon="4.44741">
        <ele>527</ele>
        <time>2020-06-11T01:15:12Z</time>
      </trkpt>
      <trkpt lat="46.29761" lon="4.44697">
        <ele>521</ele>
        <time>2020-06-11T01:15:20Z</time>
      </trkpt>
      <trkpt lat="46.29746" lon="4.44675">
        <ele>519</ele>
        <time>2020-06-11T01:15:24Z</time>
      </trkpt>
      <trkpt lat="46.29738" lon="4.44663">
        <ele>519</ele>
        <time>2020-06-11T01:15:26Z</time>
      </trkpt>
      <trkpt lat="46.29674" lon="4.44599">
        <ele>515</ele>
        <time>2020-06-11T01:15:40Z</time>
      </trkpt>
      <trkpt lat="46.2965" lon="4.44569">
        <ele>512</ele>
        <time>2020-06-11T01:15:46Z</time>
      </trkpt>
      <trkpt lat="46.29608" lon="4.44511">
        <ele>508</ele>
        <time>2020-06-11T01:15:56Z</time>
      </trkpt>
      <trkpt lat="46.29586" lon="4.44484">
        <ele>506</ele>
        <time>2020-06-11T01:16:01Z</time>
      </trkpt>
      <trkpt lat="46.29565" lon="4.44467">
        <ele>506</ele>
        <time>2020-06-11T01:16:06Z</time>
      </trkpt>
      <trkpt lat="46.29554" lon="4.44461">
        <ele>506</ele>
        <time>2020-06-11T01:16:08Z</time>
      </trkpt>
      <trkpt lat="46.29514" lon="4.44446">
        <ele>507</ele>
        <time>2020-06-11T01:16:15Z</time>
      </trkpt>
      <trkpt lat="46.29501" lon="4.44437">
        <ele>507</ele>
        <time>2020-06-11T01:16:18Z</time>
      </trkpt>
      <trkpt lat="46.29427" lon="4.44354">
        <ele>511</ele>
        <time>2020-06-11T01:16:34Z</time>
      </trkpt>
      <trkpt lat="46.29401" lon="4.44314">
        <ele>509</ele>
        <time>2020-06-11T01:16:41Z</time>
      </trkpt>
      <trkpt lat="46.29387" lon="4.44287">
        <ele>508</ele>
        <time>2020-06-11T01:16:45Z</time>
      </trkpt>
      <trkpt lat="46.29382" lon="4.44258">
        <ele>506</ele>
        <time>2020-06-11T01:16:49Z</time>
      </trkpt>
      <trkpt lat="46.29373" lon="4.44195">
        <ele>502</ele>
        <time>2020-06-11T01:16:57Z</time>
      </trkpt>
      <trkpt lat="46.29366" lon="4.44166">
        <ele>500</ele>
        <time>2020-06-11T01:17:00Z</time>
      </trkpt>
      <trkpt lat="46.29352" lon="4.4413">
        <ele>496</ele>
        <time>2020-06-11T01:17:06Z</time>
      </trkpt>
      <trkpt lat="46.29334" lon="4.441">
        <ele>492</ele>
        <time>2020-06-11T01:17:10Z</time>
      </trkpt>
      <trkpt lat="46.29304" lon="4.44071">
        <ele>487</ele>
        <time>2020-06-11T01:17:17Z</time>
      </trkpt>
      <trkpt lat="46.2928" lon="4.44055">
        <ele>485</ele>
        <time>2020-06-11T01:17:22Z</time>
      </trkpt>
      <trkpt lat="46.29257" lon="4.44048">
        <ele>483</ele>
        <time>2020-06-11T01:17:26Z</time>
      </trkpt>
      <trkpt lat="46.29206" lon="4.44048">
        <ele>486</ele>
        <time>2020-06-11T01:17:35Z</time>
      </trkpt>
      <trkpt lat="46.29189" lon="4.44044">
        <ele>487</ele>
        <time>2020-06-11T01:17:38Z</time>
      </trkpt>
      <trkpt lat="46.29174" lon="4.44037">
        <ele>487</ele>
        <time>2020-06-11T01:17:41Z</time>
      </trkpt>
      <trkpt lat="46.2912" lon="4.43988">
        <ele>489</ele>
        <time>2020-06-11T01:17:52Z</time>
      </trkpt>
      <trkpt lat="46.29047" lon="4.43951">
        <ele>493</ele>
        <time>2020-06-11T01:18:06Z</time>
      </trkpt>
      <trkpt lat="46.29025" lon="4.43932">
        <ele>493</ele>
        <time>2020-06-11T01:18:10Z</time>
      </trkpt>
      <trkpt lat="46.28971" lon="4.43875">
        <ele>483</ele>
        <time>2020-06-11T01:18:22Z</time>
      </trkpt>
      <trkpt lat="46.28952" lon="4.43857">
        <ele>479</ele>
        <time>2020-06-11T01:18:26Z</time>
      </trkpt>
      <trkpt lat="46.28925" lon="4.43842">
        <ele>477</ele>
        <time>2020-06-11T01:18:31Z</time>
      </trkpt>
      <trkpt lat="46.28829" lon="4.43812">
        <ele>473</ele>
        <time>2020-06-11T01:18:49Z</time>
      </trkpt>
      <trkpt lat="46.28791" lon="4.43797">
        <ele>471</ele>
        <time>2020-06-11T01:18:56Z</time>
      </trkpt>
      <trkpt lat="46.2874" lon="4.43776">
        <ele>469</ele>
        <time>2020-06-11T01:19:05Z</time>
      </trkpt>
      <trkpt lat="46.2873" lon="4.43771">
        <ele>469</ele>
        <time>2020-06-11T01:19:07Z</time>
      </trkpt>
      <trkpt lat="46.2871" lon="4.43753">
        <ele>468</ele>
        <time>2020-06-11T01:19:11Z</time>
      </trkpt>
      <trkpt lat="46.28686" lon="4.43724">
        <ele>467</ele>
        <time>2020-06-11T01:19:17Z</time>
      </trkpt>
      <trkpt lat="46.28621" lon="4.43633">
        <ele>464</ele>
        <time>2020-06-11T01:19:33Z</time>
      </trkpt>
      <trkpt lat="46.28592" lon="4.43598">
        <ele>462</ele>
        <time>2020-06-11T01:19:40Z</time>
      </trkpt>
      <trkpt lat="46.28578" lon="4.43589">
        <ele>461</ele>
        <time>2020-06-11T01:19:42Z</time>
      </trkpt>
      <trkpt lat="46.2856" lon="4.43578">
        <ele>461</ele>
        <time>2020-06-11T01:19:46Z</time>
      </trkpt>
      <trkpt lat="46.28529" lon="4.43564">
        <ele>461</ele>
        <time>2020-06-11T01:19:52Z</time>
      </trkpt>
      <trkpt lat="46.2847" lon="4.43544">
        <ele>461</ele>
        <time>2020-06-11T01:20:03Z</time>
      </trkpt>
      <trkpt lat="46.28435" lon="4.43532">
        <ele>460</ele>
        <time>2020-06-11T01:20:09Z</time>
      </trkpt>
      <trkpt lat="46.28398" lon="4.43519">
        <ele>460</ele>
        <time>2020-06-11T01:20:16Z</time>
      </trkpt>
      <trkpt lat="46.28353" lon="4.43499">
        <ele>461</ele>
        <time>2020-06-11T01:20:24Z</time>
      </trkpt>
      <trkpt lat="46.28283" lon="4.43443">
        <ele>458</ele>
        <time>2020-06-11T01:20:38Z</time>
      </trkpt>
      <trkpt lat="46.28262" lon="4.43431">
        <ele>458</ele>
        <time>2020-06-11T01:20:42Z</time>
      </trkpt>
      <trkpt lat="46.28176" lon="4.43409">
        <ele>455</ele>
        <time>2020-06-11T01:20:58Z</time>
      </trkpt>
      <trkpt lat="46.28156" lon="4.4341">
        <ele>455</ele>
        <time>2020-06-11T01:21:01Z</time>
      </trkpt>
      <trkpt lat="46.28133" lon="4.43415">
        <ele>454</ele>
        <time>2020-06-11T01:21:06Z</time>
      </trkpt>
      <trkpt lat="46.2802" lon="4.43447">
        <ele>454</ele>
        <time>2020-06-11T01:21:26Z</time>
      </trkpt>
      <trkpt lat="46.28004" lon="4.43449">
        <ele>454</ele>
        <time>2020-06-11T01:21:29Z</time>
      </trkpt>
      <trkpt lat="46.27958" lon="4.43445">
        <ele>453</ele>
        <time>2020-06-11T01:21:37Z</time>
      </trkpt>
      <trkpt lat="46.27811" lon="4.43425">
        <ele>452</ele>
        <time>2020-06-11T01:22:03Z</time>
      </trkpt>
      <trkpt lat="46.27794" lon="4.43424">
        <ele>453</ele>
        <time>2020-06-11T01:22:06Z</time>
      </trkpt>
      <trkpt lat="46.27773" lon="4.43422">
        <ele>453</ele>
        <time>2020-06-11T01:22:10Z</time>
      </trkpt>
      <trkpt lat="46.27758" lon="4.43421">
        <ele>453</ele>
        <time>2020-06-11T01:22:13Z</time>
      </trkpt>
      <trkpt lat="46.27741" lon="4.43417">
        <ele>452</ele>
        <time>2020-06-11T01:22:16Z</time>
      </trkpt>
      <trkpt lat="46.27729" lon="4.43413">
        <ele>451</ele>
        <time>2020-06-11T01:22:18Z</time>
      </trkpt>
      <trkpt lat="46.27716" lon="4.43402">
        <ele>450</ele>
        <time>2020-06-11T01:22:21Z</time>
      </trkpt>
      <trkpt lat="46.27705" lon="4.43389">
        <ele>449</ele>
        <time>2020-06-11T01:22:23Z</time>
      </trkpt>
      <trkpt lat="46.27653" lon="4.43329">
        <ele>444</ele>
        <time>2020-06-11T01:22:35Z</time>
      </trkpt>
      <trkpt lat="46.27581" lon="4.43237">
        <ele>438</ele>
        <time>2020-06-11T01:22:52Z</time>
      </trkpt>
      <trkpt lat="46.27566" lon="4.43213">
        <ele>438</ele>
        <time>2020-06-11T01:22:56Z</time>
      </trkpt>
      <trkpt lat="46.27549" lon="4.43172">
        <ele>439</ele>
        <time>2020-06-11T01:23:02Z</time>
      </trkpt>
      <trkpt lat="46.27539" lon="4.43148">
        <ele>439</ele>
        <time>2020-06-11T01:23:06Z</time>
      </trkpt>
      <trkpt lat="46.27508" lon="4.43059">
        <ele>441</ele>
        <time>2020-06-11T01:23:18Z</time>
      </trkpt>
      <trkpt lat="46.27484" lon="4.43009">
        <ele>440</ele>
        <time>2020-06-11T01:23:25Z</time>
      </trkpt>
      <trkpt lat="46.27424" lon="4.42904">
        <ele>440</ele>
        <time>2020-06-11T01:23:42Z</time>
      </trkpt>
      <trkpt lat="46.27412" lon="4.4286">
        <ele>440</ele>
        <time>2020-06-11T01:23:48Z</time>
      </trkpt>
      <trkpt lat="46.27379" lon="4.4263">
        <ele>437</ele>
        <time>2020-06-11T01:24:17Z</time>
      </trkpt>
      <trkpt lat="46.27361" lon="4.42502">
        <ele>437</ele>
        <time>2020-06-11T01:24:33Z</time>
      </trkpt>
      <trkpt lat="46.27347" lon="4.42398">
        <ele>434</ele>
        <time>2020-06-11T01:24:46Z</time>
      </trkpt>
      <trkpt lat="46.27342" lon="4.42346">
        <ele>434</ele>
        <time>2020-06-11T01:24:52Z</time>
      </trkpt>
      <trkpt lat="46.27341" lon="4.42308">
        <ele>434</ele>
        <time>2020-06-11T01:24:57Z</time>
      </trkpt>
      <trkpt lat="46.27345" lon="4.42239">
        <ele>435</ele>
        <time>2020-06-11T01:25:05Z</time>
      </trkpt>
      <trkpt lat="46.27352" lon="4.42193">
        <ele>436</ele>
        <time>2020-06-11T01:25:11Z</time>
      </trkpt>
      <trkpt lat="46.27364" lon="4.42122">
        <ele>436</ele>
        <time>2020-06-11T01:25:20Z</time>
      </trkpt>
      <trkpt lat="46.27367" lon="4.42104">
        <ele>436</ele>
        <time>2020-06-11T01:25:23Z</time>
      </trkpt>
      <trkpt lat="46.27372" lon="4.42052">
        <ele>434</ele>
        <time>2020-06-11T01:25:29Z</time>
      </trkpt>
      <trkpt lat="46.27375" lon="4.41978">
        <ele>432</ele>
        <time>2020-06-11T01:25:38Z</time>
      </trkpt>
      <trkpt lat="46.27377" lon="4.41946">
        <ele>431</ele>
        <time>2020-06-11T01:25:42Z</time>
      </trkpt>
      <trkpt lat="46.27377" lon="4.41939">
        <ele>431</ele>
        <time>2020-06-11T01:25:43Z</time>
      </trkpt>
      <trkpt lat="46.27395" lon="4.41655">
        <ele>429</ele>
        <time>2020-06-11T01:26:18Z</time>
      </trkpt>
      <trkpt lat="46.27421" lon="4.41259">
        <ele>424</ele>
        <time>2020-06-11T01:27:07Z</time>
      </trkpt>
      <trkpt lat="46.27422" lon="4.41239">
        <ele>424</ele>
        <time>2020-06-11T01:27:09Z</time>
      </trkpt>
      <trkpt lat="46.27433" lon="4.41065">
        <ele>425</ele>
        <time>2020-06-11T01:27:31Z</time>
      </trkpt>
      <trkpt lat="46.27439" lon="4.41035">
        <ele>428</ele>
        <time>2020-06-11T01:27:35Z</time>
      </trkpt>
      <trkpt lat="46.27448" lon="4.41006">
        <ele>429</ele>
        <time>2020-06-11T01:27:39Z</time>
      </trkpt>
      <trkpt lat="46.27521" lon="4.40844">
        <ele>433</ele>
        <time>2020-06-11T01:28:02Z</time>
      </trkpt>
      <trkpt lat="46.27529" lon="4.40823">
        <ele>432</ele>
        <time>2020-06-11T01:28:05Z</time>
      </trkpt>
      <trkpt lat="46.27534" lon="4.40793">
        <ele>432</ele>
        <time>2020-06-11T01:28:09Z</time>
      </trkpt>
      <trkpt lat="46.27531" lon="4.40708">
        <ele>431</ele>
        <time>2020-06-11T01:28:20Z</time>
      </trkpt>
      <trkpt lat="46.27509" lon="4.40647">
        <ele>428</ele>
        <time>2020-06-11T01:28:28Z</time>
      </trkpt>
      <trkpt lat="46.27428" lon="4.40515">
        <ele>424</ele>
        <time>2020-06-11T01:28:50Z</time>
      </trkpt>
      <trkpt lat="46.2736" lon="4.40353">
        <ele>421</ele>
        <time>2020-06-11T01:29:13Z</time>
      </trkpt>
      <trkpt lat="46.27258" lon="4.40219">
        <ele>418</ele>
        <time>2020-06-11T01:29:38Z</time>
      </trkpt>
      <trkpt lat="46.27174" lon="4.40165">
        <ele>417</ele>
        <time>2020-06-11T01:29:54Z</time>
      </trkpt>
      <trkpt lat="46.27138" lon="4.40139">
        <ele>419</ele>
        <time>2020-06-11T01:30:01Z</time>
      </trkpt>
      <trkpt lat="46.27115" lon="4.40114">
        <ele>420</ele>
        <time>2020-06-11T01:30:06Z</time>
      </trkpt>
      <trkpt lat="46.2709" lon="4.40063">
        <ele>418</ele>
        <time>2020-06-11T01:30:14Z</time>
      </trkpt>
      <trkpt lat="46.26993" lon="4.39754">
        <ele>413</ele>
        <time>2020-06-11T01:30:56Z</time>
      </trkpt>
      <trkpt lat="46.26974" lon="4.3967">
        <ele>415</ele>
        <time>2020-06-11T01:31:07Z</time>
      </trkpt>
      <trkpt lat="46.26966" lon="4.39642">
        <ele>414</ele>
        <time>2020-06-11T01:31:10Z</time>
      </trkpt>
      <trkpt lat="46.2696" lon="4.39621">
        <ele>413</ele>
        <time>2020-06-11T01:31:13Z</time>
      </trkpt>
      <trkpt lat="46.26942" lon="4.39579">
        <ele>408</ele>
        <time>2020-06-11T01:31:19Z</time>
      </trkpt>
      <trkpt lat="46.26972" lon="4.39548">
        <ele>409</ele>
        <time>2020-06-11T01:31:26Z</time>
      </trkpt>
      <trkpt lat="46.26994" lon="4.39518">
        <ele>409</ele>
        <time>2020-06-11T01:31:31Z</time>
      </trkpt>
      <trkpt lat="46.27021" lon="4.39471">
        <ele>413</ele>
        <time>2020-06-11T01:31:39Z</time>
      </trkpt>
      <trkpt lat="46.27026" lon="4.39464">
        <ele>414</ele>
        <time>2020-06-11T01:31:40Z</time>
      </trkpt>
      <trkpt lat="46.27031" lon="4.39455">
        <ele>415</ele>
        <time>2020-06-11T01:31:41Z</time>
      </trkpt>
      <trkpt lat="46.27044" lon="4.39428">
        <ele>416</ele>
        <time>2020-06-11T01:31:45Z</time>
      </trkpt>
      <trkpt lat="46.27063" lon="4.39387">
        <ele>418</ele>
        <time>2020-06-11T01:31:51Z</time>
      </trkpt>
      <trkpt lat="46.27094" lon="4.39311">
        <ele>415</ele>
        <time>2020-06-11T01:32:02Z</time>
      </trkpt>
      <trkpt lat="46.27145" lon="4.3921">
        <ele>415</ele>
        <time>2020-06-11T01:32:18Z</time>
      </trkpt>
      <trkpt lat="46.27158" lon="4.39176">
        <ele>414</ele>
        <time>2020-06-11T01:32:22Z</time>
      </trkpt>
      <trkpt lat="46.27169" lon="4.39139">
        <ele>412</ele>
        <time>2020-06-11T01:32:27Z</time>
      </trkpt>
      <trkpt lat="46.27175" lon="4.39113">
        <ele>412</ele>
        <time>2020-06-11T01:32:31Z</time>
      </trkpt>
      <trkpt lat="46.27193" lon="4.39043">
        <ele>412</ele>
        <time>2020-06-11T01:32:40Z</time>
      </trkpt>
      <trkpt lat="46.27232" lon="4.38902">
        <ele>406</ele>
        <time>2020-06-11T01:32:59Z</time>
      </trkpt>
      <trkpt lat="46.27266" lon="4.38779">
        <ele>403</ele>
        <time>2020-06-11T01:33:15Z</time>
      </trkpt>
      <trkpt lat="46.27302" lon="4.3864">
        <ele>403</ele>
        <time>2020-06-11T01:33:33Z</time>
      </trkpt>
      <trkpt lat="46.27313" lon="4.38594">
        <ele>403</ele>
        <time>2020-06-11T01:33:39Z</time>
      </trkpt>
      <trkpt lat="46.27319" lon="4.38555">
        <ele>403</ele>
        <time>2020-06-11T01:33:44Z</time>
      </trkpt>
      <trkpt lat="46.27322" lon="4.38515">
        <ele>403</ele>
        <time>2020-06-11T01:33:49Z</time>
      </trkpt>
      <trkpt lat="46.2733" lon="4.38359">
        <ele>399</ele>
        <time>2020-06-11T01:34:08Z</time>
      </trkpt>
      <trkpt lat="46.2733" lon="4.38348">
        <ele>399</ele>
        <time>2020-06-11T01:34:10Z</time>
      </trkpt>
      <trkpt lat="46.27342" lon="4.38106">
        <ele>397</ele>
        <time>2020-06-11T01:34:39Z</time>
      </trkpt>
      <trkpt lat="46.27347" lon="4.38023">
        <ele>399</ele>
        <time>2020-06-11T01:34:50Z</time>
      </trkpt>
      <trkpt lat="46.27347" lon="4.37992">
        <ele>400</ele>
        <time>2020-06-11T01:34:53Z</time>
      </trkpt>
      <trkpt lat="46.27343" lon="4.37942">
        <ele>401</ele>
        <time>2020-06-11T01:35:00Z</time>
      </trkpt>
      <trkpt lat="46.2732" lon="4.37813">
        <ele>400</ele>
        <time>2020-06-11T01:35:16Z</time>
      </trkpt>
      <trkpt lat="46.2732" lon="4.37787">
        <ele>400</ele>
        <time>2020-06-11T01:35:19Z</time>
      </trkpt>
      <trkpt lat="46.27323" lon="4.37765">
        <ele>400</ele>
        <time>2020-06-11T01:35:22Z</time>
      </trkpt>
      <trkpt lat="46.27329" lon="4.37735">
        <ele>400</ele>
        <time>2020-06-11T01:35:26Z</time>
      </trkpt>
      <trkpt lat="46.27336" lon="4.37705">
        <ele>401</ele>
        <time>2020-06-11T01:35:30Z</time>
      </trkpt>
      <trkpt lat="46.27344" lon="4.37665">
        <ele>402</ele>
        <time>2020-06-11T01:35:35Z</time>
      </trkpt>
      <trkpt lat="46.27351" lon="4.37619">
        <ele>402</ele>
        <time>2020-06-11T01:35:41Z</time>
      </trkpt>
      <trkpt lat="46.27352" lon="4.37577">
        <ele>402</ele>
        <time>2020-06-11T01:35:46Z</time>
      </trkpt>
      <trkpt lat="46.2735" lon="4.37559">
        <ele>401</ele>
        <time>2020-06-11T01:35:48Z</time>
      </trkpt>
      <trkpt lat="46.27336" lon="4.37477">
        <ele>399</ele>
        <time>2020-06-11T01:35:58Z</time>
      </trkpt>
      <trkpt lat="46.27335" lon="4.37457">
        <ele>398</ele>
        <time>2020-06-11T01:36:01Z</time>
      </trkpt>
      <trkpt lat="46.27337" lon="4.3743">
        <ele>398</ele>
        <time>2020-06-11T01:36:04Z</time>
      </trkpt>
      <trkpt lat="46.2734" lon="4.37414">
        <ele>397</ele>
        <time>2020-06-11T01:36:06Z</time>
      </trkpt>
      <trkpt lat="46.27346" lon="4.37396">
        <ele>396</ele>
        <time>2020-06-11T01:36:09Z</time>
      </trkpt>
      <trkpt lat="46.27352" lon="4.37381">
        <ele>396</ele>
        <time>2020-06-11T01:36:11Z</time>
      </trkpt>
      <trkpt lat="46.27369" lon="4.37356">
        <ele>395</ele>
        <time>2020-06-11T01:36:15Z</time>
      </trkpt>
      <trkpt lat="46.27379" lon="4.37346">
        <ele>394</ele>
        <time>2020-06-11T01:36:17Z</time>
      </trkpt>
      <trkpt lat="46.27404" lon="4.37332">
        <ele>394</ele>
        <time>2020-06-11T01:36:22Z</time>
      </trkpt>
      <trkpt lat="46.27493" lon="4.37304">
        <ele>394</ele>
        <time>2020-06-11T01:36:38Z</time>
      </trkpt>
      <trkpt lat="46.27528" lon="4.37299">
        <ele>394</ele>
        <time>2020-06-11T01:36:45Z</time>
      </trkpt>
      <trkpt lat="46.27544" lon="4.37301">
        <ele>394</ele>
        <time>2020-06-11T01:36:47Z</time>
      </trkpt>
      <trkpt lat="46.27561" lon="4.37307">
        <ele>394</ele>
        <time>2020-06-11T01:36:51Z</time>
      </trkpt>
      <trkpt lat="46.27585" lon="4.37321">
        <ele>395</ele>
        <time>2020-06-11T01:36:55Z</time>
      </trkpt>
      <trkpt lat="46.2761" lon="4.37339">
        <ele>394</ele>
        <time>2020-06-11T01:37:00Z</time>
      </trkpt>
      <trkpt lat="46.27691" lon="4.37406">
        <ele>393</ele>
        <time>2020-06-11T01:37:17Z</time>
      </trkpt>
      <trkpt lat="46.27709" lon="4.37417">
        <ele>393</ele>
        <time>2020-06-11T01:37:20Z</time>
      </trkpt>
      <trkpt lat="46.2773" lon="4.37426">
        <ele>394</ele>
        <time>2020-06-11T01:37:24Z</time>
      </trkpt>
      <trkpt lat="46.27745" lon="4.37426">
        <ele>394</ele>
        <time>2020-06-11T01:37:27Z</time>
      </trkpt>
      <trkpt lat="46.27765" lon="4.3742">
        <ele>393</ele>
        <time>2020-06-11T01:37:30Z</time>
      </trkpt>
      <trkpt lat="46.27779" lon="4.37411">
        <ele>392</ele>
        <time>2020-06-11T01:37:33Z</time>
      </trkpt>
      <trkpt lat="46.27801" lon="4.37389">
        <ele>392</ele>
        <time>2020-06-11T01:37:38Z</time>
      </trkpt>
      <trkpt lat="46.27857" lon="4.37306">
        <ele>388</ele>
        <time>2020-06-11T01:37:52Z</time>
      </trkpt>
      <trkpt lat="46.27864" lon="4.37294">
        <ele>388</ele>
        <time>2020-06-11T01:37:54Z</time>
      </trkpt>
      <trkpt lat="46.27883" lon="4.37267">
        <ele>387</ele>
        <time>2020-06-11T01:37:59Z</time>
      </trkpt>
      <trkpt lat="46.27925" lon="4.37223">
        <ele>385</ele>
        <time>2020-06-11T01:38:08Z</time>
      </trkpt>
      <trkpt lat="46.27943" lon="4.37198">
        <ele>385</ele>
        <time>2020-06-11T01:38:12Z</time>
      </trkpt>
      <trkpt lat="46.28014" lon="4.37082">
        <ele>384</ele>
        <time>2020-06-11T01:38:32Z</time>
      </trkpt>
      <trkpt lat="46.28024" lon="4.37063">
        <ele>385</ele>
        <time>2020-06-11T01:38:34Z</time>
      </trkpt>
      <trkpt lat="46.28049" lon="4.37004">
        <ele>387</ele>
        <time>2020-06-11T01:38:43Z</time>
      </trkpt>
      <trkpt lat="46.28063" lon="4.36952">
        <ele>390</ele>
        <time>2020-06-11T01:38:50Z</time>
      </trkpt>
      <trkpt lat="46.28066" lon="4.36935">
        <ele>390</ele>
        <time>2020-06-11T01:38:52Z</time>
      </trkpt>
      <trkpt lat="46.28065" lon="4.3689">
        <ele>391</ele>
        <time>2020-06-11T01:38:58Z</time>
      </trkpt>
      <trkpt lat="46.28046" lon="4.36681">
        <ele>386</ele>
        <time>2020-06-11T01:39:23Z</time>
      </trkpt>
      <trkpt lat="46.28045" lon="4.36674">
        <ele>386</ele>
        <time>2020-06-11T01:39:24Z</time>
      </trkpt>
      <trkpt lat="46.28045" lon="4.36669">
        <ele>385</ele>
        <time>2020-06-11T01:39:25Z</time>
      </trkpt>
      <trkpt lat="46.28032" lon="4.36549">
        <ele>381</ele>
        <time>2020-06-11T01:39:40Z</time>
      </trkpt>
      <trkpt lat="46.28019" lon="4.36435">
        <ele>379</ele>
        <time>2020-06-11T01:39:54Z</time>
      </trkpt>
      <trkpt lat="46.28018" lon="4.36407">
        <ele>379</ele>
        <time>2020-06-11T01:39:58Z</time>
      </trkpt>
      <trkpt lat="46.2802" lon="4.36355">
        <ele>377</ele>
        <time>2020-06-11T01:40:04Z</time>
      </trkpt>
      <trkpt lat="46.28026" lon="4.36323">
        <ele>377</ele>
        <time>2020-06-11T01:40:08Z</time>
      </trkpt>
      <trkpt lat="46.28035" lon="4.36294">
        <ele>377</ele>
        <time>2020-06-11T01:40:12Z</time>
      </trkpt>
      <trkpt lat="46.28106" lon="4.36119">
        <ele>376</ele>
        <time>2020-06-11T01:40:37Z</time>
      </trkpt>
      <trkpt lat="46.28182" lon="4.35913">
        <ele>375</ele>
        <time>2020-06-11T01:41:06Z</time>
      </trkpt>
      <trkpt lat="46.28198" lon="4.35871">
        <ele>374</ele>
        <time>2020-06-11T01:41:12Z</time>
      </trkpt>
      <trkpt lat="46.2825" lon="4.35733">
        <ele>372</ele>
        <time>2020-06-11T01:41:31Z</time>
      </trkpt>
      <trkpt lat="46.28281" lon="4.3565">
        <ele>373</ele>
        <time>2020-06-11T01:41:42Z</time>
      </trkpt>
      <trkpt lat="46.28323" lon="4.35535">
        <ele>375</ele>
        <time>2020-06-11T01:41:58Z</time>
      </trkpt>
      <trkpt lat="46.28333" lon="4.35498">
        <ele>375</ele>
        <time>2020-06-11T01:42:03Z</time>
      </trkpt>
      <trkpt lat="46.28342" lon="4.35452">
        <ele>377</ele>
        <time>2020-06-11T01:42:09Z</time>
      </trkpt>
      <trkpt lat="46.28348" lon="4.35393">
        <ele>378</ele>
        <time>2020-06-11T01:42:17Z</time>
      </trkpt>
      <trkpt lat="46.28357" lon="4.3531">
        <ele>382</ele>
        <time>2020-06-11T01:42:27Z</time>
      </trkpt>
      <trkpt lat="46.28376" lon="4.35084">
        <ele>378</ele>
        <time>2020-06-11T01:42:55Z</time>
      </trkpt>
      <trkpt lat="46.2838" lon="4.35063">
        <ele>377</ele>
        <time>2020-06-11T01:42:58Z</time>
      </trkpt>
      <trkpt lat="46.28386" lon="4.35043">
        <ele>376</ele>
        <time>2020-06-11T01:43:00Z</time>
      </trkpt>
      <trkpt lat="46.28393" lon="4.35026">
        <ele>375</ele>
        <time>2020-06-11T01:43:03Z</time>
      </trkpt>
      <trkpt lat="46.28403" lon="4.3501">
        <ele>374</ele>
        <time>2020-06-11T01:43:05Z</time>
      </trkpt>
      <trkpt lat="46.28425" lon="4.34981">
        <ele>372</ele>
        <time>2020-06-11T01:43:11Z</time>
      </trkpt>
      <trkpt lat="46.28448" lon="4.34953">
        <ele>371</ele>
        <time>2020-06-11T01:43:16Z</time>
      </trkpt>
      <trkpt lat="46.2846" lon="4.34935">
        <ele>371</ele>
        <time>2020-06-11T01:43:19Z</time>
      </trkpt>
      <trkpt lat="46.28483" lon="4.34891">
        <ele>370</ele>
        <time>2020-06-11T01:43:26Z</time>
      </trkpt>
      <trkpt lat="46.28567" lon="4.34713">
        <ele>368</ele>
        <time>2020-06-11T01:43:52Z</time>
      </trkpt>
      <trkpt lat="46.28578" lon="4.34685">
        <ele>369</ele>
        <time>2020-06-11T01:43:56Z</time>
      </trkpt>
      <trkpt lat="46.28585" lon="4.34659">
        <ele>369</ele>
        <time>2020-06-11T01:44:00Z</time>
      </trkpt>
      <trkpt lat="46.2859" lon="4.3463">
        <ele>370</ele>
        <time>2020-06-11T01:44:03Z</time>
      </trkpt>
      <trkpt lat="46.28593" lon="4.34598">
        <ele>371</ele>
        <time>2020-06-11T01:44:07Z</time>
      </trkpt>
      <trkpt lat="46.28594" lon="4.3456">
        <ele>371</ele>
        <time>2020-06-11T01:44:12Z</time>
      </trkpt>
      <trkpt lat="46.28591" lon="4.34529">
        <ele>371</ele>
        <time>2020-06-11T01:44:16Z</time>
      </trkpt>
      <trkpt lat="46.28586" lon="4.34498">
        <ele>371</ele>
        <time>2020-06-11T01:44:20Z</time>
      </trkpt>
      <trkpt lat="46.28575" lon="4.34463">
        <ele>372</ele>
        <time>2020-06-11T01:44:25Z</time>
      </trkpt>
      <trkpt lat="46.28561" lon="4.34426">
        <ele>372</ele>
        <time>2020-06-11T01:44:30Z</time>
      </trkpt>
      <trkpt lat="46.28547" lon="4.34397">
        <ele>372</ele>
        <time>2020-06-11T01:44:34Z</time>
      </trkpt>
      <trkpt lat="46.28535" lon="4.34376">
        <ele>372</ele>
        <time>2020-06-11T01:44:37Z</time>
      </trkpt>
      <trkpt lat="46.285" lon="4.34328">
        <ele>370</ele>
        <time>2020-06-11T01:44:46Z</time>
      </trkpt>
      <trkpt lat="46.28493" lon="4.34319">
        <ele>370</ele>
        <time>2020-06-11T01:44:48Z</time>
      </trkpt>
      <trkpt lat="46.2848" lon="4.34295">
        <ele>371</ele>
        <time>2020-06-11T01:44:51Z</time>
      </trkpt>
      <trkpt lat="46.28472" lon="4.34272">
        <ele>371</ele>
        <time>2020-06-11T01:44:55Z</time>
      </trkpt>
      <trkpt lat="46.28467" lon="4.34251">
        <ele>371</ele>
        <time>2020-06-11T01:44:57Z</time>
      </trkpt>
      <trkpt lat="46.28466" lon="4.34225">
        <ele>371</ele>
        <time>2020-06-11T01:45:01Z</time>
      </trkpt>
      <trkpt lat="46.28468" lon="4.34208">
        <ele>372</ele>
        <time>2020-06-11T01:45:03Z</time>
      </trkpt>
      <trkpt lat="46.28472" lon="4.34188">
        <ele>372</ele>
        <time>2020-06-11T01:45:05Z</time>
      </trkpt>
      <trkpt lat="46.28483" lon="4.34156">
        <ele>372</ele>
        <time>2020-06-11T01:45:10Z</time>
      </trkpt>
      <trkpt lat="46.28527" lon="4.34056">
        <ele>371</ele>
        <time>2020-06-11T01:45:24Z</time>
      </trkpt>
      <trkpt lat="46.28542" lon="4.33999">
        <ele>371</ele>
        <time>2020-06-11T01:45:32Z</time>
      </trkpt>
      <trkpt lat="46.28553" lon="4.33933">
        <ele>370</ele>
        <time>2020-06-11T01:45:40Z</time>
      </trkpt>
      <trkpt lat="46.28559" lon="4.33911">
        <ele>369</ele>
        <time>2020-06-11T01:45:43Z</time>
      </trkpt>
      <trkpt lat="46.28567" lon="4.33889">
        <ele>368</ele>
        <time>2020-06-11T01:45:46Z</time>
      </trkpt>
      <trkpt lat="46.2859" lon="4.3385">
        <ele>367</ele>
        <time>2020-06-11T01:45:52Z</time>
      </trkpt>
      <trkpt lat="46.286" lon="4.33835">
        <ele>368</ele>
        <time>2020-06-11T01:45:55Z</time>
      </trkpt>
      <trkpt lat="46.28614" lon="4.33814">
        <ele>368</ele>
        <time>2020-06-11T01:45:58Z</time>
      </trkpt>
      <trkpt lat="46.2864" lon="4.33784">
        <ele>368</ele>
        <time>2020-06-11T01:46:04Z</time>
      </trkpt>
      <trkpt lat="46.2871" lon="4.33715">
        <ele>365</ele>
        <time>2020-06-11T01:46:19Z</time>
      </trkpt>
      <trkpt lat="46.28733" lon="4.33688">
        <ele>365</ele>
        <time>2020-06-11T01:46:25Z</time>
      </trkpt>
      <trkpt lat="46.28749" lon="4.33666">
        <ele>364</ele>
        <time>2020-06-11T01:46:29Z</time>
      </trkpt>
      <trkpt lat="46.28764" lon="4.3364">
        <ele>363</ele>
        <time>2020-06-11T01:46:33Z</time>
      </trkpt>
      <trkpt lat="46.2878" lon="4.33603">
        <ele>362</ele>
        <time>2020-06-11T01:46:38Z</time>
      </trkpt>
      <trkpt lat="46.28793" lon="4.33569">
        <ele>361</ele>
        <time>2020-06-11T01:46:43Z</time>
      </trkpt>
      <trkpt lat="46.28808" lon="4.33514">
        <ele>361</ele>
        <time>2020-06-11T01:46:50Z</time>
      </trkpt>
      <trkpt lat="46.28838" lon="4.33375">
        <ele>363</ele>
        <time>2020-06-11T01:47:08Z</time>
      </trkpt>
      <trkpt lat="46.2885" lon="4.33317">
        <ele>365</ele>
        <time>2020-06-11T01:47:16Z</time>
      </trkpt>
      <trkpt lat="46.28854" lon="4.333">
        <ele>365</ele>
        <time>2020-06-11T01:47:18Z</time>
      </trkpt>
      <trkpt lat="46.28861" lon="4.3327">
        <ele>366</ele>
        <time>2020-06-11T01:47:22Z</time>
      </trkpt>
      <trkpt lat="46.28864" lon="4.3326">
        <ele>366</ele>
        <time>2020-06-11T01:47:23Z</time>
      </trkpt>
      <trkpt lat="46.28867" lon="4.33248">
        <ele>366</ele>
        <time>2020-06-11T01:47:25Z</time>
      </trkpt>
      <trkpt lat="46.28874" lon="4.33229">
        <ele>367</ele>
        <time>2020-06-11T01:47:27Z</time>
      </trkpt>
      <trkpt lat="46.28887" lon="4.33194">
        <ele>368</ele>
        <time>2020-06-11T01:47:32Z</time>
      </trkpt>
      <trkpt lat="46.28896" lon="4.33173">
        <ele>368</ele>
        <time>2020-06-11T01:47:35Z</time>
      </trkpt>
      <trkpt lat="46.28907" lon="4.33152">
        <ele>369</ele>
        <time>2020-06-11T01:47:38Z</time>
      </trkpt>
      <trkpt lat="46.28921" lon="4.33115">
        <ele>369</ele>
        <time>2020-06-11T01:47:44Z</time>
      </trkpt>
      <trkpt lat="46.28935" lon="4.33067">
        <ele>370</ele>
        <time>2020-06-11T01:47:50Z</time>
      </trkpt>
      <trkpt lat="46.28939" lon="4.33045">
        <ele>370</ele>
        <time>2020-06-11T01:47:53Z</time>
      </trkpt>
      <trkpt lat="46.28944" lon="4.33025">
        <ele>370</ele>
        <time>2020-06-11T01:47:55Z</time>
      </trkpt>
      <trkpt lat="46.28948" lon="4.33005">
        <ele>371</ele>
        <time>2020-06-11T01:47:58Z</time>
      </trkpt>
      <trkpt lat="46.28945" lon="4.32948">
        <ele>373</ele>
        <time>2020-06-11T01:48:05Z</time>
      </trkpt>
      <trkpt lat="46.28943" lon="4.32934">
        <ele>373</ele>
        <time>2020-06-11T01:48:07Z</time>
      </trkpt>
      <trkpt lat="46.28942" lon="4.32892">
        <ele>374</ele>
        <time>2020-06-11T01:48:12Z</time>
      </trkpt>
      <trkpt lat="46.28941" lon="4.32795">
        <ele>375</ele>
        <time>2020-06-11T01:48:24Z</time>
      </trkpt>
      <trkpt lat="46.28947" lon="4.32706">
        <ele>376</ele>
        <time>2020-06-11T01:48:35Z</time>
      </trkpt>
      <trkpt lat="46.28953" lon="4.32662">
        <ele>377</ele>
        <time>2020-06-11T01:48:40Z</time>
      </trkpt>
      <trkpt lat="46.28956" lon="4.32606">
        <ele>378</ele>
        <time>2020-06-11T01:48:47Z</time>
      </trkpt>
      <trkpt lat="46.28958" lon="4.32563">
        <ele>378</ele>
        <time>2020-06-11T01:48:53Z</time>
      </trkpt>
      <trkpt lat="46.28962" lon="4.32485">
        <ele>380</ele>
        <time>2020-06-11T01:49:02Z</time>
      </trkpt>
      <trkpt lat="46.28972" lon="4.32355">
        <ele>380</ele>
        <time>2020-06-11T01:49:18Z</time>
      </trkpt>
      <trkpt lat="46.28976" lon="4.32303">
        <ele>379</ele>
        <time>2020-06-11T01:49:25Z</time>
      </trkpt>
      <trkpt lat="46.28984" lon="4.3219">
        <ele>380</ele>
        <time>2020-06-11T01:49:39Z</time>
      </trkpt>
      <trkpt lat="46.28989" lon="4.32136">
        <ele>381</ele>
        <time>2020-06-11T01:49:45Z</time>
      </trkpt>
      <trkpt lat="46.29001" lon="4.32011">
        <ele>385</ele>
        <time>2020-06-11T01:50:01Z</time>
      </trkpt>
      <trkpt lat="46.29016" lon="4.31922">
        <ele>387</ele>
        <time>2020-06-11T01:50:12Z</time>
      </trkpt>
      <trkpt lat="46.2902" lon="4.3192">
        <ele>387</ele>
        <time>2020-06-11T01:50:13Z</time>
      </trkpt>
      <trkpt lat="46.29026" lon="4.31916">
        <ele>387</ele>
        <time>2020-06-11T01:50:14Z</time>
      </trkpt>
      <trkpt lat="46.29028" lon="4.31916">
        <ele>387</ele>
        <time>2020-06-11T01:50:14Z</time>
      </trkpt>
      <trkpt lat="46.2903" lon="4.31915">
        <ele>387</ele>
        <time>2020-06-11T01:50:15Z</time>
      </trkpt>
      <trkpt lat="46.29032" lon="4.31912">
        <ele>387</ele>
        <time>2020-06-11T01:50:15Z</time>
      </trkpt>
      <trkpt lat="46.29034" lon="4.31909">
        <ele>387</ele>
        <time>2020-06-11T01:50:16Z</time>
      </trkpt>
      <trkpt lat="46.29035" lon="4.31906">
        <ele>387</ele>
        <time>2020-06-11T01:50:16Z</time>
      </trkpt>
      <trkpt lat="46.29035" lon="4.31902">
        <ele>387</ele>
        <time>2020-06-11T01:50:17Z</time>
      </trkpt>
      <trkpt lat="46.29034" lon="4.31898">
        <ele>387</ele>
        <time>2020-06-11T01:50:17Z</time>
      </trkpt>
      <trkpt lat="46.2903" lon="4.31892">
        <ele>387</ele>
        <time>2020-06-11T01:50:18Z</time>
      </trkpt>
      <trkpt lat="46.29026" lon="4.31891">
        <ele>387</ele>
        <time>2020-06-11T01:50:19Z</time>
      </trkpt>
      <trkpt lat="46.29024" lon="4.31891">
        <ele>387</ele>
        <time>2020-06-11T01:50:19Z</time>
      </trkpt>
      <trkpt lat="46.29023" lon="4.31888">
        <ele>387</ele>
        <time>2020-06-11T01:50:20Z</time>
      </trkpt>
      <trkpt lat="46.29022" lon="4.3188">
        <ele>387</ele>
        <time>2020-06-11T01:50:21Z</time>
      </trkpt>
      <trkpt lat="46.29022" lon="4.31875">
        <ele>387</ele>
        <time>2020-06-11T01:50:21Z</time>
      </trkpt>
      <trkpt lat="46.29019" lon="4.31849">
        <ele>388</ele>
        <time>2020-06-11T01:50:25Z</time>
      </trkpt>
      <trkpt lat="46.29026" lon="4.31819">
        <ele>387</ele>
        <time>2020-06-11T01:50:28Z</time>
      </trkpt>
      <trkpt lat="46.29028" lon="4.31808">
        <ele>387</ele>
        <time>2020-06-11T01:50:30Z</time>
      </trkpt>
      <trkpt lat="46.29034" lon="4.3178">
        <ele>386</ele>
        <time>2020-06-11T01:50:33Z</time>
      </trkpt>
      <trkpt lat="46.29038" lon="4.31766">
        <ele>386</ele>
        <time>2020-06-11T01:50:35Z</time>
      </trkpt>
      <trkpt lat="46.29048" lon="4.31734">
        <ele>385</ele>
        <time>2020-06-11T01:50:40Z</time>
      </trkpt>
      <trkpt lat="46.29053" lon="4.31713">
        <ele>384</ele>
        <time>2020-06-11T01:50:42Z</time>
      </trkpt>
      <trkpt lat="46.29065" lon="4.31669">
        <ele>383</ele>
        <time>2020-06-11T01:50:48Z</time>
      </trkpt>
      <trkpt lat="46.29084" lon="4.31603">
        <ele>379</ele>
        <time>2020-06-11T01:50:57Z</time>
      </trkpt>
      <trkpt lat="46.29089" lon="4.31581">
        <ele>379</ele>
        <time>2020-06-11T01:51:00Z</time>
      </trkpt>
      <trkpt lat="46.29092" lon="4.31555">
        <ele>379</ele>
        <time>2020-06-11T01:51:03Z</time>
      </trkpt>
      <trkpt lat="46.2909" lon="4.31516">
        <ele>379</ele>
        <time>2020-06-11T01:51:08Z</time>
      </trkpt>
      <trkpt lat="46.2909" lon="4.31493">
        <ele>379</ele>
        <time>2020-06-11T01:51:11Z</time>
      </trkpt>
      <trkpt lat="46.29101" lon="4.31369">
        <ele>379</ele>
        <time>2020-06-11T01:51:26Z</time>
      </trkpt>
      <trkpt lat="46.29112" lon="4.31242">
        <ele>380</ele>
        <time>2020-06-11T01:51:42Z</time>
      </trkpt>
      <trkpt lat="46.29117" lon="4.31193">
        <ele>380</ele>
        <time>2020-06-11T01:51:48Z</time>
      </trkpt>
      <trkpt lat="46.29125" lon="4.31153">
        <ele>380</ele>
        <time>2020-06-11T01:51:53Z</time>
      </trkpt>
      <trkpt lat="46.29146" lon="4.31059">
        <ele>380</ele>
        <time>2020-06-11T01:52:05Z</time>
      </trkpt>
      <trkpt lat="46.29158" lon="4.31024">
        <ele>381</ele>
        <time>2020-06-11T01:52:10Z</time>
      </trkpt>
      <trkpt lat="46.29188" lon="4.30954">
        <ele>381</ele>
        <time>2020-06-11T01:52:20Z</time>
      </trkpt>
      <trkpt lat="46.29204" lon="4.30917">
        <ele>381</ele>
        <time>2020-06-11T01:52:25Z</time>
      </trkpt>
      <trkpt lat="46.29228" lon="4.30869">
        <ele>379</ele>
        <time>2020-06-11T01:52:33Z</time>
      </trkpt>
      <trkpt lat="46.29247" lon="4.30827">
        <ele>378</ele>
        <time>2020-06-11T01:52:39Z</time>
      </trkpt>
      <trkpt lat="46.29273" lon="4.30769">
        <ele>380</ele>
        <time>2020-06-11T01:52:47Z</time>
      </trkpt>
      <trkpt lat="46.29276" lon="4.30761">
        <ele>380</ele>
        <time>2020-06-11T01:52:49Z</time>
      </trkpt>
      <trkpt lat="46.29283" lon="4.30728">
        <ele>380</ele>
        <time>2020-06-11T01:52:53Z</time>
      </trkpt>
      <trkpt lat="46.29284" lon="4.30714">
        <ele>380</ele>
        <time>2020-06-11T01:52:55Z</time>
      </trkpt>
      <trkpt lat="46.29282" lon="4.30697">
        <ele>380</ele>
        <time>2020-06-11T01:52:57Z</time>
      </trkpt>
      <trkpt lat="46.2928" lon="4.30686">
        <ele>380</ele>
        <time>2020-06-11T01:52:58Z</time>
      </trkpt>
      <trkpt lat="46.29279" lon="4.30681">
        <ele>380</ele>
        <time>2020-06-11T01:52:59Z</time>
      </trkpt>
      <trkpt lat="46.29277" lon="4.30671">
        <ele>380</ele>
        <time>2020-06-11T01:53:00Z</time>
      </trkpt>
      <trkpt lat="46.29274" lon="4.30658">
        <ele>380</ele>
        <time>2020-06-11T01:53:02Z</time>
      </trkpt>
      <trkpt lat="46.29272" lon="4.30654">
        <ele>380</ele>
        <time>2020-06-11T01:53:02Z</time>
      </trkpt>
      <trkpt lat="46.29261" lon="4.30619">
        <ele>378</ele>
        <time>2020-06-11T01:53:07Z</time>
      </trkpt>
      <trkpt lat="46.29258" lon="4.30609">
        <ele>377</ele>
        <time>2020-06-11T01:53:08Z</time>
      </trkpt>
      <trkpt lat="46.29253" lon="4.30589">
        <ele>375</ele>
        <time>2020-06-11T01:53:11Z</time>
      </trkpt>
      <trkpt lat="46.29253" lon="4.30581">
        <ele>375</ele>
        <time>2020-06-11T01:53:12Z</time>
      </trkpt>
      <trkpt lat="46.29254" lon="4.30572">
        <ele>375</ele>
        <time>2020-06-11T01:53:13Z</time>
      </trkpt>
      <trkpt lat="46.29245" lon="4.30566">
        <ele>375</ele>
        <time>2020-06-11T01:53:15Z</time>
      </trkpt>
      <trkpt lat="46.29237" lon="4.30558">
        <ele>375</ele>
        <time>2020-06-11T01:53:17Z</time>
      </trkpt>
      <trkpt lat="46.29215" lon="4.30511">
        <ele>375</ele>
        <time>2020-06-11T01:53:24Z</time>
      </trkpt>
      <trkpt lat="46.29199" lon="4.30422">
        <ele>377</ele>
        <time>2020-06-11T01:53:35Z</time>
      </trkpt>
      <trkpt lat="46.29153" lon="4.30442">
        <ele>379</ele>
        <time>2020-06-11T01:53:43Z</time>
      </trkpt>
      <trkpt lat="46.29132" lon="4.30458">
        <ele>380</ele>
        <time>2020-06-11T01:53:48Z</time>
      </trkpt>
      <trkpt lat="46.291" lon="4.30493">
        <ele>383</ele>
        <time>2020-06-11T01:53:55Z</time>
      </trkpt>
      <trkpt lat="46.29061" lon="4.30384">
        <ele>383</ele>
        <time>2020-06-11T01:54:10Z</time>
      </trkpt>
      <trkpt lat="46.29002" lon="4.30286">
        <ele>381</ele>
        <time>2020-06-11T01:54:26Z</time>
      </trkpt>
      <trkpt lat="46.28825" lon="4.3007">
        <ele>369</ele>
        <time>2020-06-11T01:55:07Z</time>
      </trkpt>
      <trkpt lat="46.28764" lon="4.29992">
        <ele>368</ele>
        <time>2020-06-11T01:55:21Z</time>
      </trkpt>
      <trkpt lat="46.2876" lon="4.29981">
        <ele>368</ele>
        <time>2020-06-11T01:55:23Z</time>
      </trkpt>
      <trkpt lat="46.28755" lon="4.29979">
        <ele>368</ele>
        <time>2020-06-11T01:55:24Z</time>
      </trkpt>
      <trkpt lat="46.28746" lon="4.29969">
        <ele>368</ele>
        <time>2020-06-11T01:55:26Z</time>
      </trkpt>
      <trkpt lat="46.28727" lon="4.29948">
        <ele>368</ele>
        <time>2020-06-11T01:55:30Z</time>
      </trkpt>
      <trkpt lat="46.28676" lon="4.29878">
        <ele>368</ele>
        <time>2020-06-11T01:55:43Z</time>
      </trkpt>
      <trkpt lat="46.2867" lon="4.29873">
        <ele>367</ele>
        <time>2020-06-11T01:55:44Z</time>
      </trkpt>
      <trkpt lat="46.28665" lon="4.29873">
        <ele>367</ele>
        <time>2020-06-11T01:55:45Z</time>
      </trkpt>
      <trkpt lat="46.28633" lon="4.29877">
        <ele>367</ele>
        <time>2020-06-11T01:55:51Z</time>
      </trkpt>
      <trkpt lat="46.28599" lon="4.29884">
        <ele>366</ele>
        <time>2020-06-11T01:55:57Z</time>
      </trkpt>
      <trkpt lat="46.28543" lon="4.29896">
        <ele>366</ele>
        <time>2020-06-11T01:56:07Z</time>
      </trkpt>
      <trkpt lat="46.28529" lon="4.29899">
        <ele>366</ele>
        <time>2020-06-11T01:56:09Z</time>
      </trkpt>
      <trkpt lat="46.28455" lon="4.29913">
        <ele>369</ele>
        <time>2020-06-11T01:56:23Z</time>
      </trkpt>
      <trkpt lat="46.28438" lon="4.29914">
        <ele>370</ele>
        <time>2020-06-11T01:56:26Z</time>
      </trkpt>
      <trkpt lat="46.2843" lon="4.29911">
        <ele>371</ele>
        <time>2020-06-11T01:56:27Z</time>
      </trkpt>
      <trkpt lat="46.28411" lon="4.29896">
        <ele>372</ele>
        <time>2020-06-11T01:56:31Z</time>
      </trkpt>
      <trkpt lat="46.28402" lon="4.29887">
        <ele>372</ele>
        <time>2020-06-11T01:56:33Z</time>
      </trkpt>
      <trkpt lat="46.28395" lon="4.29877">
        <ele>372</ele>
        <time>2020-06-11T01:56:35Z</time>
      </trkpt>
      <trkpt lat="46.28382" lon="4.29856">
        <ele>371</ele>
        <time>2020-06-11T01:56:38Z</time>
      </trkpt>
      <trkpt lat="46.28374" lon="4.29849">
        <ele>371</ele>
        <time>2020-06-11T01:56:40Z</time>
      </trkpt>
      <trkpt lat="46.28369" lon="4.29847">
        <ele>371</ele>
        <time>2020-06-11T01:56:41Z</time>
      </trkpt>
      <trkpt lat="46.28352" lon="4.29845">
        <ele>371</ele>
        <time>2020-06-11T01:56:44Z</time>
      </trkpt>
      <trkpt lat="46.28342" lon="4.29847">
        <ele>371</ele>
        <time>2020-06-11T01:56:45Z</time>
      </trkpt>
      <trkpt lat="46.28312" lon="4.29855">
        <ele>372</ele>
        <time>2020-06-11T01:56:51Z</time>
      </trkpt>
      <trkpt lat="46.28294" lon="4.29857">
        <ele>372</ele>
        <time>2020-06-11T01:56:54Z</time>
      </trkpt>
      <trkpt lat="46.28261" lon="4.29852">
        <ele>370</ele>
        <time>2020-06-11T01:57:00Z</time>
      </trkpt>
      <trkpt lat="46.28245" lon="4.29853">
        <ele>370</ele>
        <time>2020-06-11T01:57:03Z</time>
      </trkpt>
      <trkpt lat="46.28238" lon="4.29855">
        <ele>370</ele>
        <time>2020-06-11T01:57:04Z</time>
      </trkpt>
      <trkpt lat="46.28197" lon="4.29869">
        <ele>370</ele>
        <time>2020-06-11T01:57:12Z</time>
      </trkpt>
      <trkpt lat="46.28161" lon="4.29882">
        <ele>370</ele>
        <time>2020-06-11T01:57:18Z</time>
      </trkpt>
      <trkpt lat="46.28147" lon="4.2989">
        <ele>370</ele>
        <time>2020-06-11T01:57:21Z</time>
      </trkpt>
      <trkpt lat="46.28009" lon="4.29988">
        <ele>366</ele>
        <time>2020-06-11T01:57:48Z</time>
      </trkpt>
      <trkpt lat="46.27981" lon="4.30003">
        <ele>364</ele>
        <time>2020-06-11T01:57:54Z</time>
      </trkpt>
      <trkpt lat="46.27964" lon="4.30007">
        <ele>365</ele>
        <time>2020-06-11T01:57:57Z</time>
      </trkpt>
      <trkpt lat="46.27953" lon="4.30006">
        <ele>365</ele>
        <time>2020-06-11T01:57:59Z</time>
      </trkpt>
      <trkpt lat="46.27935" lon="4.30001">
        <ele>364</ele>
        <time>2020-06-11T01:58:02Z</time>
      </trkpt>
      <trkpt lat="46.27918" lon="4.29992">
        <ele>364</ele>
        <time>2020-06-11T01:58:05Z</time>
      </trkpt>
      <trkpt lat="46.2788" lon="4.29957">
        <ele>365</ele>
        <time>2020-06-11T01:58:13Z</time>
      </trkpt>
      <trkpt lat="46.27875" lon="4.29954">
        <ele>365</ele>
        <time>2020-06-11T01:58:14Z</time>
      </trkpt>
      <trkpt lat="46.27865" lon="4.2995">
        <ele>365</ele>
        <time>2020-06-11T01:58:16Z</time>
      </trkpt>
      <trkpt lat="46.27844" lon="4.2995">
        <ele>364</ele>
        <time>2020-06-11T01:58:20Z</time>
      </trkpt>
      <trkpt lat="46.27831" lon="4.29955">
        <ele>364</ele>
        <time>2020-06-11T01:58:22Z</time>
      </trkpt>
      <trkpt lat="46.27809" lon="4.29972">
        <ele>361</ele>
        <time>2020-06-11T01:58:26Z</time>
      </trkpt>
      <trkpt lat="46.27799" lon="4.2998">
        <ele>360</ele>
        <time>2020-06-11T01:58:28Z</time>
      </trkpt>
      <trkpt lat="46.27789" lon="4.29983">
        <ele>358</ele>
        <time>2020-06-11T01:58:30Z</time>
      </trkpt>
      <trkpt lat="46.27777" lon="4.29983">
        <ele>356</ele>
        <time>2020-06-11T01:58:32Z</time>
      </trkpt>
      <trkpt lat="46.27751" lon="4.29981">
        <ele>353</ele>
        <time>2020-06-11T01:58:37Z</time>
      </trkpt>
      <trkpt lat="46.27737" lon="4.29981">
        <ele>351</ele>
        <time>2020-06-11T01:58:40Z</time>
      </trkpt>
      <trkpt lat="46.2772" lon="4.29982">
        <ele>350</ele>
        <time>2020-06-11T01:58:43Z</time>
      </trkpt>
      <trkpt lat="46.27688" lon="4.29983">
        <ele>347</ele>
        <time>2020-06-11T01:58:48Z</time>
      </trkpt>
      <trkpt lat="46.27672" lon="4.29983">
        <ele>345</ele>
        <time>2020-06-11T01:58:51Z</time>
      </trkpt>
      <trkpt lat="46.27653" lon="4.29979">
        <ele>347</ele>
        <time>2020-06-11T01:58:55Z</time>
      </trkpt>
      <trkpt lat="46.27648" lon="4.29977">
        <ele>348</ele>
        <time>2020-06-11T01:58:55Z</time>
      </trkpt>
      <trkpt lat="46.27627" lon="4.29967">
        <ele>351</ele>
        <time>2020-06-11T01:58:59Z</time>
      </trkpt>
      <trkpt lat="46.27621" lon="4.29961">
        <ele>352</ele>
        <time>2020-06-11T01:59:01Z</time>
      </trkpt>
      <trkpt lat="46.27608" lon="4.29944">
        <ele>352</ele>
        <time>2020-06-11T01:59:04Z</time>
      </trkpt>
      <trkpt lat="46.27583" lon="4.29889">
        <ele>349</ele>
        <time>2020-06-11T01:59:12Z</time>
      </trkpt>
      <trkpt lat="46.27572" lon="4.2987">
        <ele>348</ele>
        <time>2020-06-11T01:59:15Z</time>
      </trkpt>
      <trkpt lat="46.27563" lon="4.29861">
        <ele>348</ele>
        <time>2020-06-11T01:59:17Z</time>
      </trkpt>
      <trkpt lat="46.27517" lon="4.29827">
        <ele>349</ele>
        <time>2020-06-11T01:59:26Z</time>
      </trkpt>
      <trkpt lat="46.275" lon="4.2981">
        <ele>350</ele>
        <time>2020-06-11T01:59:30Z</time>
      </trkpt>
      <trkpt lat="46.27492" lon="4.29793">
        <ele>351</ele>
        <time>2020-06-11T01:59:32Z</time>
      </trkpt>
      <trkpt lat="46.27489" lon="4.29785">
        <ele>352</ele>
        <time>2020-06-11T01:59:33Z</time>
      </trkpt>
      <trkpt lat="46.27488" lon="4.29769">
        <ele>352</ele>
        <time>2020-06-11T01:59:35Z</time>
      </trkpt>
      <trkpt lat="46.27489" lon="4.29745">
        <ele>351</ele>
        <time>2020-06-11T01:59:38Z</time>
      </trkpt>
      <trkpt lat="46.27511" lon="4.29663">
        <ele>350</ele>
        <time>2020-06-11T01:59:49Z</time>
      </trkpt>
      <trkpt lat="46.27517" lon="4.29637">
        <ele>348</ele>
        <time>2020-06-11T01:59:53Z</time>
      </trkpt>
      <trkpt lat="46.2752" lon="4.29608">
        <ele>346</ele>
        <time>2020-06-11T01:59:56Z</time>
      </trkpt>
      <trkpt lat="46.27517" lon="4.29582">
        <ele>345</ele>
        <time>2020-06-11T01:59:59Z</time>
      </trkpt>
      <trkpt lat="46.27511" lon="4.29565">
        <ele>345</ele>
        <time>2020-06-11T02:00:02Z</time>
      </trkpt>
      <trkpt lat="46.27495" lon="4.29544">
        <ele>346</ele>
        <time>2020-06-11T02:00:06Z</time>
      </trkpt>
      <trkpt lat="46.27453" lon="4.29514">
        <ele>345</ele>
        <time>2020-06-11T02:00:14Z</time>
      </trkpt>
      <trkpt lat="46.27418" lon="4.29495">
        <ele>344</ele>
        <time>2020-06-11T02:00:21Z</time>
      </trkpt>
      <trkpt lat="46.27298" lon="4.29436">
        <ele>345</ele>
        <time>2020-06-11T02:00:43Z</time>
      </trkpt>
      <trkpt lat="46.2728" lon="4.29424">
        <ele>345</ele>
        <time>2020-06-11T02:00:47Z</time>
      </trkpt>
      <trkpt lat="46.27243" lon="4.29361">
        <ele>344</ele>
        <time>2020-06-11T02:00:57Z</time>
      </trkpt>
      <trkpt lat="46.27205" lon="4.29272">
        <ele>345</ele>
        <time>2020-06-11T02:01:10Z</time>
      </trkpt>
      <trkpt lat="46.27186" lon="4.29208">
        <ele>344</ele>
        <time>2020-06-11T02:01:18Z</time>
      </trkpt>
      <trkpt lat="46.27176" lon="4.29191">
        <ele>343</ele>
        <time>2020-06-11T02:01:21Z</time>
      </trkpt>
      <trkpt lat="46.27163" lon="4.29181">
        <ele>342</ele>
        <time>2020-06-11T02:01:24Z</time>
      </trkpt>
      <trkpt lat="46.26986" lon="4.29175">
        <ele>338</ele>
        <time>2020-06-11T02:01:55Z</time>
      </trkpt>
      <trkpt lat="46.26966" lon="4.29166">
        <ele>337</ele>
        <time>2020-06-11T02:01:59Z</time>
      </trkpt>
      <trkpt lat="46.2695" lon="4.29152">
        <ele>337</ele>
        <time>2020-06-11T02:02:02Z</time>
      </trkpt>
      <trkpt lat="46.26887" lon="4.29069">
        <ele>337</ele>
        <time>2020-06-11T02:02:17Z</time>
      </trkpt>
      <trkpt lat="46.26846" lon="4.29018">
        <ele>335</ele>
        <time>2020-06-11T02:02:27Z</time>
      </trkpt>
      <trkpt lat="46.26834" lon="4.29007">
        <ele>335</ele>
        <time>2020-06-11T02:02:29Z</time>
      </trkpt>
      <trkpt lat="46.26812" lon="4.28991">
        <ele>334</ele>
        <time>2020-06-11T02:02:34Z</time>
      </trkpt>
      <trkpt lat="46.26789" lon="4.28981">
        <ele>335</ele>
        <time>2020-06-11T02:02:38Z</time>
      </trkpt>
      <trkpt lat="46.26753" lon="4.28976">
        <ele>335</ele>
        <time>2020-06-11T02:02:45Z</time>
      </trkpt>
      <trkpt lat="46.26707" lon="4.28978">
        <ele>336</ele>
        <time>2020-06-11T02:02:53Z</time>
      </trkpt>
      <trkpt lat="46.26693" lon="4.28981">
        <ele>336</ele>
        <time>2020-06-11T02:02:55Z</time>
      </trkpt>
      <trkpt lat="46.26669" lon="4.28994">
        <ele>337</ele>
        <time>2020-06-11T02:03:00Z</time>
      </trkpt>
      <trkpt lat="46.26635" lon="4.29019">
        <ele>336</ele>
        <time>2020-06-11T02:03:07Z</time>
      </trkpt>
      <trkpt lat="46.26421" lon="4.2919">
        <ele>331</ele>
        <time>2020-06-11T02:03:50Z</time>
      </trkpt>
      <trkpt lat="46.26338" lon="4.29256">
        <ele>333</ele>
        <time>2020-06-11T02:04:07Z</time>
      </trkpt>
      <trkpt lat="46.26319" lon="4.29269">
        <ele>335</ele>
        <time>2020-06-11T02:04:11Z</time>
      </trkpt>
      <trkpt lat="46.26297" lon="4.29279">
        <ele>337</ele>
        <time>2020-06-11T02:04:15Z</time>
      </trkpt>
      <trkpt lat="46.26281" lon="4.29283">
        <ele>338</ele>
        <time>2020-06-11T02:04:18Z</time>
      </trkpt>
      <trkpt lat="46.26273" lon="4.29283">
        <ele>338</ele>
        <time>2020-06-11T02:04:19Z</time>
      </trkpt>
      <trkpt lat="46.26257" lon="4.29277">
        <ele>337</ele>
        <time>2020-06-11T02:04:22Z</time>
      </trkpt>
      <trkpt lat="46.26231" lon="4.29263">
        <ele>336</ele>
        <time>2020-06-11T02:04:27Z</time>
      </trkpt>
      <trkpt lat="46.26223" lon="4.29261">
        <ele>335</ele>
        <time>2020-06-11T02:04:28Z</time>
      </trkpt>
      <trkpt lat="46.26208" lon="4.29263">
        <ele>336</ele>
        <time>2020-06-11T02:04:31Z</time>
      </trkpt>
      <trkpt lat="46.26155" lon="4.29283">
        <ele>339</ele>
        <time>2020-06-11T02:04:41Z</time>
      </trkpt>
      <trkpt lat="46.26061" lon="4.29323">
        <ele>341</ele>
        <time>2020-06-11T02:04:58Z</time>
      </trkpt>
      <trkpt lat="46.2603" lon="4.29349">
        <ele>343</ele>
        <time>2020-06-11T02:05:05Z</time>
      </trkpt>
      <trkpt lat="46.25987" lon="4.29394">
        <ele>345</ele>
        <time>2020-06-11T02:05:14Z</time>
      </trkpt>
      <trkpt lat="46.25969" lon="4.29424">
        <ele>346</ele>
        <time>2020-06-11T02:05:19Z</time>
      </trkpt>
      <trkpt lat="46.25936" lon="4.29508">
        <ele>352</ele>
        <time>2020-06-11T02:05:31Z</time>
      </trkpt>
      <trkpt lat="46.25931" lon="4.29517">
        <ele>352</ele>
        <time>2020-06-11T02:05:32Z</time>
      </trkpt>
      <trkpt lat="46.2592" lon="4.2953">
        <ele>352</ele>
        <time>2020-06-11T02:05:35Z</time>
      </trkpt>
      <trkpt lat="46.25905" lon="4.29536">
        <ele>353</ele>
        <time>2020-06-11T02:05:38Z</time>
      </trkpt>
      <trkpt lat="46.25897" lon="4.29537">
        <ele>353</ele>
        <time>2020-06-11T02:05:39Z</time>
      </trkpt>
      <trkpt lat="46.25866" lon="4.29528">
        <ele>353</ele>
        <time>2020-06-11T02:05:45Z</time>
      </trkpt>
      <trkpt lat="46.2585" lon="4.29526">
        <ele>353</ele>
        <time>2020-06-11T02:05:48Z</time>
      </trkpt>
      <trkpt lat="46.25829" lon="4.29533">
        <ele>354</ele>
        <time>2020-06-11T02:05:51Z</time>
      </trkpt>
      <trkpt lat="46.25714" lon="4.29602">
        <ele>356</ele>
        <time>2020-06-11T02:06:14Z</time>
      </trkpt>
      <trkpt lat="46.25684" lon="4.29624">
        <ele>356</ele>
        <time>2020-06-11T02:06:20Z</time>
      </trkpt>
      <trkpt lat="46.25632" lon="4.29677">
        <ele>358</ele>
        <time>2020-06-11T02:06:31Z</time>
      </trkpt>
      <trkpt lat="46.2561" lon="4.29712">
        <ele>359</ele>
        <time>2020-06-11T02:06:37Z</time>
      </trkpt>
      <trkpt lat="46.25605" lon="4.29724">
        <ele>359</ele>
        <time>2020-06-11T02:06:38Z</time>
      </trkpt>
      <trkpt lat="46.256" lon="4.29745">
        <ele>360</ele>
        <time>2020-06-11T02:06:41Z</time>
      </trkpt>
      <trkpt lat="46.25598" lon="4.29766">
        <ele>361</ele>
        <time>2020-06-11T02:06:44Z</time>
      </trkpt>
      <trkpt lat="46.256" lon="4.29779">
        <ele>361</ele>
        <time>2020-06-11T02:06:45Z</time>
      </trkpt>
      <trkpt lat="46.25606" lon="4.298">
        <ele>362</ele>
        <time>2020-06-11T02:06:48Z</time>
      </trkpt>
      <trkpt lat="46.25624" lon="4.29837">
        <ele>366</ele>
        <time>2020-06-11T02:06:54Z</time>
      </trkpt>
      <trkpt lat="46.25629" lon="4.29857">
        <ele>369</ele>
        <time>2020-06-11T02:06:56Z</time>
      </trkpt>
      <trkpt lat="46.25629" lon="4.29874">
        <ele>370</ele>
        <time>2020-06-11T02:06:58Z</time>
      </trkpt>
      <trkpt lat="46.25626" lon="4.29888">
        <ele>371</ele>
        <time>2020-06-11T02:07:00Z</time>
      </trkpt>
      <trkpt lat="46.25618" lon="4.29905">
        <ele>372</ele>
        <time>2020-06-11T02:07:03Z</time>
      </trkpt>
      <trkpt lat="46.25598" lon="4.29922">
        <ele>372</ele>
        <time>2020-06-11T02:07:07Z</time>
      </trkpt>
      <trkpt lat="46.25556" lon="4.29938">
        <ele>373</ele>
        <time>2020-06-11T02:07:15Z</time>
      </trkpt>
      <trkpt lat="46.25411" lon="4.30022">
        <ele>380</ele>
        <time>2020-06-11T02:07:42Z</time>
      </trkpt>
      <trkpt lat="46.25401" lon="4.3003">
        <ele>380</ele>
        <time>2020-06-11T02:07:44Z</time>
      </trkpt>
      <trkpt lat="46.25385" lon="4.30047">
        <ele>381</ele>
        <time>2020-06-11T02:07:48Z</time>
      </trkpt>
      <trkpt lat="46.2536" lon="4.30084">
        <ele>383</ele>
        <time>2020-06-11T02:07:54Z</time>
      </trkpt>
      <trkpt lat="46.25319" lon="4.30152">
        <ele>388</ele>
        <time>2020-06-11T02:08:05Z</time>
      </trkpt>
      <trkpt lat="46.25303" lon="4.30172">
        <ele>389</ele>
        <time>2020-06-11T02:08:09Z</time>
      </trkpt>
      <trkpt lat="46.25281" lon="4.30187">
        <ele>388</ele>
        <time>2020-06-11T02:08:14Z</time>
      </trkpt>
      <trkpt lat="46.25232" lon="4.30208">
        <ele>385</ele>
        <time>2020-06-11T02:08:23Z</time>
      </trkpt>
      <trkpt lat="46.25219" lon="4.30219">
        <ele>385</ele>
        <time>2020-06-11T02:08:25Z</time>
      </trkpt>
      <trkpt lat="46.252" lon="4.30241">
        <ele>387</ele>
        <time>2020-06-11T02:08:30Z</time>
      </trkpt>
      <trkpt lat="46.2518" lon="4.30257">
        <ele>389</ele>
        <time>2020-06-11T02:08:34Z</time>
      </trkpt>
      <trkpt lat="46.25121" lon="4.3028">
        <ele>389</ele>
        <time>2020-06-11T02:08:45Z</time>
      </trkpt>
      <trkpt lat="46.25109" lon="4.30287">
        <ele>389</ele>
        <time>2020-06-11T02:08:47Z</time>
      </trkpt>
      <trkpt lat="46.25086" lon="4.30303">
        <ele>390</ele>
        <time>2020-06-11T02:08:51Z</time>
      </trkpt>
      <trkpt lat="46.25054" lon="4.30329">
        <ele>390</ele>
        <time>2020-06-11T02:08:58Z</time>
      </trkpt>
      <trkpt lat="46.25045" lon="4.30343">
        <ele>392</ele>
        <time>2020-06-11T02:09:00Z</time>
      </trkpt>
      <trkpt lat="46.25032" lon="4.3038">
        <ele>398</ele>
        <time>2020-06-11T02:09:05Z</time>
      </trkpt>
      <trkpt lat="46.25025" lon="4.30394">
        <ele>399</ele>
        <time>2020-06-11T02:09:08Z</time>
      </trkpt>
      <trkpt lat="46.25013" lon="4.30406">
        <ele>400</ele>
        <time>2020-06-11T02:09:10Z</time>
      </trkpt>
      <trkpt lat="46.24982" lon="4.30428">
        <ele>400</ele>
        <time>2020-06-11T02:09:16Z</time>
      </trkpt>
      <trkpt lat="46.2497" lon="4.30441">
        <ele>401</ele>
        <time>2020-06-11T02:09:19Z</time>
      </trkpt>
      <trkpt lat="46.24954" lon="4.30469">
        <ele>402</ele>
        <time>2020-06-11T02:09:23Z</time>
      </trkpt>
      <trkpt lat="46.24933" lon="4.30515">
        <ele>404</ele>
        <time>2020-06-11T02:09:30Z</time>
      </trkpt>
      <trkpt lat="46.24921" lon="4.30529">
        <ele>403</ele>
        <time>2020-06-11T02:09:33Z</time>
      </trkpt>
      <trkpt lat="46.24906" lon="4.30539">
        <ele>404</ele>
        <time>2020-06-11T02:09:36Z</time>
      </trkpt>
      <trkpt lat="46.24898" lon="4.30541">
        <ele>404</ele>
        <time>2020-06-11T02:09:37Z</time>
      </trkpt>
      <trkpt lat="46.24866" lon="4.3054">
        <ele>402</ele>
        <time>2020-06-11T02:09:43Z</time>
      </trkpt>
      <trkpt lat="46.24845" lon="4.30545">
        <ele>402</ele>
        <time>2020-06-11T02:09:47Z</time>
      </trkpt>
      <trkpt lat="46.24634" lon="4.30636">
        <ele>407</ele>
        <time>2020-06-11T02:10:26Z</time>
      </trkpt>
      <trkpt lat="46.24619" lon="4.3064">
        <ele>406</ele>
        <time>2020-06-11T02:10:29Z</time>
      </trkpt>
      <trkpt lat="46.24416" lon="4.3067">
        <ele>400</ele>
        <time>2020-06-11T02:11:05Z</time>
      </trkpt>
      <trkpt lat="46.24267" lon="4.30635">
        <ele>391</ele>
        <time>2020-06-11T02:11:32Z</time>
      </trkpt>
      <trkpt lat="46.24227" lon="4.30628">
        <ele>390</ele>
        <time>2020-06-11T02:11:39Z</time>
      </trkpt>
      <trkpt lat="46.2417" lon="4.30612">
        <ele>390</ele>
        <time>2020-06-11T02:11:49Z</time>
      </trkpt>
      <trkpt lat="46.24071" lon="4.30619">
        <ele>384</ele>
        <time>2020-06-11T02:12:07Z</time>
      </trkpt>
      <trkpt lat="46.24051" lon="4.30613">
        <ele>383</ele>
        <time>2020-06-11T02:12:11Z</time>
      </trkpt>
      <trkpt lat="46.24013" lon="4.30584">
        <ele>381</ele>
        <time>2020-06-11T02:12:18Z</time>
      </trkpt>
      <trkpt lat="46.23969" lon="4.30543">
        <ele>381</ele>
        <time>2020-06-11T02:12:28Z</time>
      </trkpt>
      <trkpt lat="46.23902" lon="4.30462">
        <ele>378</ele>
        <time>2020-06-11T02:12:43Z</time>
      </trkpt>
      <trkpt lat="46.23759" lon="4.30376">
        <ele>373</ele>
        <time>2020-06-11T02:13:11Z</time>
      </trkpt>
      <trkpt lat="46.23745" lon="4.30372">
        <ele>372</ele>
        <time>2020-06-11T02:13:13Z</time>
      </trkpt>
      <trkpt lat="46.23736" lon="4.30372">
        <ele>372</ele>
        <time>2020-06-11T02:13:15Z</time>
      </trkpt>
      <trkpt lat="46.23646" lon="4.30399">
        <ele>367</ele>
        <time>2020-06-11T02:13:31Z</time>
      </trkpt>
      <trkpt lat="46.23633" lon="4.304">
        <ele>366</ele>
        <time>2020-06-11T02:13:33Z</time>
      </trkpt>
      <trkpt lat="46.23573" lon="4.30373">
        <ele>364</ele>
        <time>2020-06-11T02:13:45Z</time>
      </trkpt>
      <trkpt lat="46.23511" lon="4.30377">
        <ele>361</ele>
        <time>2020-06-11T02:13:56Z</time>
      </trkpt>
      <trkpt lat="46.235" lon="4.30375">
        <ele>360</ele>
        <time>2020-06-11T02:13:58Z</time>
      </trkpt>
      <trkpt lat="46.2299" lon="4.30233">
        <ele>341</ele>
        <time>2020-06-11T02:15:30Z</time>
      </trkpt>
      <trkpt lat="46.22971" lon="4.30229">
        <ele>340</ele>
        <time>2020-06-11T02:15:34Z</time>
      </trkpt>
      <trkpt lat="46.22952" lon="4.30229">
        <ele>339</ele>
        <time>2020-06-11T02:15:37Z</time>
      </trkpt>
      <trkpt lat="46.22934" lon="4.30239">
        <ele>337</ele>
        <time>2020-06-11T02:15:40Z</time>
      </trkpt>
      <trkpt lat="46.2292" lon="4.30251">
        <ele>336</ele>
        <time>2020-06-11T02:15:43Z</time>
      </trkpt>
      <trkpt lat="46.22905" lon="4.30273">
        <ele>336</ele>
        <time>2020-06-11T02:15:47Z</time>
      </trkpt>
      <trkpt lat="46.22834" lon="4.30397">
        <ele>338</ele>
        <time>2020-06-11T02:16:07Z</time>
      </trkpt>
      <trkpt lat="46.22799" lon="4.30454">
        <ele>338</ele>
        <time>2020-06-11T02:16:16Z</time>
      </trkpt>
      <trkpt lat="46.2278" lon="4.30481">
        <ele>338</ele>
        <time>2020-06-11T02:16:21Z</time>
      </trkpt>
      <trkpt lat="46.22761" lon="4.30502">
        <ele>337</ele>
        <time>2020-06-11T02:16:25Z</time>
      </trkpt>
      <trkpt lat="46.22736" lon="4.30521">
        <ele>337</ele>
        <time>2020-06-11T02:16:30Z</time>
      </trkpt>
      <trkpt lat="46.22716" lon="4.30532">
        <ele>337</ele>
        <time>2020-06-11T02:16:34Z</time>
      </trkpt>
      <trkpt lat="46.22613" lon="4.30581">
        <ele>340</ele>
        <time>2020-06-11T02:16:53Z</time>
      </trkpt>
      <trkpt lat="46.22603" lon="4.30587">
        <ele>340</ele>
        <time>2020-06-11T02:16:55Z</time>
      </trkpt>
      <trkpt lat="46.22579" lon="4.306">
        <ele>341</ele>
        <time>2020-06-11T02:17:00Z</time>
      </trkpt>
      <trkpt lat="46.2255" lon="4.30625">
        <ele>345</ele>
        <time>2020-06-11T02:17:06Z</time>
      </trkpt>
      <trkpt lat="46.22515" lon="4.30674">
        <ele>347</ele>
        <time>2020-06-11T02:17:14Z</time>
      </trkpt>
      <trkpt lat="46.22487" lon="4.30729">
        <ele>346</ele>
        <time>2020-06-11T02:17:23Z</time>
      </trkpt>
      <trkpt lat="46.2246" lon="4.30809">
        <ele>348</ele>
        <time>2020-06-11T02:17:34Z</time>
      </trkpt>
      <trkpt lat="46.22446" lon="4.30932">
        <ele>351</ele>
        <time>2020-06-11T02:17:49Z</time>
      </trkpt>
      <trkpt lat="46.22444" lon="4.30948">
        <ele>352</ele>
        <time>2020-06-11T02:17:51Z</time>
      </trkpt>
      <trkpt lat="46.22448" lon="4.30956">
        <ele>352</ele>
        <time>2020-06-11T02:17:52Z</time>
      </trkpt>
      <trkpt lat="46.22454" lon="4.30982">
        <ele>351</ele>
        <time>2020-06-11T02:17:56Z</time>
      </trkpt>
      <trkpt lat="46.22478" lon="4.31038">
        <ele>349</ele>
        <time>2020-06-11T02:18:04Z</time>
      </trkpt>
      <trkpt lat="46.22484" lon="4.31066">
        <ele>349</ele>
        <time>2020-06-11T02:18:08Z</time>
      </trkpt>
      <trkpt lat="46.22487" lon="4.31156">
        <ele>349</ele>
        <time>2020-06-11T02:18:19Z</time>
      </trkpt>
      <trkpt lat="46.22487" lon="4.31201">
        <ele>348</ele>
        <time>2020-06-11T02:18:24Z</time>
      </trkpt>
      <trkpt lat="46.22484" lon="4.31222">
        <ele>347</ele>
        <time>2020-06-11T02:18:27Z</time>
      </trkpt>
      <trkpt lat="46.22474" lon="4.31265">
        <ele>348</ele>
        <time>2020-06-11T02:18:32Z</time>
      </trkpt>
      <trkpt lat="46.22473" lon="4.31281">
        <ele>348</ele>
        <time>2020-06-11T02:18:34Z</time>
      </trkpt>
      <trkpt lat="46.22475" lon="4.3131">
        <ele>348</ele>
        <time>2020-06-11T02:18:38Z</time>
      </trkpt>
      <trkpt lat="46.22469" lon="4.31305">
        <ele>349</ele>
        <time>2020-06-11T02:18:39Z</time>
      </trkpt>
      <trkpt lat="46.22454" lon="4.3128">
        <ele>350</ele>
        <time>2020-06-11T02:18:43Z</time>
      </trkpt>
      <trkpt lat="46.2245" lon="4.31277">
        <ele>350</ele>
        <time>2020-06-11T02:18:44Z</time>
      </trkpt>
      <trkpt lat="46.22441" lon="4.31276">
        <ele>351</ele>
        <time>2020-06-11T02:18:46Z</time>
      </trkpt>
      <trkpt lat="46.22429" lon="4.3128">
        <ele>352</ele>
        <time>2020-06-11T02:18:48Z</time>
      </trkpt>
      <trkpt lat="46.22331" lon="4.31343">
        <ele>356</ele>
        <time>2020-06-11T02:19:07Z</time>
      </trkpt>
      <trkpt lat="46.22196" lon="4.31452">
        <ele>358</ele>
        <time>2020-06-11T02:19:34Z</time>
      </trkpt>
      <trkpt lat="46.22088" lon="4.31549">
        <ele>364</ele>
        <time>2020-06-11T02:19:57Z</time>
      </trkpt>
      <trkpt lat="46.22064" lon="4.31567">
        <ele>367</ele>
        <time>2020-06-11T02:20:02Z</time>
      </trkpt>
      <trkpt lat="46.22039" lon="4.31566">
        <ele>368</ele>
        <time>2020-06-11T02:20:06Z</time>
      </trkpt>
      <trkpt lat="46.21918" lon="4.31517">
        <ele>376</ele>
        <time>2020-06-11T02:20:29Z</time>
      </trkpt>
      <trkpt lat="46.21864" lon="4.31487">
        <ele>380</ele>
        <time>2020-06-11T02:20:39Z</time>
      </trkpt>
      <trkpt lat="46.21832" lon="4.31478">
        <ele>382</ele>
        <time>2020-06-11T02:20:45Z</time>
      </trkpt>
      <trkpt lat="46.21799" lon="4.31474">
        <ele>384</ele>
        <time>2020-06-11T02:20:51Z</time>
      </trkpt>
      <trkpt lat="46.21718" lon="4.31477">
        <ele>389</ele>
        <time>2020-06-11T02:21:05Z</time>
      </trkpt>
      <trkpt lat="46.21512" lon="4.31534">
        <ele>401</ele>
        <time>2020-06-11T02:21:42Z</time>
      </trkpt>
      <trkpt lat="46.21506" lon="4.31529">
        <ele>401</ele>
        <time>2020-06-11T02:21:44Z</time>
      </trkpt>
      <trkpt lat="46.21493" lon="4.31538">
        <ele>401</ele>
        <time>2020-06-11T02:21:46Z</time>
      </trkpt>
      <trkpt lat="46.21479" lon="4.31543">
        <ele>401</ele>
        <time>2020-06-11T02:21:49Z</time>
      </trkpt>
      <trkpt lat="46.21445" lon="4.31551">
        <ele>401</ele>
        <time>2020-06-11T02:21:55Z</time>
      </trkpt>
      <trkpt lat="46.21395" lon="4.31561">
        <ele>399</ele>
        <time>2020-06-11T02:22:04Z</time>
      </trkpt>
      <trkpt lat="46.21375" lon="4.31563">
        <ele>397</ele>
        <time>2020-06-11T02:22:07Z</time>
      </trkpt>
      <trkpt lat="46.21345" lon="4.31551">
        <ele>395</ele>
        <time>2020-06-11T02:22:13Z</time>
      </trkpt>
      <trkpt lat="46.21346" lon="4.31543">
        <ele>395</ele>
        <time>2020-06-11T02:22:14Z</time>
      </trkpt>
      <trkpt lat="46.21343" lon="4.31528">
        <ele>394</ele>
        <time>2020-06-11T02:22:16Z</time>
      </trkpt>
      <trkpt lat="46.21334" lon="4.31519">
        <ele>393</ele>
        <time>2020-06-11T02:22:18Z</time>
      </trkpt>
      <trkpt lat="46.21328" lon="4.31518">
        <ele>393</ele>
        <time>2020-06-11T02:22:19Z</time>
      </trkpt>
      <trkpt lat="46.21318" lon="4.31524">
        <ele>393</ele>
        <time>2020-06-11T02:22:21Z</time>
      </trkpt>
      <trkpt lat="46.21315" lon="4.31531">
        <ele>393</ele>
        <time>2020-06-11T02:22:22Z</time>
      </trkpt>
      <trkpt lat="46.21313" lon="4.31539">
        <ele>393</ele>
        <time>2020-06-11T02:22:23Z</time>
      </trkpt>
      <trkpt lat="46.21313" lon="4.31548">
        <ele>394</ele>
        <time>2020-06-11T02:22:24Z</time>
      </trkpt>
      <trkpt lat="46.21316" lon="4.31556">
        <ele>394</ele>
        <time>2020-06-11T02:22:25Z</time>
      </trkpt>
      <trkpt lat="46.2132" lon="4.31562">
        <ele>394</ele>
        <time>2020-06-11T02:22:26Z</time>
      </trkpt>
      <trkpt lat="46.21316" lon="4.31569">
        <ele>394</ele>
        <time>2020-06-11T02:22:27Z</time>
      </trkpt>
      <trkpt lat="46.21307" lon="4.31577">
        <ele>395</ele>
        <time>2020-06-11T02:22:29Z</time>
      </trkpt>
      <trkpt lat="46.21187" lon="4.31607">
        <ele>399</ele>
        <time>2020-06-11T02:22:51Z</time>
      </trkpt>
      <trkpt lat="46.2116" lon="4.3162">
        <ele>400</ele>
        <time>2020-06-11T02:22:56Z</time>
      </trkpt>
      <trkpt lat="46.21147" lon="4.3163">
        <ele>400</ele>
        <time>2020-06-11T02:22:59Z</time>
      </trkpt>
      <trkpt lat="46.20958" lon="4.31782">
        <ele>399</ele>
        <time>2020-06-11T02:23:37Z</time>
      </trkpt>
      <trkpt lat="46.20847" lon="4.3189">
        <ele>389</ele>
        <time>2020-06-11T02:24:01Z</time>
      </trkpt>
      <trkpt lat="46.20839" lon="4.319">
        <ele>389</ele>
        <time>2020-06-11T02:24:03Z</time>
      </trkpt>
      <trkpt lat="46.20832" lon="4.31915">
        <ele>388</ele>
        <time>2020-06-11T02:24:05Z</time>
      </trkpt>
      <trkpt lat="46.20828" lon="4.3193">
        <ele>387</ele>
        <time>2020-06-11T02:24:07Z</time>
      </trkpt>
      <trkpt lat="46.20828" lon="4.31953">
        <ele>387</ele>
        <time>2020-06-11T02:24:10Z</time>
      </trkpt>
      <trkpt lat="46.20835" lon="4.32038">
        <ele>388</ele>
        <time>2020-06-11T02:24:20Z</time>
      </trkpt>
      <trkpt lat="46.20878" lon="4.32047">
        <ele>391</ele>
        <time>2020-06-11T02:24:28Z</time>
      </trkpt>
      <trkpt lat="46.20919" lon="4.32068">
        <ele>394</ele>
        <time>2020-06-11T02:24:36Z</time>
      </trkpt>
      <trkpt lat="46.20959" lon="4.31975">
        <ele>400</ele>
        <time>2020-06-11T02:24:49Z</time>
      </trkpt>
      <trkpt lat="46.20961" lon="4.3196">
        <ele>401</ele>
        <time>2020-06-11T02:24:51Z</time>
      </trkpt>
      <trkpt lat="46.20959" lon="4.31975">
        <ele>400</ele>
        <time>2020-06-11T02:24:53Z</time>
      </trkpt>
      <trkpt lat="46.20919" lon="4.32068">
        <ele>394</ele>
        <time>2020-06-11T02:25:06Z</time>
      </trkpt>
      <trkpt lat="46.20878" lon="4.32047">
        <ele>391</ele>
        <time>2020-06-11T02:25:14Z</time>
      </trkpt>
      <trkpt lat="46.20835" lon="4.32038">
        <ele>388</ele>
        <time>2020-06-11T02:25:22Z</time>
      </trkpt>
      <trkpt lat="46.20844" lon="4.32151">
        <ele>385</ele>
        <time>2020-06-11T02:25:36Z</time>
      </trkpt>
      <trkpt lat="46.20858" lon="4.32326">
        <ele>384</ele>
        <time>2020-06-11T02:25:58Z</time>
      </trkpt>
      <trkpt lat="46.20859" lon="4.32342">
        <ele>384</ele>
        <time>2020-06-11T02:26:00Z</time>
      </trkpt>
      <trkpt lat="46.20866" lon="4.32419">
        <ele>384</ele>
        <time>2020-06-11T02:26:09Z</time>
      </trkpt>
      <trkpt lat="46.20877" lon="4.32551">
        <ele>384</ele>
        <time>2020-06-11T02:26:26Z</time>
      </trkpt>
      <trkpt lat="46.20879" lon="4.32582">
        <ele>384</ele>
        <time>2020-06-11T02:26:29Z</time>
      </trkpt>
      <trkpt lat="46.2088" lon="4.32587">
        <ele>384</ele>
        <time>2020-06-11T02:26:30Z</time>
      </trkpt>
      <trkpt lat="46.20881" lon="4.32605">
        <ele>383</ele>
        <time>2020-06-11T02:26:32Z</time>
      </trkpt>
      <trkpt lat="46.20884" lon="4.32647">
        <ele>382</ele>
        <time>2020-06-11T02:26:37Z</time>
      </trkpt>
      <trkpt lat="46.20885" lon="4.32657">
        <ele>382</ele>
        <time>2020-06-11T02:26:39Z</time>
      </trkpt>
      <trkpt lat="46.20886" lon="4.32681">
        <ele>382</ele>
        <time>2020-06-11T02:26:42Z</time>
      </trkpt>
      <trkpt lat="46.20886" lon="4.32718">
        <ele>382</ele>
        <time>2020-06-11T02:26:46Z</time>
      </trkpt>
      <trkpt lat="46.20884" lon="4.32739">
        <ele>382</ele>
        <time>2020-06-11T02:26:49Z</time>
      </trkpt>
      <trkpt lat="46.20861" lon="4.32877">
        <ele>383</ele>
        <time>2020-06-11T02:27:06Z</time>
      </trkpt>
      <trkpt lat="46.20844" lon="4.32995">
        <ele>386</ele>
        <time>2020-06-11T02:27:21Z</time>
      </trkpt>
      <trkpt lat="46.20822" lon="4.33128">
        <ele>392</ele>
        <time>2020-06-11T02:27:38Z</time>
      </trkpt>
      <trkpt lat="46.20805" lon="4.33243">
        <ele>398</ele>
        <time>2020-06-11T02:27:52Z</time>
      </trkpt>
      <trkpt lat="46.20804" lon="4.33291">
        <ele>401</ele>
        <time>2020-06-11T02:27:58Z</time>
      </trkpt>
      <trkpt lat="46.20812" lon="4.33408">
        <ele>404</ele>
        <time>2020-06-11T02:28:13Z</time>
      </trkpt>
      <trkpt lat="46.20803" lon="4.33527">
        <ele>404</ele>
        <time>2020-06-11T02:28:28Z</time>
      </trkpt>
      <trkpt lat="46.20799" lon="4.33554">
        <ele>404</ele>
        <time>2020-06-11T02:28:31Z</time>
      </trkpt>
      <trkpt lat="46.20725" lon="4.33798">
        <ele>404</ele>
        <time>2020-06-11T02:29:04Z</time>
      </trkpt>
      <trkpt lat="46.20719" lon="4.3381">
        <ele>404</ele>
        <time>2020-06-11T02:29:06Z</time>
      </trkpt>
      <trkpt lat="46.20712" lon="4.33824">
        <ele>404</ele>
        <time>2020-06-11T02:29:08Z</time>
      </trkpt>
      <trkpt lat="46.20708" lon="4.33829">
        <ele>404</ele>
        <time>2020-06-11T02:29:09Z</time>
      </trkpt>
      <trkpt lat="46.20683" lon="4.33874">
        <ele>403</ele>
        <time>2020-06-11T02:29:16Z</time>
      </trkpt>
      <trkpt lat="46.2068" lon="4.33878">
        <ele>403</ele>
        <time>2020-06-11T02:29:17Z</time>
      </trkpt>
      <trkpt lat="46.2066" lon="4.33912">
        <ele>403</ele>
        <time>2020-06-11T02:29:22Z</time>
      </trkpt>
      <trkpt lat="46.20649" lon="4.33931">
        <ele>403</ele>
        <time>2020-06-11T02:29:25Z</time>
      </trkpt>
      <trkpt lat="46.20651" lon="4.33941">
        <ele>403</ele>
        <time>2020-06-11T02:29:26Z</time>
      </trkpt>
      <trkpt lat="46.20628" lon="4.34027">
        <ele>406</ele>
        <time>2020-06-11T02:29:38Z</time>
      </trkpt>
      <trkpt lat="46.20582" lon="4.34189">
        <ele>411</ele>
        <time>2020-06-11T02:29:59Z</time>
      </trkpt>
      <trkpt lat="46.20568" lon="4.34233">
        <ele>413</ele>
        <time>2020-06-11T02:30:05Z</time>
      </trkpt>
      <trkpt lat="46.20482" lon="4.34536">
        <ele>422</ele>
        <time>2020-06-11T02:30:46Z</time>
      </trkpt>
      <trkpt lat="46.2045" lon="4.34655">
        <ele>420</ele>
        <time>2020-06-11T02:31:01Z</time>
      </trkpt>
      <trkpt lat="46.20438" lon="4.3469">
        <ele>421</ele>
        <time>2020-06-11T02:31:06Z</time>
      </trkpt>
      <trkpt lat="46.20432" lon="4.34699">
        <ele>421</ele>
        <time>2020-06-11T02:31:08Z</time>
      </trkpt>
      <trkpt lat="46.20265" lon="4.34867">
        <ele>422</ele>
        <time>2020-06-11T02:31:44Z</time>
      </trkpt>
      <trkpt lat="46.20237" lon="4.349">
        <ele>422</ele>
        <time>2020-06-11T02:31:50Z</time>
      </trkpt>
      <trkpt lat="46.20215" lon="4.34934">
        <ele>421</ele>
        <time>2020-06-11T02:31:56Z</time>
      </trkpt>
      <trkpt lat="46.20204" lon="4.34959">
        <ele>421</ele>
        <time>2020-06-11T02:32:00Z</time>
      </trkpt>
      <trkpt lat="46.202" lon="4.34976">
        <ele>422</ele>
        <time>2020-06-11T02:32:02Z</time>
      </trkpt>
      <trkpt lat="46.2018" lon="4.35096">
        <ele>425</ele>
        <time>2020-06-11T02:32:17Z</time>
      </trkpt>
      <trkpt lat="46.20173" lon="4.35123">
        <ele>427</ele>
        <time>2020-06-11T02:32:21Z</time>
      </trkpt>
      <trkpt lat="46.20166" lon="4.35139">
        <ele>428</ele>
        <time>2020-06-11T02:32:23Z</time>
      </trkpt>
      <trkpt lat="46.20149" lon="4.35167">
        <ele>430</ele>
        <time>2020-06-11T02:32:28Z</time>
      </trkpt>
      <trkpt lat="46.20127" lon="4.35196">
        <ele>433</ele>
        <time>2020-06-11T02:32:33Z</time>
      </trkpt>
      <trkpt lat="46.20058" lon="4.35272">
        <ele>439</ele>
        <time>2020-06-11T02:32:48Z</time>
      </trkpt>
      <trkpt lat="46.20046" lon="4.35294">
        <ele>442</ele>
        <time>2020-06-11T02:32:52Z</time>
      </trkpt>
      <trkpt lat="46.20044" lon="4.35301">
        <ele>443</ele>
        <time>2020-06-11T02:32:53Z</time>
      </trkpt>
      <trkpt lat="46.20042" lon="4.35318">
        <ele>444</ele>
        <time>2020-06-11T02:32:55Z</time>
      </trkpt>
      <trkpt lat="46.20049" lon="4.3538">
        <ele>448</ele>
        <time>2020-06-11T02:33:02Z</time>
      </trkpt>
      <trkpt lat="46.20047" lon="4.35394">
        <ele>449</ele>
        <time>2020-06-11T02:33:04Z</time>
      </trkpt>
      <trkpt lat="46.20042" lon="4.35406">
        <ele>451</ele>
        <time>2020-06-11T02:33:06Z</time>
      </trkpt>
      <trkpt lat="46.2003" lon="4.35416">
        <ele>452</ele>
        <time>2020-06-11T02:33:08Z</time>
      </trkpt>
      <trkpt lat="46.20019" lon="4.35421">
        <ele>454</ele>
        <time>2020-06-11T02:33:10Z</time>
      </trkpt>
      <trkpt lat="46.19971" lon="4.3543">
        <ele>457</ele>
        <time>2020-06-11T02:33:19Z</time>
      </trkpt>
      <trkpt lat="46.1994" lon="4.35438">
        <ele>459</ele>
        <time>2020-06-11T02:33:25Z</time>
      </trkpt>
      <trkpt lat="46.19919" lon="4.35451">
        <ele>460</ele>
        <time>2020-06-11T02:33:29Z</time>
      </trkpt>
      <trkpt lat="46.19909" lon="4.35463">
        <ele>459</ele>
        <time>2020-06-11T02:33:31Z</time>
      </trkpt>
      <trkpt lat="46.19906" lon="4.35461">
        <ele>459</ele>
        <time>2020-06-11T02:33:32Z</time>
      </trkpt>
      <trkpt lat="46.19897" lon="4.35461">
        <ele>459</ele>
        <time>2020-06-11T02:33:33Z</time>
      </trkpt>
      <trkpt lat="46.1986" lon="4.35501">
        <ele>455</ele>
        <time>2020-06-11T02:33:41Z</time>
      </trkpt>
      <trkpt lat="46.19842" lon="4.35526">
        <ele>454</ele>
        <time>2020-06-11T02:33:46Z</time>
      </trkpt>
      <trkpt lat="46.19769" lon="4.35637">
        <ele>451</ele>
        <time>2020-06-11T02:34:05Z</time>
      </trkpt>
      <trkpt lat="46.19747" lon="4.35663">
        <ele>450</ele>
        <time>2020-06-11T02:34:10Z</time>
      </trkpt>
      <trkpt lat="46.19652" lon="4.35729">
        <ele>443</ele>
        <time>2020-06-11T02:34:29Z</time>
      </trkpt>
      <trkpt lat="46.19633" lon="4.35746">
        <ele>442</ele>
        <time>2020-06-11T02:34:33Z</time>
      </trkpt>
      <trkpt lat="46.19486" lon="4.35946">
        <ele>427</ele>
        <time>2020-06-11T02:35:09Z</time>
      </trkpt>
      <trkpt lat="46.19451" lon="4.35991">
        <ele>425</ele>
        <time>2020-06-11T02:35:17Z</time>
      </trkpt>
      <trkpt lat="46.19434" lon="4.36005">
        <ele>424</ele>
        <time>2020-06-11T02:35:20Z</time>
      </trkpt>
      <trkpt lat="46.1942" lon="4.3601">
        <ele>423</ele>
        <time>2020-06-11T02:35:23Z</time>
      </trkpt>
      <trkpt lat="46.19403" lon="4.36011">
        <ele>421</ele>
        <time>2020-06-11T02:35:26Z</time>
      </trkpt>
      <trkpt lat="46.19387" lon="4.36017">
        <ele>420</ele>
        <time>2020-06-11T02:35:29Z</time>
      </trkpt>
      <trkpt lat="46.19371" lon="4.3603">
        <ele>419</ele>
        <time>2020-06-11T02:35:32Z</time>
      </trkpt>
      <trkpt lat="46.19362" lon="4.36041">
        <ele>419</ele>
        <time>2020-06-11T02:35:34Z</time>
      </trkpt>
      <trkpt lat="46.19356" lon="4.36057">
        <ele>419</ele>
        <time>2020-06-11T02:35:36Z</time>
      </trkpt>
      <trkpt lat="46.19336" lon="4.36119">
        <ele>420</ele>
        <time>2020-06-11T02:35:45Z</time>
      </trkpt>
      <trkpt lat="46.19328" lon="4.36137">
        <ele>420</ele>
        <time>2020-06-11T02:35:48Z</time>
      </trkpt>
      <trkpt lat="46.1929" lon="4.3621">
        <ele>424</ele>
        <time>2020-06-11T02:35:59Z</time>
      </trkpt>
      <trkpt lat="46.19153" lon="4.36391">
        <ele>424</ele>
        <time>2020-06-11T02:36:32Z</time>
      </trkpt>
      <trkpt lat="46.19126" lon="4.36429">
        <ele>426</ele>
        <time>2020-06-11T02:36:39Z</time>
      </trkpt>
      <trkpt lat="46.19101" lon="4.36479">
        <ele>429</ele>
        <time>2020-06-11T02:36:46Z</time>
      </trkpt>
      <trkpt lat="46.18894" lon="4.36944">
        <ele>434</ele>
        <time>2020-06-11T02:37:54Z</time>
      </trkpt>
      <trkpt lat="46.18881" lon="4.36984">
        <ele>435</ele>
        <time>2020-06-11T02:38:00Z</time>
      </trkpt>
      <trkpt lat="46.18872" lon="4.37026">
        <ele>438</ele>
        <time>2020-06-11T02:38:05Z</time>
      </trkpt>
      <trkpt lat="46.1886" lon="4.37063">
        <ele>439</ele>
        <time>2020-06-11T02:38:10Z</time>
      </trkpt>
      <trkpt lat="46.18754" lon="4.37281">
        <ele>441</ele>
        <time>2020-06-11T02:38:43Z</time>
      </trkpt>
      <trkpt lat="46.18735" lon="4.37329">
        <ele>443</ele>
        <time>2020-06-11T02:38:50Z</time>
      </trkpt>
      <trkpt lat="46.18717" lon="4.37368">
        <ele>442</ele>
        <time>2020-06-11T02:38:56Z</time>
      </trkpt>
      <trkpt lat="46.18701" lon="4.37395">
        <ele>442</ele>
        <time>2020-06-11T02:39:00Z</time>
      </trkpt>
      <trkpt lat="46.18676" lon="4.37427">
        <ele>440</ele>
        <time>2020-06-11T02:39:06Z</time>
      </trkpt>
      <trkpt lat="46.18608" lon="4.37502">
        <ele>443</ele>
        <time>2020-06-11T02:39:21Z</time>
      </trkpt>
      <trkpt lat="46.18535" lon="4.37574">
        <ele>442</ele>
        <time>2020-06-11T02:39:37Z</time>
      </trkpt>
      <trkpt lat="46.18439" lon="4.37678">
        <ele>444</ele>
        <time>2020-06-11T02:39:58Z</time>
      </trkpt>
      <trkpt lat="46.1828" lon="4.37798">
        <ele>449</ele>
        <time>2020-06-11T02:40:30Z</time>
      </trkpt>
      <trkpt lat="46.18273" lon="4.3781">
        <ele>448</ele>
        <time>2020-06-11T02:40:32Z</time>
      </trkpt>
      <trkpt lat="46.18261" lon="4.37836">
        <ele>447</ele>
        <time>2020-06-11T02:40:36Z</time>
      </trkpt>
      <trkpt lat="46.18258" lon="4.37857">
        <ele>447</ele>
        <time>2020-06-11T02:40:38Z</time>
      </trkpt>
      <trkpt lat="46.18253" lon="4.37947">
        <ele>451</ele>
        <time>2020-06-11T02:40:50Z</time>
      </trkpt>
      <trkpt lat="46.18249" lon="4.37987">
        <ele>453</ele>
        <time>2020-06-11T02:40:55Z</time>
      </trkpt>
      <trkpt lat="46.18246" lon="4.38">
        <ele>454</ele>
        <time>2020-06-11T02:40:56Z</time>
      </trkpt>
      <trkpt lat="46.18202" lon="4.38125">
        <ele>455</ele>
        <time>2020-06-11T02:41:14Z</time>
      </trkpt>
      <trkpt lat="46.18189" lon="4.38149">
        <ele>455</ele>
        <time>2020-06-11T02:41:17Z</time>
      </trkpt>
      <trkpt lat="46.18179" lon="4.38158">
        <ele>455</ele>
        <time>2020-06-11T02:41:19Z</time>
      </trkpt>
      <trkpt lat="46.18137" lon="4.38175">
        <ele>453</ele>
        <time>2020-06-11T02:41:27Z</time>
      </trkpt>
      <trkpt lat="46.18124" lon="4.38191">
        <ele>453</ele>
        <time>2020-06-11T02:41:30Z</time>
      </trkpt>
      <trkpt lat="46.18117" lon="4.3821">
        <ele>453</ele>
        <time>2020-06-11T02:41:33Z</time>
      </trkpt>
      <trkpt lat="46.18107" lon="4.38263">
        <ele>456</ele>
        <time>2020-06-11T02:41:40Z</time>
      </trkpt>
      <trkpt lat="46.18097" lon="4.38293">
        <ele>456</ele>
        <time>2020-06-11T02:41:44Z</time>
      </trkpt>
      <trkpt lat="46.18081" lon="4.38324">
        <ele>456</ele>
        <time>2020-06-11T02:41:48Z</time>
      </trkpt>
      <trkpt lat="46.18064" lon="4.38344">
        <ele>458</ele>
        <time>2020-06-11T02:41:52Z</time>
      </trkpt>
      <trkpt lat="46.17997" lon="4.38397">
        <ele>461</ele>
        <time>2020-06-11T02:42:06Z</time>
      </trkpt>
      <trkpt lat="46.17862" lon="4.38496">
        <ele>464</ele>
        <time>2020-06-11T02:42:33Z</time>
      </trkpt>
      <trkpt lat="46.17826" lon="4.38519">
        <ele>467</ele>
        <time>2020-06-11T02:42:40Z</time>
      </trkpt>
      <trkpt lat="46.17803" lon="4.38539">
        <ele>469</ele>
        <time>2020-06-11T02:42:45Z</time>
      </trkpt>
      <trkpt lat="46.17722" lon="4.38624">
        <ele>477</ele>
        <time>2020-06-11T02:43:03Z</time>
      </trkpt>
      <trkpt lat="46.17685" lon="4.38659">
        <ele>478</ele>
        <time>2020-06-11T02:43:10Z</time>
      </trkpt>
      <trkpt lat="46.17654" lon="4.38681">
        <ele>478</ele>
        <time>2020-06-11T02:43:17Z</time>
      </trkpt>
      <trkpt lat="46.17576" lon="4.38726">
        <ele>481</ele>
        <time>2020-06-11T02:43:31Z</time>
      </trkpt>
      <trkpt lat="46.17552" lon="4.38744">
        <ele>482</ele>
        <time>2020-06-11T02:43:36Z</time>
      </trkpt>
      <trkpt lat="46.17527" lon="4.38764">
        <ele>481</ele>
        <time>2020-06-11T02:43:41Z</time>
      </trkpt>
      <trkpt lat="46.17474" lon="4.38817">
        <ele>483</ele>
        <time>2020-06-11T02:43:53Z</time>
      </trkpt>
      <trkpt lat="46.17464" lon="4.38835">
        <ele>483</ele>
        <time>2020-06-11T02:43:56Z</time>
      </trkpt>
      <trkpt lat="46.17454" lon="4.3886">
        <ele>484</ele>
        <time>2020-06-11T02:43:59Z</time>
      </trkpt>
      <trkpt lat="46.17445" lon="4.38891">
        <ele>485</ele>
        <time>2020-06-11T02:44:03Z</time>
      </trkpt>
      <trkpt lat="46.1743" lon="4.38926">
        <ele>485</ele>
        <time>2020-06-11T02:44:08Z</time>
      </trkpt>
      <trkpt lat="46.17415" lon="4.38948">
        <ele>485</ele>
        <time>2020-06-11T02:44:12Z</time>
      </trkpt>
      <trkpt lat="46.17373" lon="4.39">
        <ele>486</ele>
        <time>2020-06-11T02:44:22Z</time>
      </trkpt>
      <trkpt lat="46.17357" lon="4.39026">
        <ele>486</ele>
        <time>2020-06-11T02:44:26Z</time>
      </trkpt>
      <trkpt lat="46.1735" lon="4.39047">
        <ele>485</ele>
        <time>2020-06-11T02:44:29Z</time>
      </trkpt>
      <trkpt lat="46.17347" lon="4.3906">
        <ele>485</ele>
        <time>2020-06-11T02:44:31Z</time>
      </trkpt>
      <trkpt lat="46.17344" lon="4.39086">
        <ele>485</ele>
        <time>2020-06-11T02:44:34Z</time>
      </trkpt>
      <trkpt lat="46.1734" lon="4.39131">
        <ele>487</ele>
        <time>2020-06-11T02:44:40Z</time>
      </trkpt>
      <trkpt lat="46.17335" lon="4.3915">
        <ele>486</ele>
        <time>2020-06-11T02:44:42Z</time>
      </trkpt>
      <trkpt lat="46.17302" lon="4.39233">
        <ele>491</ele>
        <time>2020-06-11T02:44:54Z</time>
      </trkpt>
      <trkpt lat="46.17288" lon="4.39264">
        <ele>492</ele>
        <time>2020-06-11T02:44:59Z</time>
      </trkpt>
      <trkpt lat="46.17266" lon="4.39306">
        <ele>492</ele>
        <time>2020-06-11T02:45:05Z</time>
      </trkpt>
      <trkpt lat="46.17241" lon="4.39347">
        <ele>491</ele>
        <time>2020-06-11T02:45:12Z</time>
      </trkpt>
      <trkpt lat="46.17204" lon="4.39377">
        <ele>492</ele>
        <time>2020-06-11T02:45:19Z</time>
      </trkpt>
      <trkpt lat="46.17202" lon="4.39382">
        <ele>493</ele>
        <time>2020-06-11T02:45:20Z</time>
      </trkpt>
      <trkpt lat="46.17182" lon="4.39396">
        <ele>492</ele>
        <time>2020-06-11T02:45:24Z</time>
      </trkpt>
      <trkpt lat="46.17141" lon="4.39439">
        <ele>495</ele>
        <time>2020-06-11T02:45:33Z</time>
      </trkpt>
      <trkpt lat="46.17112" lon="4.39479">
        <ele>497</ele>
        <time>2020-06-11T02:45:40Z</time>
      </trkpt>
      <trkpt lat="46.17094" lon="4.39498">
        <ele>497</ele>
        <time>2020-06-11T02:45:44Z</time>
      </trkpt>
      <trkpt lat="46.17045" lon="4.39537">
        <ele>502</ele>
        <time>2020-06-11T02:45:54Z</time>
      </trkpt>
      <trkpt lat="46.1704" lon="4.39544">
        <ele>503</ele>
        <time>2020-06-11T02:45:55Z</time>
      </trkpt>
      <trkpt lat="46.17034" lon="4.3956">
        <ele>503</ele>
        <time>2020-06-11T02:45:58Z</time>
      </trkpt>
      <trkpt lat="46.17027" lon="4.39615">
        <ele>508</ele>
        <time>2020-06-11T02:46:05Z</time>
      </trkpt>
      <trkpt lat="46.17019" lon="4.39631">
        <ele>510</ele>
        <time>2020-06-11T02:46:07Z</time>
      </trkpt>
      <trkpt lat="46.16992" lon="4.39665">
        <ele>511</ele>
        <time>2020-06-11T02:46:13Z</time>
      </trkpt>
      <trkpt lat="46.16986" lon="4.39664">
        <ele>510</ele>
        <time>2020-06-11T02:46:14Z</time>
      </trkpt>
      <trkpt lat="46.16975" lon="4.39666">
        <ele>508</ele>
        <time>2020-06-11T02:46:16Z</time>
      </trkpt>
      <trkpt lat="46.16971" lon="4.3967">
        <ele>508</ele>
        <time>2020-06-11T02:46:17Z</time>
      </trkpt>
      <trkpt lat="46.16962" lon="4.39696">
        <ele>507</ele>
        <time>2020-06-11T02:46:21Z</time>
      </trkpt>
      <trkpt lat="46.1696" lon="4.39714">
        <ele>508</ele>
        <time>2020-06-11T02:46:23Z</time>
      </trkpt>
      <trkpt lat="46.16962" lon="4.3977">
        <ele>510</ele>
        <time>2020-06-11T02:46:30Z</time>
      </trkpt>
      <trkpt lat="46.1696" lon="4.39799">
        <ele>510</ele>
        <time>2020-06-11T02:46:34Z</time>
      </trkpt>
      <trkpt lat="46.16958" lon="4.39817">
        <ele>510</ele>
        <time>2020-06-11T02:46:36Z</time>
      </trkpt>
      <trkpt lat="46.16934" lon="4.3992">
        <ele>508</ele>
        <time>2020-06-11T02:46:49Z</time>
      </trkpt>
      <trkpt lat="46.16907" lon="4.39974">
        <ele>506</ele>
        <time>2020-06-11T02:46:57Z</time>
      </trkpt>
      <trkpt lat="46.169" lon="4.39999">
        <ele>507</ele>
        <time>2020-06-11T02:47:01Z</time>
      </trkpt>
      <trkpt lat="46.16896" lon="4.40035">
        <ele>508</ele>
        <time>2020-06-11T02:47:05Z</time>
      </trkpt>
      <trkpt lat="46.16893" lon="4.40098">
        <ele>510</ele>
        <time>2020-06-11T02:47:13Z</time>
      </trkpt>
      <trkpt lat="46.16887" lon="4.40147">
        <ele>511</ele>
        <time>2020-06-11T02:47:19Z</time>
      </trkpt>
      <trkpt lat="46.16865" lon="4.40243">
        <ele>512</ele>
        <time>2020-06-11T02:47:32Z</time>
      </trkpt>
      <trkpt lat="46.16852" lon="4.40342">
        <ele>515</ele>
        <time>2020-06-11T02:47:44Z</time>
      </trkpt>
      <trkpt lat="46.16844" lon="4.40365">
        <ele>515</ele>
        <time>2020-06-11T02:47:47Z</time>
      </trkpt>
      <trkpt lat="46.16827" lon="4.40403">
        <ele>516</ele>
        <time>2020-06-11T02:47:53Z</time>
      </trkpt>
      <trkpt lat="46.16822" lon="4.40421">
        <ele>516</ele>
        <time>2020-06-11T02:47:55Z</time>
      </trkpt>
      <trkpt lat="46.16821" lon="4.40437">
        <ele>516</ele>
        <time>2020-06-11T02:47:57Z</time>
      </trkpt>
      <trkpt lat="46.16823" lon="4.40461">
        <ele>516</ele>
        <time>2020-06-11T02:48:00Z</time>
      </trkpt>
      <trkpt lat="46.16828" lon="4.40482">
        <ele>517</ele>
        <time>2020-06-11T02:48:03Z</time>
      </trkpt>
      <trkpt lat="46.16794" lon="4.4049">
        <ele>514</ele>
        <time>2020-06-11T02:48:09Z</time>
      </trkpt>
      <trkpt lat="46.16797" lon="4.40608">
        <ele>514</ele>
        <time>2020-06-11T02:48:24Z</time>
      </trkpt>
      <trkpt lat="46.16795" lon="4.40623">
        <ele>514</ele>
        <time>2020-06-11T02:48:25Z</time>
      </trkpt>
      <trkpt lat="46.16792" lon="4.40627">
        <ele>514</ele>
        <time>2020-06-11T02:48:26Z</time>
      </trkpt>
      <trkpt lat="46.16781" lon="4.40636">
        <ele>515</ele>
        <time>2020-06-11T02:48:28Z</time>
      </trkpt>
      <trkpt lat="46.16751" lon="4.40648">
        <ele>516</ele>
        <time>2020-06-11T02:48:34Z</time>
      </trkpt>
      <trkpt lat="46.16739" lon="4.40657">
        <ele>516</ele>
        <time>2020-06-11T02:48:36Z</time>
      </trkpt>
      <trkpt lat="46.16731" lon="4.40667">
        <ele>516</ele>
        <time>2020-06-11T02:48:38Z</time>
      </trkpt>
      <trkpt lat="46.16727" lon="4.40678">
        <ele>517</ele>
        <time>2020-06-11T02:48:40Z</time>
      </trkpt>
      <trkpt lat="46.16715" lon="4.40695">
        <ele>518</ele>
        <time>2020-06-11T02:48:43Z</time>
      </trkpt>
      <trkpt lat="46.16706" lon="4.40714">
        <ele>519</ele>
        <time>2020-06-11T02:48:46Z</time>
      </trkpt>
      <trkpt lat="46.16701" lon="4.40727">
        <ele>519</ele>
        <time>2020-06-11T02:48:47Z</time>
      </trkpt>
      <trkpt lat="46.16696" lon="4.40756">
        <ele>521</ele>
        <time>2020-06-11T02:48:51Z</time>
      </trkpt>
      <trkpt lat="46.16686" lon="4.40903">
        <ele>528</ele>
        <time>2020-06-11T02:49:09Z</time>
      </trkpt>
      <trkpt lat="46.16691" lon="4.40948">
        <ele>531</ele>
        <time>2020-06-11T02:49:15Z</time>
      </trkpt>
      <trkpt lat="46.16699" lon="4.40949">
        <ele>532</ele>
        <time>2020-06-11T02:49:16Z</time>
      </trkpt>
      <trkpt lat="46.16712" lon="4.40946">
        <ele>533</ele>
        <time>2020-06-11T02:49:19Z</time>
      </trkpt>
      <trkpt lat="46.16717" lon="4.40947">
        <ele>533</ele>
        <time>2020-06-11T02:49:20Z</time>
      </trkpt>
      <trkpt lat="46.16744" lon="4.40973">
        <ele>537</ele>
        <time>2020-06-11T02:49:25Z</time>
      </trkpt>
      <trkpt lat="46.16753" lon="4.4098">
        <ele>538</ele>
        <time>2020-06-11T02:49:27Z</time>
      </trkpt>
      <trkpt lat="46.168" lon="4.40996">
        <ele>543</ele>
        <time>2020-06-11T02:49:36Z</time>
      </trkpt>
      <trkpt lat="46.1681" lon="4.41002">
        <ele>545</ele>
        <time>2020-06-11T02:49:38Z</time>
      </trkpt>
      <trkpt lat="46.16859" lon="4.41044">
        <ele>549</ele>
        <time>2020-06-11T02:49:48Z</time>
      </trkpt>
      <trkpt lat="46.16866" lon="4.41055">
        <ele>549</ele>
        <time>2020-06-11T02:49:50Z</time>
      </trkpt>
      <trkpt lat="46.16866" lon="4.41063">
        <ele>549</ele>
        <time>2020-06-11T02:49:51Z</time>
      </trkpt>
      <trkpt lat="46.16875" lon="4.41073">
        <ele>550</ele>
        <time>2020-06-11T02:49:53Z</time>
      </trkpt>
      <trkpt lat="46.16878" lon="4.41082">
        <ele>550</ele>
        <time>2020-06-11T02:49:54Z</time>
      </trkpt>
      <trkpt lat="46.1688" lon="4.41098">
        <ele>550</ele>
        <time>2020-06-11T02:49:56Z</time>
      </trkpt>
      <trkpt lat="46.16873" lon="4.41136">
        <ele>551</ele>
        <time>2020-06-11T02:50:01Z</time>
      </trkpt>
      <trkpt lat="46.16872" lon="4.4117">
        <ele>551</ele>
        <time>2020-06-11T02:50:05Z</time>
      </trkpt>
      <trkpt lat="46.16865" lon="4.41211">
        <ele>552</ele>
        <time>2020-06-11T02:50:10Z</time>
      </trkpt>
      <trkpt lat="46.16864" lon="4.41224">
        <ele>552</ele>
        <time>2020-06-11T02:50:12Z</time>
      </trkpt>
      <trkpt lat="46.16865" lon="4.4124">
        <ele>552</ele>
        <time>2020-06-11T02:50:14Z</time>
      </trkpt>
      <trkpt lat="46.16854" lon="4.41259">
        <ele>553</ele>
        <time>2020-06-11T02:50:17Z</time>
      </trkpt>
      <trkpt lat="46.16831" lon="4.41354">
        <ele>558</ele>
        <time>2020-06-11T02:50:29Z</time>
      </trkpt>
      <trkpt lat="46.16825" lon="4.41364">
        <ele>559</ele>
        <time>2020-06-11T02:50:31Z</time>
      </trkpt>
      <trkpt lat="46.16814" lon="4.41369">
        <ele>559</ele>
        <time>2020-06-11T02:50:33Z</time>
      </trkpt>
      <trkpt lat="46.16807" lon="4.4137">
        <ele>560</ele>
        <time>2020-06-11T02:50:34Z</time>
      </trkpt>
      <trkpt lat="46.16766" lon="4.41356">
        <ele>560</ele>
        <time>2020-06-11T02:50:42Z</time>
      </trkpt>
      <trkpt lat="46.16747" lon="4.41351">
        <ele>560</ele>
        <time>2020-06-11T02:50:45Z</time>
      </trkpt>
      <trkpt lat="46.16724" lon="4.4135">
        <ele>561</ele>
        <time>2020-06-11T02:50:49Z</time>
      </trkpt>
      <trkpt lat="46.16654" lon="4.41365">
        <ele>566</ele>
        <time>2020-06-11T02:51:02Z</time>
      </trkpt>
      <trkpt lat="46.16638" lon="4.41375">
        <ele>567</ele>
        <time>2020-06-11T02:51:05Z</time>
      </trkpt>
      <trkpt lat="46.16577" lon="4.41429">
        <ele>577</ele>
        <time>2020-06-11T02:51:18Z</time>
      </trkpt>
      <trkpt lat="46.16388" lon="4.41549">
        <ele>583</ele>
        <time>2020-06-11T02:51:54Z</time>
      </trkpt>
      <trkpt lat="46.16329" lon="4.41596">
        <ele>586</ele>
        <time>2020-06-11T02:52:06Z</time>
      </trkpt>
      <trkpt lat="46.16271" lon="4.41667">
        <ele>592</ele>
        <time>2020-06-11T02:52:20Z</time>
      </trkpt>
      <trkpt lat="46.16195" lon="4.41776">
        <ele>600</ele>
        <time>2020-06-11T02:52:39Z</time>
      </trkpt>
      <trkpt lat="46.1618" lon="4.41824">
        <ele>603</ele>
        <time>2020-06-11T02:52:45Z</time>
      </trkpt>
      <trkpt lat="46.16173" lon="4.41894">
        <ele>606</ele>
        <time>2020-06-11T02:52:54Z</time>
      </trkpt>
      <trkpt lat="46.1617" lon="4.41987">
        <ele>611</ele>
        <time>2020-06-11T02:53:06Z</time>
      </trkpt>
      <trkpt lat="46.16158" lon="4.42023">
        <ele>613</ele>
        <time>2020-06-11T02:53:10Z</time>
      </trkpt>
      <trkpt lat="46.16128" lon="4.42055">
        <ele>615</ele>
        <time>2020-06-11T02:53:17Z</time>
      </trkpt>
      <trkpt lat="46.15864" lon="4.42294">
        <ele>629</ele>
        <time>2020-06-11T02:54:13Z</time>
      </trkpt>
      <trkpt lat="46.15819" lon="4.4233">
        <ele>631</ele>
        <time>2020-06-11T02:54:22Z</time>
      </trkpt>
      <trkpt lat="46.15812" lon="4.42343">
        <ele>633</ele>
        <time>2020-06-11T02:54:24Z</time>
      </trkpt>
      <trkpt lat="46.15811" lon="4.42357">
        <ele>635</ele>
        <time>2020-06-11T02:54:25Z</time>
      </trkpt>
      <trkpt lat="46.15815" lon="4.42371">
        <ele>637</ele>
        <time>2020-06-11T02:54:27Z</time>
      </trkpt>
      <trkpt lat="46.15823" lon="4.42381">
        <ele>638</ele>
        <time>2020-06-11T02:54:29Z</time>
      </trkpt>
      <trkpt lat="46.15833" lon="4.42385">
        <ele>638</ele>
        <time>2020-06-11T02:54:31Z</time>
      </trkpt>
      <trkpt lat="46.15872" lon="4.42387">
        <ele>644</ele>
        <time>2020-06-11T02:54:38Z</time>
      </trkpt>
      <trkpt lat="46.15898" lon="4.42384">
        <ele>647</ele>
        <time>2020-06-11T02:54:43Z</time>
      </trkpt>
      <trkpt lat="46.16027" lon="4.42341">
        <ele>643</ele>
        <time>2020-06-11T02:55:06Z</time>
      </trkpt>
      <trkpt lat="46.16103" lon="4.42377">
        <ele>646</ele>
        <time>2020-06-11T02:55:20Z</time>
      </trkpt>
      <trkpt lat="46.16161" lon="4.42394">
        <ele>647</ele>
        <time>2020-06-11T02:55:31Z</time>
      </trkpt>
      <trkpt lat="46.16222" lon="4.42394">
        <ele>650</ele>
        <time>2020-06-11T02:55:42Z</time>
      </trkpt>
      <trkpt lat="46.16263" lon="4.42387">
        <ele>651</ele>
        <time>2020-06-11T02:55:49Z</time>
      </trkpt>
      <trkpt lat="46.16273" lon="4.42389">
        <ele>652</ele>
        <time>2020-06-11T02:55:51Z</time>
      </trkpt>
      <trkpt lat="46.16284" lon="4.42394">
        <ele>653</ele>
        <time>2020-06-11T02:55:53Z</time>
      </trkpt>
      <trkpt lat="46.1629" lon="4.424">
        <ele>653</ele>
        <time>2020-06-11T02:55:54Z</time>
      </trkpt>
      <trkpt lat="46.16293" lon="4.42407">
        <ele>654</ele>
        <time>2020-06-11T02:55:55Z</time>
      </trkpt>
      <trkpt lat="46.16293" lon="4.42423">
        <ele>656</ele>
        <time>2020-06-11T02:55:57Z</time>
      </trkpt>
      <trkpt lat="46.16288" lon="4.42437">
        <ele>657</ele>
        <time>2020-06-11T02:55:59Z</time>
      </trkpt>
      <trkpt lat="46.16278" lon="4.42449">
        <ele>657</ele>
        <time>2020-06-11T02:56:02Z</time>
      </trkpt>
      <trkpt lat="46.16266" lon="4.42456">
        <ele>658</ele>
        <time>2020-06-11T02:56:04Z</time>
      </trkpt>
      <trkpt lat="46.16098" lon="4.42525">
        <ele>666</ele>
        <time>2020-06-11T02:56:35Z</time>
      </trkpt>
      <trkpt lat="46.16072" lon="4.42532">
        <ele>666</ele>
        <time>2020-06-11T02:56:40Z</time>
      </trkpt>
      <trkpt lat="46.16042" lon="4.4257">
        <ele>669</ele>
        <time>2020-06-11T02:56:47Z</time>
      </trkpt>
      <trkpt lat="46.16006" lon="4.42635">
        <ele>671</ele>
        <time>2020-06-11T02:56:57Z</time>
      </trkpt>
      <trkpt lat="46.15871" lon="4.4289">
        <ele>684</ele>
        <time>2020-06-11T02:57:37Z</time>
      </trkpt>
      <trkpt lat="46.15862" lon="4.42903">
        <ele>685</ele>
        <time>2020-06-11T02:57:39Z</time>
      </trkpt>
      <trkpt lat="46.15782" lon="4.42961">
        <ele>694</ele>
        <time>2020-06-11T02:57:55Z</time>
      </trkpt>
      <trkpt lat="46.15715" lon="4.43012">
        <ele>704</ele>
        <time>2020-06-11T02:58:08Z</time>
      </trkpt>
      <trkpt lat="46.15694" lon="4.43023">
        <ele>705</ele>
        <time>2020-06-11T02:58:12Z</time>
      </trkpt>
      <trkpt lat="46.1567" lon="4.43023">
        <ele>704</ele>
        <time>2020-06-11T02:58:16Z</time>
      </trkpt>
      <trkpt lat="46.15637" lon="4.43009">
        <ele>703</ele>
        <time>2020-06-11T02:58:23Z</time>
      </trkpt>
      <trkpt lat="46.15607" lon="4.43005">
        <ele>703</ele>
        <time>2020-06-11T02:58:28Z</time>
      </trkpt>
      <trkpt lat="46.15579" lon="4.43011">
        <ele>704</ele>
        <time>2020-06-11T02:58:33Z</time>
      </trkpt>
      <trkpt lat="46.15497" lon="4.43038">
        <ele>703</ele>
        <time>2020-06-11T02:58:48Z</time>
      </trkpt>
      <trkpt lat="46.1549" lon="4.43043">
        <ele>702</ele>
        <time>2020-06-11T02:58:49Z</time>
      </trkpt>
      <trkpt lat="46.15474" lon="4.43111">
        <ele>699</ele>
        <time>2020-06-11T02:58:58Z</time>
      </trkpt>
      <trkpt lat="46.15463" lon="4.43137">
        <ele>698</ele>
        <time>2020-06-11T02:59:02Z</time>
      </trkpt>
      <trkpt lat="46.15451" lon="4.43158">
        <ele>697</ele>
        <time>2020-06-11T02:59:05Z</time>
      </trkpt>
      <trkpt lat="46.1544" lon="4.4336">
        <ele>689</ele>
        <time>2020-06-11T02:59:30Z</time>
      </trkpt>
      <trkpt lat="46.15447" lon="4.43456">
        <ele>686</ele>
        <time>2020-06-11T02:59:42Z</time>
      </trkpt>
      <trkpt lat="46.15456" lon="4.43487">
        <ele>682</ele>
        <time>2020-06-11T02:59:46Z</time>
      </trkpt>
      <trkpt lat="46.1547" lon="4.43507">
        <ele>679</ele>
        <time>2020-06-11T02:59:50Z</time>
      </trkpt>
      <trkpt lat="46.1551" lon="4.43535">
        <ele>674</ele>
        <time>2020-06-11T02:59:58Z</time>
      </trkpt>
      <trkpt lat="46.1554" lon="4.43541">
        <ele>672</ele>
        <time>2020-06-11T03:00:03Z</time>
      </trkpt>
      <trkpt lat="46.15565" lon="4.43555">
        <ele>669</ele>
        <time>2020-06-11T03:00:08Z</time>
      </trkpt>
      <trkpt lat="46.15593" lon="4.43573">
        <ele>667</ele>
        <time>2020-06-11T03:00:13Z</time>
      </trkpt>
      <trkpt lat="46.15626" lon="4.43614">
        <ele>664</ele>
        <time>2020-06-11T03:00:21Z</time>
      </trkpt>
      <trkpt lat="46.15639" lon="4.43647">
        <ele>661</ele>
        <time>2020-06-11T03:00:26Z</time>
      </trkpt>
      <trkpt lat="46.15642" lon="4.43675">
        <ele>658</ele>
        <time>2020-06-11T03:00:29Z</time>
      </trkpt>
      <trkpt lat="46.15634" lon="4.43767">
        <ele>652</ele>
        <time>2020-06-11T03:00:41Z</time>
      </trkpt>
      <trkpt lat="46.15625" lon="4.43828">
        <ele>650</ele>
        <time>2020-06-11T03:00:48Z</time>
      </trkpt>
      <trkpt lat="46.15621" lon="4.43888">
        <ele>651</ele>
        <time>2020-06-11T03:00:56Z</time>
      </trkpt>
      <trkpt lat="46.15624" lon="4.43935">
        <ele>651</ele>
        <time>2020-06-11T03:01:02Z</time>
      </trkpt>
      <trkpt lat="46.15634" lon="4.44001">
        <ele>650</ele>
        <time>2020-06-11T03:01:10Z</time>
      </trkpt>
      <trkpt lat="46.15601" lon="4.4401">
        <ele>646</ele>
        <time>2020-06-11T03:01:16Z</time>
      </trkpt>
      <trkpt lat="46.15206" lon="4.44197">
        <ele>625</ele>
        <time>2020-06-11T03:02:30Z</time>
      </trkpt>
      <trkpt lat="46.14509" lon="4.4452">
        <ele>599</ele>
        <time>2020-06-11T03:04:40Z</time>
      </trkpt>
      <trkpt lat="46.14339" lon="4.44577">
        <ele>593</ele>
        <time>2020-06-11T03:05:11Z</time>
      </trkpt>
      <trkpt lat="46.1423" lon="4.44604">
        <ele>586</ele>
        <time>2020-06-11T03:05:31Z</time>
      </trkpt>
      <trkpt lat="46.14196" lon="4.44615">
        <ele>583</ele>
        <time>2020-06-11T03:05:37Z</time>
      </trkpt>
      <trkpt lat="46.13993" lon="4.44697">
        <ele>571</ele>
        <time>2020-06-11T03:06:15Z</time>
      </trkpt>
      <trkpt lat="46.13923" lon="4.4473">
        <ele>565</ele>
        <time>2020-06-11T03:06:28Z</time>
      </trkpt>
      <trkpt lat="46.13834" lon="4.44805">
        <ele>563</ele>
        <time>2020-06-11T03:06:46Z</time>
      </trkpt>
      <trkpt lat="46.13733" lon="4.44856">
        <ele>555</ele>
        <time>2020-06-11T03:07:05Z</time>
      </trkpt>
      <trkpt lat="46.13657" lon="4.44929">
        <ele>553</ele>
        <time>2020-06-11T03:07:21Z</time>
      </trkpt>
      <trkpt lat="46.13572" lon="4.45039">
        <ele>546</ele>
        <time>2020-06-11T03:07:42Z</time>
      </trkpt>
      <trkpt lat="46.13524" lon="4.4508">
        <ele>544</ele>
        <time>2020-06-11T03:07:52Z</time>
      </trkpt>
      <trkpt lat="46.13462" lon="4.45147">
        <ele>543</ele>
        <time>2020-06-11T03:08:05Z</time>
      </trkpt>
      <trkpt lat="46.13432" lon="4.45193">
        <ele>542</ele>
        <time>2020-06-11T03:08:13Z</time>
      </trkpt>
      <trkpt lat="46.13389" lon="4.45302">
        <ele>543</ele>
        <time>2020-06-11T03:08:29Z</time>
      </trkpt>
      <trkpt lat="46.13377" lon="4.45346">
        <ele>543</ele>
        <time>2020-06-11T03:08:34Z</time>
      </trkpt>
      <trkpt lat="46.13334" lon="4.45436">
        <ele>538</ele>
        <time>2020-06-11T03:08:48Z</time>
      </trkpt>
      <trkpt lat="46.13302" lon="4.45484">
        <ele>533</ele>
        <time>2020-06-11T03:08:56Z</time>
      </trkpt>
      <trkpt lat="46.13203" lon="4.45608">
        <ele>529</ele>
        <time>2020-06-11T03:09:19Z</time>
      </trkpt>
      <trkpt lat="46.13116" lon="4.45707">
        <ele>522</ele>
        <time>2020-06-11T03:09:39Z</time>
      </trkpt>
      <trkpt lat="46.1308" lon="4.45752">
        <ele>520</ele>
        <time>2020-06-11T03:09:48Z</time>
      </trkpt>
      <trkpt lat="46.13052" lon="4.45799">
        <ele>519</ele>
        <time>2020-06-11T03:09:55Z</time>
      </trkpt>
      <trkpt lat="46.12997" lon="4.4591">
        <ele>515</ele>
        <time>2020-06-11T03:10:12Z</time>
      </trkpt>
      <trkpt lat="46.12908" lon="4.46065">
        <ele>509</ele>
        <time>2020-06-11T03:10:37Z</time>
      </trkpt>
      <trkpt lat="46.12874" lon="4.46108">
        <ele>507</ele>
        <time>2020-06-11T03:10:45Z</time>
      </trkpt>
      <trkpt lat="46.1284" lon="4.46161">
        <ele>503</ele>
        <time>2020-06-11T03:10:54Z</time>
      </trkpt>
      <trkpt lat="46.12797" lon="4.46267">
        <ele>503</ele>
        <time>2020-06-11T03:11:09Z</time>
      </trkpt>
      <trkpt lat="46.12765" lon="4.46354">
        <ele>500</ele>
        <time>2020-06-11T03:11:21Z</time>
      </trkpt>
      <trkpt lat="46.12752" lon="4.46405">
        <ele>499</ele>
        <time>2020-06-11T03:11:28Z</time>
      </trkpt>
      <trkpt lat="46.12741" lon="4.46461">
        <ele>497</ele>
        <time>2020-06-11T03:11:35Z</time>
      </trkpt>
      <trkpt lat="46.12733" lon="4.4656">
        <ele>492</ele>
        <time>2020-06-11T03:11:47Z</time>
      </trkpt>
      <trkpt lat="46.1273" lon="4.46576">
        <ele>492</ele>
        <time>2020-06-11T03:11:49Z</time>
      </trkpt>
      <trkpt lat="46.1272" lon="4.46601">
        <ele>493</ele>
        <time>2020-06-11T03:11:53Z</time>
      </trkpt>
      <trkpt lat="46.12688" lon="4.46674">
        <ele>497</ele>
        <time>2020-06-11T03:12:04Z</time>
      </trkpt>
      <trkpt lat="46.12603" lon="4.46852">
        <ele>494</ele>
        <time>2020-06-11T03:12:30Z</time>
      </trkpt>
      <trkpt lat="46.12583" lon="4.46886">
        <ele>491</ele>
        <time>2020-06-11T03:12:36Z</time>
      </trkpt>
      <trkpt lat="46.12561" lon="4.46909">
        <ele>487</ele>
        <time>2020-06-11T03:12:41Z</time>
      </trkpt>
      <trkpt lat="46.12538" lon="4.4692">
        <ele>486</ele>
        <time>2020-06-11T03:12:45Z</time>
      </trkpt>
      <trkpt lat="46.12514" lon="4.46923">
        <ele>486</ele>
        <time>2020-06-11T03:12:49Z</time>
      </trkpt>
      <trkpt lat="46.12495" lon="4.46919">
        <ele>487</ele>
        <time>2020-06-11T03:12:53Z</time>
      </trkpt>
      <trkpt lat="46.12471" lon="4.46904">
        <ele>486</ele>
        <time>2020-06-11T03:12:57Z</time>
      </trkpt>
      <trkpt lat="46.12452" lon="4.46877">
        <ele>485</ele>
        <time>2020-06-11T03:13:02Z</time>
      </trkpt>
      <trkpt lat="46.12438" lon="4.46848">
        <ele>482</ele>
        <time>2020-06-11T03:13:06Z</time>
      </trkpt>
      <trkpt lat="46.12431" lon="4.46817">
        <ele>482</ele>
        <time>2020-06-11T03:13:10Z</time>
      </trkpt>
      <trkpt lat="46.12424" lon="4.46736">
        <ele>487</ele>
        <time>2020-06-11T03:13:20Z</time>
      </trkpt>
      <trkpt lat="46.12409" lon="4.46686">
        <ele>492</ele>
        <time>2020-06-11T03:13:27Z</time>
      </trkpt>
      <trkpt lat="46.12394" lon="4.46665">
        <ele>491</ele>
        <time>2020-06-11T03:13:31Z</time>
      </trkpt>
      <trkpt lat="46.12381" lon="4.4665">
        <ele>492</ele>
        <time>2020-06-11T03:13:34Z</time>
      </trkpt>
      <trkpt lat="46.12349" lon="4.46631">
        <ele>491</ele>
        <time>2020-06-11T03:13:40Z</time>
      </trkpt>
      <trkpt lat="46.12325" lon="4.46632">
        <ele>487</ele>
        <time>2020-06-11T03:13:44Z</time>
      </trkpt>
      <trkpt lat="46.12319" lon="4.46646">
        <ele>482</ele>
        <time>2020-06-11T03:13:46Z</time>
      </trkpt>
      <trkpt lat="46.12305" lon="4.46672">
        <ele>476</ele>
        <time>2020-06-11T03:13:50Z</time>
      </trkpt>
      <trkpt lat="46.12319" lon="4.46646">
        <ele>482</ele>
        <time>2020-06-11T03:13:54Z</time>
      </trkpt>
      <trkpt lat="46.12325" lon="4.46632">
        <ele>487</ele>
        <time>2020-06-11T03:13:56Z</time>
      </trkpt>
      <trkpt lat="46.1232" lon="4.46623">
        <ele>489</ele>
        <time>2020-06-11T03:13:58Z</time>
      </trkpt>
      <trkpt lat="46.1231" lon="4.4661">
        <ele>492</ele>
        <time>2020-06-11T03:14:00Z</time>
      </trkpt>
      <trkpt lat="46.1228" lon="4.4659">
        <ele>493</ele>
        <time>2020-06-11T03:14:06Z</time>
      </trkpt>
      <trkpt lat="46.12225" lon="4.46593">
        <ele>487</ele>
        <time>2020-06-11T03:14:16Z</time>
      </trkpt>
      <trkpt lat="46.12158" lon="4.46592">
        <ele>485</ele>
        <time>2020-06-11T03:14:28Z</time>
      </trkpt>
      <trkpt lat="46.12109" lon="4.46609">
        <ele>489</ele>
        <time>2020-06-11T03:14:37Z</time>
      </trkpt>
      <trkpt lat="46.12063" lon="4.4663">
        <ele>487</ele>
        <time>2020-06-11T03:14:45Z</time>
      </trkpt>
      <trkpt lat="46.12014" lon="4.46646">
        <ele>481</ele>
        <time>2020-06-11T03:14:54Z</time>
      </trkpt>
      <trkpt lat="46.1198" lon="4.46642">
        <ele>482</ele>
        <time>2020-06-11T03:15:00Z</time>
      </trkpt>
      <trkpt lat="46.1194" lon="4.4664">
        <ele>483</ele>
        <time>2020-06-11T03:15:08Z</time>
      </trkpt>
      <trkpt lat="46.11867" lon="4.46642">
        <ele>483</ele>
        <time>2020-06-11T03:15:21Z</time>
      </trkpt>
      <trkpt lat="46.11702" lon="4.46679">
        <ele>476</ele>
        <time>2020-06-11T03:15:50Z</time>
      </trkpt>
      <trkpt lat="46.11592" lon="4.46682">
        <ele>471</ele>
        <time>2020-06-11T03:16:10Z</time>
      </trkpt>
      <trkpt lat="46.11557" lon="4.46673">
        <ele>470</ele>
        <time>2020-06-11T03:16:16Z</time>
      </trkpt>
      <trkpt lat="46.11523" lon="4.46655">
        <ele>469</ele>
        <time>2020-06-11T03:16:23Z</time>
      </trkpt>
      <trkpt lat="46.11503" lon="4.46642">
        <ele>469</ele>
        <time>2020-06-11T03:16:26Z</time>
      </trkpt>
      <trkpt lat="46.1142" lon="4.46561">
        <ele>468</ele>
        <time>2020-06-11T03:16:44Z</time>
      </trkpt>
      <trkpt lat="46.11398" lon="4.46549">
        <ele>469</ele>
        <time>2020-06-11T03:16:49Z</time>
      </trkpt>
      <trkpt lat="46.11373" lon="4.46545">
        <ele>467</ele>
        <time>2020-06-11T03:16:53Z</time>
      </trkpt>
      <trkpt lat="46.11338" lon="4.46545">
        <ele>464</ele>
        <time>2020-06-11T03:16:59Z</time>
      </trkpt>
      <trkpt lat="46.11306" lon="4.46549">
        <ele>466</ele>
        <time>2020-06-11T03:17:05Z</time>
      </trkpt>
      <trkpt lat="46.11264" lon="4.46567">
        <ele>464</ele>
        <time>2020-06-11T03:17:13Z</time>
      </trkpt>
      <trkpt lat="46.11075" lon="4.46679">
        <ele>461</ele>
        <time>2020-06-11T03:17:49Z</time>
      </trkpt>
      <trkpt lat="46.11063" lon="4.46684">
        <ele>462</ele>
        <time>2020-06-11T03:17:51Z</time>
      </trkpt>
      <trkpt lat="46.10988" lon="4.46695">
        <ele>465</ele>
        <time>2020-06-11T03:18:05Z</time>
      </trkpt>
      <trkpt lat="46.10973" lon="4.467">
        <ele>466</ele>
        <time>2020-06-11T03:18:07Z</time>
      </trkpt>
      <trkpt lat="46.10936" lon="4.46719">
        <ele>465</ele>
        <time>2020-06-11T03:18:14Z</time>
      </trkpt>
      <trkpt lat="46.10788" lon="4.46828">
        <ele>453</ele>
        <time>2020-06-11T03:18:44Z</time>
      </trkpt>
      <trkpt lat="46.10751" lon="4.46836">
        <ele>453</ele>
        <time>2020-06-11T03:18:51Z</time>
      </trkpt>
      <trkpt lat="46.10689" lon="4.46838">
        <ele>451</ele>
        <time>2020-06-11T03:19:02Z</time>
      </trkpt>
      <trkpt lat="46.10639" lon="4.46828">
        <ele>450</ele>
        <time>2020-06-11T03:19:11Z</time>
      </trkpt>
      <trkpt lat="46.10514" lon="4.46795">
        <ele>448</ele>
        <time>2020-06-11T03:19:33Z</time>
      </trkpt>
      <trkpt lat="46.1046" lon="4.46802">
        <ele>450</ele>
        <time>2020-06-11T03:19:43Z</time>
      </trkpt>
      <trkpt lat="46.10399" lon="4.46827">
        <ele>452</ele>
        <time>2020-06-11T03:19:54Z</time>
      </trkpt>
      <trkpt lat="46.10299" lon="4.46887">
        <ele>449</ele>
        <time>2020-06-11T03:20:13Z</time>
      </trkpt>
      <trkpt lat="46.102" lon="4.46969">
        <ele>449</ele>
        <time>2020-06-11T03:20:34Z</time>
      </trkpt>
      <trkpt lat="46.1003" lon="4.47096">
        <ele>440</ele>
        <time>2020-06-11T03:21:08Z</time>
      </trkpt>
      <trkpt lat="46.10006" lon="4.47113">
        <ele>439</ele>
        <time>2020-06-11T03:21:13Z</time>
      </trkpt>
      <trkpt lat="46.09981" lon="4.47125">
        <ele>438</ele>
        <time>2020-06-11T03:21:17Z</time>
      </trkpt>
      <trkpt lat="46.09949" lon="4.47137">
        <ele>437</ele>
        <time>2020-06-11T03:21:23Z</time>
      </trkpt>
      <trkpt lat="46.09914" lon="4.47144">
        <ele>436</ele>
        <time>2020-06-11T03:21:29Z</time>
      </trkpt>
      <trkpt lat="46.09865" lon="4.4715">
        <ele>437</ele>
        <time>2020-06-11T03:21:38Z</time>
      </trkpt>
      <trkpt lat="46.09825" lon="4.47144">
        <ele>439</ele>
        <time>2020-06-11T03:21:45Z</time>
      </trkpt>
      <trkpt lat="46.09757" lon="4.47123">
        <ele>439</ele>
        <time>2020-06-11T03:21:58Z</time>
      </trkpt>
      <trkpt lat="46.09667" lon="4.4709">
        <ele>435</ele>
        <time>2020-06-11T03:22:14Z</time>
      </trkpt>
      <trkpt lat="46.09634" lon="4.47074">
        <ele>436</ele>
        <time>2020-06-11T03:22:20Z</time>
      </trkpt>
      <trkpt lat="46.09592" lon="4.47065">
        <ele>437</ele>
        <time>2020-06-11T03:22:28Z</time>
      </trkpt>
      <trkpt lat="46.0956" lon="4.47066">
        <ele>438</ele>
        <time>2020-06-11T03:22:34Z</time>
      </trkpt>
      <trkpt lat="46.09502" lon="4.47089">
        <ele>437</ele>
        <time>2020-06-11T03:22:44Z</time>
      </trkpt>
      <trkpt lat="46.09441" lon="4.47131">
        <ele>434</ele>
        <time>2020-06-11T03:22:56Z</time>
      </trkpt>
      <trkpt lat="46.09392" lon="4.47172">
        <ele>431</ele>
        <time>2020-06-11T03:23:07Z</time>
      </trkpt>
      <trkpt lat="46.0933" lon="4.47216">
        <ele>432</ele>
        <time>2020-06-11T03:23:19Z</time>
      </trkpt>
      <trkpt lat="46.09252" lon="4.47278">
        <ele>428</ele>
        <time>2020-06-11T03:23:35Z</time>
      </trkpt>
      <trkpt lat="46.09098" lon="4.47407">
        <ele>425</ele>
        <time>2020-06-11T03:24:06Z</time>
      </trkpt>
      <trkpt lat="46.09061" lon="4.47452">
        <ele>426</ele>
        <time>2020-06-11T03:24:15Z</time>
      </trkpt>
      <trkpt lat="46.09035" lon="4.47487">
        <ele>426</ele>
        <time>2020-06-11T03:24:21Z</time>
      </trkpt>
      <trkpt lat="46.08985" lon="4.47568">
        <ele>424</ele>
        <time>2020-06-11T03:24:35Z</time>
      </trkpt>
      <trkpt lat="46.08929" lon="4.47653">
        <ele>420</ele>
        <time>2020-06-11T03:24:49Z</time>
      </trkpt>
      <trkpt lat="46.08879" lon="4.47725">
        <ele>423</ele>
        <time>2020-06-11T03:25:02Z</time>
      </trkpt>
      <trkpt lat="46.08856" lon="4.47755">
        <ele>423</ele>
        <time>2020-06-11T03:25:07Z</time>
      </trkpt>
      <trkpt lat="46.08786" lon="4.47836">
        <ele>424</ele>
        <time>2020-06-11T03:25:23Z</time>
      </trkpt>
      <trkpt lat="46.08753" lon="4.47885">
        <ele>423</ele>
        <time>2020-06-11T03:25:32Z</time>
      </trkpt>
      <trkpt lat="46.08737" lon="4.47916">
        <ele>421</ele>
        <time>2020-06-11T03:25:36Z</time>
      </trkpt>
      <trkpt lat="46.08701" lon="4.48016">
        <ele>418</ele>
        <time>2020-06-11T03:25:50Z</time>
      </trkpt>
      <trkpt lat="46.08691" lon="4.48038">
        <ele>419</ele>
        <time>2020-06-11T03:25:54Z</time>
      </trkpt>
      <trkpt lat="46.0868" lon="4.48059">
        <ele>419</ele>
        <time>2020-06-11T03:25:57Z</time>
      </trkpt>
      <trkpt lat="46.08664" lon="4.48081">
        <ele>419</ele>
        <time>2020-06-11T03:26:01Z</time>
      </trkpt>
      <trkpt lat="46.08635" lon="4.48111">
        <ele>419</ele>
        <time>2020-06-11T03:26:07Z</time>
      </trkpt>
      <trkpt lat="46.08566" lon="4.48172">
        <ele>417</ele>
        <time>2020-06-11T03:26:22Z</time>
      </trkpt>
      <trkpt lat="46.08519" lon="4.48218">
        <ele>415</ele>
        <time>2020-06-11T03:26:32Z</time>
      </trkpt>
      <trkpt lat="46.0851" lon="4.48226">
        <ele>415</ele>
        <time>2020-06-11T03:26:33Z</time>
      </trkpt>
      <trkpt lat="46.08498" lon="4.48231">
        <ele>415</ele>
        <time>2020-06-11T03:26:36Z</time>
      </trkpt>
      <trkpt lat="46.08471" lon="4.48235">
        <ele>415</ele>
        <time>2020-06-11T03:26:41Z</time>
      </trkpt>
      <trkpt lat="46.08415" lon="4.48236">
        <ele>415</ele>
        <time>2020-06-11T03:26:51Z</time>
      </trkpt>
      <trkpt lat="46.08393" lon="4.48239">
        <ele>414</ele>
        <time>2020-06-11T03:26:54Z</time>
      </trkpt>
      <trkpt lat="46.0826" lon="4.4828">
        <ele>409</ele>
        <time>2020-06-11T03:27:19Z</time>
      </trkpt>
      <trkpt lat="46.08137" lon="4.48292">
        <ele>412</ele>
        <time>2020-06-11T03:27:41Z</time>
      </trkpt>
      <trkpt lat="46.08097" lon="4.48303">
        <ele>412</ele>
        <time>2020-06-11T03:27:48Z</time>
      </trkpt>
      <trkpt lat="46.08063" lon="4.48321">
        <ele>411</ele>
        <time>2020-06-11T03:27:54Z</time>
      </trkpt>
      <trkpt lat="46.08006" lon="4.48366">
        <ele>411</ele>
        <time>2020-06-11T03:28:06Z</time>
      </trkpt>
      <trkpt lat="46.07973" lon="4.48407">
        <ele>412</ele>
        <time>2020-06-11T03:28:14Z</time>
      </trkpt>
      <trkpt lat="46.07955" lon="4.48437">
        <ele>414</ele>
        <time>2020-06-11T03:28:18Z</time>
      </trkpt>
      <trkpt lat="46.07904" lon="4.48558">
        <ele>411</ele>
        <time>2020-06-11T03:28:36Z</time>
      </trkpt>
      <trkpt lat="46.07888" lon="4.48587">
        <ele>411</ele>
        <time>2020-06-11T03:28:41Z</time>
      </trkpt>
      <trkpt lat="46.07869" lon="4.4861">
        <ele>411</ele>
        <time>2020-06-11T03:28:45Z</time>
      </trkpt>
      <trkpt lat="46.07685" lon="4.4879">
        <ele>404</ele>
        <time>2020-06-11T03:29:25Z</time>
      </trkpt>
      <trkpt lat="46.07521" lon="4.48976">
        <ele>401</ele>
        <time>2020-06-11T03:30:02Z</time>
      </trkpt>
      <trkpt lat="46.07483" lon="4.49014">
        <ele>399</ele>
        <time>2020-06-11T03:30:10Z</time>
      </trkpt>
      <trkpt lat="46.07453" lon="4.49031">
        <ele>398</ele>
        <time>2020-06-11T03:30:16Z</time>
      </trkpt>
      <trkpt lat="46.07462" lon="4.49084">
        <ele>395</ele>
        <time>2020-06-11T03:30:22Z</time>
      </trkpt>
      <trkpt lat="46.07463" lon="4.49104">
        <ele>396</ele>
        <time>2020-06-11T03:30:25Z</time>
      </trkpt>
      <trkpt lat="46.07461" lon="4.49117">
        <ele>396</ele>
        <time>2020-06-11T03:30:26Z</time>
      </trkpt>
      <trkpt lat="46.07453" lon="4.49137">
        <ele>397</ele>
        <time>2020-06-11T03:30:29Z</time>
      </trkpt>
      <trkpt lat="46.07376" lon="4.49181">
        <ele>395</ele>
        <time>2020-06-11T03:30:44Z</time>
      </trkpt>
      <trkpt lat="46.07349" lon="4.49203">
        <ele>395</ele>
        <time>2020-06-11T03:30:50Z</time>
      </trkpt>
      <trkpt lat="46.07333" lon="4.49227">
        <ele>396</ele>
        <time>2020-06-11T03:30:54Z</time>
      </trkpt>
      <trkpt lat="46.07326" lon="4.49251">
        <ele>397</ele>
        <time>2020-06-11T03:30:57Z</time>
      </trkpt>
      <trkpt lat="46.07323" lon="4.4927">
        <ele>396</ele>
        <time>2020-06-11T03:30:59Z</time>
      </trkpt>
      <trkpt lat="46.07335" lon="4.49299">
        <ele>397</ele>
        <time>2020-06-11T03:31:03Z</time>
      </trkpt>
      <trkpt lat="46.07345" lon="4.4932">
        <ele>397</ele>
        <time>2020-06-11T03:31:07Z</time>
      </trkpt>
      <trkpt lat="46.07341" lon="4.49334">
        <ele>397</ele>
        <time>2020-06-11T03:31:08Z</time>
      </trkpt>
      <trkpt lat="46.0731" lon="4.49404">
        <ele>394</ele>
        <time>2020-06-11T03:31:19Z</time>
      </trkpt>
      <trkpt lat="46.07293" lon="4.49449">
        <ele>394</ele>
        <time>2020-06-11T03:31:25Z</time>
      </trkpt>
      <trkpt lat="46.07278" lon="4.49467">
        <ele>395</ele>
        <time>2020-06-11T03:31:29Z</time>
      </trkpt>
      <trkpt lat="46.07262" lon="4.49471">
        <ele>396</ele>
        <time>2020-06-11T03:31:31Z</time>
      </trkpt>
      <trkpt lat="46.0725" lon="4.49467">
        <ele>396</ele>
        <time>2020-06-11T03:31:34Z</time>
      </trkpt>
      <trkpt lat="46.07235" lon="4.49471">
        <ele>397</ele>
        <time>2020-06-11T03:31:36Z</time>
      </trkpt>
      <trkpt lat="46.07181" lon="4.49547">
        <ele>404</ele>
        <time>2020-06-11T03:31:50Z</time>
      </trkpt>
      <trkpt lat="46.07141" lon="4.49616">
        <ele>410</ele>
        <time>2020-06-11T03:32:01Z</time>
      </trkpt>
      <trkpt lat="46.07111" lon="4.49677">
        <ele>416</ele>
        <time>2020-06-11T03:32:10Z</time>
      </trkpt>
      <trkpt lat="46.07093" lon="4.49706">
        <ele>419</ele>
        <time>2020-06-11T03:32:15Z</time>
      </trkpt>
      <trkpt lat="46.07086" lon="4.49744">
        <ele>423</ele>
        <time>2020-06-11T03:32:20Z</time>
      </trkpt>
      <trkpt lat="46.07076" lon="4.49761">
        <ele>424</ele>
        <time>2020-06-11T03:32:22Z</time>
      </trkpt>
      <trkpt lat="46.0706" lon="4.49739">
        <ele>422</ele>
        <time>2020-06-11T03:32:26Z</time>
      </trkpt>
      <trkpt lat="46.07045" lon="4.49731">
        <ele>421</ele>
        <time>2020-06-11T03:32:29Z</time>
      </trkpt>
      <trkpt lat="46.07019" lon="4.49729">
        <ele>421</ele>
        <time>2020-06-11T03:32:34Z</time>
      </trkpt>
      <trkpt lat="46.06938" lon="4.49732">
        <ele>422</ele>
        <time>2020-06-11T03:32:48Z</time>
      </trkpt>
      <trkpt lat="46.06917" lon="4.49739">
        <ele>423</ele>
        <time>2020-06-11T03:32:52Z</time>
      </trkpt>
      <trkpt lat="46.06897" lon="4.49754">
        <ele>423</ele>
        <time>2020-06-11T03:32:56Z</time>
      </trkpt>
      <trkpt lat="46.06796" lon="4.49865">
        <ele>431</ele>
        <time>2020-06-11T03:33:19Z</time>
      </trkpt>
      <trkpt lat="46.06779" lon="4.49858">
        <ele>430</ele>
        <time>2020-06-11T03:33:22Z</time>
      </trkpt>
      <trkpt lat="46.06768" lon="4.49856">
        <ele>429</ele>
        <time>2020-06-11T03:33:24Z</time>
      </trkpt>
      <trkpt lat="46.06741" lon="4.49858">
        <ele>427</ele>
        <time>2020-06-11T03:33:29Z</time>
      </trkpt>
      <trkpt lat="46.06728" lon="4.49853">
        <ele>427</ele>
        <time>2020-06-11T03:33:31Z</time>
      </trkpt>
      <trkpt lat="46.06709" lon="4.49839">
        <ele>425</ele>
        <time>2020-06-11T03:33:35Z</time>
      </trkpt>
      <trkpt lat="46.06694" lon="4.4983">
        <ele>424</ele>
        <time>2020-06-11T03:33:38Z</time>
      </trkpt>
      <trkpt lat="46.06661" lon="4.4983">
        <ele>423</ele>
        <time>2020-06-11T03:33:44Z</time>
      </trkpt>
      <trkpt lat="46.06604" lon="4.49839">
        <ele>421</ele>
        <time>2020-06-11T03:33:54Z</time>
      </trkpt>
      <trkpt lat="46.06572" lon="4.49858">
        <ele>423</ele>
        <time>2020-06-11T03:34:00Z</time>
      </trkpt>
      <trkpt lat="46.06561" lon="4.49849">
        <ele>423</ele>
        <time>2020-06-11T03:34:02Z</time>
      </trkpt>
      <trkpt lat="46.0655" lon="4.49828">
        <ele>422</ele>
        <time>2020-06-11T03:34:05Z</time>
      </trkpt>
      <trkpt lat="46.06528" lon="4.4981">
        <ele>423</ele>
        <time>2020-06-11T03:34:10Z</time>
      </trkpt>
      <trkpt lat="46.06522" lon="4.49797">
        <ele>422</ele>
        <time>2020-06-11T03:34:12Z</time>
      </trkpt>
      <trkpt lat="46.0652" lon="4.49785">
        <ele>422</ele>
        <time>2020-06-11T03:34:13Z</time>
      </trkpt>
      <trkpt lat="46.06524" lon="4.49739">
        <ele>418</ele>
        <time>2020-06-11T03:34:19Z</time>
      </trkpt>
      <trkpt lat="46.06522" lon="4.49707">
        <ele>417</ele>
        <time>2020-06-11T03:34:23Z</time>
      </trkpt>
      <trkpt lat="46.06511" lon="4.49676">
        <ele>418</ele>
        <time>2020-06-11T03:34:27Z</time>
      </trkpt>
      <trkpt lat="46.06356" lon="4.49399">
        <ele>399</ele>
        <time>2020-06-11T03:35:11Z</time>
      </trkpt>
      <trkpt lat="46.06337" lon="4.49367">
        <ele>395</ele>
        <time>2020-06-11T03:35:17Z</time>
      </trkpt>
      <trkpt lat="46.06279" lon="4.4933">
        <ele>390</ele>
        <time>2020-06-11T03:35:28Z</time>
      </trkpt>
      <trkpt lat="46.06255" lon="4.49307">
        <ele>390</ele>
        <time>2020-06-11T03:35:33Z</time>
      </trkpt>
      <trkpt lat="46.06264" lon="4.49267">
        <ele>387</ele>
        <time>2020-06-11T03:35:38Z</time>
      </trkpt>
      <trkpt lat="46.0626" lon="4.49268">
        <ele>388</ele>
        <time>2020-06-11T03:35:39Z</time>
      </trkpt>
      <trkpt lat="46.06244" lon="4.49264">
        <ele>388</ele>
        <time>2020-06-11T03:35:42Z</time>
      </trkpt>
      <trkpt lat="46.06201" lon="4.49245">
        <ele>389</ele>
        <time>2020-06-11T03:35:50Z</time>
      </trkpt>
      <trkpt lat="46.06195" lon="4.49241">
        <ele>389</ele>
        <time>2020-06-11T03:35:51Z</time>
      </trkpt>
      <trkpt lat="46.06183" lon="4.49233">
        <ele>389</ele>
        <time>2020-06-11T03:35:53Z</time>
      </trkpt>
      <trkpt lat="46.06182" lon="4.49232">
        <ele>389</ele>
        <time>2020-06-11T03:35:54Z</time>
      </trkpt>
      <trkpt lat="46.06156" lon="4.49213">
        <ele>388</ele>
        <time>2020-06-11T03:35:59Z</time>
      </trkpt>
      <trkpt lat="46.06148" lon="4.49199">
        <ele>387</ele>
        <time>2020-06-11T03:36:01Z</time>
      </trkpt>
      <trkpt lat="46.06141" lon="4.49183">
        <ele>386</ele>
        <time>2020-06-11T03:36:03Z</time>
      </trkpt>
      <trkpt lat="46.06128" lon="4.49171">
        <ele>385</ele>
        <time>2020-06-11T03:36:06Z</time>
      </trkpt>
      <trkpt lat="46.06014" lon="4.49139">
        <ele>380</ele>
        <time>2020-06-11T03:36:27Z</time>
      </trkpt>
      <trkpt lat="46.0598" lon="4.49141">
        <ele>379</ele>
        <time>2020-06-11T03:36:33Z</time>
      </trkpt>
      <trkpt lat="46.05902" lon="4.49171">
        <ele>378</ele>
        <time>2020-06-11T03:36:47Z</time>
      </trkpt>
      <trkpt lat="46.05871" lon="4.4919">
        <ele>378</ele>
        <time>2020-06-11T03:36:53Z</time>
      </trkpt>
      <trkpt lat="46.05849" lon="4.49213">
        <ele>378</ele>
        <time>2020-06-11T03:36:58Z</time>
      </trkpt>
      <trkpt lat="46.05828" lon="4.49244">
        <ele>379</ele>
        <time>2020-06-11T03:37:03Z</time>
      </trkpt>
      <trkpt lat="46.05816" lon="4.49267">
        <ele>380</ele>
        <time>2020-06-11T03:37:07Z</time>
      </trkpt>
      <trkpt lat="46.05796" lon="4.49291">
        <ele>381</ele>
        <time>2020-06-11T03:37:11Z</time>
      </trkpt>
      <trkpt lat="46.0572" lon="4.49353">
        <ele>381</ele>
        <time>2020-06-11T03:37:27Z</time>
      </trkpt>
      <trkpt lat="46.05688" lon="4.49384">
        <ele>380</ele>
        <time>2020-06-11T03:37:34Z</time>
      </trkpt>
      <trkpt lat="46.05669" lon="4.49408">
        <ele>378</ele>
        <time>2020-06-11T03:37:38Z</time>
      </trkpt>
      <trkpt lat="46.05636" lon="4.4944">
        <ele>379</ele>
        <time>2020-06-11T03:37:45Z</time>
      </trkpt>
      <trkpt lat="46.05619" lon="4.49452">
        <ele>380</ele>
        <time>2020-06-11T03:37:49Z</time>
      </trkpt>
      <trkpt lat="46.05609" lon="4.49452">
        <ele>379</ele>
        <time>2020-06-11T03:37:51Z</time>
      </trkpt>
      <trkpt lat="46.05595" lon="4.49434">
        <ele>377</ele>
        <time>2020-06-11T03:37:54Z</time>
      </trkpt>
      <trkpt lat="46.05581" lon="4.49408">
        <ele>375</ele>
        <time>2020-06-11T03:37:58Z</time>
      </trkpt>
      <trkpt lat="46.05573" lon="4.49386">
        <ele>376</ele>
        <time>2020-06-11T03:38:01Z</time>
      </trkpt>
      <trkpt lat="46.05556" lon="4.49356">
        <ele>378</ele>
        <time>2020-06-11T03:38:06Z</time>
      </trkpt>
      <trkpt lat="46.05546" lon="4.49348">
        <ele>378</ele>
        <time>2020-06-11T03:38:08Z</time>
      </trkpt>
      <trkpt lat="46.05513" lon="4.49325">
        <ele>381</ele>
        <time>2020-06-11T03:38:14Z</time>
      </trkpt>
      <trkpt lat="46.05507" lon="4.49317">
        <ele>381</ele>
        <time>2020-06-11T03:38:16Z</time>
      </trkpt>
      <trkpt lat="46.05487" lon="4.49337">
        <ele>382</ele>
        <time>2020-06-11T03:38:20Z</time>
      </trkpt>
      <trkpt lat="46.05443" lon="4.49355">
        <ele>383</ele>
        <time>2020-06-11T03:38:28Z</time>
      </trkpt>
      <trkpt lat="46.05418" lon="4.49362">
        <ele>384</ele>
        <time>2020-06-11T03:38:33Z</time>
      </trkpt>
      <trkpt lat="46.0538" lon="4.49376">
        <ele>384</ele>
        <time>2020-06-11T03:38:40Z</time>
      </trkpt>
      <trkpt lat="46.05358" lon="4.49378">
        <ele>384</ele>
        <time>2020-06-11T03:38:44Z</time>
      </trkpt>
      <trkpt lat="46.05349" lon="4.49378">
        <ele>384</ele>
        <time>2020-06-11T03:38:45Z</time>
      </trkpt>
      <trkpt lat="46.05344" lon="4.49377">
        <ele>385</ele>
        <time>2020-06-11T03:38:46Z</time>
      </trkpt>
      <trkpt lat="46.05319" lon="4.49371">
        <ele>385</ele>
        <time>2020-06-11T03:38:51Z</time>
      </trkpt>
      <trkpt lat="46.05293" lon="4.4936">
        <ele>386</ele>
        <time>2020-06-11T03:38:56Z</time>
      </trkpt>
      <trkpt lat="46.05266" lon="4.49346">
        <ele>386</ele>
        <time>2020-06-11T03:39:01Z</time>
      </trkpt>
      <trkpt lat="46.05251" lon="4.4934">
        <ele>387</ele>
        <time>2020-06-11T03:39:03Z</time>
      </trkpt>
      <trkpt lat="46.0523" lon="4.49333">
        <ele>387</ele>
        <time>2020-06-11T03:39:07Z</time>
      </trkpt>
      <trkpt lat="46.05186" lon="4.49319">
        <ele>387</ele>
        <time>2020-06-11T03:39:15Z</time>
      </trkpt>
      <trkpt lat="46.05159" lon="4.49312">
        <ele>386</ele>
        <time>2020-06-11T03:39:20Z</time>
      </trkpt>
      <trkpt lat="46.05126" lon="4.49303">
        <ele>385</ele>
        <time>2020-06-11T03:39:26Z</time>
      </trkpt>
      <trkpt lat="46.05122" lon="4.49302">
        <ele>385</ele>
        <time>2020-06-11T03:39:27Z</time>
      </trkpt>
      <trkpt lat="46.05105" lon="4.49292">
        <ele>385</ele>
        <time>2020-06-11T03:39:30Z</time>
      </trkpt>
      <trkpt lat="46.051" lon="4.49288">
        <ele>385</ele>
        <time>2020-06-11T03:39:31Z</time>
      </trkpt>
      <trkpt lat="46.05095" lon="4.49286">
        <ele>385</ele>
        <time>2020-06-11T03:39:32Z</time>
      </trkpt>
      <trkpt lat="46.05076" lon="4.49264">
        <ele>385</ele>
        <time>2020-06-11T03:39:36Z</time>
      </trkpt>
      <trkpt lat="46.05061" lon="4.49243">
        <ele>384</ele>
        <time>2020-06-11T03:39:40Z</time>
      </trkpt>
      <trkpt lat="46.05029" lon="4.49187">
        <ele>381</ele>
        <time>2020-06-11T03:39:49Z</time>
      </trkpt>
      <trkpt lat="46.04995" lon="4.4913">
        <ele>378</ele>
        <time>2020-06-11T03:39:58Z</time>
      </trkpt>
      <trkpt lat="46.04947" lon="4.49054">
        <ele>377</ele>
        <time>2020-06-11T03:40:11Z</time>
      </trkpt>
      <trkpt lat="46.04929" lon="4.49032">
        <ele>376</ele>
        <time>2020-06-11T03:40:15Z</time>
      </trkpt>
      <trkpt lat="46.04924" lon="4.49028">
        <ele>376</ele>
        <time>2020-06-11T03:40:16Z</time>
      </trkpt>
      <trkpt lat="46.04914" lon="4.49018">
        <ele>376</ele>
        <time>2020-06-11T03:40:18Z</time>
      </trkpt>
      <trkpt lat="46.04897" lon="4.49006">
        <ele>376</ele>
        <time>2020-06-11T03:40:22Z</time>
      </trkpt>
      <trkpt lat="46.04882" lon="4.48999">
        <ele>375</ele>
        <time>2020-06-11T03:40:25Z</time>
      </trkpt>
      <trkpt lat="46.04806" lon="4.4896">
        <ele>372</ele>
        <time>2020-06-11T03:40:39Z</time>
      </trkpt>
      <trkpt lat="46.04742" lon="4.48928">
        <ele>369</ele>
        <time>2020-06-11T03:40:51Z</time>
      </trkpt>
      <trkpt lat="46.04694" lon="4.48904">
        <ele>370</ele>
        <time>2020-06-11T03:41:00Z</time>
      </trkpt>
      <trkpt lat="46.04673" lon="4.48896">
        <ele>371</ele>
        <time>2020-06-11T03:41:04Z</time>
      </trkpt>
      <trkpt lat="46.04651" lon="4.48889">
        <ele>372</ele>
        <time>2020-06-11T03:41:08Z</time>
      </trkpt>
      <trkpt lat="46.04617" lon="4.48885">
        <ele>373</ele>
        <time>2020-06-11T03:41:14Z</time>
      </trkpt>
      <trkpt lat="46.04596" lon="4.48888">
        <ele>372</ele>
        <time>2020-06-11T03:41:18Z</time>
      </trkpt>
      <trkpt lat="46.04576" lon="4.48888">
        <ele>372</ele>
        <time>2020-06-11T03:41:21Z</time>
      </trkpt>
      <trkpt lat="46.0454" lon="4.48876">
        <ele>371</ele>
        <time>2020-06-11T03:41:28Z</time>
      </trkpt>
      <trkpt lat="46.04514" lon="4.48861">
        <ele>371</ele>
        <time>2020-06-11T03:41:33Z</time>
      </trkpt>
      <trkpt lat="46.04432" lon="4.4883">
        <ele>369</ele>
        <time>2020-06-11T03:41:48Z</time>
      </trkpt>
      <trkpt lat="46.04389" lon="4.48819">
        <ele>369</ele>
        <time>2020-06-11T03:41:56Z</time>
      </trkpt>
      <trkpt lat="46.04362" lon="4.48818">
        <ele>369</ele>
        <time>2020-06-11T03:42:01Z</time>
      </trkpt>
      <trkpt lat="46.04338" lon="4.48824">
        <ele>368</ele>
        <time>2020-06-11T03:42:05Z</time>
      </trkpt>
      <trkpt lat="46.0421" lon="4.48883">
        <ele>366</ele>
        <time>2020-06-11T03:42:29Z</time>
      </trkpt>
      <trkpt lat="46.04189" lon="4.48897">
        <ele>365</ele>
        <time>2020-06-11T03:42:33Z</time>
      </trkpt>
      <trkpt lat="46.04147" lon="4.48923">
        <ele>364</ele>
        <time>2020-06-11T03:42:41Z</time>
      </trkpt>
      <trkpt lat="46.04113" lon="4.4894">
        <ele>364</ele>
        <time>2020-06-11T03:42:47Z</time>
      </trkpt>
      <trkpt lat="46.0408" lon="4.4895">
        <ele>364</ele>
        <time>2020-06-11T03:42:53Z</time>
      </trkpt>
      <trkpt lat="46.03979" lon="4.48957">
        <ele>367</ele>
        <time>2020-06-11T03:43:11Z</time>
      </trkpt>
      <trkpt lat="46.03904" lon="4.48973">
        <ele>367</ele>
        <time>2020-06-11T03:43:25Z</time>
      </trkpt>
      <trkpt lat="46.03882" lon="4.48979">
        <ele>368</ele>
        <time>2020-06-11T03:43:29Z</time>
      </trkpt>
      <trkpt lat="46.03864" lon="4.48989">
        <ele>368</ele>
        <time>2020-06-11T03:43:32Z</time>
      </trkpt>
      <trkpt lat="46.03843" lon="4.49001">
        <ele>369</ele>
        <time>2020-06-11T03:43:36Z</time>
      </trkpt>
      <trkpt lat="46.03821" lon="4.49021">
        <ele>368</ele>
        <time>2020-06-11T03:43:41Z</time>
      </trkpt>
      <trkpt lat="46.03804" lon="4.49041">
        <ele>367</ele>
        <time>2020-06-11T03:43:45Z</time>
      </trkpt>
      <trkpt lat="46.03702" lon="4.49169">
        <ele>359</ele>
        <time>2020-06-11T03:44:09Z</time>
      </trkpt>
      <trkpt lat="46.03683" lon="4.49194">
        <ele>359</ele>
        <time>2020-06-11T03:44:14Z</time>
      </trkpt>
      <trkpt lat="46.03626" lon="4.4927">
        <ele>355</ele>
        <time>2020-06-11T03:44:27Z</time>
      </trkpt>
      <trkpt lat="46.0358" lon="4.49349">
        <ele>352</ele>
        <time>2020-06-11T03:44:40Z</time>
      </trkpt>
      <trkpt lat="46.0353" lon="4.49427">
        <ele>353</ele>
        <time>2020-06-11T03:44:53Z</time>
      </trkpt>
      <trkpt lat="46.0351" lon="4.49449">
        <ele>353</ele>
        <time>2020-06-11T03:44:58Z</time>
      </trkpt>
      <trkpt lat="46.03484" lon="4.49474">
        <ele>353</ele>
        <time>2020-06-11T03:45:03Z</time>
      </trkpt>
      <trkpt lat="46.03482" lon="4.4947">
        <ele>353</ele>
        <time>2020-06-11T03:45:04Z</time>
      </trkpt>
      <trkpt lat="46.03474" lon="4.49468">
        <ele>353</ele>
        <time>2020-06-11T03:45:05Z</time>
      </trkpt>
      <trkpt lat="46.03471" lon="4.4947">
        <ele>353</ele>
        <time>2020-06-11T03:45:06Z</time>
      </trkpt>
      <trkpt lat="46.03468" lon="4.49476">
        <ele>353</ele>
        <time>2020-06-11T03:45:07Z</time>
      </trkpt>
      <trkpt lat="46.03467" lon="4.49484">
        <ele>353</ele>
        <time>2020-06-11T03:45:08Z</time>
      </trkpt>
      <trkpt lat="46.03469" lon="4.49488">
        <ele>353</ele>
        <time>2020-06-11T03:45:08Z</time>
      </trkpt>
      <trkpt lat="46.03426" lon="4.49519">
        <ele>354</ele>
        <time>2020-06-11T03:45:17Z</time>
      </trkpt>
      <trkpt lat="46.034" lon="4.49533">
        <ele>354</ele>
        <time>2020-06-11T03:45:22Z</time>
      </trkpt>
      <trkpt lat="46.03227" lon="4.49622">
        <ele>354</ele>
        <time>2020-06-11T03:45:55Z</time>
      </trkpt>
      <trkpt lat="46.0318" lon="4.49649">
        <ele>355</ele>
        <time>2020-06-11T03:46:04Z</time>
      </trkpt>
      <trkpt lat="46.02992" lon="4.49734">
        <ele>352</ele>
        <time>2020-06-11T03:46:39Z</time>
      </trkpt>
      <trkpt lat="46.02967" lon="4.49744">
        <ele>352</ele>
        <time>2020-06-11T03:46:43Z</time>
      </trkpt>
      <trkpt lat="46.02942" lon="4.4975">
        <ele>352</ele>
        <time>2020-06-11T03:46:48Z</time>
      </trkpt>
      <trkpt lat="46.02893" lon="4.49756">
        <ele>352</ele>
        <time>2020-06-11T03:46:57Z</time>
      </trkpt>
      <trkpt lat="46.02716" lon="4.49787">
        <ele>351</ele>
        <time>2020-06-11T03:47:28Z</time>
      </trkpt>
      <trkpt lat="46.02687" lon="4.49798">
        <ele>352</ele>
        <time>2020-06-11T03:47:34Z</time>
      </trkpt>
      <trkpt lat="46.02543" lon="4.49871">
        <ele>359</ele>
        <time>2020-06-11T03:48:01Z</time>
      </trkpt>
      <trkpt lat="46.0246" lon="4.49911">
        <ele>353</ele>
        <time>2020-06-11T03:48:16Z</time>
      </trkpt>
      <trkpt lat="46.02426" lon="4.49924">
        <ele>350</ele>
        <time>2020-06-11T03:48:23Z</time>
      </trkpt>
      <trkpt lat="46.02357" lon="4.4994">
        <ele>348</ele>
        <time>2020-06-11T03:48:35Z</time>
      </trkpt>
      <trkpt lat="46.02193" lon="4.49951">
        <ele>342</ele>
        <time>2020-06-11T03:49:04Z</time>
      </trkpt>
      <trkpt lat="46.02154" lon="4.49948">
        <ele>343</ele>
        <time>2020-06-11T03:49:11Z</time>
      </trkpt>
      <trkpt lat="46.02096" lon="4.49939">
        <ele>346</ele>
        <time>2020-06-11T03:49:22Z</time>
      </trkpt>
      <trkpt lat="46.02051" lon="4.49928">
        <ele>346</ele>
        <time>2020-06-11T03:49:30Z</time>
      </trkpt>
      <trkpt lat="46.02025" lon="4.49931">
        <ele>347</ele>
        <time>2020-06-11T03:49:34Z</time>
      </trkpt>
      <trkpt lat="46.01988" lon="4.4994">
        <ele>349</ele>
        <time>2020-06-11T03:49:41Z</time>
      </trkpt>
      <trkpt lat="46.0196" lon="4.49941">
        <ele>351</ele>
        <time>2020-06-11T03:49:46Z</time>
      </trkpt>
      <trkpt lat="46.01854" lon="4.49904">
        <ele>350</ele>
        <time>2020-06-11T03:50:05Z</time>
      </trkpt>
      <trkpt lat="46.01826" lon="4.49881">
        <ele>349</ele>
        <time>2020-06-11T03:50:11Z</time>
      </trkpt>
      <trkpt lat="46.01805" lon="4.49859">
        <ele>348</ele>
        <time>2020-06-11T03:50:16Z</time>
      </trkpt>
      <trkpt lat="46.01707" lon="4.49797">
        <ele>347</ele>
        <time>2020-06-11T03:50:35Z</time>
      </trkpt>
      <trkpt lat="46.01617" lon="4.4973">
        <ele>344</ele>
        <time>2020-06-11T03:50:53Z</time>
      </trkpt>
      <trkpt lat="46.01604" lon="4.49722">
        <ele>345</ele>
        <time>2020-06-11T03:50:55Z</time>
      </trkpt>
      <trkpt lat="46.01591" lon="4.49718">
        <ele>345</ele>
        <time>2020-06-11T03:50:58Z</time>
      </trkpt>
      <trkpt lat="46.01568" lon="4.49717">
        <ele>345</ele>
        <time>2020-06-11T03:51:02Z</time>
      </trkpt>
      <trkpt lat="46.01542" lon="4.49724">
        <ele>344</ele>
        <time>2020-06-11T03:51:07Z</time>
      </trkpt>
      <trkpt lat="46.01437" lon="4.49811">
        <ele>345</ele>
        <time>2020-06-11T03:51:28Z</time>
      </trkpt>
      <trkpt lat="46.01412" lon="4.49821">
        <ele>344</ele>
        <time>2020-06-11T03:51:33Z</time>
      </trkpt>
      <trkpt lat="46.01387" lon="4.49824">
        <ele>347</ele>
        <time>2020-06-11T03:51:37Z</time>
      </trkpt>
      <trkpt lat="46.01371" lon="4.49817">
        <ele>347</ele>
        <time>2020-06-11T03:51:40Z</time>
      </trkpt>
      <trkpt lat="46.01316" lon="4.49776">
        <ele>341</ele>
        <time>2020-06-11T03:51:51Z</time>
      </trkpt>
      <trkpt lat="46.01303" lon="4.49767">
        <ele>340</ele>
        <time>2020-06-11T03:51:54Z</time>
      </trkpt>
      <trkpt lat="46.01287" lon="4.4976">
        <ele>339</ele>
        <time>2020-06-11T03:51:57Z</time>
      </trkpt>
      <trkpt lat="46.01269" lon="4.49756">
        <ele>338</ele>
        <time>2020-06-11T03:52:00Z</time>
      </trkpt>
      <trkpt lat="46.01231" lon="4.49763">
        <ele>340</ele>
        <time>2020-06-11T03:52:07Z</time>
      </trkpt>
      <trkpt lat="46.01193" lon="4.49774">
        <ele>341</ele>
        <time>2020-06-11T03:52:14Z</time>
      </trkpt>
      <trkpt lat="46.01144" lon="4.49778">
        <ele>343</ele>
        <time>2020-06-11T03:52:22Z</time>
      </trkpt>
      <trkpt lat="46.01117" lon="4.49773">
        <ele>344</ele>
        <time>2020-06-11T03:52:27Z</time>
      </trkpt>
      <trkpt lat="46.01023" lon="4.49734">
        <ele>339</ele>
        <time>2020-06-11T03:52:45Z</time>
      </trkpt>
      <trkpt lat="46.00987" lon="4.49712">
        <ele>336</ele>
        <time>2020-06-11T03:52:52Z</time>
      </trkpt>
      <trkpt lat="46.0095" lon="4.49696">
        <ele>335</ele>
        <time>2020-06-11T03:52:58Z</time>
      </trkpt>
      <trkpt lat="46.00831" lon="4.49705">
        <ele>335</ele>
        <time>2020-06-11T03:53:20Z</time>
      </trkpt>
      <trkpt lat="46.00722" lon="4.49772">
        <ele>331</ele>
        <time>2020-06-11T03:53:41Z</time>
      </trkpt>
      <trkpt lat="46.007" lon="4.49777">
        <ele>331</ele>
        <time>2020-06-11T03:53:45Z</time>
      </trkpt>
      <trkpt lat="46.00653" lon="4.49783">
        <ele>330</ele>
        <time>2020-06-11T03:53:53Z</time>
      </trkpt>
      <trkpt lat="46.00598" lon="4.4977">
        <ele>327</ele>
        <time>2020-06-11T03:54:03Z</time>
      </trkpt>
      <trkpt lat="46.00544" lon="4.49746">
        <ele>329</ele>
        <time>2020-06-11T03:54:13Z</time>
      </trkpt>
      <trkpt lat="46.00484" lon="4.49705">
        <ele>333</ele>
        <time>2020-06-11T03:54:25Z</time>
      </trkpt>
      <trkpt lat="46.00444" lon="4.49686">
        <ele>334</ele>
        <time>2020-06-11T03:54:32Z</time>
      </trkpt>
      <trkpt lat="46.0041" lon="4.49679">
        <ele>335</ele>
        <time>2020-06-11T03:54:39Z</time>
      </trkpt>
      <trkpt lat="46.00255" lon="4.49694">
        <ele>332</ele>
        <time>2020-06-11T03:55:06Z</time>
      </trkpt>
      <trkpt lat="46.00206" lon="4.49706">
        <ele>331</ele>
        <time>2020-06-11T03:55:15Z</time>
      </trkpt>
      <trkpt lat="46.0016" lon="4.49732">
        <ele>328</ele>
        <time>2020-06-11T03:55:24Z</time>
      </trkpt>
      <trkpt lat="45.99953" lon="4.49881">
        <ele>331</ele>
        <time>2020-06-11T03:56:05Z</time>
      </trkpt>
      <trkpt lat="45.99908" lon="4.49911">
        <ele>332</ele>
        <time>2020-06-11T03:56:14Z</time>
      </trkpt>
      <trkpt lat="45.99887" lon="4.49922">
        <ele>333</ele>
        <time>2020-06-11T03:56:18Z</time>
      </trkpt>
      <trkpt lat="45.99861" lon="4.49932">
        <ele>333</ele>
        <time>2020-06-11T03:56:23Z</time>
      </trkpt>
      <trkpt lat="45.99843" lon="4.49935">
        <ele>332</ele>
        <time>2020-06-11T03:56:26Z</time>
      </trkpt>
      <trkpt lat="45.99792" lon="4.49934">
        <ele>329</ele>
        <time>2020-06-11T03:56:35Z</time>
      </trkpt>
      <trkpt lat="45.99743" lon="4.49921">
        <ele>325</ele>
        <time>2020-06-11T03:56:44Z</time>
      </trkpt>
      <trkpt lat="45.99722" lon="4.49921">
        <ele>324</ele>
        <time>2020-06-11T03:56:47Z</time>
      </trkpt>
      <trkpt lat="45.99707" lon="4.49924">
        <ele>324</ele>
        <time>2020-06-11T03:56:50Z</time>
      </trkpt>
      <trkpt lat="45.99692" lon="4.49931">
        <ele>325</ele>
        <time>2020-06-11T03:56:53Z</time>
      </trkpt>
      <trkpt lat="45.99665" lon="4.49945">
        <ele>326</ele>
        <time>2020-06-11T03:56:58Z</time>
      </trkpt>
      <trkpt lat="45.99607" lon="4.49983">
        <ele>327</ele>
        <time>2020-06-11T03:57:09Z</time>
      </trkpt>
      <trkpt lat="45.99582" lon="4.50007">
        <ele>324</ele>
        <time>2020-06-11T03:57:15Z</time>
      </trkpt>
      <trkpt lat="45.99547" lon="4.50053">
        <ele>327</ele>
        <time>2020-06-11T03:57:23Z</time>
      </trkpt>
      <trkpt lat="45.99475" lon="4.50172">
        <ele>333</ele>
        <time>2020-06-11T03:57:43Z</time>
      </trkpt>
      <trkpt lat="45.9946" lon="4.50195">
        <ele>334</ele>
        <time>2020-06-11T03:57:47Z</time>
      </trkpt>
      <trkpt lat="45.99428" lon="4.50236">
        <ele>333</ele>
        <time>2020-06-11T03:57:54Z</time>
      </trkpt>
      <trkpt lat="45.99378" lon="4.50292">
        <ele>333</ele>
        <time>2020-06-11T03:58:06Z</time>
      </trkpt>
      <trkpt lat="45.99348" lon="4.50321">
        <ele>330</ele>
        <time>2020-06-11T03:58:12Z</time>
      </trkpt>
      <trkpt lat="45.99303" lon="4.50357">
        <ele>330</ele>
        <time>2020-06-11T03:58:21Z</time>
      </trkpt>
      <trkpt lat="45.99274" lon="4.5037">
        <ele>330</ele>
        <time>2020-06-11T03:58:27Z</time>
      </trkpt>
      <trkpt lat="45.99189" lon="4.50388">
        <ele>331</ele>
        <time>2020-06-11T03:58:42Z</time>
      </trkpt>
      <trkpt lat="45.99133" lon="4.50395">
        <ele>331</ele>
        <time>2020-06-11T03:58:52Z</time>
      </trkpt>
      <trkpt lat="45.99088" lon="4.50391">
        <ele>331</ele>
        <time>2020-06-11T03:59:00Z</time>
      </trkpt>
      <trkpt lat="45.9907" lon="4.50388">
        <ele>332</ele>
        <time>2020-06-11T03:59:03Z</time>
      </trkpt>
      <trkpt lat="45.99038" lon="4.50375">
        <ele>333</ele>
        <time>2020-06-11T03:59:09Z</time>
      </trkpt>
      <trkpt lat="45.99024" lon="4.50363">
        <ele>332</ele>
        <time>2020-06-11T03:59:12Z</time>
      </trkpt>
      <trkpt lat="45.99017" lon="4.50356">
        <ele>331</ele>
        <time>2020-06-11T03:59:13Z</time>
      </trkpt>
      <trkpt lat="45.9901" lon="4.50346">
        <ele>330</ele>
        <time>2020-06-11T03:59:15Z</time>
      </trkpt>
      <trkpt lat="45.98992" lon="4.50307">
        <ele>326</ele>
        <time>2020-06-11T03:59:21Z</time>
      </trkpt>
      <trkpt lat="45.98971" lon="4.50255">
        <ele>322</ele>
        <time>2020-06-11T03:59:28Z</time>
      </trkpt>
      <trkpt lat="45.9895" lon="4.50228">
        <ele>321</ele>
        <time>2020-06-11T03:59:33Z</time>
      </trkpt>
      <trkpt lat="45.98935" lon="4.50218">
        <ele>320</ele>
        <time>2020-06-11T03:59:36Z</time>
      </trkpt>
      <trkpt lat="45.98926" lon="4.50215">
        <ele>320</ele>
        <time>2020-06-11T03:59:38Z</time>
      </trkpt>
      <trkpt lat="45.98906" lon="4.50213">
        <ele>319</ele>
        <time>2020-06-11T03:59:42Z</time>
      </trkpt>
      <trkpt lat="45.98871" lon="4.50219">
        <ele>319</ele>
        <time>2020-06-11T03:59:48Z</time>
      </trkpt>
      <trkpt lat="45.98828" lon="4.50231">
        <ele>319</ele>
        <time>2020-06-11T03:59:56Z</time>
      </trkpt>
      <trkpt lat="45.98804" lon="4.50245">
        <ele>318</ele>
        <time>2020-06-11T04:00:00Z</time>
      </trkpt>
      <trkpt lat="45.98786" lon="4.50262">
        <ele>317</ele>
        <time>2020-06-11T04:00:04Z</time>
      </trkpt>
      <trkpt lat="45.98771" lon="4.50283">
        <ele>317</ele>
        <time>2020-06-11T04:00:08Z</time>
      </trkpt>
      <trkpt lat="45.98761" lon="4.50301">
        <ele>316</ele>
        <time>2020-06-11T04:00:11Z</time>
      </trkpt>
      <trkpt lat="45.98754" lon="4.50318">
        <ele>316</ele>
        <time>2020-06-11T04:00:13Z</time>
      </trkpt>
      <trkpt lat="45.98748" lon="4.50338">
        <ele>316</ele>
        <time>2020-06-11T04:00:16Z</time>
      </trkpt>
      <trkpt lat="45.98745" lon="4.5036">
        <ele>317</ele>
        <time>2020-06-11T04:00:18Z</time>
      </trkpt>
      <trkpt lat="45.98735" lon="4.50467">
        <ele>319</ele>
        <time>2020-06-11T04:00:32Z</time>
      </trkpt>
      <trkpt lat="45.98726" lon="4.50507">
        <ele>319</ele>
        <time>2020-06-11T04:00:37Z</time>
      </trkpt>
      <trkpt lat="45.98719" lon="4.50524">
        <ele>320</ele>
        <time>2020-06-11T04:00:39Z</time>
      </trkpt>
      <trkpt lat="45.98705" lon="4.50549">
        <ele>320</ele>
        <time>2020-06-11T04:00:43Z</time>
      </trkpt>
      <trkpt lat="45.98693" lon="4.50564">
        <ele>319</ele>
        <time>2020-06-11T04:00:46Z</time>
      </trkpt>
      <trkpt lat="45.98651" lon="4.5061">
        <ele>320</ele>
        <time>2020-06-11T04:00:56Z</time>
      </trkpt>
      <trkpt lat="45.98634" lon="4.50642">
        <ele>321</ele>
        <time>2020-06-11T04:01:01Z</time>
      </trkpt>
      <trkpt lat="45.9863" lon="4.50655">
        <ele>321</ele>
        <time>2020-06-11T04:01:02Z</time>
      </trkpt>
      <trkpt lat="45.98625" lon="4.50677">
        <ele>321</ele>
        <time>2020-06-11T04:01:05Z</time>
      </trkpt>
      <trkpt lat="45.98623" lon="4.50688">
        <ele>320</ele>
        <time>2020-06-11T04:01:07Z</time>
      </trkpt>
      <trkpt lat="45.98621" lon="4.50701">
        <ele>320</ele>
        <time>2020-06-11T04:01:08Z</time>
      </trkpt>
      <trkpt lat="45.98615" lon="4.50743">
        <ele>320</ele>
        <time>2020-06-11T04:01:14Z</time>
      </trkpt>
      <trkpt lat="45.98581" lon="4.50845">
        <ele>318</ele>
        <time>2020-06-11T04:01:28Z</time>
      </trkpt>
      <trkpt lat="45.98561" lon="4.50899">
        <ele>320</ele>
        <time>2020-06-11T04:01:35Z</time>
      </trkpt>
      <trkpt lat="45.98538" lon="4.50936">
        <ele>321</ele>
        <time>2020-06-11T04:01:41Z</time>
      </trkpt>
      <trkpt lat="45.98508" lon="4.50968">
        <ele>321</ele>
        <time>2020-06-11T04:01:48Z</time>
      </trkpt>
      <trkpt lat="45.98488" lon="4.50977">
        <ele>321</ele>
        <time>2020-06-11T04:01:52Z</time>
      </trkpt>
      <trkpt lat="45.98465" lon="4.50976">
        <ele>322</ele>
        <time>2020-06-11T04:01:56Z</time>
      </trkpt>
      <trkpt lat="45.98448" lon="4.50966">
        <ele>321</ele>
        <time>2020-06-11T04:01:59Z</time>
      </trkpt>
      <trkpt lat="45.98444" lon="4.50963">
        <ele>320</ele>
        <time>2020-06-11T04:02:00Z</time>
      </trkpt>
      <trkpt lat="45.98433" lon="4.50948">
        <ele>318</ele>
        <time>2020-06-11T04:02:03Z</time>
      </trkpt>
      <trkpt lat="45.98417" lon="4.50915">
        <ele>313</ele>
        <time>2020-06-11T04:02:08Z</time>
      </trkpt>
      <trkpt lat="45.98405" lon="4.50899">
        <ele>313</ele>
        <time>2020-06-11T04:02:10Z</time>
      </trkpt>
      <trkpt lat="45.98391" lon="4.50887">
        <ele>312</ele>
        <time>2020-06-11T04:02:13Z</time>
      </trkpt>
      <trkpt lat="45.98373" lon="4.50882">
        <ele>313</ele>
        <time>2020-06-11T04:02:17Z</time>
      </trkpt>
      <trkpt lat="45.98356" lon="4.50879">
        <ele>313</ele>
        <time>2020-06-11T04:02:20Z</time>
      </trkpt>
      <trkpt lat="45.98335" lon="4.50882">
        <ele>314</ele>
        <time>2020-06-11T04:02:23Z</time>
      </trkpt>
      <trkpt lat="45.98306" lon="4.50886">
        <ele>315</ele>
        <time>2020-06-11T04:02:29Z</time>
      </trkpt>
      <trkpt lat="45.98287" lon="4.50886">
        <ele>315</ele>
        <time>2020-06-11T04:02:32Z</time>
      </trkpt>
      <trkpt lat="45.98265" lon="4.5088">
        <ele>314</ele>
        <time>2020-06-11T04:02:36Z</time>
      </trkpt>
      <trkpt lat="45.98241" lon="4.50874">
        <ele>313</ele>
        <time>2020-06-11T04:02:40Z</time>
      </trkpt>
      <trkpt lat="45.9823" lon="4.50873">
        <ele>312</ele>
        <time>2020-06-11T04:02:42Z</time>
      </trkpt>
      <trkpt lat="45.98208" lon="4.50872">
        <ele>312</ele>
        <time>2020-06-11T04:02:46Z</time>
      </trkpt>
      <trkpt lat="45.98185" lon="4.5087">
        <ele>311</ele>
        <time>2020-06-11T04:02:50Z</time>
      </trkpt>
      <trkpt lat="45.98158" lon="4.50865">
        <ele>310</ele>
        <time>2020-06-11T04:02:55Z</time>
      </trkpt>
      <trkpt lat="45.98097" lon="4.50813">
        <ele>309</ele>
        <time>2020-06-11T04:03:08Z</time>
      </trkpt>
      <trkpt lat="45.98074" lon="4.50798">
        <ele>310</ele>
        <time>2020-06-11T04:03:12Z</time>
      </trkpt>
      <trkpt lat="45.98055" lon="4.50778">
        <ele>312</ele>
        <time>2020-06-11T04:03:16Z</time>
      </trkpt>
      <trkpt lat="45.98048" lon="4.50767">
        <ele>313</ele>
        <time>2020-06-11T04:03:18Z</time>
      </trkpt>
      <trkpt lat="45.98034" lon="4.50744">
        <ele>313</ele>
        <time>2020-06-11T04:03:22Z</time>
      </trkpt>
      <trkpt lat="45.98007" lon="4.50696">
        <ele>312</ele>
        <time>2020-06-11T04:03:30Z</time>
      </trkpt>
      <trkpt lat="45.97989" lon="4.50675">
        <ele>309</ele>
        <time>2020-06-11T04:03:34Z</time>
      </trkpt>
      <trkpt lat="45.97973" lon="4.50666">
        <ele>308</ele>
        <time>2020-06-11T04:03:37Z</time>
      </trkpt>
      <trkpt lat="45.97958" lon="4.5066">
        <ele>308</ele>
        <time>2020-06-11T04:03:40Z</time>
      </trkpt>
      <trkpt lat="45.97938" lon="4.50658">
        <ele>308</ele>
        <time>2020-06-11T04:03:43Z</time>
      </trkpt>
      <trkpt lat="45.97918" lon="4.50661">
        <ele>308</ele>
        <time>2020-06-11T04:03:47Z</time>
      </trkpt>
      <trkpt lat="45.97901" lon="4.50672">
        <ele>308</ele>
        <time>2020-06-11T04:03:50Z</time>
      </trkpt>
      <trkpt lat="45.97883" lon="4.50688">
        <ele>309</ele>
        <time>2020-06-11T04:03:54Z</time>
      </trkpt>
      <trkpt lat="45.97868" lon="4.50709">
        <ele>310</ele>
        <time>2020-06-11T04:03:58Z</time>
      </trkpt>
      <trkpt lat="45.97848" lon="4.50747">
        <ele>311</ele>
        <time>2020-06-11T04:04:03Z</time>
      </trkpt>
      <trkpt lat="45.97831" lon="4.50764">
        <ele>312</ele>
        <time>2020-06-11T04:04:07Z</time>
      </trkpt>
      <trkpt lat="45.9778" lon="4.50798">
        <ele>312</ele>
        <time>2020-06-11T04:04:17Z</time>
      </trkpt>
      <trkpt lat="45.97762" lon="4.50806">
        <ele>312</ele>
        <time>2020-06-11T04:04:20Z</time>
      </trkpt>
      <trkpt lat="45.97746" lon="4.50809">
        <ele>311</ele>
        <time>2020-06-11T04:04:23Z</time>
      </trkpt>
      <trkpt lat="45.97716" lon="4.50806">
        <ele>311</ele>
        <time>2020-06-11T04:04:29Z</time>
      </trkpt>
      <trkpt lat="45.97686" lon="4.50797">
        <ele>309</ele>
        <time>2020-06-11T04:04:34Z</time>
      </trkpt>
      <trkpt lat="45.97658" lon="4.50793">
        <ele>308</ele>
        <time>2020-06-11T04:04:39Z</time>
      </trkpt>
      <trkpt lat="45.9765" lon="4.50792">
        <ele>308</ele>
        <time>2020-06-11T04:04:41Z</time>
      </trkpt>
      <trkpt lat="45.97629" lon="4.50795">
        <ele>307</ele>
        <time>2020-06-11T04:04:44Z</time>
      </trkpt>
      <trkpt lat="45.97605" lon="4.50802">
        <ele>308</ele>
        <time>2020-06-11T04:04:49Z</time>
      </trkpt>
      <trkpt lat="45.97591" lon="4.50809">
        <ele>308</ele>
        <time>2020-06-11T04:04:51Z</time>
      </trkpt>
      <trkpt lat="45.97522" lon="4.50851">
        <ele>310</ele>
        <time>2020-06-11T04:05:05Z</time>
      </trkpt>
      <trkpt lat="45.97466" lon="4.50872">
        <ele>309</ele>
        <time>2020-06-11T04:05:15Z</time>
      </trkpt>
      <trkpt lat="45.97395" lon="4.50907">
        <ele>310</ele>
        <time>2020-06-11T04:05:28Z</time>
      </trkpt>
      <trkpt lat="45.97363" lon="4.50922">
        <ele>309</ele>
        <time>2020-06-11T04:05:34Z</time>
      </trkpt>
      <trkpt lat="45.97347" lon="4.50929">
        <ele>309</ele>
        <time>2020-06-11T04:05:37Z</time>
      </trkpt>
      <trkpt lat="45.9731" lon="4.50938">
        <ele>309</ele>
        <time>2020-06-11T04:05:44Z</time>
      </trkpt>
      <trkpt lat="45.97294" lon="4.50939">
        <ele>309</ele>
        <time>2020-06-11T04:05:47Z</time>
      </trkpt>
      <trkpt lat="45.97277" lon="4.50935">
        <ele>309</ele>
        <time>2020-06-11T04:05:50Z</time>
      </trkpt>
      <trkpt lat="45.97266" lon="4.50931">
        <ele>309</ele>
        <time>2020-06-11T04:05:52Z</time>
      </trkpt>
      <trkpt lat="45.97246" lon="4.5092">
        <ele>309</ele>
        <time>2020-06-11T04:05:56Z</time>
      </trkpt>
      <trkpt lat="45.97214" lon="4.50895">
        <ele>308</ele>
        <time>2020-06-11T04:06:02Z</time>
      </trkpt>
      <trkpt lat="45.97192" lon="4.50882">
        <ele>308</ele>
        <time>2020-06-11T04:06:06Z</time>
      </trkpt>
      <trkpt lat="45.9717" lon="4.50875">
        <ele>307</ele>
        <time>2020-06-11T04:06:10Z</time>
      </trkpt>
      <trkpt lat="45.97148" lon="4.50875">
        <ele>307</ele>
        <time>2020-06-11T04:06:14Z</time>
      </trkpt>
      <trkpt lat="45.97127" lon="4.50878">
        <ele>307</ele>
        <time>2020-06-11T04:06:18Z</time>
      </trkpt>
      <trkpt lat="45.97085" lon="4.50893">
        <ele>308</ele>
        <time>2020-06-11T04:06:26Z</time>
      </trkpt>
      <trkpt lat="45.96995" lon="4.50931">
        <ele>306</ele>
        <time>2020-06-11T04:06:42Z</time>
      </trkpt>
      <trkpt lat="45.96961" lon="4.50943">
        <ele>307</ele>
        <time>2020-06-11T04:06:49Z</time>
      </trkpt>
      <trkpt lat="45.96941" lon="4.50946">
        <ele>307</ele>
        <time>2020-06-11T04:06:52Z</time>
      </trkpt>
      <trkpt lat="45.96914" lon="4.50945">
        <ele>305</ele>
        <time>2020-06-11T04:06:57Z</time>
      </trkpt>
      <trkpt lat="45.96892" lon="4.50941">
        <ele>305</ele>
        <time>2020-06-11T04:07:01Z</time>
      </trkpt>
      <trkpt lat="45.96863" lon="4.50937">
        <ele>304</ele>
        <time>2020-06-11T04:07:06Z</time>
      </trkpt>
      <trkpt lat="45.96839" lon="4.50939">
        <ele>304</ele>
        <time>2020-06-11T04:07:11Z</time>
      </trkpt>
      <trkpt lat="45.96766" lon="4.50963">
        <ele>304</ele>
        <time>2020-06-11T04:07:24Z</time>
      </trkpt>
      <trkpt lat="45.96745" lon="4.50967">
        <ele>303</ele>
        <time>2020-06-11T04:07:28Z</time>
      </trkpt>
      <trkpt lat="45.96672" lon="4.50973">
        <ele>300</ele>
        <time>2020-06-11T04:07:41Z</time>
      </trkpt>
      <trkpt lat="45.96647" lon="4.5098">
        <ele>299</ele>
        <time>2020-06-11T04:07:45Z</time>
      </trkpt>
      <trkpt lat="45.96625" lon="4.50994">
        <ele>299</ele>
        <time>2020-06-11T04:07:49Z</time>
      </trkpt>
      <trkpt lat="45.96601" lon="4.51018">
        <ele>300</ele>
        <time>2020-06-11T04:07:55Z</time>
      </trkpt>
      <trkpt lat="45.96565" lon="4.51057">
        <ele>301</ele>
        <time>2020-06-11T04:08:03Z</time>
      </trkpt>
      <trkpt lat="45.96518" lon="4.51112">
        <ele>299</ele>
        <time>2020-06-11T04:08:13Z</time>
      </trkpt>
      <trkpt lat="45.96467" lon="4.5116">
        <ele>296</ele>
        <time>2020-06-11T04:08:24Z</time>
      </trkpt>
      <trkpt lat="45.9644" lon="4.51189">
        <ele>296</ele>
        <time>2020-06-11T04:08:30Z</time>
      </trkpt>
      <trkpt lat="45.96328" lon="4.51287">
        <ele>298</ele>
        <time>2020-06-11T04:08:54Z</time>
      </trkpt>
      <trkpt lat="45.96298" lon="4.51318">
        <ele>297</ele>
        <time>2020-06-11T04:09:00Z</time>
      </trkpt>
      <trkpt lat="45.96272" lon="4.51349">
        <ele>296</ele>
        <time>2020-06-11T04:09:06Z</time>
      </trkpt>
      <trkpt lat="45.9625" lon="4.51393">
        <ele>295</ele>
        <time>2020-06-11T04:09:13Z</time>
      </trkpt>
      <trkpt lat="45.96173" lon="4.51568">
        <ele>293</ele>
        <time>2020-06-11T04:09:38Z</time>
      </trkpt>
      <trkpt lat="45.96171" lon="4.51573">
        <ele>293</ele>
        <time>2020-06-11T04:09:39Z</time>
      </trkpt>
      <trkpt lat="45.96138" lon="4.5164">
        <ele>292</ele>
        <time>2020-06-11T04:09:49Z</time>
      </trkpt>
      <trkpt lat="45.96121" lon="4.51666">
        <ele>291</ele>
        <time>2020-06-11T04:09:54Z</time>
      </trkpt>
      <trkpt lat="45.96112" lon="4.51679">
        <ele>292</ele>
        <time>2020-06-11T04:09:56Z</time>
      </trkpt>
      <trkpt lat="45.96036" lon="4.5174">
        <ele>291</ele>
        <time>2020-06-11T04:10:12Z</time>
      </trkpt>
      <trkpt lat="45.95972" lon="4.51802">
        <ele>291</ele>
        <time>2020-06-11T04:10:25Z</time>
      </trkpt>
      <trkpt lat="45.95915" lon="4.51872">
        <ele>288</ele>
        <time>2020-06-11T04:10:39Z</time>
      </trkpt>
      <trkpt lat="45.95878" lon="4.51925">
        <ele>287</ele>
        <time>2020-06-11T04:10:48Z</time>
      </trkpt>
      <trkpt lat="45.95845" lon="4.51987">
        <ele>284</ele>
        <time>2020-06-11T04:10:58Z</time>
      </trkpt>
      <trkpt lat="45.95784" lon="4.52107">
        <ele>286</ele>
        <time>2020-06-11T04:11:16Z</time>
      </trkpt>
      <trkpt lat="45.95767" lon="4.52138">
        <ele>286</ele>
        <time>2020-06-11T04:11:21Z</time>
      </trkpt>
      <trkpt lat="45.95722" lon="4.5222">
        <ele>287</ele>
        <time>2020-06-11T04:11:34Z</time>
      </trkpt>
      <trkpt lat="45.95653" lon="4.52323">
        <ele>286</ele>
        <time>2020-06-11T04:11:51Z</time>
      </trkpt>
      <trkpt lat="45.95643" lon="4.52333">
        <ele>286</ele>
        <time>2020-06-11T04:11:54Z</time>
      </trkpt>
      <trkpt lat="45.95611" lon="4.52364">
        <ele>287</ele>
        <time>2020-06-11T04:12:00Z</time>
      </trkpt>
      <trkpt lat="45.95556" lon="4.52413">
        <ele>288</ele>
        <time>2020-06-11T04:12:12Z</time>
      </trkpt>
      <trkpt lat="45.95505" lon="4.52457">
        <ele>290</ele>
        <time>2020-06-11T04:12:23Z</time>
      </trkpt>
      <trkpt lat="45.95429" lon="4.52534">
        <ele>288</ele>
        <time>2020-06-11T04:12:39Z</time>
      </trkpt>
      <trkpt lat="45.9536" lon="4.52607">
        <ele>287</ele>
        <time>2020-06-11T04:12:54Z</time>
      </trkpt>
      <trkpt lat="45.95303" lon="4.52667">
        <ele>288</ele>
        <time>2020-06-11T04:13:07Z</time>
      </trkpt>
      <trkpt lat="45.95245" lon="4.52719">
        <ele>286</ele>
        <time>2020-06-11T04:13:19Z</time>
      </trkpt>
      <trkpt lat="45.95181" lon="4.52772">
        <ele>287</ele>
        <time>2020-06-11T04:13:32Z</time>
      </trkpt>
      <trkpt lat="45.95049" lon="4.529">
        <ele>286</ele>
        <time>2020-06-11T04:14:01Z</time>
      </trkpt>
      <trkpt lat="45.94998" lon="4.52993">
        <ele>279</ele>
        <time>2020-06-11T04:14:15Z</time>
      </trkpt>
      <trkpt lat="45.95015" lon="4.52978">
        <ele>282</ele>
        <time>2020-06-11T04:14:19Z</time>
      </trkpt>
      <trkpt lat="45.95023" lon="4.52991">
        <ele>282</ele>
        <time>2020-06-11T04:14:21Z</time>
      </trkpt>
      <trkpt lat="45.95037" lon="4.52998">
        <ele>284</ele>
        <time>2020-06-11T04:14:24Z</time>
      </trkpt>
      <trkpt lat="45.95051" lon="4.53002">
        <ele>286</ele>
        <time>2020-06-11T04:14:26Z</time>
      </trkpt>
      <trkpt lat="45.95062" lon="4.52991">
        <ele>288</ele>
        <time>2020-06-11T04:14:28Z</time>
      </trkpt>
      <trkpt lat="45.9507" lon="4.52986">
        <ele>289</ele>
        <time>2020-06-11T04:14:30Z</time>
      </trkpt>
      <trkpt lat="45.95069" lon="4.52983">
        <ele>289</ele>
        <time>2020-06-11T04:14:30Z</time>
      </trkpt>
      <trkpt lat="45.9507" lon="4.52986">
        <ele>289</ele>
        <time>2020-06-11T04:14:31Z</time>
      </trkpt>
      <trkpt lat="45.95062" lon="4.52991">
        <ele>288</ele>
        <time>2020-06-11T04:14:32Z</time>
      </trkpt>
      <trkpt lat="45.95051" lon="4.53002">
        <ele>286</ele>
        <time>2020-06-11T04:14:35Z</time>
      </trkpt>
      <trkpt lat="45.95037" lon="4.52998">
        <ele>284</ele>
        <time>2020-06-11T04:14:37Z</time>
      </trkpt>
      <trkpt lat="45.95023" lon="4.52991">
        <ele>282</ele>
        <time>2020-06-11T04:14:40Z</time>
      </trkpt>
      <trkpt lat="45.95015" lon="4.52978">
        <ele>282</ele>
        <time>2020-06-11T04:14:42Z</time>
      </trkpt>
      <trkpt lat="45.94998" lon="4.52993">
        <ele>279</ele>
        <time>2020-06-11T04:14:46Z</time>
      </trkpt>
      <trkpt lat="45.94976" lon="4.53031">
        <ele>281</ele>
        <time>2020-06-11T04:14:52Z</time>
      </trkpt>
      <trkpt lat="45.94895" lon="4.53116">
        <ele>286</ele>
        <time>2020-06-11T04:15:10Z</time>
      </trkpt>
      <trkpt lat="45.9481" lon="4.53197">
        <ele>280</ele>
        <time>2020-06-11T04:15:28Z</time>
      </trkpt>
      <trkpt lat="45.94765" lon="4.53247">
        <ele>278</ele>
        <time>2020-06-11T04:15:38Z</time>
      </trkpt>
      <trkpt lat="45.94744" lon="4.53276">
        <ele>279</ele>
        <time>2020-06-11T04:15:43Z</time>
      </trkpt>
      <trkpt lat="45.94706" lon="4.53347">
        <ele>282</ele>
        <time>2020-06-11T04:15:54Z</time>
      </trkpt>
      <trkpt lat="45.94688" lon="4.53398">
        <ele>282</ele>
        <time>2020-06-11T04:16:01Z</time>
      </trkpt>
      <trkpt lat="45.94653" lon="4.53546">
        <ele>282</ele>
        <time>2020-06-11T04:16:21Z</time>
      </trkpt>
      <trkpt lat="45.94633" lon="4.53607">
        <ele>282</ele>
        <time>2020-06-11T04:16:29Z</time>
      </trkpt>
      <trkpt lat="45.94612" lon="4.53656">
        <ele>281</ele>
        <time>2020-06-11T04:16:36Z</time>
      </trkpt>
      <trkpt lat="45.94581" lon="4.53704">
        <ele>280</ele>
        <time>2020-06-11T04:16:44Z</time>
      </trkpt>
      <trkpt lat="45.94545" lon="4.53662">
        <ele>275</ele>
        <time>2020-06-11T04:16:52Z</time>
      </trkpt>
      <trkpt lat="45.94527" lon="4.5364">
        <ele>275</ele>
        <time>2020-06-11T04:16:57Z</time>
      </trkpt>
      <trkpt lat="45.94505" lon="4.53607">
        <ele>274</ele>
        <time>2020-06-11T04:17:02Z</time>
      </trkpt>
      <trkpt lat="45.94483" lon="4.53565">
        <ele>274</ele>
        <time>2020-06-11T04:17:09Z</time>
      </trkpt>
      <trkpt lat="45.9444" lon="4.53442">
        <ele>276</ele>
        <time>2020-06-11T04:17:26Z</time>
      </trkpt>
      <trkpt lat="45.94431" lon="4.53427">
        <ele>277</ele>
        <time>2020-06-11T04:17:28Z</time>
      </trkpt>
      <trkpt lat="45.9442" lon="4.53422">
        <ele>277</ele>
        <time>2020-06-11T04:17:30Z</time>
      </trkpt>
      <trkpt lat="45.94412" lon="4.53424">
        <ele>277</ele>
        <time>2020-06-11T04:17:32Z</time>
      </trkpt>
      <trkpt lat="45.94403" lon="4.53431">
        <ele>278</ele>
        <time>2020-06-11T04:17:34Z</time>
      </trkpt>
      <trkpt lat="45.94378" lon="4.53463">
        <ele>280</ele>
        <time>2020-06-11T04:17:39Z</time>
      </trkpt>
      <trkpt lat="45.9437" lon="4.53466">
        <ele>281</ele>
        <time>2020-06-11T04:17:41Z</time>
      </trkpt>
      <trkpt lat="45.94362" lon="4.53467">
        <ele>282</ele>
        <time>2020-06-11T04:17:42Z</time>
      </trkpt>
      <trkpt lat="45.94351" lon="4.53464">
        <ele>283</ele>
        <time>2020-06-11T04:17:44Z</time>
      </trkpt>
      <trkpt lat="45.94344" lon="4.53457">
        <ele>284</ele>
        <time>2020-06-11T04:17:46Z</time>
      </trkpt>
      <trkpt lat="45.94335" lon="4.53441">
        <ele>285</ele>
        <time>2020-06-11T04:17:48Z</time>
      </trkpt>
      <trkpt lat="45.94269" lon="4.5325">
        <ele>292</ele>
        <time>2020-06-11T04:18:15Z</time>
      </trkpt>
      <trkpt lat="45.94259" lon="4.5323">
        <ele>292</ele>
        <time>2020-06-11T04:18:18Z</time>
      </trkpt>
      <trkpt lat="45.94246" lon="4.53214">
        <ele>292</ele>
        <time>2020-06-11T04:18:21Z</time>
      </trkpt>
      <trkpt lat="45.94215" lon="4.53195">
        <ele>297</ele>
        <time>2020-06-11T04:18:27Z</time>
      </trkpt>
      <trkpt lat="45.94201" lon="4.53178">
        <ele>299</ele>
        <time>2020-06-11T04:18:30Z</time>
      </trkpt>
      <trkpt lat="45.94187" lon="4.53155">
        <ele>300</ele>
        <time>2020-06-11T04:18:34Z</time>
      </trkpt>
      <trkpt lat="45.94182" lon="4.53143">
        <ele>301</ele>
        <time>2020-06-11T04:18:36Z</time>
      </trkpt>
      <trkpt lat="45.94177" lon="4.53128">
        <ele>301</ele>
        <time>2020-06-11T04:18:38Z</time>
      </trkpt>
      <trkpt lat="45.94172" lon="4.53094">
        <ele>301</ele>
        <time>2020-06-11T04:18:42Z</time>
      </trkpt>
      <trkpt lat="45.94167" lon="4.53085">
        <ele>301</ele>
        <time>2020-06-11T04:18:43Z</time>
      </trkpt>
      <trkpt lat="45.94156" lon="4.53077">
        <ele>303</ele>
        <time>2020-06-11T04:18:46Z</time>
      </trkpt>
      <trkpt lat="45.94134" lon="4.53069">
        <ele>306</ele>
        <time>2020-06-11T04:18:50Z</time>
      </trkpt>
      <trkpt lat="45.94127" lon="4.53062">
        <ele>308</ele>
        <time>2020-06-11T04:18:51Z</time>
      </trkpt>
      <trkpt lat="45.94123" lon="4.5305">
        <ele>308</ele>
        <time>2020-06-11T04:18:53Z</time>
      </trkpt>
      <trkpt lat="45.94121" lon="4.53034">
        <ele>309</ele>
        <time>2020-06-11T04:18:55Z</time>
      </trkpt>
      <trkpt lat="45.94124" lon="4.5298">
        <ele>308</ele>
        <time>2020-06-11T04:19:02Z</time>
      </trkpt>
      <trkpt lat="45.9412" lon="4.52952">
        <ele>310</ele>
        <time>2020-06-11T04:19:05Z</time>
      </trkpt>
      <trkpt lat="45.94101" lon="4.52884">
        <ele>315</ele>
        <time>2020-06-11T04:19:14Z</time>
      </trkpt>
      <trkpt lat="45.94092" lon="4.52861">
        <ele>317</ele>
        <time>2020-06-11T04:19:17Z</time>
      </trkpt>
      <trkpt lat="45.94086" lon="4.52851">
        <ele>317</ele>
        <time>2020-06-11T04:19:19Z</time>
      </trkpt>
      <trkpt lat="45.94072" lon="4.5284">
        <ele>319</ele>
        <time>2020-06-11T04:19:22Z</time>
      </trkpt>
      <trkpt lat="45.94059" lon="4.52837">
        <ele>322</ele>
        <time>2020-06-11T04:19:24Z</time>
      </trkpt>
      <trkpt lat="45.94047" lon="4.52839">
        <ele>324</ele>
        <time>2020-06-11T04:19:26Z</time>
      </trkpt>
      <trkpt lat="45.94036" lon="4.52846">
        <ele>326</ele>
        <time>2020-06-11T04:19:29Z</time>
      </trkpt>
      <trkpt lat="45.94029" lon="4.52854">
        <ele>327</ele>
        <time>2020-06-11T04:19:30Z</time>
      </trkpt>
      <trkpt lat="45.94009" lon="4.52901">
        <ele>330</ele>
        <time>2020-06-11T04:19:37Z</time>
      </trkpt>
      <trkpt lat="45.93998" lon="4.52917">
        <ele>331</ele>
        <time>2020-06-11T04:19:40Z</time>
      </trkpt>
      <trkpt lat="45.93981" lon="4.52935">
        <ele>333</ele>
        <time>2020-06-11T04:19:43Z</time>
      </trkpt>
      <trkpt lat="45.93913" lon="4.52994">
        <ele>339</ele>
        <time>2020-06-11T04:19:58Z</time>
      </trkpt>
      <trkpt lat="45.93878" lon="4.53018">
        <ele>342</ele>
        <time>2020-06-11T04:20:05Z</time>
      </trkpt>
      <trkpt lat="45.9386" lon="4.53029">
        <ele>343</ele>
        <time>2020-06-11T04:20:08Z</time>
      </trkpt>
      <trkpt lat="45.93837" lon="4.53038">
        <ele>345</ele>
        <time>2020-06-11T04:20:12Z</time>
      </trkpt>
      <trkpt lat="45.93823" lon="4.53048">
        <ele>347</ele>
        <time>2020-06-11T04:20:15Z</time>
      </trkpt>
      <trkpt lat="45.93812" lon="4.53067">
        <ele>347</ele>
        <time>2020-06-11T04:20:18Z</time>
      </trkpt>
      <trkpt lat="45.93804" lon="4.53093">
        <ele>346</ele>
        <time>2020-06-11T04:20:22Z</time>
      </trkpt>
      <trkpt lat="45.93797" lon="4.53128">
        <ele>347</ele>
        <time>2020-06-11T04:20:26Z</time>
      </trkpt>
      <trkpt lat="45.93792" lon="4.53159">
        <ele>347</ele>
        <time>2020-06-11T04:20:30Z</time>
      </trkpt>
      <trkpt lat="45.93785" lon="4.53212">
        <ele>348</ele>
        <time>2020-06-11T04:20:37Z</time>
      </trkpt>
      <trkpt lat="45.93776" lon="4.53247">
        <ele>351</ele>
        <time>2020-06-11T04:20:41Z</time>
      </trkpt>
      <trkpt lat="45.93769" lon="4.53266">
        <ele>352</ele>
        <time>2020-06-11T04:20:44Z</time>
      </trkpt>
      <trkpt lat="45.93754" lon="4.53292">
        <ele>356</ele>
        <time>2020-06-11T04:20:48Z</time>
      </trkpt>
      <trkpt lat="45.9373" lon="4.53324">
        <ele>362</ele>
        <time>2020-06-11T04:20:54Z</time>
      </trkpt>
      <trkpt lat="45.93725" lon="4.53337">
        <ele>363</ele>
        <time>2020-06-11T04:20:56Z</time>
      </trkpt>
      <trkpt lat="45.93725" lon="4.53348">
        <ele>364</ele>
        <time>2020-06-11T04:20:57Z</time>
      </trkpt>
      <trkpt lat="45.93726" lon="4.53361">
        <ele>364</ele>
        <time>2020-06-11T04:20:59Z</time>
      </trkpt>
      <trkpt lat="45.93735" lon="4.53415">
        <ele>362</ele>
        <time>2020-06-11T04:21:06Z</time>
      </trkpt>
      <trkpt lat="45.93743" lon="4.53469">
        <ele>363</ele>
        <time>2020-06-11T04:21:13Z</time>
      </trkpt>
      <trkpt lat="45.93742" lon="4.53504">
        <ele>364</ele>
        <time>2020-06-11T04:21:17Z</time>
      </trkpt>
      <trkpt lat="45.93731" lon="4.53535">
        <ele>365</ele>
        <time>2020-06-11T04:21:21Z</time>
      </trkpt>
      <trkpt lat="45.93717" lon="4.53566">
        <ele>368</ele>
        <time>2020-06-11T04:21:26Z</time>
      </trkpt>
      <trkpt lat="45.93697" lon="4.53601">
        <ele>370</ele>
        <time>2020-06-11T04:21:31Z</time>
      </trkpt>
      <trkpt lat="45.9368" lon="4.53628">
        <ele>372</ele>
        <time>2020-06-11T04:21:36Z</time>
      </trkpt>
      <trkpt lat="45.93638" lon="4.53681">
        <ele>374</ele>
        <time>2020-06-11T04:21:46Z</time>
      </trkpt>
      <trkpt lat="45.93629" lon="4.53689">
        <ele>374</ele>
        <time>2020-06-11T04:21:48Z</time>
      </trkpt>
      <trkpt lat="45.9361" lon="4.53692">
        <ele>376</ele>
        <time>2020-06-11T04:21:51Z</time>
      </trkpt>
      <trkpt lat="45.93567" lon="4.53681">
        <ele>383</ele>
        <time>2020-06-11T04:21:59Z</time>
      </trkpt>
      <trkpt lat="45.93547" lon="4.53678">
        <ele>385</ele>
        <time>2020-06-11T04:22:02Z</time>
      </trkpt>
      <trkpt lat="45.93527" lon="4.53678">
        <ele>387</ele>
        <time>2020-06-11T04:22:06Z</time>
      </trkpt>
      <trkpt lat="45.9347" lon="4.53695">
        <ele>388</ele>
        <time>2020-06-11T04:22:16Z</time>
      </trkpt>
      <trkpt lat="45.93456" lon="4.53695">
        <ele>390</ele>
        <time>2020-06-11T04:22:19Z</time>
      </trkpt>
      <trkpt lat="45.93415" lon="4.53686">
        <ele>396</ele>
        <time>2020-06-11T04:22:26Z</time>
      </trkpt>
      <trkpt lat="45.93404" lon="4.53687">
        <ele>397</ele>
        <time>2020-06-11T04:22:28Z</time>
      </trkpt>
      <trkpt lat="45.93398" lon="4.53689">
        <ele>397</ele>
        <time>2020-06-11T04:22:29Z</time>
      </trkpt>
      <trkpt lat="45.93392" lon="4.53696">
        <ele>396</ele>
        <time>2020-06-11T04:22:31Z</time>
      </trkpt>
      <trkpt lat="45.93376" lon="4.53727">
        <ele>395</ele>
        <time>2020-06-11T04:22:35Z</time>
      </trkpt>
      <trkpt lat="45.9336" lon="4.53747">
        <ele>395</ele>
        <time>2020-06-11T04:22:39Z</time>
      </trkpt>
      <trkpt lat="45.9334" lon="4.53766">
        <ele>397</ele>
        <time>2020-06-11T04:22:43Z</time>
      </trkpt>
      <trkpt lat="45.93325" lon="4.53777">
        <ele>397</ele>
        <time>2020-06-11T04:22:46Z</time>
      </trkpt>
      <trkpt lat="45.93257" lon="4.53803">
        <ele>398</ele>
        <time>2020-06-11T04:22:59Z</time>
      </trkpt>
      <trkpt lat="45.93244" lon="4.53806">
        <ele>398</ele>
        <time>2020-06-11T04:23:01Z</time>
      </trkpt>
      <trkpt lat="45.93226" lon="4.53803">
        <ele>400</ele>
        <time>2020-06-11T04:23:05Z</time>
      </trkpt>
      <trkpt lat="45.93213" lon="4.53797">
        <ele>401</ele>
        <time>2020-06-11T04:23:07Z</time>
      </trkpt>
      <trkpt lat="45.93203" lon="4.53789">
        <ele>401</ele>
        <time>2020-06-11T04:23:09Z</time>
      </trkpt>
      <trkpt lat="45.9318" lon="4.53755">
        <ele>402</ele>
        <time>2020-06-11T04:23:15Z</time>
      </trkpt>
      <trkpt lat="45.93171" lon="4.53731">
        <ele>401</ele>
        <time>2020-06-11T04:23:18Z</time>
      </trkpt>
      <trkpt lat="45.93166" lon="4.53712">
        <ele>400</ele>
        <time>2020-06-11T04:23:21Z</time>
      </trkpt>
      <trkpt lat="45.93164" lon="4.53675">
        <ele>398</ele>
        <time>2020-06-11T04:23:25Z</time>
      </trkpt>
      <trkpt lat="45.93166" lon="4.53655">
        <ele>397</ele>
        <time>2020-06-11T04:23:28Z</time>
      </trkpt>
      <trkpt lat="45.9322" lon="4.53419">
        <ele>387</ele>
        <time>2020-06-11T04:23:59Z</time>
      </trkpt>
      <trkpt lat="45.93226" lon="4.53377">
        <ele>386</ele>
        <time>2020-06-11T04:24:04Z</time>
      </trkpt>
      <trkpt lat="45.93229" lon="4.53336">
        <ele>384</ele>
        <time>2020-06-11T04:24:09Z</time>
      </trkpt>
      <trkpt lat="45.93228" lon="4.53293">
        <ele>384</ele>
        <time>2020-06-11T04:24:14Z</time>
      </trkpt>
      <trkpt lat="45.93223" lon="4.53252">
        <ele>383</ele>
        <time>2020-06-11T04:24:19Z</time>
      </trkpt>
      <trkpt lat="45.93216" lon="4.5323">
        <ele>384</ele>
        <time>2020-06-11T04:24:22Z</time>
      </trkpt>
      <trkpt lat="45.9321" lon="4.53216">
        <ele>384</ele>
        <time>2020-06-11T04:24:25Z</time>
      </trkpt>
      <trkpt lat="45.932" lon="4.53206">
        <ele>384</ele>
        <time>2020-06-11T04:24:27Z</time>
      </trkpt>
      <trkpt lat="45.9319" lon="4.53201">
        <ele>385</ele>
        <time>2020-06-11T04:24:29Z</time>
      </trkpt>
      <trkpt lat="45.93179" lon="4.532">
        <ele>385</ele>
        <time>2020-06-11T04:24:31Z</time>
      </trkpt>
      <trkpt lat="45.93159" lon="4.53204">
        <ele>386</ele>
        <time>2020-06-11T04:24:34Z</time>
      </trkpt>
      <trkpt lat="45.93136" lon="4.53214">
        <ele>388</ele>
        <time>2020-06-11T04:24:38Z</time>
      </trkpt>
      <trkpt lat="45.93082" lon="4.5325">
        <ele>389</ele>
        <time>2020-06-11T04:24:49Z</time>
      </trkpt>
      <trkpt lat="45.93023" lon="4.53298">
        <ele>390</ele>
        <time>2020-06-11T04:25:01Z</time>
      </trkpt>
      <trkpt lat="45.92952" lon="4.53383">
        <ele>382</ele>
        <time>2020-06-11T04:25:17Z</time>
      </trkpt>
      <trkpt lat="45.92896" lon="4.53426">
        <ele>377</ele>
        <time>2020-06-11T04:25:29Z</time>
      </trkpt>
      <trkpt lat="45.92854" lon="4.53424">
        <ele>377</ele>
        <time>2020-06-11T04:25:36Z</time>
      </trkpt>
      <trkpt lat="45.92834" lon="4.53408">
        <ele>379</ele>
        <time>2020-06-11T04:25:40Z</time>
      </trkpt>
      <trkpt lat="45.92814" lon="4.53371">
        <ele>382</ele>
        <time>2020-06-11T04:25:46Z</time>
      </trkpt>
      <trkpt lat="45.92782" lon="4.53373">
        <ele>382</ele>
        <time>2020-06-11T04:25:52Z</time>
      </trkpt>
      <trkpt lat="45.92687" lon="4.5344">
        <ele>378</ele>
        <time>2020-06-11T04:26:11Z</time>
      </trkpt>
      <trkpt lat="45.92643" lon="4.53487">
        <ele>376</ele>
        <time>2020-06-11T04:26:20Z</time>
      </trkpt>
      <trkpt lat="45.92558" lon="4.53539">
        <ele>379</ele>
        <time>2020-06-11T04:26:37Z</time>
      </trkpt>
      <trkpt lat="45.92505" lon="4.53587">
        <ele>377</ele>
        <time>2020-06-11T04:26:48Z</time>
      </trkpt>
      <trkpt lat="45.9246" lon="4.5363">
        <ele>376</ele>
        <time>2020-06-11T04:26:58Z</time>
      </trkpt>
      <trkpt lat="45.92414" lon="4.5366">
        <ele>377</ele>
        <time>2020-06-11T04:27:07Z</time>
      </trkpt>
      <trkpt lat="45.92366" lon="4.53677">
        <ele>376</ele>
        <time>2020-06-11T04:27:15Z</time>
      </trkpt>
      <trkpt lat="45.92307" lon="4.53695">
        <ele>376</ele>
        <time>2020-06-11T04:27:26Z</time>
      </trkpt>
      <trkpt lat="45.92301" lon="4.53688">
        <ele>376</ele>
        <time>2020-06-11T04:27:27Z</time>
      </trkpt>
      <trkpt lat="45.92291" lon="4.53662">
        <ele>376</ele>
        <time>2020-06-11T04:27:31Z</time>
      </trkpt>
      <trkpt lat="45.92288" lon="4.53643">
        <ele>376</ele>
        <time>2020-06-11T04:27:34Z</time>
      </trkpt>
      <trkpt lat="45.92287" lon="4.53624">
        <ele>375</ele>
        <time>2020-06-11T04:27:36Z</time>
      </trkpt>
      <trkpt lat="45.92289" lon="4.53603">
        <ele>375</ele>
        <time>2020-06-11T04:27:39Z</time>
      </trkpt>
      <trkpt lat="45.92436" lon="4.52984">
        <ele>368</ele>
        <time>2020-06-11T04:29:00Z</time>
      </trkpt>
      <trkpt lat="45.92443" lon="4.52953">
        <ele>369</ele>
        <time>2020-06-11T04:29:04Z</time>
      </trkpt>
      <trkpt lat="45.92443" lon="4.52941">
        <ele>369</ele>
        <time>2020-06-11T04:29:05Z</time>
      </trkpt>
      <trkpt lat="45.92441" lon="4.52928">
        <ele>369</ele>
        <time>2020-06-11T04:29:07Z</time>
      </trkpt>
      <trkpt lat="45.92434" lon="4.52915">
        <ele>369</ele>
        <time>2020-06-11T04:29:09Z</time>
      </trkpt>
      <trkpt lat="45.92428" lon="4.52906">
        <ele>369</ele>
        <time>2020-06-11T04:29:10Z</time>
      </trkpt>
      <trkpt lat="45.9242" lon="4.529">
        <ele>370</ele>
        <time>2020-06-11T04:29:12Z</time>
      </trkpt>
      <trkpt lat="45.92411" lon="4.52896">
        <ele>371</ele>
        <time>2020-06-11T04:29:14Z</time>
      </trkpt>
      <trkpt lat="45.92401" lon="4.52895">
        <ele>372</ele>
        <time>2020-06-11T04:29:15Z</time>
      </trkpt>
      <trkpt lat="45.92387" lon="4.52897">
        <ele>373</ele>
        <time>2020-06-11T04:29:18Z</time>
      </trkpt>
      <trkpt lat="45.92375" lon="4.52902">
        <ele>374</ele>
        <time>2020-06-11T04:29:20Z</time>
      </trkpt>
      <trkpt lat="45.92361" lon="4.52912">
        <ele>374</ele>
        <time>2020-06-11T04:29:23Z</time>
      </trkpt>
      <trkpt lat="45.92345" lon="4.52926">
        <ele>374</ele>
        <time>2020-06-11T04:29:26Z</time>
      </trkpt>
      <trkpt lat="45.92291" lon="4.5298">
        <ele>370</ele>
        <time>2020-06-11T04:29:38Z</time>
      </trkpt>
      <trkpt lat="45.92278" lon="4.52989">
        <ele>370</ele>
        <time>2020-06-11T04:29:40Z</time>
      </trkpt>
      <trkpt lat="45.92263" lon="4.52995">
        <ele>370</ele>
        <time>2020-06-11T04:29:43Z</time>
      </trkpt>
      <trkpt lat="45.9225" lon="4.52998">
        <ele>371</ele>
        <time>2020-06-11T04:29:46Z</time>
      </trkpt>
      <trkpt lat="45.9224" lon="4.52998">
        <ele>371</ele>
        <time>2020-06-11T04:29:47Z</time>
      </trkpt>
      <trkpt lat="45.9222" lon="4.5299">
        <ele>372</ele>
        <time>2020-06-11T04:29:51Z</time>
      </trkpt>
      <trkpt lat="45.92207" lon="4.52979">
        <ele>372</ele>
        <time>2020-06-11T04:29:54Z</time>
      </trkpt>
      <trkpt lat="45.92189" lon="4.52957">
        <ele>373</ele>
        <time>2020-06-11T04:29:58Z</time>
      </trkpt>
      <trkpt lat="45.9218" lon="4.52941">
        <ele>374</ele>
        <time>2020-06-11T04:30:00Z</time>
      </trkpt>
      <trkpt lat="45.92161" lon="4.52887">
        <ele>378</ele>
        <time>2020-06-11T04:30:08Z</time>
      </trkpt>
      <trkpt lat="45.92145" lon="4.52864">
        <ele>380</ele>
        <time>2020-06-11T04:30:12Z</time>
      </trkpt>
      <trkpt lat="45.9213" lon="4.52854">
        <ele>381</ele>
        <time>2020-06-11T04:30:15Z</time>
      </trkpt>
      <trkpt lat="45.92098" lon="4.52846">
        <ele>382</ele>
        <time>2020-06-11T04:30:21Z</time>
      </trkpt>
      <trkpt lat="45.92068" lon="4.52851">
        <ele>382</ele>
        <time>2020-06-11T04:30:26Z</time>
      </trkpt>
      <trkpt lat="45.92008" lon="4.52886">
        <ele>384</ele>
        <time>2020-06-11T04:30:38Z</time>
      </trkpt>
      <trkpt lat="45.91986" lon="4.52891">
        <ele>384</ele>
        <time>2020-06-11T04:30:42Z</time>
      </trkpt>
      <trkpt lat="45.91963" lon="4.52887">
        <ele>385</ele>
        <time>2020-06-11T04:30:46Z</time>
      </trkpt>
      <trkpt lat="45.91946" lon="4.52873">
        <ele>386</ele>
        <time>2020-06-11T04:30:49Z</time>
      </trkpt>
      <trkpt lat="45.91926" lon="4.52844">
        <ele>388</ele>
        <time>2020-06-11T04:30:54Z</time>
      </trkpt>
      <trkpt lat="45.91912" lon="4.52819">
        <ele>389</ele>
        <time>2020-06-11T04:30:58Z</time>
      </trkpt>
      <trkpt lat="45.91906" lon="4.52805">
        <ele>390</ele>
        <time>2020-06-11T04:31:00Z</time>
      </trkpt>
      <trkpt lat="45.91918" lon="4.5275">
        <ele>391</ele>
        <time>2020-06-11T04:31:07Z</time>
      </trkpt>
      <trkpt lat="45.91956" lon="4.52657">
        <ele>386</ele>
        <time>2020-06-11T04:31:21Z</time>
      </trkpt>
      <trkpt lat="45.91993" lon="4.5256">
        <ele>382</ele>
        <time>2020-06-11T04:31:34Z</time>
      </trkpt>
      <trkpt lat="45.91996" lon="4.52538">
        <ele>381</ele>
        <time>2020-06-11T04:31:37Z</time>
      </trkpt>
      <trkpt lat="45.91998" lon="4.52512">
        <ele>379</ele>
        <time>2020-06-11T04:31:40Z</time>
      </trkpt>
      <trkpt lat="45.91992" lon="4.52398">
        <ele>376</ele>
        <time>2020-06-11T04:31:55Z</time>
      </trkpt>
      <trkpt lat="45.91992" lon="4.52341">
        <ele>374</ele>
        <time>2020-06-11T04:32:02Z</time>
      </trkpt>
      <trkpt lat="45.91997" lon="4.52283">
        <ele>371</ele>
        <time>2020-06-11T04:32:09Z</time>
      </trkpt>
      <trkpt lat="45.92003" lon="4.5224">
        <ele>370</ele>
        <time>2020-06-11T04:32:14Z</time>
      </trkpt>
      <trkpt lat="45.92013" lon="4.5219">
        <ele>367</ele>
        <time>2020-06-11T04:32:21Z</time>
      </trkpt>
      <trkpt lat="45.92036" lon="4.52101">
        <ele>368</ele>
        <time>2020-06-11T04:32:32Z</time>
      </trkpt>
      <trkpt lat="45.92067" lon="4.52024">
        <ele>366</ele>
        <time>2020-06-11T04:32:43Z</time>
      </trkpt>
      <trkpt lat="45.9207" lon="4.52">
        <ele>365</ele>
        <time>2020-06-11T04:32:46Z</time>
      </trkpt>
      <trkpt lat="45.9207" lon="4.51985">
        <ele>365</ele>
        <time>2020-06-11T04:32:48Z</time>
      </trkpt>
      <trkpt lat="45.92068" lon="4.5197">
        <ele>365</ele>
        <time>2020-06-11T04:32:50Z</time>
      </trkpt>
      <trkpt lat="45.92064" lon="4.51956">
        <ele>366</ele>
        <time>2020-06-11T04:32:52Z</time>
      </trkpt>
      <trkpt lat="45.92054" lon="4.51944">
        <ele>366</ele>
        <time>2020-06-11T04:32:54Z</time>
      </trkpt>
      <trkpt lat="45.9204" lon="4.51934">
        <ele>367</ele>
        <time>2020-06-11T04:32:57Z</time>
      </trkpt>
      <trkpt lat="45.9202" lon="4.5193">
        <ele>368</ele>
        <time>2020-06-11T04:33:01Z</time>
      </trkpt>
      <trkpt lat="45.92005" lon="4.51931">
        <ele>368</ele>
        <time>2020-06-11T04:33:03Z</time>
      </trkpt>
      <trkpt lat="45.9197" lon="4.5195">
        <ele>369</ele>
        <time>2020-06-11T04:33:10Z</time>
      </trkpt>
      <trkpt lat="45.91914" lon="4.52016">
        <ele>368</ele>
        <time>2020-06-11T04:33:23Z</time>
      </trkpt>
      <trkpt lat="45.91891" lon="4.52039">
        <ele>369</ele>
        <time>2020-06-11T04:33:28Z</time>
      </trkpt>
      <trkpt lat="45.91713" lon="4.52132">
        <ele>377</ele>
        <time>2020-06-11T04:34:02Z</time>
      </trkpt>
      <trkpt lat="45.91652" lon="4.52219">
        <ele>377</ele>
        <time>2020-06-11T04:34:17Z</time>
      </trkpt>
      <trkpt lat="45.91585" lon="4.52264">
        <ele>381</ele>
        <time>2020-06-11T04:34:30Z</time>
      </trkpt>
      <trkpt lat="45.91572" lon="4.52268">
        <ele>381</ele>
        <time>2020-06-11T04:34:33Z</time>
      </trkpt>
      <trkpt lat="45.91561" lon="4.52265">
        <ele>381</ele>
        <time>2020-06-11T04:34:35Z</time>
      </trkpt>
      <trkpt lat="45.91526" lon="4.52241">
        <ele>382</ele>
        <time>2020-06-11T04:34:41Z</time>
      </trkpt>
      <trkpt lat="45.91501" lon="4.52229">
        <ele>382</ele>
        <time>2020-06-11T04:34:46Z</time>
      </trkpt>
      <trkpt lat="45.91476" lon="4.52216">
        <ele>380</ele>
        <time>2020-06-11T04:34:51Z</time>
      </trkpt>
      <trkpt lat="45.91473" lon="4.52213">
        <ele>380</ele>
        <time>2020-06-11T04:34:51Z</time>
      </trkpt>
      <trkpt lat="45.91298" lon="4.52011">
        <ele>372</ele>
        <time>2020-06-11T04:35:31Z</time>
      </trkpt>
      <trkpt lat="45.91266" lon="4.51974">
        <ele>370</ele>
        <time>2020-06-11T04:35:39Z</time>
      </trkpt>
      <trkpt lat="45.9125" lon="4.5193">
        <ele>367</ele>
        <time>2020-06-11T04:35:45Z</time>
      </trkpt>
      <trkpt lat="45.91246" lon="4.51887">
        <ele>365</ele>
        <time>2020-06-11T04:35:50Z</time>
      </trkpt>
      <trkpt lat="45.91252" lon="4.51851">
        <ele>364</ele>
        <time>2020-06-11T04:35:55Z</time>
      </trkpt>
      <trkpt lat="45.91267" lon="4.51803">
        <ele>363</ele>
        <time>2020-06-11T04:36:01Z</time>
      </trkpt>
      <trkpt lat="45.91276" lon="4.51765">
        <ele>362</ele>
        <time>2020-06-11T04:36:06Z</time>
      </trkpt>
      <trkpt lat="45.91271" lon="4.51724">
        <ele>362</ele>
        <time>2020-06-11T04:36:11Z</time>
      </trkpt>
      <trkpt lat="45.91249" lon="4.51699">
        <ele>362</ele>
        <time>2020-06-11T04:36:16Z</time>
      </trkpt>
      <trkpt lat="45.9119" lon="4.51688">
        <ele>355</ele>
        <time>2020-06-11T04:36:27Z</time>
      </trkpt>
      <trkpt lat="45.91132" lon="4.51646">
        <ele>346</ele>
        <time>2020-06-11T04:36:39Z</time>
      </trkpt>
      <trkpt lat="45.91084" lon="4.5156">
        <ele>339</ele>
        <time>2020-06-11T04:36:52Z</time>
      </trkpt>
      <trkpt lat="45.91079" lon="4.51517">
        <ele>338</ele>
        <time>2020-06-11T04:36:58Z</time>
      </trkpt>
      <trkpt lat="45.91085" lon="4.515">
        <ele>339</ele>
        <time>2020-06-11T04:37:00Z</time>
      </trkpt>
      <trkpt lat="45.91087" lon="4.51473">
        <ele>340</ele>
        <time>2020-06-11T04:37:03Z</time>
      </trkpt>
      <trkpt lat="45.91069" lon="4.51415">
        <ele>338</ele>
        <time>2020-06-11T04:37:11Z</time>
      </trkpt>
      <trkpt lat="45.91044" lon="4.514">
        <ele>333</ele>
        <time>2020-06-11T04:37:16Z</time>
      </trkpt>
      <trkpt lat="45.91012" lon="4.51389">
        <ele>327</ele>
        <time>2020-06-11T04:37:22Z</time>
      </trkpt>
      <trkpt lat="45.90996" lon="4.51364">
        <ele>323</ele>
        <time>2020-06-11T04:37:26Z</time>
      </trkpt>
      <trkpt lat="45.90995" lon="4.51319">
        <ele>322</ele>
        <time>2020-06-11T04:37:32Z</time>
      </trkpt>
      <trkpt lat="45.91009" lon="4.51245">
        <ele>320</ele>
        <time>2020-06-11T04:37:41Z</time>
      </trkpt>
      <trkpt lat="45.91015" lon="4.51181">
        <ele>319</ele>
        <time>2020-06-11T04:37:49Z</time>
      </trkpt>
      <trkpt lat="45.91012" lon="4.51123">
        <ele>315</ele>
        <time>2020-06-11T04:37:56Z</time>
      </trkpt>
      <trkpt lat="45.91013" lon="4.51095">
        <ele>314</ele>
        <time>2020-06-11T04:38:00Z</time>
      </trkpt>
      <trkpt lat="45.91023" lon="4.51046">
        <ele>316</ele>
        <time>2020-06-11T04:38:06Z</time>
      </trkpt>
      <trkpt lat="45.91023" lon="4.5102">
        <ele>316</ele>
        <time>2020-06-11T04:38:09Z</time>
      </trkpt>
      <trkpt lat="45.91021" lon="4.51013">
        <ele>316</ele>
        <time>2020-06-11T04:38:10Z</time>
      </trkpt>
      <trkpt lat="45.91016" lon="4.51008">
        <ele>314</ele>
        <time>2020-06-11T04:38:11Z</time>
      </trkpt>
      <trkpt lat="45.91004" lon="4.50999">
        <ele>312</ele>
        <time>2020-06-11T04:38:14Z</time>
      </trkpt>
      <trkpt lat="45.90989" lon="4.50993">
        <ele>311</ele>
        <time>2020-06-11T04:38:17Z</time>
      </trkpt>
      <trkpt lat="45.90979" lon="4.50985">
        <ele>311</ele>
        <time>2020-06-11T04:38:19Z</time>
      </trkpt>
      <trkpt lat="45.90973" lon="4.50978">
        <ele>311</ele>
        <time>2020-06-11T04:38:20Z</time>
      </trkpt>
      <trkpt lat="45.90972" lon="4.5099">
        <ele>310</ele>
        <time>2020-06-11T04:38:21Z</time>
      </trkpt>
      <trkpt lat="45.9095" lon="4.50984">
        <ele>310</ele>
        <time>2020-06-11T04:38:25Z</time>
      </trkpt>
      <trkpt lat="45.90927" lon="4.50975">
        <ele>309</ele>
        <time>2020-06-11T04:38:30Z</time>
      </trkpt>
      <trkpt lat="45.9092" lon="4.50973">
        <ele>309</ele>
        <time>2020-06-11T04:38:31Z</time>
      </trkpt>
      <trkpt lat="45.90893" lon="4.50962">
        <ele>316</ele>
        <time>2020-06-11T04:38:36Z</time>
      </trkpt>
      <trkpt lat="45.90878" lon="4.50943">
        <ele>321</ele>
        <time>2020-06-11T04:38:40Z</time>
      </trkpt>
      <trkpt lat="45.90876" lon="4.50901">
        <ele>322</ele>
        <time>2020-06-11T04:38:45Z</time>
      </trkpt>
      <trkpt lat="45.9088" lon="4.5081">
        <ele>322</ele>
        <time>2020-06-11T04:38:56Z</time>
      </trkpt>
      <trkpt lat="45.90879" lon="4.50731">
        <ele>324</ele>
        <time>2020-06-11T04:39:06Z</time>
      </trkpt>
      <trkpt lat="45.9088" lon="4.50648">
        <ele>327</ele>
        <time>2020-06-11T04:39:16Z</time>
      </trkpt>
      <trkpt lat="45.90887" lon="4.50596">
        <ele>327</ele>
        <time>2020-06-11T04:39:23Z</time>
      </trkpt>
      <trkpt lat="45.9088" lon="4.5055">
        <ele>330</ele>
        <time>2020-06-11T04:39:28Z</time>
      </trkpt>
      <trkpt lat="45.90884" lon="4.50484">
        <ele>332</ele>
        <time>2020-06-11T04:39:37Z</time>
      </trkpt>
      <trkpt lat="45.90888" lon="4.50457">
        <ele>334</ele>
        <time>2020-06-11T04:39:40Z</time>
      </trkpt>
      <trkpt lat="45.90888" lon="4.5042">
        <ele>337</ele>
        <time>2020-06-11T04:39:45Z</time>
      </trkpt>
      <trkpt lat="45.90883" lon="4.50378">
        <ele>340</ele>
        <time>2020-06-11T04:39:50Z</time>
      </trkpt>
      <trkpt lat="45.90871" lon="4.50328">
        <ele>344</ele>
        <time>2020-06-11T04:39:57Z</time>
      </trkpt>
      <trkpt lat="45.90862" lon="4.50172">
        <ele>358</ele>
        <time>2020-06-11T04:40:16Z</time>
      </trkpt>
      <trkpt lat="45.90847" lon="4.50085">
        <ele>361</ele>
        <time>2020-06-11T04:40:27Z</time>
      </trkpt>
      <trkpt lat="45.90833" lon="4.49982">
        <ele>358</ele>
        <time>2020-06-11T04:40:40Z</time>
      </trkpt>
      <trkpt lat="45.90815" lon="4.49931">
        <ele>359</ele>
        <time>2020-06-11T04:40:47Z</time>
      </trkpt>
      <trkpt lat="45.90796" lon="4.49915">
        <ele>361</ele>
        <time>2020-06-11T04:40:51Z</time>
      </trkpt>
      <trkpt lat="45.90773" lon="4.49915">
        <ele>363</ele>
        <time>2020-06-11T04:40:55Z</time>
      </trkpt>
      <trkpt lat="45.90713" lon="4.49954">
        <ele>369</ele>
        <time>2020-06-11T04:41:07Z</time>
      </trkpt>
      <trkpt lat="45.90709" lon="4.49957">
        <ele>369</ele>
        <time>2020-06-11T04:41:08Z</time>
      </trkpt>
      <trkpt lat="45.90505" lon="4.50105">
        <ele>383</ele>
        <time>2020-06-11T04:41:48Z</time>
      </trkpt>
      <trkpt lat="45.90462" lon="4.50127">
        <ele>384</ele>
        <time>2020-06-11T04:41:56Z</time>
      </trkpt>
      <trkpt lat="45.90432" lon="4.50121">
        <ele>385</ele>
        <time>2020-06-11T04:42:02Z</time>
      </trkpt>
      <trkpt lat="45.9041" lon="4.50097">
        <ele>386</ele>
        <time>2020-06-11T04:42:07Z</time>
      </trkpt>
      <trkpt lat="45.90391" lon="4.50068">
        <ele>388</ele>
        <time>2020-06-11T04:42:12Z</time>
      </trkpt>
      <trkpt lat="45.9038" lon="4.5003">
        <ele>390</ele>
        <time>2020-06-11T04:42:17Z</time>
      </trkpt>
      <trkpt lat="45.90379" lon="4.50004">
        <ele>390</ele>
        <time>2020-06-11T04:42:20Z</time>
      </trkpt>
      <trkpt lat="45.90379" lon="4.49971">
        <ele>392</ele>
        <time>2020-06-11T04:42:24Z</time>
      </trkpt>
      <trkpt lat="45.90398" lon="4.49797">
        <ele>401</ele>
        <time>2020-06-11T04:42:46Z</time>
      </trkpt>
      <trkpt lat="45.90406" lon="4.49741">
        <ele>404</ele>
        <time>2020-06-11T04:42:53Z</time>
      </trkpt>
      <trkpt lat="45.90394" lon="4.49738">
        <ele>404</ele>
        <time>2020-06-11T04:42:55Z</time>
      </trkpt>
      <trkpt lat="45.90313" lon="4.49739">
        <ele>399</ele>
        <time>2020-06-11T04:43:09Z</time>
      </trkpt>
      <trkpt lat="45.90256" lon="4.49756">
        <ele>392</ele>
        <time>2020-06-11T04:43:20Z</time>
      </trkpt>
      <trkpt lat="45.90224" lon="4.4976">
        <ele>391</ele>
        <time>2020-06-11T04:43:26Z</time>
      </trkpt>
      <trkpt lat="45.90192" lon="4.49754">
        <ele>390</ele>
        <time>2020-06-11T04:43:31Z</time>
      </trkpt>
      <trkpt lat="45.90137" lon="4.49704">
        <ele>391</ele>
        <time>2020-06-11T04:43:43Z</time>
      </trkpt>
      <trkpt lat="45.90105" lon="4.49659">
        <ele>393</ele>
        <time>2020-06-11T04:43:51Z</time>
      </trkpt>
      <trkpt lat="45.90067" lon="4.49622">
        <ele>397</ele>
        <time>2020-06-11T04:43:59Z</time>
      </trkpt>
      <trkpt lat="45.90029" lon="4.49538">
        <ele>406</ele>
        <time>2020-06-11T04:44:11Z</time>
      </trkpt>
      <trkpt lat="45.90006" lon="4.4948">
        <ele>411</ele>
        <time>2020-06-11T04:44:20Z</time>
      </trkpt>
      <trkpt lat="45.8997" lon="4.49434">
        <ele>417</ele>
        <time>2020-06-11T04:44:28Z</time>
      </trkpt>
      <trkpt lat="45.89938" lon="4.49401">
        <ele>421</ele>
        <time>2020-06-11T04:44:35Z</time>
      </trkpt>
      <trkpt lat="45.89892" lon="4.49375">
        <ele>428</ele>
        <time>2020-06-11T04:44:44Z</time>
      </trkpt>
      <trkpt lat="45.89867" lon="4.49342">
        <ele>432</ele>
        <time>2020-06-11T04:44:50Z</time>
      </trkpt>
      <trkpt lat="45.89826" lon="4.49298">
        <ele>437</ele>
        <time>2020-06-11T04:44:59Z</time>
      </trkpt>
      <trkpt lat="45.89769" lon="4.4925">
        <ele>444</ele>
        <time>2020-06-11T04:45:11Z</time>
      </trkpt>
      <trkpt lat="45.89716" lon="4.49171">
        <ele>451</ele>
        <time>2020-06-11T04:45:25Z</time>
      </trkpt>
      <trkpt lat="45.89704" lon="4.49162">
        <ele>453</ele>
        <time>2020-06-11T04:45:27Z</time>
      </trkpt>
      <trkpt lat="45.89669" lon="4.49146">
        <ele>460</ele>
        <time>2020-06-11T04:45:33Z</time>
      </trkpt>
      <trkpt lat="45.89662" lon="4.49133">
        <ele>462</ele>
        <time>2020-06-11T04:45:36Z</time>
      </trkpt>
      <trkpt lat="45.89647" lon="4.4914">
        <ele>462</ele>
        <time>2020-06-11T04:45:38Z</time>
      </trkpt>
      <trkpt lat="45.8962" lon="4.49143">
        <ele>463</ele>
        <time>2020-06-11T04:45:43Z</time>
      </trkpt>
      <trkpt lat="45.89543" lon="4.49161">
        <ele>464</ele>
        <time>2020-06-11T04:45:57Z</time>
      </trkpt>
      <trkpt lat="45.89465" lon="4.49184">
        <ele>463</ele>
        <time>2020-06-11T04:46:11Z</time>
      </trkpt>
      <trkpt lat="45.89441" lon="4.49195">
        <ele>462</ele>
        <time>2020-06-11T04:46:16Z</time>
      </trkpt>
      <trkpt lat="45.894" lon="4.4922">
        <ele>461</ele>
        <time>2020-06-11T04:46:24Z</time>
      </trkpt>
      <trkpt lat="45.89385" lon="4.49227">
        <ele>462</ele>
        <time>2020-06-11T04:46:26Z</time>
      </trkpt>
      <trkpt lat="45.89369" lon="4.4923">
        <ele>463</ele>
        <time>2020-06-11T04:46:29Z</time>
      </trkpt>
      <trkpt lat="45.89352" lon="4.4923">
        <ele>464</ele>
        <time>2020-06-11T04:46:32Z</time>
      </trkpt>
      <trkpt lat="45.89339" lon="4.49226">
        <ele>465</ele>
        <time>2020-06-11T04:46:35Z</time>
      </trkpt>
      <trkpt lat="45.89328" lon="4.49218">
        <ele>465</ele>
        <time>2020-06-11T04:46:37Z</time>
      </trkpt>
      <trkpt lat="45.8932" lon="4.49209">
        <ele>465</ele>
        <time>2020-06-11T04:46:39Z</time>
      </trkpt>
      <trkpt lat="45.89274" lon="4.49137">
        <ele>466</ele>
        <time>2020-06-11T04:46:51Z</time>
      </trkpt>
      <trkpt lat="45.89258" lon="4.49119">
        <ele>466</ele>
        <time>2020-06-11T04:46:54Z</time>
      </trkpt>
      <trkpt lat="45.89239" lon="4.49105">
        <ele>467</ele>
        <time>2020-06-11T04:46:58Z</time>
      </trkpt>
      <trkpt lat="45.89218" lon="4.49095">
        <ele>468</ele>
        <time>2020-06-11T04:47:02Z</time>
      </trkpt>
      <trkpt lat="45.89194" lon="4.49093">
        <ele>469</ele>
        <time>2020-06-11T04:47:06Z</time>
      </trkpt>
      <trkpt lat="45.89166" lon="4.49099">
        <ele>469</ele>
        <time>2020-06-11T04:47:11Z</time>
      </trkpt>
      <trkpt lat="45.8914" lon="4.49115">
        <ele>470</ele>
        <time>2020-06-11T04:47:16Z</time>
      </trkpt>
      <trkpt lat="45.89126" lon="4.49129">
        <ele>470</ele>
        <time>2020-06-11T04:47:19Z</time>
      </trkpt>
      <trkpt lat="45.89119" lon="4.49153">
        <ele>469</ele>
        <time>2020-06-11T04:47:23Z</time>
      </trkpt>
      <trkpt lat="45.89118" lon="4.49206">
        <ele>467</ele>
        <time>2020-06-11T04:47:29Z</time>
      </trkpt>
      <trkpt lat="45.89116" lon="4.49221">
        <ele>466</ele>
        <time>2020-06-11T04:47:31Z</time>
      </trkpt>
      <trkpt lat="45.89107" lon="4.49254">
        <ele>465</ele>
        <time>2020-06-11T04:47:36Z</time>
      </trkpt>
      <trkpt lat="45.89082" lon="4.49315">
        <ele>462</ele>
        <time>2020-06-11T04:47:44Z</time>
      </trkpt>
      <trkpt lat="45.89069" lon="4.49345">
        <ele>460</ele>
        <time>2020-06-11T04:47:49Z</time>
      </trkpt>
      <trkpt lat="45.89054" lon="4.49369">
        <ele>458</ele>
        <time>2020-06-11T04:47:53Z</time>
      </trkpt>
      <trkpt lat="45.89042" lon="4.49382">
        <ele>458</ele>
        <time>2020-06-11T04:47:55Z</time>
      </trkpt>
      <trkpt lat="45.89017" lon="4.494">
        <ele>458</ele>
        <time>2020-06-11T04:48:00Z</time>
      </trkpt>
      <trkpt lat="45.89007" lon="4.49403">
        <ele>458</ele>
        <time>2020-06-11T04:48:02Z</time>
      </trkpt>
      <trkpt lat="45.88996" lon="4.49402">
        <ele>458</ele>
        <time>2020-06-11T04:48:04Z</time>
      </trkpt>
      <trkpt lat="45.88986" lon="4.49398">
        <ele>457</ele>
        <time>2020-06-11T04:48:06Z</time>
      </trkpt>
      <trkpt lat="45.8897" lon="4.49381">
        <ele>457</ele>
        <time>2020-06-11T04:48:10Z</time>
      </trkpt>
      <trkpt lat="45.88958" lon="4.49365">
        <ele>456</ele>
        <time>2020-06-11T04:48:12Z</time>
      </trkpt>
      <trkpt lat="45.88952" lon="4.4939">
        <ele>455</ele>
        <time>2020-06-11T04:48:16Z</time>
      </trkpt>
      <trkpt lat="45.88951" lon="4.49405">
        <ele>454</ele>
        <time>2020-06-11T04:48:18Z</time>
      </trkpt>
      <trkpt lat="45.88952" lon="4.4942">
        <ele>453</ele>
        <time>2020-06-11T04:48:19Z</time>
      </trkpt>
      <trkpt lat="45.88957" lon="4.49433">
        <ele>452</ele>
        <time>2020-06-11T04:48:21Z</time>
      </trkpt>
      <trkpt lat="45.88964" lon="4.49442">
        <ele>452</ele>
        <time>2020-06-11T04:48:23Z</time>
      </trkpt>
      <trkpt lat="45.8898" lon="4.49456">
        <ele>452</ele>
        <time>2020-06-11T04:48:26Z</time>
      </trkpt>
      <trkpt lat="45.88992" lon="4.49471">
        <ele>451</ele>
        <time>2020-06-11T04:48:29Z</time>
      </trkpt>
      <trkpt lat="45.89004" lon="4.49494">
        <ele>450</ele>
        <time>2020-06-11T04:48:33Z</time>
      </trkpt>
      <trkpt lat="45.89024" lon="4.49539">
        <ele>445</ele>
        <time>2020-06-11T04:48:39Z</time>
      </trkpt>
      <trkpt lat="45.89029" lon="4.49556">
        <ele>443</ele>
        <time>2020-06-11T04:48:42Z</time>
      </trkpt>
      <trkpt lat="45.89032" lon="4.49573">
        <ele>441</ele>
        <time>2020-06-11T04:48:44Z</time>
      </trkpt>
      <trkpt lat="45.89035" lon="4.49643">
        <ele>438</ele>
        <time>2020-06-11T04:48:52Z</time>
      </trkpt>
      <trkpt lat="45.89064" lon="4.4963">
        <ele>440</ele>
        <time>2020-06-11T04:48:58Z</time>
      </trkpt>
      <trkpt lat="45.89108" lon="4.49603">
        <ele>440</ele>
        <time>2020-06-11T04:49:06Z</time>
      </trkpt>
      <trkpt lat="45.89121" lon="4.49593">
        <ele>440</ele>
        <time>2020-06-11T04:49:09Z</time>
      </trkpt>
      <trkpt lat="45.89128" lon="4.49582">
        <ele>439</ele>
        <time>2020-06-11T04:49:11Z</time>
      </trkpt>
      <trkpt lat="45.89131" lon="4.49569">
        <ele>440</ele>
        <time>2020-06-11T04:49:13Z</time>
      </trkpt>
      <trkpt lat="45.89135" lon="4.49515">
        <ele>441</ele>
        <time>2020-06-11T04:49:19Z</time>
      </trkpt>
      <trkpt lat="45.89137" lon="4.49463">
        <ele>444</ele>
        <time>2020-06-11T04:49:26Z</time>
      </trkpt>
      <trkpt lat="45.89135" lon="4.4945">
        <ele>445</ele>
        <time>2020-06-11T04:49:27Z</time>
      </trkpt>
      <trkpt lat="45.89122" lon="4.49396">
        <ele>451</ele>
        <time>2020-06-11T04:49:34Z</time>
      </trkpt>
    </trkseg>
  </trk>
</gpx>